﻿<?xml version="1.0" encoding="utf-8"?><gpx creator="Garmin Desktop App" version="1.1" xsi:schemaLocation="http://www.topografix.com/GPX/1/1 http://www.topografix.com/GPX/1/1/gpx.xsd http://www.garmin.com/xmlschemas/WaypointExtension/v1 http://www8.garmin.com/xmlschemas/WaypointExtensionv1.xsd http://www.garmin.com/xmlschemas/TrackPointExtension/v1 http://www.garmin.com/xmlschemas/TrackPointExtensionv1.xsd http://www.garmin.com/xmlschemas/GpxExtensions/v3 http://www8.garmin.com/xmlschemas/GpxExtensionsv3.xsd http://www.garmin.com/xmlschemas/ActivityExtension/v1 http://www8.garmin.com/xmlschemas/ActivityExtensionv1.xsd http://www.garmin.com/xmlschemas/AdventuresExtensions/v1 http://www8.garmin.com/xmlschemas/AdventuresExtensionv1.xsd http://www.garmin.com/xmlschemas/PressureExtension/v1 http://www.garmin.com/xmlschemas/PressureExtensionv1.xsd http://www.garmin.com/xmlschemas/TripExtensions/v1 http://www.garmin.com/xmlschemas/TripExtensionsv1.xsd http://www.garmin.com/xmlschemas/TripMetaDataExtensions/v1 http://www.garmin.com/xmlschemas/TripMetaDataExtensionsv1.xsd http://www.garmin.com/xmlschemas/ViaPointTransportationModeExtensions/v1 http://www.garmin.com/xmlschemas/ViaPointTransportationModeExtensionsv1.xsd http://www.garmin.com/xmlschemas/CreationTimeExtension/v1 http://www.garmin.com/xmlschemas/CreationTimeExtensionsv1.xsd http://www.garmin.com/xmlschemas/AccelerationExtension/v1 http://www.garmin.com/xmlschemas/AccelerationExtensionv1.xsd http://www.garmin.com/xmlschemas/PowerExtension/v1 http://www.garmin.com/xmlschemas/PowerExtensionv1.xsd http://www.garmin.com/xmlschemas/VideoExtension/v1 http://www.garmin.com/xmlschemas/VideoExtensionv1.xsd" xmlns="http://www.topografix.com/GPX/1/1" xmlns:xsi="http://www.w3.org/2001/XMLSchema-instance" xmlns:wptx1="http://www.garmin.com/xmlschemas/WaypointExtension/v1" xmlns:gpxtrx="http://www.garmin.com/xmlschemas/GpxExtensions/v3" xmlns:gpxtpx="http://www.garmin.com/xmlschemas/TrackPointExtension/v1" xmlns:gpxx="http://www.garmin.com/xmlschemas/GpxExtensions/v3" xmlns:trp="http://www.garmin.com/xmlschemas/TripExtensions/v1" xmlns:adv="http://www.garmin.com/xmlschemas/AdventuresExtensions/v1" xmlns:prs="http://www.garmin.com/xmlschemas/PressureExtension/v1" xmlns:tmd="http://www.garmin.com/xmlschemas/TripMetaDataExtensions/v1" xmlns:vptm="http://www.garmin.com/xmlschemas/ViaPointTransportationModeExtensions/v1" xmlns:ctx="http://www.garmin.com/xmlschemas/CreationTimeExtension/v1" xmlns:gpxacc="http://www.garmin.com/xmlschemas/AccelerationExtension/v1" xmlns:gpxpx="http://www.garmin.com/xmlschemas/PowerExtension/v1" xmlns:vidx1="http://www.garmin.com/xmlschemas/VideoExtension/v1">

  <metadata>
    <link href="http://www.garmin.com">
      <text>Garmin International</text>
    </link>
    <time>2023-08-19T19:42:07Z</time>
    <bounds maxlat="58.643928961828351" maxlon="-3.026219001039863" minlat="57.329685017466545" minlon="-4.367747968062758" />
  </metadata>

  <trk>
    <name>Track vom: 2023-08-19 08:57</name>
    <extensions>
      <gpxx:TrackExtension>
        <gpxx:DisplayColor>DarkGray</gpxx:DisplayColor>
      </gpxx:TrackExtension>
    </extensions>
    <trkseg>
      <trkpt lat="57.329685017466545" lon="-3.609856031835079">
        <ele>227.00999999999999</ele>
        <time>2023-08-19T07:57:18Z</time>
      </trkpt>
      <trkpt lat="57.329908981919289" lon="-3.61095598898828">
        <ele>222.68000000000001</ele>
        <time>2023-08-19T07:58:19Z</time>
      </trkpt>
      <trkpt lat="57.329836981371045" lon="-3.610910978168249">
        <ele>222.19999999999999</ele>
        <time>2023-08-19T07:58:55Z</time>
      </trkpt>
      <trkpt lat="57.329901019111276" lon="-3.611090015619993">
        <ele>227.49000000000001</ele>
        <time>2023-08-19T07:59:04Z</time>
      </trkpt>
      <trkpt lat="57.330014007166028" lon="-3.610924975946546">
        <ele>227.97</ele>
        <time>2023-08-19T07:59:06Z</time>
      </trkpt>
      <trkpt lat="57.330036973580718" lon="-3.610979961231351">
        <ele>227.49000000000001</ele>
        <time>2023-08-19T07:59:07Z</time>
      </trkpt>
      <trkpt lat="57.33006102964282" lon="-3.611038969829679">
        <ele>227.49000000000001</ele>
        <time>2023-08-19T07:59:08Z</time>
      </trkpt>
      <trkpt lat="57.330087013542652" lon="-3.611098984256387">
        <ele>227.49000000000001</ele>
        <time>2023-08-19T07:59:09Z</time>
      </trkpt>
      <trkpt lat="57.330109979957342" lon="-3.611154975369573">
        <ele>227.49000000000001</ele>
        <time>2023-08-19T07:59:10Z</time>
      </trkpt>
      <trkpt lat="57.330134036019444" lon="-3.61121297813952">
        <ele>227.49000000000001</ele>
        <time>2023-08-19T07:59:11Z</time>
      </trkpt>
      <trkpt lat="57.330160019919276" lon="-3.611273998394609">
        <ele>227.00999999999999</ele>
        <time>2023-08-19T07:59:12Z</time>
      </trkpt>
      <trkpt lat="57.330241994932294" lon="-3.611468961462379">
        <ele>226.53</ele>
        <time>2023-08-19T07:59:15Z</time>
      </trkpt>
      <trkpt lat="57.330395970493555" lon="-3.61183600500226">
        <ele>226.05000000000001</ele>
        <time>2023-08-19T07:59:24Z</time>
      </trkpt>
      <trkpt lat="57.3304040171206" lon="-3.611856959760189">
        <ele>226.05000000000001</ele>
        <time>2023-08-19T07:59:25Z</time>
      </trkpt>
      <trkpt lat="57.330432012677193" lon="-3.611866012215614">
        <ele>226.05000000000001</ele>
        <time>2023-08-19T07:59:26Z</time>
      </trkpt>
      <trkpt lat="57.330461014062166" lon="-3.611832987517119">
        <ele>225.56999999999999</ele>
        <time>2023-08-19T07:59:27Z</time>
      </trkpt>
      <trkpt lat="57.330845994874835" lon="-3.611358990892768">
        <ele>224.12</ele>
        <time>2023-08-19T07:59:32Z</time>
      </trkpt>
      <trkpt lat="57.330932999029756" lon="-3.611253965646029">
        <ele>223.63999999999999</ele>
        <time>2023-08-19T07:59:33Z</time>
      </trkpt>
      <trkpt lat="57.331424010917544" lon="-3.610662035644054">
        <ele>221.24000000000001</ele>
        <time>2023-08-19T07:59:40Z</time>
      </trkpt>
      <trkpt lat="57.331571029499173" lon="-3.610486015677452">
        <ele>219.80000000000001</ele>
        <time>2023-08-19T07:59:48Z</time>
      </trkpt>
      <trkpt lat="57.331589972600341" lon="-3.61046296544373">
        <ele>219.80000000000001</ele>
        <time>2023-08-19T07:59:49Z</time>
      </trkpt>
      <trkpt lat="57.33160799369216" lon="-3.610321981832385">
        <ele>219.31999999999999</ele>
        <time>2023-08-19T07:59:50Z</time>
      </trkpt>
      <trkpt lat="57.331579998135567" lon="-3.610246041789651">
        <ele>219.31999999999999</ele>
        <time>2023-08-19T07:59:51Z</time>
      </trkpt>
      <trkpt lat="57.3315420281142" lon="-3.610144034028053">
        <ele>218.84</ele>
        <time>2023-08-19T07:59:52Z</time>
      </trkpt>
      <trkpt lat="57.331498023122549" lon="-3.61002903431654">
        <ele>218.36000000000001</ele>
        <time>2023-08-19T07:59:53Z</time>
      </trkpt>
      <trkpt lat="57.331209015101194" lon="-3.60921498388052">
        <ele>217.40000000000001</ele>
        <time>2023-08-19T08:00:00Z</time>
      </trkpt>
      <trkpt lat="57.331170961260796" lon="-3.609104007482529">
        <ele>217.40000000000001</ele>
        <time>2023-08-19T08:00:01Z</time>
      </trkpt>
      <trkpt lat="57.331101978197694" lon="-3.608907032757998">
        <ele>217.40000000000001</ele>
        <time>2023-08-19T08:00:03Z</time>
      </trkpt>
      <trkpt lat="57.330945990979671" lon="-3.608450973406434">
        <ele>217.40000000000001</ele>
        <time>2023-08-19T08:00:08Z</time>
      </trkpt>
      <trkpt lat="57.330922018736601" lon="-3.6083750333637">
        <ele>217.40000000000001</ele>
        <time>2023-08-19T08:00:09Z</time>
      </trkpt>
      <trkpt lat="57.330908020958304" lon="-3.608329016715288">
        <ele>217.40000000000001</ele>
        <time>2023-08-19T08:00:10Z</time>
      </trkpt>
      <trkpt lat="57.33089997433126" lon="-3.608305966481566">
        <ele>217.88</ele>
        <time>2023-08-19T08:00:12Z</time>
      </trkpt>
      <trkpt lat="57.330891005694866" lon="-3.608276965096593">
        <ele>217.88</ele>
        <time>2023-08-19T08:00:20Z</time>
      </trkpt>
      <trkpt lat="57.330880025401711" lon="-3.608240000903606">
        <ele>218.36000000000001</ele>
        <time>2023-08-19T08:00:21Z</time>
      </trkpt>
      <trkpt lat="57.330897962674499" lon="-3.608066998422146">
        <ele>218.36000000000001</ele>
        <time>2023-08-19T08:00:22Z</time>
      </trkpt>
      <trkpt lat="57.330940961837769" lon="-3.608017964288592">
        <ele>218.36000000000001</ele>
        <time>2023-08-19T08:00:23Z</time>
      </trkpt>
      <trkpt lat="57.330992007628083" lon="-3.607957027852535">
        <ele>218.36000000000001</ele>
        <time>2023-08-19T08:00:24Z</time>
      </trkpt>
      <trkpt lat="57.33105001039803" lon="-3.607889972627163">
        <ele>218.36000000000001</ele>
        <time>2023-08-19T08:00:25Z</time>
      </trkpt>
      <trkpt lat="57.33177999034524" lon="-3.607009034603834">
        <ele>220.75999999999999</ele>
        <time>2023-08-19T08:00:35Z</time>
      </trkpt>
      <trkpt lat="57.332195984199643" lon="-3.606494972482324">
        <ele>220.75999999999999</ele>
        <time>2023-08-19T08:00:41Z</time>
      </trkpt>
      <trkpt lat="57.332262033596635" lon="-3.606411991640925">
        <ele>220.75999999999999</ele>
        <time>2023-08-19T08:00:42Z</time>
      </trkpt>
      <trkpt lat="57.332977009937167" lon="-3.605516972020268">
        <ele>222.19999999999999</ele>
        <time>2023-08-19T08:00:54Z</time>
      </trkpt>
      <trkpt lat="57.333686035126448" lon="-3.604697976261377">
        <ele>223.63999999999999</ele>
        <time>2023-08-19T08:01:06Z</time>
      </trkpt>
      <trkpt lat="57.333817966282368" lon="-3.604546012356877">
        <ele>223.63999999999999</ele>
        <time>2023-08-19T08:01:08Z</time>
      </trkpt>
      <trkpt lat="57.333884015679359" lon="-3.604469988495112">
        <ele>223.63999999999999</ele>
        <time>2023-08-19T08:01:09Z</time>
      </trkpt>
      <trkpt lat="57.334331022575498" lon="-3.604044020175934">
        <ele>222.68000000000001</ele>
        <time>2023-08-19T08:01:15Z</time>
      </trkpt>
      <trkpt lat="57.334412997588515" lon="-3.603973025456071">
        <ele>222.68000000000001</ele>
        <time>2023-08-19T08:01:16Z</time>
      </trkpt>
      <trkpt lat="57.334496984258294" lon="-3.603919968008995">
        <ele>222.19999999999999</ele>
        <time>2023-08-19T08:01:17Z</time>
      </trkpt>
      <trkpt lat="57.334589017555118" lon="-3.603904964402318">
        <ele>222.19999999999999</ele>
        <time>2023-08-19T08:01:18Z</time>
      </trkpt>
      <trkpt lat="57.334685996174812" lon="-3.603890966624022">
        <ele>221.72</ele>
        <time>2023-08-19T08:01:19Z</time>
      </trkpt>
      <trkpt lat="57.336232960224152" lon="-3.603697009384632">
        <ele>222.68000000000001</ele>
        <time>2023-08-19T08:01:33Z</time>
      </trkpt>
      <trkpt lat="57.337406007573009" lon="-3.60360799357295">
        <ele>225.09</ele>
        <time>2023-08-19T08:01:43Z</time>
      </trkpt>
      <trkpt lat="57.337652016431093" lon="-3.603646969422698">
        <ele>225.56999999999999</ele>
        <time>2023-08-19T08:01:45Z</time>
      </trkpt>
      <trkpt lat="57.337775984779" lon="-3.603667002171278">
        <ele>225.56999999999999</ele>
        <time>2023-08-19T08:01:46Z</time>
      </trkpt>
      <trkpt lat="57.338559022173285" lon="-3.603934971615672">
        <ele>226.53</ele>
        <time>2023-08-19T08:01:52Z</time>
      </trkpt>
      <trkpt lat="57.338688019663095" lon="-3.604018036276102">
        <ele>226.53</ele>
        <time>2023-08-19T08:01:53Z</time>
      </trkpt>
      <trkpt lat="57.338818022981286" lon="-3.604133035987616">
        <ele>227.00999999999999</ele>
        <time>2023-08-19T08:01:54Z</time>
      </trkpt>
      <trkpt lat="57.338937968015671" lon="-3.604260021820664">
        <ele>227.00999999999999</ele>
        <time>2023-08-19T08:01:55Z</time>
      </trkpt>
      <trkpt lat="57.339060008525848" lon="-3.604389019310474">
        <ele>227.49000000000001</ele>
        <time>2023-08-19T08:01:56Z</time>
      </trkpt>
      <trkpt lat="57.339177019894123" lon="-3.604533020406961">
        <ele>227.49000000000001</ele>
        <time>2023-08-19T08:01:57Z</time>
      </trkpt>
      <trkpt lat="57.339283972978592" lon="-3.604676015675068">
        <ele>227.97</ele>
        <time>2023-08-19T08:01:58Z</time>
      </trkpt>
      <trkpt lat="57.339827036485076" lon="-3.605430973693728">
        <ele>230.84999999999999</ele>
        <time>2023-08-19T08:02:03Z</time>
      </trkpt>
      <trkpt lat="57.340747034177184" lon="-3.606797978281975">
        <ele>234.69999999999999</ele>
        <time>2023-08-19T08:02:11Z</time>
      </trkpt>
      <trkpt lat="57.340876031666994" lon="-3.606937034055591">
        <ele>234.69999999999999</ele>
        <time>2023-08-19T08:02:12Z</time>
      </trkpt>
      <trkpt lat="57.341165961697698" lon="-3.607249008491635">
        <ele>235.18000000000001</ele>
        <time>2023-08-19T08:02:14Z</time>
      </trkpt>
      <trkpt lat="57.341293031349778" lon="-3.607314974069595">
        <ele>235.66</ele>
        <time>2023-08-19T08:02:15Z</time>
      </trkpt>
      <trkpt lat="57.341446001082659" lon="-3.607394015416503">
        <ele>235.66</ele>
        <time>2023-08-19T08:02:16Z</time>
      </trkpt>
      <trkpt lat="57.34192200936377" lon="-3.607594007626176">
        <ele>236.13999999999999</ele>
        <time>2023-08-19T08:02:19Z</time>
      </trkpt>
      <trkpt lat="57.34209300018847" lon="-3.607623009011149">
        <ele>236.13999999999999</ele>
        <time>2023-08-19T08:02:20Z</time>
      </trkpt>
      <trkpt lat="57.342987013980746" lon="-3.607773967087269">
        <ele>235.18000000000001</ele>
        <time>2023-08-19T08:02:26Z</time>
      </trkpt>
      <trkpt lat="57.34424295835197" lon="-3.608251987025142">
        <ele>234.22</ele>
        <time>2023-08-19T08:02:34Z</time>
      </trkpt>
      <trkpt lat="57.344405986368656" lon="-3.608319964259863">
        <ele>234.22</ele>
        <time>2023-08-19T08:02:35Z</time>
      </trkpt>
      <trkpt lat="57.345966026186943" lon="-3.608495984226465">
        <ele>241.91</ele>
        <time>2023-08-19T08:02:44Z</time>
      </trkpt>
      <trkpt lat="57.347724968567491" lon="-3.608653983101249">
        <ele>248.16</ele>
        <time>2023-08-19T08:02:54Z</time>
      </trkpt>
      <trkpt lat="57.349217031151056" lon="-3.608785998076201">
        <ele>255.84999999999999</ele>
        <time>2023-08-19T08:03:03Z</time>
      </trkpt>
      <trkpt lat="57.35023501329124" lon="-3.608885994181037">
        <ele>255.84999999999999</ele>
        <time>2023-08-19T08:03:09Z</time>
      </trkpt>
      <trkpt lat="57.351347962394357" lon="-3.609009040519595">
        <ele>255.84999999999999</ele>
        <time>2023-08-19T08:03:17Z</time>
      </trkpt>
      <trkpt lat="57.351775020360947" lon="-3.60910601913929">
        <ele>256.32999999999998</ele>
        <time>2023-08-19T08:03:21Z</time>
      </trkpt>
      <trkpt lat="57.351882979273796" lon="-3.609146000817418">
        <ele>256.32999999999998</ele>
        <time>2023-08-19T08:03:22Z</time>
      </trkpt>
      <trkpt lat="57.351985992863774" lon="-3.609207021072507">
        <ele>256.81</ele>
        <time>2023-08-19T08:03:23Z</time>
      </trkpt>
      <trkpt lat="57.35208397731185" lon="-3.609273992478848">
        <ele>258.25</ele>
        <time>2023-08-19T08:03:24Z</time>
      </trkpt>
      <trkpt lat="57.352183973416686" lon="-3.609342975541949">
        <ele>259.20999999999998</ele>
        <time>2023-08-19T08:03:25Z</time>
      </trkpt>
      <trkpt lat="57.35227600671351" lon="-3.609391003847122">
        <ele>260.17000000000002</ele>
        <time>2023-08-19T08:03:26Z</time>
      </trkpt>
      <trkpt lat="57.352387988939881" lon="-3.609359990805388">
        <ele>261.13999999999999</ele>
        <time>2023-08-19T08:03:27Z</time>
      </trkpt>
      <trkpt lat="57.352507011964917" lon="-3.609326966106892">
        <ele>262.10000000000002</ele>
        <time>2023-08-19T08:03:28Z</time>
      </trkpt>
      <trkpt lat="57.353633036836982" lon="-3.609244991093874">
        <ele>268.35000000000002</ele>
        <time>2023-08-19T08:03:36Z</time>
      </trkpt>
      <trkpt lat="57.355211013928056" lon="-3.609396032989025">
        <ele>277.48000000000002</ele>
        <time>2023-08-19T08:03:46Z</time>
      </trkpt>
      <trkpt lat="57.355557018890977" lon="-3.60942997969687">
        <ele>279.39999999999998</ele>
        <time>2023-08-19T08:03:48Z</time>
      </trkpt>
      <trkpt lat="57.355725998058915" lon="-3.609445989131928">
        <ele>279.88</ele>
        <time>2023-08-19T08:03:49Z</time>
      </trkpt>
      <trkpt lat="57.357199033722281" lon="-3.60936501994729">
        <ele>286.61000000000001</ele>
        <time>2023-08-19T08:03:58Z</time>
      </trkpt>
      <trkpt lat="57.358023980632424" lon="-3.609113981947303">
        <ele>289.97000000000003</ele>
        <time>2023-08-19T08:04:03Z</time>
      </trkpt>
      <trkpt lat="57.359523000195622" lon="-3.608916001394391">
        <ele>295.25999999999999</ele>
        <time>2023-08-19T08:04:12Z</time>
      </trkpt>
      <trkpt lat="57.360564032569528" lon="-3.608940979465842">
        <ele>296.22000000000003</ele>
        <time>2023-08-19T08:04:18Z</time>
      </trkpt>
      <trkpt lat="57.360732005909085" lon="-3.608951037749648">
        <ele>296.22000000000003</ele>
        <time>2023-08-19T08:04:19Z</time>
      </trkpt>
      <trkpt lat="57.361412029713392" lon="-3.609083974733949">
        <ele>295.74000000000001</ele>
        <time>2023-08-19T08:04:23Z</time>
      </trkpt>
      <trkpt lat="57.361576985567808" lon="-3.609129991382361">
        <ele>295.74000000000001</ele>
        <time>2023-08-19T08:04:24Z</time>
      </trkpt>
      <trkpt lat="57.362807029858232" lon="-3.609798029065132">
        <ele>297.67000000000002</ele>
        <time>2023-08-19T08:04:32Z</time>
      </trkpt>
      <trkpt lat="57.363096959888935" lon="-3.609961979091167">
        <ele>298.63</ele>
        <time>2023-08-19T08:04:34Z</time>
      </trkpt>
      <trkpt lat="57.36383599229157" lon="-3.610380990430713">
        <ele>302.94999999999999</ele>
        <time>2023-08-19T08:04:39Z</time>
      </trkpt>
      <trkpt lat="57.36398896202445" lon="-3.610467994585633">
        <ele>304.38999999999999</ele>
        <time>2023-08-19T08:04:40Z</time>
      </trkpt>
      <trkpt lat="57.365192016586661" lon="-3.611149024218321">
        <ele>313.05000000000001</ele>
        <time>2023-08-19T08:04:48Z</time>
      </trkpt>
      <trkpt lat="57.366588022559881" lon="-3.611870035529137">
        <ele>318.32999999999998</ele>
        <time>2023-08-19T08:04:57Z</time>
      </trkpt>
      <trkpt lat="57.367697032168508" lon="-3.612794978544116">
        <ele>319.77999999999997</ele>
        <time>2023-08-19T08:05:04Z</time>
      </trkpt>
      <trkpt lat="57.369025982916355" lon="-3.614573031663895">
        <ele>317.85000000000002</ele>
        <time>2023-08-19T08:05:13Z</time>
      </trkpt>
      <trkpt lat="57.36937902867794" lon="-3.615663014352322">
        <ele>317.37</ele>
        <time>2023-08-19T08:05:17Z</time>
      </trkpt>
      <trkpt lat="57.369450023397803" lon="-3.615959985181689">
        <ele>317.37</ele>
        <time>2023-08-19T08:05:18Z</time>
      </trkpt>
      <trkpt lat="57.370487032458186" lon="-3.619918003678322">
        <ele>317.37</ele>
        <time>2023-08-19T08:05:32Z</time>
      </trkpt>
      <trkpt lat="57.371260011568666" lon="-3.621540991589427">
        <ele>317.37</ele>
        <time>2023-08-19T08:05:39Z</time>
      </trkpt>
      <trkpt lat="57.371665025129914" lon="-3.622459983453155">
        <ele>316.88999999999999</ele>
        <time>2023-08-19T08:05:43Z</time>
      </trkpt>
      <trkpt lat="57.371767032891512" lon="-3.622697023674846">
        <ele>316.88999999999999</ele>
        <time>2023-08-19T08:05:44Z</time>
      </trkpt>
      <trkpt lat="57.371953027322888" lon="-3.623213013634086">
        <ele>316.88999999999999</ele>
        <time>2023-08-19T08:05:46Z</time>
      </trkpt>
      <trkpt lat="57.372232982888818" lon="-3.624005019664764">
        <ele>317.85000000000002</ele>
        <time>2023-08-19T08:05:49Z</time>
      </trkpt>
      <trkpt lat="57.372320992872119" lon="-3.62425203435123">
        <ele>317.85000000000002</ele>
        <time>2023-08-19T08:05:50Z</time>
      </trkpt>
      <trkpt lat="57.372949970886111" lon="-3.626032015308738">
        <ele>317.85000000000002</ele>
        <time>2023-08-19T08:05:57Z</time>
      </trkpt>
      <trkpt lat="57.373499991372228" lon="-3.628355981782079">
        <ele>316.88999999999999</ele>
        <time>2023-08-19T08:06:05Z</time>
      </trkpt>
      <trkpt lat="57.374285962432623" lon="-3.630748009309173">
        <ele>323.13999999999999</ele>
        <time>2023-08-19T08:06:14Z</time>
      </trkpt>
      <trkpt lat="57.375542996451259" lon="-3.63291397690773">
        <ele>327.47000000000003</ele>
        <time>2023-08-19T08:06:24Z</time>
      </trkpt>
      <trkpt lat="57.375704012811184" lon="-3.633074993267655">
        <ele>327.47000000000003</ele>
        <time>2023-08-19T08:06:25Z</time>
      </trkpt>
      <trkpt lat="57.375865029171109" lon="-3.633236009627581">
        <ele>327.47000000000003</ele>
        <time>2023-08-19T08:06:26Z</time>
      </trkpt>
      <trkpt lat="57.376037025824189" lon="-3.633369030430913">
        <ele>326.99000000000001</ele>
        <time>2023-08-19T08:06:27Z</time>
      </trkpt>
      <trkpt lat="57.377656996250153" lon="-3.634403022006154">
        <ele>323.13999999999999</ele>
        <time>2023-08-19T08:06:36Z</time>
      </trkpt>
      <trkpt lat="57.38003795966506" lon="-3.635930959135294">
        <ele>316.41000000000003</ele>
        <time>2023-08-19T08:06:49Z</time>
      </trkpt>
      <trkpt lat="57.382309036329389" lon="-3.637487981468439">
        <ele>316.88999999999999</ele>
        <time>2023-08-19T08:07:01Z</time>
      </trkpt>
      <trkpt lat="57.384324967861176" lon="-3.638878958299756">
        <ele>318.81</ele>
        <time>2023-08-19T08:07:12Z</time>
      </trkpt>
      <trkpt lat="57.386223971843719" lon="-3.640190977603197">
        <ele>322.66000000000003</ele>
        <time>2023-08-19T08:07:23Z</time>
      </trkpt>
      <trkpt lat="57.388847004622221" lon="-3.641836009919643">
        <ele>323.13999999999999</ele>
        <time>2023-08-19T08:07:38Z</time>
      </trkpt>
      <trkpt lat="57.389746969565749" lon="-3.642095010727644">
        <ele>322.66000000000003</ele>
        <time>2023-08-19T08:07:43Z</time>
      </trkpt>
      <trkpt lat="57.390664033591747" lon="-3.642111020162702">
        <ele>321.69999999999999</ele>
        <time>2023-08-19T08:07:48Z</time>
      </trkpt>
      <trkpt lat="57.39084399305284" lon="-3.64217396825552">
        <ele>321.22000000000003</ele>
        <time>2023-08-19T08:07:49Z</time>
      </trkpt>
      <trkpt lat="57.391020013019443" lon="-3.642252003774047">
        <ele>321.22000000000003</ele>
        <time>2023-08-19T08:07:50Z</time>
      </trkpt>
      <trkpt lat="57.391183963045478" lon="-3.642403967678547">
        <ele>320.74000000000001</ele>
        <time>2023-08-19T08:07:51Z</time>
      </trkpt>
      <trkpt lat="57.391333999112248" lon="-3.642574036493897">
        <ele>320.25999999999999</ele>
        <time>2023-08-19T08:07:52Z</time>
      </trkpt>
      <trkpt lat="57.391468025743961" lon="-3.64279598928988">
        <ele>320.25999999999999</ele>
        <time>2023-08-19T08:07:53Z</time>
      </trkpt>
      <trkpt lat="57.391596017405391" lon="-3.643006039783359">
        <ele>319.77999999999997</ele>
        <time>2023-08-19T08:07:54Z</time>
      </trkpt>
      <trkpt lat="57.391717974096537" lon="-3.643178958445787">
        <ele>319.77999999999997</ele>
        <time>2023-08-19T08:07:55Z</time>
      </trkpt>
      <trkpt lat="57.391835991293192" lon="-3.643317008391023">
        <ele>319.77999999999997</ele>
        <time>2023-08-19T08:07:56Z</time>
      </trkpt>
      <trkpt lat="57.39196197129786" lon="-3.643417004495859">
        <ele>319.30000000000001</ele>
        <time>2023-08-19T08:07:57Z</time>
      </trkpt>
      <trkpt lat="57.392106978222728" lon="-3.6434839759022">
        <ele>318.81</ele>
        <time>2023-08-19T08:07:58Z</time>
      </trkpt>
      <trkpt lat="57.39226195961237" lon="-3.643555976450443">
        <ele>318.81</ele>
        <time>2023-08-19T08:07:59Z</time>
      </trkpt>
      <trkpt lat="57.393451016396284" lon="-3.644110020250082">
        <ele>316.88999999999999</ele>
        <time>2023-08-19T08:08:06Z</time>
      </trkpt>
      <trkpt lat="57.393558975309134" lon="-3.644295008853078">
        <ele>316.41000000000003</ele>
        <time>2023-08-19T08:08:07Z</time>
      </trkpt>
      <trkpt lat="57.393666012212634" lon="-3.644486032426357">
        <ele>316.41000000000003</ele>
        <time>2023-08-19T08:08:08Z</time>
      </trkpt>
      <trkpt lat="57.393756033852696" lon="-3.644721983000636">
        <ele>315.93000000000001</ele>
        <time>2023-08-19T08:08:09Z</time>
      </trkpt>
      <trkpt lat="57.393852006644011" lon="-3.644979977980256">
        <ele>315.44999999999999</ele>
        <time>2023-08-19T08:08:10Z</time>
      </trkpt>
      <trkpt lat="57.39468902349472" lon="-3.647174024954438">
        <ele>313.05000000000001</ele>
        <time>2023-08-19T08:08:17Z</time>
      </trkpt>
      <trkpt lat="57.395683033391833" lon="-3.649599999189377">
        <ele>312.08999999999997</ele>
        <time>2023-08-19T08:08:25Z</time>
      </trkpt>
      <trkpt lat="57.39664301276207" lon="-3.650854015722871">
        <ele>311.60000000000002</ele>
        <time>2023-08-19T08:08:31Z</time>
      </trkpt>
      <trkpt lat="57.397931981831789" lon="-3.651503026485443">
        <ele>310.16000000000003</ele>
        <time>2023-08-19T08:08:38Z</time>
      </trkpt>
      <trkpt lat="57.399433013051748" lon="-3.652500975877047">
        <ele>310.16000000000003</ele>
        <time>2023-08-19T08:08:47Z</time>
      </trkpt>
      <trkpt lat="57.402051016688347" lon="-3.655060976743698">
        <ele>308.72000000000003</ele>
        <time>2023-08-19T08:09:02Z</time>
      </trkpt>
      <trkpt lat="57.403697976842523" lon="-3.656348017975688">
        <ele>307.27999999999997</ele>
        <time>2023-08-19T08:09:11Z</time>
      </trkpt>
      <trkpt lat="57.404089998453856" lon="-3.656376013532281">
        <ele>307.75999999999999</ele>
        <time>2023-08-19T08:09:13Z</time>
      </trkpt>
      <trkpt lat="57.404252020642161" lon="-3.656386993825436">
        <ele>307.75999999999999</ele>
        <time>2023-08-19T08:09:14Z</time>
      </trkpt>
      <trkpt lat="57.404451007023454" lon="-3.656281968578696">
        <ele>308.24000000000001</ele>
        <time>2023-08-19T08:09:15Z</time>
      </trkpt>
      <trkpt lat="57.404630966484547" lon="-3.656185995787382">
        <ele>308.24000000000001</ele>
        <time>2023-08-19T08:09:16Z</time>
      </trkpt>
      <trkpt lat="57.404815033078194" lon="-3.656088011339307">
        <ele>308.24000000000001</ele>
        <time>2023-08-19T08:09:17Z</time>
      </trkpt>
      <trkpt lat="57.405153997242451" lon="-3.655789028853178">
        <ele>308.72000000000003</ele>
        <time>2023-08-19T08:09:19Z</time>
      </trkpt>
      <trkpt lat="57.405314007773995" lon="-3.655614014714956">
        <ele>308.72000000000003</ele>
        <time>2023-08-19T08:09:20Z</time>
      </trkpt>
      <trkpt lat="57.405465971678495" lon="-3.655434977263212">
        <ele>308.72000000000003</ele>
        <time>2023-08-19T08:09:21Z</time>
      </trkpt>
      <trkpt lat="57.406807998195291" lon="-3.653488028794527">
        <ele>308.72000000000003</ele>
        <time>2023-08-19T08:09:30Z</time>
      </trkpt>
      <trkpt lat="57.408052962273359" lon="-3.652747990563512">
        <ele>307.75999999999999</ele>
        <time>2023-08-19T08:09:37Z</time>
      </trkpt>
      <trkpt lat="57.40934201516211" lon="-3.6529990285635">
        <ele>309.68000000000001</ele>
        <time>2023-08-19T08:09:44Z</time>
      </trkpt>
      <trkpt lat="57.411716021597385" lon="-3.65405498072505">
        <ele>312.08999999999997</ele>
        <time>2023-08-19T08:09:56Z</time>
      </trkpt>
      <trkpt lat="57.414362020790577" lon="-3.655244037508965">
        <ele>312.56999999999999</ele>
        <time>2023-08-19T08:10:10Z</time>
      </trkpt>
      <trkpt lat="57.417024029418826" lon="-3.65643996745348">
        <ele>314.00999999999999</ele>
        <time>2023-08-19T08:10:24Z</time>
      </trkpt>
      <trkpt lat="57.420080993324518" lon="-3.65787603892386">
        <ele>309.68000000000001</ele>
        <time>2023-08-19T08:10:40Z</time>
      </trkpt>
      <trkpt lat="57.420238992199302" lon="-3.658035965636373">
        <ele>309.19999999999999</ele>
        <time>2023-08-19T08:10:41Z</time>
      </trkpt>
      <trkpt lat="57.420391961932182" lon="-3.658208968117833">
        <ele>308.24000000000001</ele>
        <time>2023-08-19T08:10:42Z</time>
      </trkpt>
      <trkpt lat="57.42182401008904" lon="-3.659823993220925">
        <ele>297.67000000000002</ele>
        <time>2023-08-19T08:10:50Z</time>
      </trkpt>
      <trkpt lat="57.422525994479656" lon="-3.660482978448272">
        <ele>291.89999999999998</ele>
        <time>2023-08-19T08:10:54Z</time>
      </trkpt>
      <trkpt lat="57.422680975869298" lon="-3.660551961511374">
        <ele>291.42000000000002</ele>
        <time>2023-08-19T08:10:55Z</time>
      </trkpt>
      <trkpt lat="57.422839980572462" lon="-3.660561013966799">
        <ele>290.94</ele>
        <time>2023-08-19T08:10:56Z</time>
      </trkpt>
      <trkpt lat="57.423000996932387" lon="-3.660568976774812">
        <ele>290.45999999999998</ele>
        <time>2023-08-19T08:10:57Z</time>
      </trkpt>
      <trkpt lat="57.423161007463932" lon="-3.660562019795179">
        <ele>290.45999999999998</ele>
        <time>2023-08-19T08:10:58Z</time>
      </trkpt>
      <trkpt lat="57.424129033461213" lon="-3.660513991490006">
        <ele>288.05000000000001</ele>
        <time>2023-08-19T08:11:04Z</time>
      </trkpt>
      <trkpt lat="57.424289966002107" lon="-3.660562019795179">
        <ele>288.05000000000001</ele>
        <time>2023-08-19T08:11:05Z</time>
      </trkpt>
      <trkpt lat="57.424457017332315" lon="-3.660610970109701">
        <ele>287.56999999999999</ele>
        <time>2023-08-19T08:11:06Z</time>
      </trkpt>
      <trkpt lat="57.425684966146946" lon="-3.660743990913034">
        <ele>287.08999999999997</ele>
        <time>2023-08-19T08:11:13Z</time>
      </trkpt>
      <trkpt lat="57.427065968513489" lon="-3.660345012322068">
        <ele>287.56999999999999</ele>
        <time>2023-08-19T08:11:21Z</time>
      </trkpt>
      <trkpt lat="57.428240021690726" lon="-3.65991996601224">
        <ele>288.05000000000001</ele>
        <time>2023-08-19T08:11:29Z</time>
      </trkpt>
      <trkpt lat="57.428367007523775" lon="-3.659865986555815">
        <ele>288.52999999999997</ele>
        <time>2023-08-19T08:11:30Z</time>
      </trkpt>
      <trkpt lat="57.429532008245587" lon="-3.659333987161517">
        <ele>289.00999999999999</ele>
        <time>2023-08-19T08:11:39Z</time>
      </trkpt>
      <trkpt lat="57.429763013496995" lon="-3.659194009378552">
        <ele>288.52999999999997</ele>
        <time>2023-08-19T08:11:41Z</time>
      </trkpt>
      <trkpt lat="57.429856974631548" lon="-3.659116979688406">
        <ele>288.05000000000001</ele>
        <time>2023-08-19T08:11:42Z</time>
      </trkpt>
      <trkpt lat="57.430083034560084" lon="-3.658977001905441">
        <ele>287.08999999999997</ele>
        <time>2023-08-19T08:11:45Z</time>
      </trkpt>
      <trkpt lat="57.430137014016509" lon="-3.658997034654021">
        <ele>287.08999999999997</ele>
        <time>2023-08-19T08:11:46Z</time>
      </trkpt>
      <trkpt lat="57.430193005129695" lon="-3.65901798941195">
        <ele>286.61000000000001</ele>
        <time>2023-08-19T08:11:47Z</time>
      </trkpt>
      <trkpt lat="57.430226029828191" lon="-3.659092001616955">
        <ele>286.61000000000001</ele>
        <time>2023-08-19T08:11:48Z</time>
      </trkpt>
      <trkpt lat="57.430245978757739" lon="-3.659216975793243">
        <ele>286.13</ele>
        <time>2023-08-19T08:11:49Z</time>
      </trkpt>
      <trkpt lat="57.4302670173347" lon="-3.659349996596575">
        <ele>285.64999999999998</ele>
        <time>2023-08-19T08:11:50Z</time>
      </trkpt>
      <trkpt lat="57.43029098957777" lon="-3.659496009349823">
        <ele>285.17000000000002</ele>
        <time>2023-08-19T08:11:51Z</time>
      </trkpt>
      <trkpt lat="57.430300964042544" lon="-3.660060027614236">
        <ele>284.69</ele>
        <time>2023-08-19T08:11:54Z</time>
      </trkpt>
      <trkpt lat="57.430287972092628" lon="-3.660278040915728">
        <ele>284.20999999999998</ele>
        <time>2023-08-19T08:11:55Z</time>
      </trkpt>
      <trkpt lat="57.430041963234544" lon="-3.662464041262865">
        <ele>282.76999999999998</ele>
        <time>2023-08-19T08:12:03Z</time>
      </trkpt>
      <trkpt lat="57.429713979363441" lon="-3.665257981047034">
        <ele>283.25</ele>
        <time>2023-08-19T08:12:12Z</time>
      </trkpt>
      <trkpt lat="57.429710039868951" lon="-3.665795009583235">
        <ele>283.25</ele>
        <time>2023-08-19T08:12:14Z</time>
      </trkpt>
      <trkpt lat="57.429738035425544" lon="-3.666054010391235">
        <ele>283.25</ele>
        <time>2023-08-19T08:12:15Z</time>
      </trkpt>
      <trkpt lat="57.430211026221514" lon="-3.669152967631817">
        <ele>284.20999999999998</ele>
        <time>2023-08-19T08:12:26Z</time>
      </trkpt>
      <trkpt lat="57.430618973448873" lon="-3.671805001795292">
        <ele>288.52999999999997</ele>
        <time>2023-08-19T08:12:35Z</time>
      </trkpt>
      <trkpt lat="57.43114803917706" lon="-3.675050977617502">
        <ele>289.49000000000001</ele>
        <time>2023-08-19T08:12:45Z</time>
      </trkpt>
      <trkpt lat="57.431347025558352" lon="-3.676175996661186">
        <ele>285.17000000000002</ele>
        <time>2023-08-19T08:12:49Z</time>
      </trkpt>
      <trkpt lat="57.431430006399751" lon="-3.676431979984045">
        <ele>284.20999999999998</ele>
        <time>2023-08-19T08:12:50Z</time>
      </trkpt>
      <trkpt lat="57.432383028790355" lon="-3.679347038269043">
        <ele>279.88</ele>
        <time>2023-08-19T08:13:00Z</time>
      </trkpt>
      <trkpt lat="57.433525985106826" lon="-3.68228598497808">
        <ele>279.39999999999998</ele>
        <time>2023-08-19T08:13:11Z</time>
      </trkpt>
      <trkpt lat="57.433905014768243" lon="-3.68348803371191">
        <ele>279.39999999999998</ele>
        <time>2023-08-19T08:13:15Z</time>
      </trkpt>
      <trkpt lat="57.433969974517822" lon="-3.683809982612729">
        <ele>278.92000000000002</ele>
        <time>2023-08-19T08:13:16Z</time>
      </trkpt>
      <trkpt lat="57.434464003890753" lon="-3.687776969745755">
        <ele>277.95999999999998</ele>
        <time>2023-08-19T08:13:28Z</time>
      </trkpt>
      <trkpt lat="57.43473800830543" lon="-3.691125959157944">
        <ele>274.11000000000001</ele>
        <time>2023-08-19T08:13:38Z</time>
      </trkpt>
      <trkpt lat="57.435025004670024" lon="-3.69464099407196">
        <ele>274.58999999999997</ele>
        <time>2023-08-19T08:13:49Z</time>
      </trkpt>
      <trkpt lat="57.435304960235953" lon="-3.698067013174295">
        <ele>283.25</ele>
        <time>2023-08-19T08:14:00Z</time>
      </trkpt>
      <trkpt lat="57.435374027118087" lon="-3.69863597676158">
        <ele>285.17000000000002</ele>
        <time>2023-08-19T08:14:02Z</time>
      </trkpt>
      <trkpt lat="57.43544502183795" lon="-3.698885003104806">
        <ele>286.13</ele>
        <time>2023-08-19T08:14:03Z</time>
      </trkpt>
      <trkpt lat="57.435528002679348" lon="-3.699121959507465">
        <ele>287.08999999999997</ele>
        <time>2023-08-19T08:14:04Z</time>
      </trkpt>
      <trkpt lat="57.436110964044929" lon="-3.700492987409234">
        <ele>289.97000000000003</ele>
        <time>2023-08-19T08:14:10Z</time>
      </trkpt>
      <trkpt lat="57.436227975413203" lon="-3.700689962133765">
        <ele>290.94</ele>
        <time>2023-08-19T08:14:11Z</time>
      </trkpt>
      <trkpt lat="57.43637097068131" lon="-3.700820971280336">
        <ele>290.94</ele>
        <time>2023-08-19T08:14:12Z</time>
      </trkpt>
      <trkpt lat="57.43652100674808" lon="-3.700942005962133">
        <ele>291.42000000000002</ele>
        <time>2023-08-19T08:14:13Z</time>
      </trkpt>
      <trkpt lat="57.436675988137722" lon="-3.701066980138421">
        <ele>291.42000000000002</ele>
        <time>2023-08-19T08:14:14Z</time>
      </trkpt>
      <trkpt lat="57.436837004497647" lon="-3.701186003163457">
        <ele>291.42000000000002</ele>
        <time>2023-08-19T08:14:15Z</time>
      </trkpt>
      <trkpt lat="57.438898030668497" lon="-3.702216977253556">
        <ele>289.00999999999999</ele>
        <time>2023-08-19T08:14:26Z</time>
      </trkpt>
      <trkpt lat="57.441430035978556" lon="-3.70351298712194">
        <ele>284.69</ele>
        <time>2023-08-19T08:14:39Z</time>
      </trkpt>
      <trkpt lat="57.443442028015852" lon="-3.704597018659115">
        <ele>281.80000000000001</ele>
        <time>2023-08-19T08:14:50Z</time>
      </trkpt>
      <trkpt lat="57.445655018091202" lon="-3.705993024632335">
        <ele>277</ele>
        <time>2023-08-19T08:15:03Z</time>
      </trkpt>
      <trkpt lat="57.447082037106156" lon="-3.707534037530422">
        <ele>271.23000000000002</ele>
        <time>2023-08-19T08:15:12Z</time>
      </trkpt>
      <trkpt lat="57.448664959520102" lon="-3.709047976881266">
        <ele>265.45999999999998</ele>
        <time>2023-08-19T08:15:23Z</time>
      </trkpt>
      <trkpt lat="57.450030958279967" lon="-3.710419004783034">
        <ele>265.94</ele>
        <time>2023-08-19T08:15:33Z</time>
      </trkpt>
      <trkpt lat="57.451554033905268" lon="-3.712032018229365">
        <ele>268.35000000000002</ele>
        <time>2023-08-19T08:15:43Z</time>
      </trkpt>
      <trkpt lat="57.453347006812692" lon="-3.714007968083024">
        <ele>270.26999999999998</ele>
        <time>2023-08-19T08:15:55Z</time>
      </trkpt>
      <trkpt lat="57.455112989991903" lon="-3.71580496430397">
        <ele>270.75</ele>
        <time>2023-08-19T08:16:06Z</time>
      </trkpt>
      <trkpt lat="57.456541014835238" lon="-3.716756980866194">
        <ele>269.31</ele>
        <time>2023-08-19T08:16:14Z</time>
      </trkpt>
      <trkpt lat="57.458715029060841" lon="-3.717500036582351">
        <ele>265.94</ele>
        <time>2023-08-19T08:16:25Z</time>
      </trkpt>
      <trkpt lat="57.46064999140799" lon="-3.718023989349604">
        <ele>260.64999999999998</ele>
        <time>2023-08-19T08:16:35Z</time>
      </trkpt>
      <trkpt lat="57.463366985321045" lon="-3.718836028128862">
        <ele>251.52000000000001</ele>
        <time>2023-08-19T08:16:49Z</time>
      </trkpt>
      <trkpt lat="57.466329988092184" lon="-3.719913018867374">
        <ele>243.83000000000001</ele>
        <time>2023-08-19T08:17:04Z</time>
      </trkpt>
      <trkpt lat="57.468135030940175" lon="-3.720670994371176">
        <ele>239.99000000000001</ele>
        <time>2023-08-19T08:17:13Z</time>
      </trkpt>
      <trkpt lat="57.47036000713706" lon="-3.722287025302649">
        <ele>234.22</ele>
        <time>2023-08-19T08:17:25Z</time>
      </trkpt>
      <trkpt lat="57.472668970003724" lon="-3.72437596321106">
        <ele>230.37</ele>
        <time>2023-08-19T08:17:38Z</time>
      </trkpt>
      <trkpt lat="57.474669981747866" lon="-3.726273961365223">
        <ele>226.53</ele>
        <time>2023-08-19T08:17:50Z</time>
      </trkpt>
      <trkpt lat="57.4759909696877" lon="-3.727410966530442">
        <ele>222.68000000000001</ele>
        <time>2023-08-19T08:17:58Z</time>
      </trkpt>
      <trkpt lat="57.477351017296314" lon="-3.728384021669626">
        <ele>220.28</ele>
        <time>2023-08-19T08:18:06Z</time>
      </trkpt>
      <trkpt lat="57.478518029674888" lon="-3.72903797775507">
        <ele>217.40000000000001</ele>
        <time>2023-08-19T08:18:13Z</time>
      </trkpt>
      <trkpt lat="57.480231961235404" lon="-3.729650024324656">
        <ele>212.11000000000001</ele>
        <time>2023-08-19T08:18:22Z</time>
      </trkpt>
      <trkpt lat="57.481714971363544" lon="-3.730105999857187">
        <ele>202.49000000000001</ele>
        <time>2023-08-19T08:18:30Z</time>
      </trkpt>
      <trkpt lat="57.482772013172507" lon="-3.730315966531634">
        <ele>192.88</ele>
        <time>2023-08-19T08:18:37Z</time>
      </trkpt>
      <trkpt lat="57.48404597863555" lon="-3.730314038693905">
        <ele>179.41999999999999</ele>
        <time>2023-08-19T08:18:46Z</time>
      </trkpt>
      <trkpt lat="57.485438967123628" lon="-3.730662977322936">
        <ele>174.13999999999999</ele>
        <time>2023-08-19T08:18:54Z</time>
      </trkpt>
      <trkpt lat="57.486996995285153" lon="-3.731244010850787">
        <ele>165</ele>
        <time>2023-08-19T08:19:03Z</time>
      </trkpt>
      <trkpt lat="57.488034004345536" lon="-3.731605019420385">
        <ele>162.12</ele>
        <time>2023-08-19T08:19:09Z</time>
      </trkpt>
      <trkpt lat="57.488197032362223" lon="-3.731633014976978">
        <ele>161.63999999999999</ele>
        <time>2023-08-19T08:19:10Z</time>
      </trkpt>
      <trkpt lat="57.488358970731497" lon="-3.731604013592005">
        <ele>160.68000000000001</ele>
        <time>2023-08-19T08:19:11Z</time>
      </trkpt>
      <trkpt lat="57.488673040643334" lon="-3.731536958366633">
        <ele>158.75</ele>
        <time>2023-08-19T08:19:13Z</time>
      </trkpt>
      <trkpt lat="57.488822992891073" lon="-3.731547016650438">
        <ele>157.78999999999999</ele>
        <time>2023-08-19T08:19:14Z</time>
      </trkpt>
      <trkpt lat="57.488971017301083" lon="-3.731597978621721">
        <ele>156.83000000000001</ele>
        <time>2023-08-19T08:19:15Z</time>
      </trkpt>
      <trkpt lat="57.48909498564899" lon="-3.731717001646757">
        <ele>155.87</ele>
        <time>2023-08-19T08:19:16Z</time>
      </trkpt>
      <trkpt lat="57.48922498896718" lon="-3.731839964166284">
        <ele>155.38999999999999</ele>
        <time>2023-08-19T08:19:17Z</time>
      </trkpt>
      <trkpt lat="57.489362033084035" lon="-3.731969967484474">
        <ele>154.43000000000001</ele>
        <time>2023-08-19T08:19:18Z</time>
      </trkpt>
      <trkpt lat="57.489499999210238" lon="-3.732102988287807">
        <ele>153.47</ele>
        <time>2023-08-19T08:19:19Z</time>
      </trkpt>
      <trkpt lat="57.490501971915364" lon="-3.732844032347202">
        <ele>146.25999999999999</ele>
        <time>2023-08-19T08:19:26Z</time>
      </trkpt>
      <trkpt lat="57.490651002153754" lon="-3.732940005138516">
        <ele>144.81999999999999</ele>
        <time>2023-08-19T08:19:27Z</time>
      </trkpt>
      <trkpt lat="57.491088034585118" lon="-3.733219038695097">
        <ele>140.97</ele>
        <time>2023-08-19T08:19:30Z</time>
      </trkpt>
      <trkpt lat="57.491228012368083" lon="-3.733382988721132">
        <ele>139.53</ele>
        <time>2023-08-19T08:19:31Z</time>
      </trkpt>
      <trkpt lat="57.491354998201132" lon="-3.733564959838986">
        <ele>138.56999999999999</ele>
        <time>2023-08-19T08:19:32Z</time>
      </trkpt>
      <trkpt lat="57.491479972377419" lon="-3.733780961483717">
        <ele>136.63999999999999</ele>
        <time>2023-08-19T08:19:33Z</time>
      </trkpt>
      <trkpt lat="57.491584997624159" lon="-3.734016995877028">
        <ele>134.72</ele>
        <time>2023-08-19T08:19:34Z</time>
      </trkpt>
      <trkpt lat="57.491683987900615" lon="-3.734239032492042">
        <ele>132.80000000000001</ele>
        <time>2023-08-19T08:19:35Z</time>
      </trkpt>
      <trkpt lat="57.491949023678899" lon="-3.734836997464299">
        <ele>127.03</ele>
        <time>2023-08-19T08:19:38Z</time>
      </trkpt>
      <trkpt lat="57.492073997855186" lon="-3.734970018267632">
        <ele>125.11</ele>
        <time>2023-08-19T08:19:39Z</time>
      </trkpt>
      <trkpt lat="57.492194026708603" lon="-3.735098009929061">
        <ele>123.19</ele>
        <time>2023-08-19T08:19:40Z</time>
      </trkpt>
      <trkpt lat="57.492889976128936" lon="-3.73550402931869">
        <ele>114.05</ele>
        <time>2023-08-19T08:19:45Z</time>
      </trkpt>
      <trkpt lat="57.493848027661443" lon="-3.735749032348394">
        <ele>104.92</ele>
        <time>2023-08-19T08:19:51Z</time>
      </trkpt>
      <trkpt lat="57.493948023766279" lon="-3.73584802262485">
        <ele>103.95999999999999</ele>
        <time>2023-08-19T08:19:52Z</time>
      </trkpt>
      <trkpt lat="57.494047014042735" lon="-3.735984982922673">
        <ele>103.95999999999999</ele>
        <time>2023-08-19T08:19:53Z</time>
      </trkpt>
      <trkpt lat="57.494084984064102" lon="-3.736114986240864">
        <ele>103.48</ele>
        <time>2023-08-19T08:19:54Z</time>
      </trkpt>
      <trkpt lat="57.494112979620695" lon="-3.736210037022829">
        <ele>103</ele>
        <time>2023-08-19T08:19:55Z</time>
      </trkpt>
      <trkpt lat="57.494150027632713" lon="-3.736332999542356">
        <ele>103</ele>
        <time>2023-08-19T08:20:02Z</time>
      </trkpt>
      <trkpt lat="57.494223034009337" lon="-3.736744970083237">
        <ele>102.04000000000001</ele>
        <time>2023-08-19T08:20:10Z</time>
      </trkpt>
      <trkpt lat="57.494310960173607" lon="-3.737745014950633">
        <ele>103</ele>
        <time>2023-08-19T08:20:17Z</time>
      </trkpt>
      <trkpt lat="57.494378015398979" lon="-3.738052966073155">
        <ele>103</ele>
        <time>2023-08-19T08:20:19Z</time>
      </trkpt>
      <trkpt lat="57.495159041136503" lon="-3.739368002861738">
        <ele>107.81</ele>
        <time>2023-08-19T08:20:28Z</time>
      </trkpt>
      <trkpt lat="57.495618034154177" lon="-3.739935960620642">
        <ele>112.13</ele>
        <time>2023-08-19T08:20:32Z</time>
      </trkpt>
      <trkpt lat="57.496294034644961" lon="-3.740496039390564">
        <ele>119.81999999999999</ele>
        <time>2023-08-19T08:20:37Z</time>
      </trkpt>
      <trkpt lat="57.496753027662635" lon="-3.74059502966702">
        <ele>124.15000000000001</ele>
        <time>2023-08-19T08:20:40Z</time>
      </trkpt>
      <trkpt lat="57.496919995173812" lon="-3.740566028282046">
        <ele>126.06999999999999</ele>
        <time>2023-08-19T08:20:41Z</time>
      </trkpt>
      <trkpt lat="57.497069025412202" lon="-3.740473994985223">
        <ele>127.98999999999999</ele>
        <time>2023-08-19T08:20:42Z</time>
      </trkpt>
      <trkpt lat="57.497220989316702" lon="-3.740381961688399">
        <ele>129.91999999999999</ele>
        <time>2023-08-19T08:20:43Z</time>
      </trkpt>
      <trkpt lat="57.497362978756428" lon="-3.740252964198589">
        <ele>131.36000000000001</ele>
        <time>2023-08-19T08:20:44Z</time>
      </trkpt>
      <trkpt lat="57.497498011216521" lon="-3.740108041092753">
        <ele>132.80000000000001</ele>
        <time>2023-08-19T08:20:45Z</time>
      </trkpt>
      <trkpt lat="57.497622985392809" lon="-3.739919029176235">
        <ele>133.75999999999999</ele>
        <time>2023-08-19T08:20:46Z</time>
      </trkpt>
      <trkpt lat="57.497727004811168" lon="-3.739700010046363">
        <ele>135.68000000000001</ele>
        <time>2023-08-19T08:20:47Z</time>
      </trkpt>
      <trkpt lat="57.497805040329695" lon="-3.739466993138194">
        <ele>136.63999999999999</ele>
        <time>2023-08-19T08:20:48Z</time>
      </trkpt>
      <trkpt lat="57.497866982594132" lon="-3.739233976230025">
        <ele>138.09</ele>
        <time>2023-08-19T08:20:49Z</time>
      </trkpt>
      <trkpt lat="57.497922973707318" lon="-3.739020992070437">
        <ele>139.53</ele>
        <time>2023-08-19T08:20:50Z</time>
      </trkpt>
      <trkpt lat="57.497957004234195" lon="-3.738891994580627">
        <ele>140.97</ele>
        <time>2023-08-19T08:20:51Z</time>
      </trkpt>
      <trkpt lat="57.498064963147044" lon="-3.738676998764277">
        <ele>141.93000000000001</ele>
        <time>2023-08-19T08:20:52Z</time>
      </trkpt>
      <trkpt lat="57.498149033635855" lon="-3.738564010709524">
        <ele>142.88999999999999</ele>
        <time>2023-08-19T08:20:53Z</time>
      </trkpt>
      <trkpt lat="57.498252969235182" lon="-3.738495027646422">
        <ele>143.84999999999999</ele>
        <time>2023-08-19T08:20:54Z</time>
      </trkpt>
      <trkpt lat="57.498360006138682" lon="-3.738455967977643">
        <ele>144.81999999999999</ele>
        <time>2023-08-19T08:20:55Z</time>
      </trkpt>
      <trkpt lat="57.498485986143351" lon="-3.738441970199347">
        <ele>146.25999999999999</ele>
        <time>2023-08-19T08:20:56Z</time>
      </trkpt>
      <trkpt lat="57.498620012775064" lon="-3.73842696659267">
        <ele>146.74000000000001</ele>
        <time>2023-08-19T08:20:57Z</time>
      </trkpt>
      <trkpt lat="57.499196017161012" lon="-3.738289000466466">
        <ele>151.06</ele>
        <time>2023-08-19T08:21:01Z</time>
      </trkpt>
      <trkpt lat="57.499330965802073" lon="-3.738205013796687">
        <ele>152.03</ele>
        <time>2023-08-19T08:21:02Z</time>
      </trkpt>
      <trkpt lat="57.499454012140632" lon="-3.738050032407045">
        <ele>152.99000000000001</ele>
        <time>2023-08-19T08:21:03Z</time>
      </trkpt>
      <trkpt lat="57.499577980488539" lon="-3.737893961369991">
        <ele>153.94999999999999</ele>
        <time>2023-08-19T08:21:04Z</time>
      </trkpt>
      <trkpt lat="57.49970898963511" lon="-3.737730011343956">
        <ele>154.91</ele>
        <time>2023-08-19T08:21:05Z</time>
      </trkpt>
      <trkpt lat="57.499842010438442" lon="-3.737562960013747">
        <ele>155.87</ele>
        <time>2023-08-19T08:21:06Z</time>
      </trkpt>
      <trkpt lat="57.500753961503506" lon="-3.736415980383754">
        <ele>162.59999999999999</ele>
        <time>2023-08-19T08:21:13Z</time>
      </trkpt>
      <trkpt lat="57.500833002850413" lon="-3.736316990107298">
        <ele>163.56</ele>
        <time>2023-08-19T08:21:14Z</time>
      </trkpt>
      <trkpt lat="57.500972980633378" lon="-3.736264016479254">
        <ele>164.52000000000001</ele>
        <time>2023-08-19T08:21:15Z</time>
      </trkpt>
      <trkpt lat="57.501094015315175" lon="-3.736216994002461">
        <ele>165.47999999999999</ele>
        <time>2023-08-19T08:21:16Z</time>
      </trkpt>
      <trkpt lat="57.50121396034956" lon="-3.736217999830842">
        <ele>166.44999999999999</ele>
        <time>2023-08-19T08:21:17Z</time>
      </trkpt>
      <trkpt lat="57.50134396366775" lon="-3.736227974295616">
        <ele>166.93000000000001</ele>
        <time>2023-08-19T08:21:18Z</time>
      </trkpt>
      <trkpt lat="57.501458041369915" lon="-3.736280025914311">
        <ele>167.88999999999999</ele>
        <time>2023-08-19T08:21:19Z</time>
      </trkpt>
      <trkpt lat="57.501582009717822" lon="-3.736370969563723">
        <ele>168.37</ele>
        <time>2023-08-19T08:21:20Z</time>
      </trkpt>
      <trkpt lat="57.501690974459052" lon="-3.73649200424552">
        <ele>168.84999999999999</ele>
        <time>2023-08-19T08:21:21Z</time>
      </trkpt>
      <trkpt lat="57.501809997484088" lon="-3.736655032262206">
        <ele>169.33000000000001</ele>
        <time>2023-08-19T08:21:22Z</time>
      </trkpt>
      <trkpt lat="57.501930026337504" lon="-3.736819988116622">
        <ele>170.28999999999999</ele>
        <time>2023-08-19T08:21:23Z</time>
      </trkpt>
      <trkpt lat="57.502033961936831" lon="-3.737002965062857">
        <ele>170.77000000000001</ele>
        <time>2023-08-19T08:21:24Z</time>
      </trkpt>
      <trkpt lat="57.502143010497093" lon="-3.737220978364348">
        <ele>171.25</ele>
        <time>2023-08-19T08:21:25Z</time>
      </trkpt>
      <trkpt lat="57.50260703265667" lon="-3.738138964399695">
        <ele>173.16999999999999</ele>
        <time>2023-08-19T08:21:29Z</time>
      </trkpt>
      <trkpt lat="57.502726977691054" lon="-3.738373992964625">
        <ele>173.16999999999999</ele>
        <time>2023-08-19T08:21:30Z</time>
      </trkpt>
      <trkpt lat="57.503333995118737" lon="-3.739510998129845">
        <ele>173.66</ele>
        <time>2023-08-19T08:21:35Z</time>
      </trkpt>
      <trkpt lat="57.503472967073321" lon="-3.739700010046363">
        <ele>173.16999999999999</ele>
        <time>2023-08-19T08:21:36Z</time>
      </trkpt>
      <trkpt lat="57.503872029483318" lon="-3.740238966420293">
        <ele>172.69</ele>
        <time>2023-08-19T08:21:39Z</time>
      </trkpt>
      <trkpt lat="57.503998009487987" lon="-3.740420015528798">
        <ele>172.69</ele>
        <time>2023-08-19T08:21:40Z</time>
      </trkpt>
      <trkpt lat="57.504096999764442" lon="-3.740654038265348">
        <ele>172.69</ele>
        <time>2023-08-19T08:21:41Z</time>
      </trkpt>
      <trkpt lat="57.504195990040898" lon="-3.740886971354485">
        <ele>173.16999999999999</ele>
        <time>2023-08-19T08:21:42Z</time>
      </trkpt>
      <trkpt lat="57.504291040822864" lon="-3.741127029061317">
        <ele>173.66</ele>
        <time>2023-08-19T08:21:43Z</time>
      </trkpt>
      <trkpt lat="57.504333034157753" lon="-3.741408996284008">
        <ele>174.13999999999999</ele>
        <time>2023-08-19T08:21:44Z</time>
      </trkpt>
      <trkpt lat="57.504374021664262" lon="-3.741689035668969">
        <ele>174.13999999999999</ele>
        <time>2023-08-19T08:21:45Z</time>
      </trkpt>
      <trkpt lat="57.504416014999151" lon="-3.741975026205182">
        <ele>174.62</ele>
        <time>2023-08-19T08:21:46Z</time>
      </trkpt>
      <trkpt lat="57.504588011652231" lon="-3.743140026926994">
        <ele>175.58000000000001</ele>
        <time>2023-08-19T08:21:50Z</time>
      </trkpt>
      <trkpt lat="57.504666969180107" lon="-3.743403973057866">
        <ele>175.58000000000001</ele>
        <time>2023-08-19T08:21:51Z</time>
      </trkpt>
      <trkpt lat="57.505131997168064" lon="-3.744995025917888">
        <ele>175.58000000000001</ele>
        <time>2023-08-19T08:21:57Z</time>
      </trkpt>
      <trkpt lat="57.505157981067896" lon="-3.745256038382649">
        <ele>175.09999999999999</ele>
        <time>2023-08-19T08:21:58Z</time>
      </trkpt>
      <trkpt lat="57.505184970796108" lon="-3.74551503919065">
        <ele>175.09999999999999</ele>
        <time>2023-08-19T08:21:59Z</time>
      </trkpt>
      <trkpt lat="57.50520802102983" lon="-3.745769010856748">
        <ele>174.62</ele>
        <time>2023-08-19T08:22:00Z</time>
      </trkpt>
      <trkpt lat="57.505166027694941" lon="-3.746009990572929">
        <ele>174.62</ele>
        <time>2023-08-19T08:22:01Z</time>
      </trkpt>
      <trkpt lat="57.50512202270329" lon="-3.746259016916156">
        <ele>174.13999999999999</ele>
        <time>2023-08-19T08:22:02Z</time>
      </trkpt>
      <trkpt lat="57.505071982741356" lon="-3.746508965268731">
        <ele>173.66</ele>
        <time>2023-08-19T08:22:03Z</time>
      </trkpt>
      <trkpt lat="57.504971986636519" lon="-3.74671901576221">
        <ele>173.16999999999999</ele>
        <time>2023-08-19T08:22:04Z</time>
      </trkpt>
      <trkpt lat="57.50486402772367" lon="-3.746947003528476">
        <ele>172.69</ele>
        <time>2023-08-19T08:22:05Z</time>
      </trkpt>
      <trkpt lat="57.504750033840537" lon="-3.747186977416277">
        <ele>172.21000000000001</ele>
        <time>2023-08-19T08:22:06Z</time>
      </trkpt>
      <trkpt lat="57.503871023654938" lon="-3.749043988063932">
        <ele>168.84999999999999</ele>
        <time>2023-08-19T08:22:13Z</time>
      </trkpt>
      <trkpt lat="57.503071976825595" lon="-3.750790022313595">
        <ele>171.72999999999999</ele>
        <time>2023-08-19T08:22:20Z</time>
      </trkpt>
      <trkpt lat="57.502991007640958" lon="-3.751024967059493">
        <ele>171.72999999999999</ele>
        <time>2023-08-19T08:22:21Z</time>
      </trkpt>
      <trkpt lat="57.502927975729108" lon="-3.751256978139281">
        <ele>172.21000000000001</ele>
        <time>2023-08-19T08:22:22Z</time>
      </trkpt>
      <trkpt lat="57.50286896713078" lon="-3.751530982553959">
        <ele>172.21000000000001</ele>
        <time>2023-08-19T08:22:23Z</time>
      </trkpt>
      <trkpt lat="57.502809958532453" lon="-3.751808004453778">
        <ele>172.69</ele>
        <time>2023-08-19T08:22:24Z</time>
      </trkpt>
      <trkpt lat="57.502214005216956" lon="-3.754316037520766">
        <ele>171.72999999999999</ele>
        <time>2023-08-19T08:22:33Z</time>
      </trkpt>
      <trkpt lat="57.502076039090753" lon="-3.754826998338103">
        <ele>171.25</ele>
        <time>2023-08-19T08:22:35Z</time>
      </trkpt>
      <trkpt lat="57.502025999128819" lon="-3.755089016631246">
        <ele>170.77000000000001</ele>
        <time>2023-08-19T08:22:36Z</time>
      </trkpt>
      <trkpt lat="57.50202901661396" lon="-3.755347011610866">
        <ele>170.77000000000001</ele>
        <time>2023-08-19T08:22:37Z</time>
      </trkpt>
      <trkpt lat="57.502049971371889" lon="-3.755596959963441">
        <ele>170.77000000000001</ele>
        <time>2023-08-19T08:22:38Z</time>
      </trkpt>
      <trkpt lat="57.502081990242004" lon="-3.755837017670274">
        <ele>170.28999999999999</ele>
        <time>2023-08-19T08:22:39Z</time>
      </trkpt>
      <trkpt lat="57.502123983576894" lon="-3.756095012649894">
        <ele>169.81</ele>
        <time>2023-08-19T08:22:40Z</time>
      </trkpt>
      <trkpt lat="57.502167988568544" lon="-3.756362982094288">
        <ele>169.81</ele>
        <time>2023-08-19T08:22:41Z</time>
      </trkpt>
      <trkpt lat="57.502697976306081" lon="-3.759330008178949">
        <ele>164.52000000000001</ele>
        <time>2023-08-19T08:22:52Z</time>
      </trkpt>
      <trkpt lat="57.503400966525078" lon="-3.762577995657921">
        <ele>159.24000000000001</ele>
        <time>2023-08-19T08:23:04Z</time>
      </trkpt>
      <trkpt lat="57.504374021664262" lon="-3.765985993668437">
        <ele>158.27000000000001</ele>
        <time>2023-08-19T08:23:17Z</time>
      </trkpt>
      <trkpt lat="57.505411030724645" lon="-3.768252963200212">
        <ele>153.47</ele>
        <time>2023-08-19T08:23:26Z</time>
      </trkpt>
      <trkpt lat="57.505632983520627" lon="-3.768793009221554">
        <ele>152.03</ele>
        <time>2023-08-19T08:23:28Z</time>
      </trkpt>
      <trkpt lat="57.506688013672829" lon="-3.771690968424082">
        <ele>151.53999999999999</ele>
        <time>2023-08-19T08:23:38Z</time>
      </trkpt>
      <trkpt lat="57.507425034418702" lon="-3.773733973503113">
        <ele>151.06</ele>
        <time>2023-08-19T08:23:45Z</time>
      </trkpt>
      <trkpt lat="57.507533999159932" lon="-3.774036979302764">
        <ele>150.58000000000001</ele>
        <time>2023-08-19T08:23:46Z</time>
      </trkpt>
      <trkpt lat="57.50873202458024" lon="-3.777359984815121">
        <ele>148.66</ele>
        <time>2023-08-19T08:23:57Z</time>
      </trkpt>
      <trkpt lat="57.510334979742765" lon="-3.781808009371162">
        <ele>143.37</ele>
        <time>2023-08-19T08:24:11Z</time>
      </trkpt>
      <trkpt lat="57.511467039585114" lon="-3.784777969121933">
        <ele>137.61000000000001</ele>
        <time>2023-08-19T08:24:21Z</time>
      </trkpt>
      <trkpt lat="57.512401035055518" lon="-3.786283023655415">
        <ele>136.63999999999999</ele>
        <time>2023-08-19T08:24:28Z</time>
      </trkpt>
      <trkpt lat="57.514067022129893" lon="-3.788761971518397">
        <ele>131.84</ele>
        <time>2023-08-19T08:24:39Z</time>
      </trkpt>
      <trkpt lat="57.515548020601273" lon="-3.790965992957354">
        <ele>129.43000000000001</ele>
        <time>2023-08-19T08:24:49Z</time>
      </trkpt>
      <trkpt lat="57.515949010848999" lon="-3.791565969586372">
        <ele>128.94999999999999</ele>
        <time>2023-08-19T08:24:52Z</time>
      </trkpt>
      <trkpt lat="57.516072979196906" lon="-3.791754981502891">
        <ele>128.94999999999999</ele>
        <time>2023-08-19T08:24:53Z</time>
      </trkpt>
      <trkpt lat="57.51724099740386" lon="-3.793543009087443">
        <ele>126.55</ele>
        <time>2023-08-19T08:25:02Z</time>
      </trkpt>
      <trkpt lat="57.518242970108986" lon="-3.795077987015247">
        <ele>124.15000000000001</ele>
        <time>2023-08-19T08:25:09Z</time>
      </trkpt>
      <trkpt lat="57.518392000347376" lon="-3.795291977003217">
        <ele>123.67</ele>
        <time>2023-08-19T08:25:10Z</time>
      </trkpt>
      <trkpt lat="57.519633024930954" lon="-3.796940026804805">
        <ele>116.45999999999999</ele>
        <time>2023-08-19T08:25:18Z</time>
      </trkpt>
      <trkpt lat="57.521161967888474" lon="-3.798970961943269">
        <ele>107.81</ele>
        <time>2023-08-19T08:25:28Z</time>
      </trkpt>
      <trkpt lat="57.52295795828104" lon="-3.801294006407261">
        <ele>106.36</ele>
        <time>2023-08-19T08:25:40Z</time>
      </trkpt>
      <trkpt lat="57.523552989587188" lon="-3.801990961655974">
        <ele>103.95999999999999</ele>
        <time>2023-08-19T08:25:44Z</time>
      </trkpt>
      <trkpt lat="57.523679975420237" lon="-3.802189026027918">
        <ele>103</ele>
        <time>2023-08-19T08:25:45Z</time>
      </trkpt>
      <trkpt lat="57.523780977353454" lon="-3.802438974380493">
        <ele>102.04000000000001</ele>
        <time>2023-08-19T08:25:46Z</time>
      </trkpt>
      <trkpt lat="57.523883990943432" lon="-3.802692024037242">
        <ele>101.08</ele>
        <time>2023-08-19T08:25:47Z</time>
      </trkpt>
      <trkpt lat="57.523981975391507" lon="-3.802960999310017">
        <ele>100.11</ele>
        <time>2023-08-19T08:25:48Z</time>
      </trkpt>
      <trkpt lat="57.525047985836864" lon="-3.806073032319546">
        <ele>96.269999999999996</ele>
        <time>2023-08-19T08:25:59Z</time>
      </trkpt>
      <trkpt lat="57.526299990713596" lon="-3.808089969679713">
        <ele>98.670000000000002</ele>
        <time>2023-08-19T08:26:08Z</time>
      </trkpt>
      <trkpt lat="57.527032988145947" lon="-3.809037040919066">
        <ele>100.11</ele>
        <time>2023-08-19T08:26:13Z</time>
      </trkpt>
      <trkpt lat="57.527129966765642" lon="-3.809291012585163">
        <ele>100.59999999999999</ele>
        <time>2023-08-19T08:26:14Z</time>
      </trkpt>
      <trkpt lat="57.527223005890846" lon="-3.809535009786487">
        <ele>101.08</ele>
        <time>2023-08-19T08:26:15Z</time>
      </trkpt>
      <trkpt lat="57.527627013623714" lon="-3.810590961948037">
        <ele>101.56</ele>
        <time>2023-08-19T08:26:19Z</time>
      </trkpt>
      <trkpt lat="57.527746958658099" lon="-3.810846023261547">
        <ele>101.56</ele>
        <time>2023-08-19T08:26:20Z</time>
      </trkpt>
      <trkpt lat="57.527891965582967" lon="-3.811051966622472">
        <ele>101.56</ele>
        <time>2023-08-19T08:26:21Z</time>
      </trkpt>
      <trkpt lat="57.528694029897451" lon="-3.812435986474156">
        <ele>100.11</ele>
        <time>2023-08-19T08:26:27Z</time>
      </trkpt>
      <trkpt lat="57.528786985203624" lon="-3.812724994495511">
        <ele>100.11</ele>
        <time>2023-08-19T08:26:28Z</time>
      </trkpt>
      <trkpt lat="57.529880991205573" lon="-3.816425018012524">
        <ele>97.709999999999994</ele>
        <time>2023-08-19T08:26:40Z</time>
      </trkpt>
      <trkpt lat="57.530942978337407" lon="-3.820955017581582">
        <ele>101.56</ele>
        <time>2023-08-19T08:26:54Z</time>
      </trkpt>
      <trkpt lat="57.531048003584146" lon="-3.82125299423933">
        <ele>101.08</ele>
        <time>2023-08-19T08:26:55Z</time>
      </trkpt>
      <trkpt lat="57.532307971268892" lon="-3.823794974014163">
        <ele>99.629999999999995</ele>
        <time>2023-08-19T08:27:04Z</time>
      </trkpt>
      <trkpt lat="57.533130990341306" lon="-3.825401030480862">
        <ele>99.150000000000006</ele>
        <time>2023-08-19T08:27:10Z</time>
      </trkpt>
      <trkpt lat="57.533273985609412" lon="-3.825591970235109">
        <ele>98.670000000000002</ele>
        <time>2023-08-19T08:27:11Z</time>
      </trkpt>
      <trkpt lat="57.533428966999054" lon="-3.825733037665486">
        <ele>98.189999999999998</ele>
        <time>2023-08-19T08:27:12Z</time>
      </trkpt>
      <trkpt lat="57.534410990774632" lon="-3.826625039801002">
        <ele>95.310000000000002</ele>
        <time>2023-08-19T08:27:18Z</time>
      </trkpt>
      <trkpt lat="57.534560021013021" lon="-3.826759988442063">
        <ele>94.829999999999998</ele>
        <time>2023-08-19T08:27:19Z</time>
      </trkpt>
      <trkpt lat="57.534672003239393" lon="-3.826956041157246">
        <ele>94.349999999999994</ele>
        <time>2023-08-19T08:27:20Z</time>
      </trkpt>
      <trkpt lat="57.534767976030707" lon="-3.82718201726675">
        <ele>93.870000000000005</ele>
        <time>2023-08-19T08:27:21Z</time>
      </trkpt>
      <trkpt lat="57.534851040691137" lon="-3.82744001224637">
        <ele>93.390000000000001</ele>
        <time>2023-08-19T08:27:22Z</time>
      </trkpt>
      <trkpt lat="57.534934021532536" lon="-3.827699013054371">
        <ele>93.390000000000001</ele>
        <time>2023-08-19T08:27:23Z</time>
      </trkpt>
      <trkpt lat="57.535218000411987" lon="-3.828424969688058">
        <ele>91.939999999999998</ele>
        <time>2023-08-19T08:27:26Z</time>
      </trkpt>
      <trkpt lat="57.535340962931514" lon="-3.828604007139802">
        <ele>91.459999999999994</ele>
        <time>2023-08-19T08:27:27Z</time>
      </trkpt>
      <trkpt lat="57.535469960421324" lon="-3.828715989366174">
        <ele>90.980000000000004</ele>
        <time>2023-08-19T08:27:28Z</time>
      </trkpt>
      <trkpt lat="57.535612033680081" lon="-3.828763011842966">
        <ele>90.5</ele>
        <time>2023-08-19T08:27:29Z</time>
      </trkpt>
      <trkpt lat="57.535753017291427" lon="-3.828797964379191">
        <ele>90.019999999999996</ele>
        <time>2023-08-19T08:27:30Z</time>
      </trkpt>
      <trkpt lat="57.535909004509449" lon="-3.828784972429276">
        <ele>89.540000000000006</ele>
        <time>2023-08-19T08:27:31Z</time>
      </trkpt>
      <trkpt lat="57.536074966192245" lon="-3.828770974650979">
        <ele>89.060000000000002</ele>
        <time>2023-08-19T08:27:32Z</time>
      </trkpt>
      <trkpt lat="57.536927992478013" lon="-3.828529994934797">
        <ele>86.659999999999997</ele>
        <time>2023-08-19T08:27:37Z</time>
      </trkpt>
      <trkpt lat="57.537086997181177" lon="-3.828424969688058">
        <ele>86.180000000000007</ele>
        <time>2023-08-19T08:27:38Z</time>
      </trkpt>
      <trkpt lat="57.537696026265621" lon="-3.828003024682403">
        <ele>82.329999999999998</ele>
        <time>2023-08-19T08:27:42Z</time>
      </trkpt>
      <trkpt lat="57.537844972684979" lon="-3.827961031347513">
        <ele>81.370000000000005</ele>
        <time>2023-08-19T08:27:43Z</time>
      </trkpt>
      <trkpt lat="57.537985034286976" lon="-3.827964970842004">
        <ele>80.409999999999997</ele>
        <time>2023-08-19T08:27:44Z</time>
      </trkpt>
      <trkpt lat="57.538131969049573" lon="-3.828011993318796">
        <ele>79.450000000000003</ele>
        <time>2023-08-19T08:27:45Z</time>
      </trkpt>
      <trkpt lat="57.538285022601485" lon="-3.82806102745235">
        <ele>78.480000000000004</ele>
        <time>2023-08-19T08:27:46Z</time>
      </trkpt>
      <trkpt lat="57.538443021476269" lon="-3.828111989423633">
        <ele>77.519999999999996</ele>
        <time>2023-08-19T08:27:47Z</time>
      </trkpt>
      <trkpt lat="57.538582999259233" lon="-3.828231012448669">
        <ele>76.079999999999998</ele>
        <time>2023-08-19T08:27:48Z</time>
      </trkpt>
      <trkpt lat="57.538728006184101" lon="-3.828356992453337">
        <ele>75.120000000000005</ele>
        <time>2023-08-19T08:27:49Z</time>
      </trkpt>
      <trkpt lat="57.53887603059411" lon="-3.828485989943147">
        <ele>73.680000000000007</ele>
        <time>2023-08-19T08:27:50Z</time>
      </trkpt>
      <trkpt lat="57.539353966712952" lon="-3.828877005726099">
        <ele>70.790000000000006</ele>
        <time>2023-08-19T08:27:53Z</time>
      </trkpt>
      <trkpt lat="57.539498973637819" lon="-3.828950012102723">
        <ele>70.310000000000002</ele>
        <time>2023-08-19T08:27:54Z</time>
      </trkpt>
      <trkpt lat="57.539696032181382" lon="-3.828963004052639">
        <ele>69.349999999999994</ele>
        <time>2023-08-19T08:27:55Z</time>
      </trkpt>
      <trkpt lat="57.539866017177701" lon="-3.828973984345794">
        <ele>68.870000000000005</ele>
        <time>2023-08-19T08:27:56Z</time>
      </trkpt>
      <trkpt lat="57.540033990517259" lon="-3.828985970467329">
        <ele>68.390000000000001</ele>
        <time>2023-08-19T08:27:57Z</time>
      </trkpt>
      <trkpt lat="57.541672987863421" lon="-3.828897038474679">
        <ele>62.619999999999997</ele>
        <time>2023-08-19T08:28:07Z</time>
      </trkpt>
      <trkpt lat="57.542529031634331" lon="-3.829032992944121">
        <ele>60.700000000000003</ele>
        <time>2023-08-19T08:28:12Z</time>
      </trkpt>
      <trkpt lat="57.542701028287411" lon="-3.828973984345794">
        <ele>60.700000000000003</ele>
        <time>2023-08-19T08:28:13Z</time>
      </trkpt>
      <trkpt lat="57.544597014784813" lon="-3.828321034088731">
        <ele>59.740000000000002</ele>
        <time>2023-08-19T08:28:24Z</time>
      </trkpt>
      <trkpt lat="57.544887028634548" lon="-3.828245010226965">
        <ele>59.740000000000002</ele>
        <time>2023-08-19T08:28:26Z</time>
      </trkpt>
      <trkpt lat="57.54502197727561" lon="-3.828262025490403">
        <ele>59.740000000000002</ele>
        <time>2023-08-19T08:28:27Z</time>
      </trkpt>
      <trkpt lat="57.545138988643885" lon="-3.828352969139814">
        <ele>59.740000000000002</ele>
        <time>2023-08-19T08:28:28Z</time>
      </trkpt>
      <trkpt lat="57.545254994183779" lon="-3.828453971073031">
        <ele>59.740000000000002</ele>
        <time>2023-08-19T08:28:29Z</time>
      </trkpt>
      <trkpt lat="57.545357001945376" lon="-3.828541981056333">
        <ele>59.740000000000002</ele>
        <time>2023-08-19T08:28:30Z</time>
      </trkpt>
      <trkpt lat="57.54549304023385" lon="-3.828762006014586">
        <ele>59.740000000000002</ele>
        <time>2023-08-19T08:28:31Z</time>
      </trkpt>
      <trkpt lat="57.545610973611474" lon="-3.828955041244626">
        <ele>60.219999999999999</ele>
        <time>2023-08-19T08:28:32Z</time>
      </trkpt>
      <trkpt lat="57.545727984979749" lon="-3.829162996262312">
        <ele>60.219999999999999</ele>
        <time>2023-08-19T08:28:33Z</time>
      </trkpt>
      <trkpt lat="57.54583703354001" lon="-3.829412022605538">
        <ele>60.700000000000003</ele>
        <time>2023-08-19T08:28:34Z</time>
      </trkpt>
      <trkpt lat="57.545926971361041" lon="-3.829685021191835">
        <ele>60.700000000000003</ele>
        <time>2023-08-19T08:28:35Z</time>
      </trkpt>
      <trkpt lat="57.546014981344342" lon="-3.829964976757765">
        <ele>60.700000000000003</ele>
        <time>2023-08-19T08:28:36Z</time>
      </trkpt>
      <trkpt lat="57.546105002984405" lon="-3.830250967293978">
        <ele>60.700000000000003</ele>
        <time>2023-08-19T08:28:37Z</time>
      </trkpt>
      <trkpt lat="57.546873036772013" lon="-3.832087023183703">
        <ele>61.18</ele>
        <time>2023-08-19T08:28:44Z</time>
      </trkpt>
      <trkpt lat="57.547747017815709" lon="-3.833259986713529">
        <ele>60.219999999999999</ele>
        <time>2023-08-19T08:28:50Z</time>
      </trkpt>
      <trkpt lat="57.547892024740577" lon="-3.833355959504843">
        <ele>59.740000000000002</ele>
        <time>2023-08-19T08:28:51Z</time>
      </trkpt>
      <trkpt lat="57.548034014180303" lon="-3.833448998630047">
        <ele>59.740000000000002</ele>
        <time>2023-08-19T08:28:52Z</time>
      </trkpt>
      <trkpt lat="57.548171980306506" lon="-3.833539020270109">
        <ele>59.259999999999998</ele>
        <time>2023-08-19T08:28:53Z</time>
      </trkpt>
      <trkpt lat="57.54830801859498" lon="-3.833628036081791">
        <ele>58.780000000000001</ele>
        <time>2023-08-19T08:28:54Z</time>
      </trkpt>
      <trkpt lat="57.54843701608479" lon="-3.83373498916626">
        <ele>58.299999999999997</ele>
        <time>2023-08-19T08:28:55Z</time>
      </trkpt>
      <trkpt lat="57.548546986654401" lon="-3.833877984434366">
        <ele>57.82</ele>
        <time>2023-08-19T08:28:56Z</time>
      </trkpt>
      <trkpt lat="57.548647988587618" lon="-3.834049981087446">
        <ele>57.340000000000003</ele>
        <time>2023-08-19T08:28:57Z</time>
      </trkpt>
      <trkpt lat="57.548729041591287" lon="-3.83427201770246">
        <ele>56.859999999999999</ele>
        <time>2023-08-19T08:28:58Z</time>
      </trkpt>
      <trkpt lat="57.548815039917827" lon="-3.834505034610629">
        <ele>56.369999999999997</ele>
        <time>2023-08-19T08:28:59Z</time>
      </trkpt>
      <trkpt lat="57.549563040956855" lon="-3.836546028032899">
        <ele>51.090000000000003</ele>
        <time>2023-08-19T08:29:07Z</time>
      </trkpt>
      <trkpt lat="57.549681980162859" lon="-3.836766975000501">
        <ele>50.130000000000003</ele>
        <time>2023-08-19T08:29:08Z</time>
      </trkpt>
      <trkpt lat="57.54981198348105" lon="-3.836966967210174">
        <ele>49.159999999999997</ele>
        <time>2023-08-19T08:29:09Z</time>
      </trkpt>
      <trkpt lat="57.549951961264014" lon="-3.837167965248227">
        <ele>48.68</ele>
        <time>2023-08-19T08:29:10Z</time>
      </trkpt>
      <trkpt lat="57.550095962360501" lon="-3.837373992428184">
        <ele>48.200000000000003</ele>
        <time>2023-08-19T08:29:11Z</time>
      </trkpt>
      <trkpt lat="57.550920993089676" lon="-3.838695986196399">
        <ele>42.920000000000002</ele>
        <time>2023-08-19T08:29:17Z</time>
      </trkpt>
      <trkpt lat="57.551038004457951" lon="-3.838937971740961">
        <ele>41.950000000000003</ele>
        <time>2023-08-19T08:29:18Z</time>
      </trkpt>
      <trkpt lat="57.551119979470968" lon="-3.839199990034103">
        <ele>40.509999999999998</ele>
        <time>2023-08-19T08:29:19Z</time>
      </trkpt>
      <trkpt lat="57.551199020817876" lon="-3.839463014155626">
        <ele>39.07</ele>
        <time>2023-08-19T08:29:20Z</time>
      </trkpt>
      <trkpt lat="57.551278984174132" lon="-3.839726038277149">
        <ele>37.630000000000003</ele>
        <time>2023-08-19T08:29:21Z</time>
      </trkpt>
      <trkpt lat="57.551438994705677" lon="-3.840252002701163">
        <ele>35.229999999999997</ele>
        <time>2023-08-19T08:29:23Z</time>
      </trkpt>
      <trkpt lat="57.551544019952416" lon="-3.84048200212419">
        <ele>33.780000000000001</ele>
        <time>2023-08-19T08:29:24Z</time>
      </trkpt>
      <trkpt lat="57.552612964063883" lon="-3.84213499724865">
        <ele>24.649999999999999</ele>
        <time>2023-08-19T08:29:32Z</time>
      </trkpt>
      <trkpt lat="57.552876994013786" lon="-3.842458035796881">
        <ele>22.73</ele>
        <time>2023-08-19T08:29:34Z</time>
      </trkpt>
      <trkpt lat="57.552999034523964" lon="-3.84260798804462">
        <ele>21.77</ele>
        <time>2023-08-19T08:29:35Z</time>
      </trkpt>
      <trkpt lat="57.553104981780052" lon="-3.842817032709718">
        <ele>20.809999999999999</ele>
        <time>2023-08-19T08:29:36Z</time>
      </trkpt>
      <trkpt lat="57.553182011470199" lon="-3.843052983283997">
        <ele>20.32</ele>
        <time>2023-08-19T08:29:37Z</time>
      </trkpt>
      <trkpt lat="57.553261974826455" lon="-3.84329597465694">
        <ele>19.84</ele>
        <time>2023-08-19T08:29:38Z</time>
      </trkpt>
      <trkpt lat="57.554166968911886" lon="-3.845536038279533">
        <ele>18.399999999999999</ele>
        <time>2023-08-19T08:29:47Z</time>
      </trkpt>
      <trkpt lat="57.55561200901866" lon="-3.84802202694118">
        <ele>18.399999999999999</ele>
        <time>2023-08-19T08:29:58Z</time>
      </trkpt>
      <trkpt lat="57.556411977857351" lon="-3.84952599182725">
        <ele>24.170000000000002</ele>
        <time>2023-08-19T08:30:05Z</time>
      </trkpt>
      <trkpt lat="57.556520020589232" lon="-3.849724978208542">
        <ele>25.129999999999999</ele>
        <time>2023-08-19T08:30:06Z</time>
      </trkpt>
      <trkpt lat="57.556661004200578" lon="-3.849845007061958">
        <ele>26.09</ele>
        <time>2023-08-19T08:30:07Z</time>
      </trkpt>
      <trkpt lat="57.556815985590219" lon="-3.849978027865291">
        <ele>26.57</ele>
        <time>2023-08-19T08:30:08Z</time>
      </trkpt>
      <trkpt lat="57.556964010000229" lon="-3.850037958472967">
        <ele>27.530000000000001</ele>
        <time>2023-08-19T08:30:09Z</time>
      </trkpt>
      <trkpt lat="57.557127960026264" lon="-3.850103002041578">
        <ele>28.5</ele>
        <time>2023-08-19T08:30:10Z</time>
      </trkpt>
      <trkpt lat="57.557303979992867" lon="-3.850122028961778">
        <ele>28.98</ele>
        <time>2023-08-19T08:30:11Z</time>
      </trkpt>
      <trkpt lat="57.558033959940076" lon="-3.850189000368118">
        <ele>31.379999999999999</ele>
        <time>2023-08-19T08:30:15Z</time>
      </trkpt>
      <trkpt lat="57.558219032362103" lon="-3.850118005648255">
        <ele>31.859999999999999</ele>
        <time>2023-08-19T08:30:16Z</time>
      </trkpt>
      <trkpt lat="57.558393962681293" lon="-3.850022032856941">
        <ele>31.859999999999999</ele>
        <time>2023-08-19T08:30:17Z</time>
      </trkpt>
      <trkpt lat="57.558564031496644" lon="-3.849908960983157">
        <ele>32.340000000000003</ele>
        <time>2023-08-19T08:30:18Z</time>
      </trkpt>
      <trkpt lat="57.558720018714666" lon="-3.849768983200193">
        <ele>32.340000000000003</ele>
        <time>2023-08-19T08:30:19Z</time>
      </trkpt>
      <trkpt lat="57.559448992833495" lon="-3.849168000742793">
        <ele>31.379999999999999</ele>
        <time>2023-08-19T08:30:24Z</time>
      </trkpt>
      <trkpt lat="57.559607997536659" lon="-3.849133970215917">
        <ele>31.379999999999999</ele>
        <time>2023-08-19T08:30:25Z</time>
      </trkpt>
      <trkpt lat="57.559767002239823" lon="-3.849101029336453">
        <ele>30.899999999999999</ele>
        <time>2023-08-19T08:30:26Z</time>
      </trkpt>
      <trkpt lat="57.559923995286226" lon="-3.849107986316085">
        <ele>30.899999999999999</ele>
        <time>2023-08-19T08:30:27Z</time>
      </trkpt>
      <trkpt lat="57.560080988332629" lon="-3.849117960780859">
        <ele>30.899999999999999</ele>
        <time>2023-08-19T08:30:28Z</time>
      </trkpt>
      <trkpt lat="57.560551967471838" lon="-3.849107986316085">
        <ele>31.859999999999999</ele>
        <time>2023-08-19T08:30:31Z</time>
      </trkpt>
      <trkpt lat="57.560700997710228" lon="-3.849061969667673">
        <ele>31.859999999999999</ele>
        <time>2023-08-19T08:30:32Z</time>
      </trkpt>
      <trkpt lat="57.560839969664812" lon="-3.849018970504403">
        <ele>32.340000000000003</ele>
        <time>2023-08-19T08:30:33Z</time>
      </trkpt>
      <trkpt lat="57.561733983457088" lon="-3.848696015775204">
        <ele>31.859999999999999</ele>
        <time>2023-08-19T08:30:40Z</time>
      </trkpt>
      <trkpt lat="57.562615005299449" lon="-3.848513960838318">
        <ele>29.460000000000001</ele>
        <time>2023-08-19T08:30:47Z</time>
      </trkpt>
      <trkpt lat="57.562673008069396" lon="-3.848508009687066">
        <ele>28.98</ele>
        <time>2023-08-19T08:30:48Z</time>
      </trkpt>
      <trkpt lat="57.562780966982245" lon="-3.848498035222292">
        <ele>29.460000000000001</ele>
        <time>2023-08-19T08:30:49Z</time>
      </trkpt>
      <trkpt lat="57.562755988910794" lon="-3.84868897497654">
        <ele>29.460000000000001</ele>
        <time>2023-08-19T08:30:50Z</time>
      </trkpt>
      <trkpt lat="57.562741991132498" lon="-3.848802968859673">
        <ele>29.460000000000001</ele>
        <time>2023-08-19T08:30:51Z</time>
      </trkpt>
      <trkpt lat="57.562723970040679" lon="-3.848938001319766">
        <ele>29.460000000000001</ele>
        <time>2023-08-19T08:30:52Z</time>
      </trkpt>
      <trkpt lat="57.562705026939511" lon="-3.849088959395886">
        <ele>28.98</ele>
        <time>2023-08-19T08:30:53Z</time>
      </trkpt>
      <trkpt lat="57.562667978927493" lon="-3.849232038483024">
        <ele>29.460000000000001</ele>
        <time>2023-08-19T08:30:54Z</time>
      </trkpt>
      <trkpt lat="57.562605030834675" lon="-3.849393976852298">
        <ele>29.460000000000001</ele>
        <time>2023-08-19T08:30:55Z</time>
      </trkpt>
      <trkpt lat="57.562536969780922" lon="-3.84956899099052">
        <ele>29.460000000000001</ele>
        <time>2023-08-19T08:30:56Z</time>
      </trkpt>
      <trkpt lat="57.562293978407979" lon="-3.850159998983145">
        <ele>30.420000000000002</ele>
        <time>2023-08-19T08:30:59Z</time>
      </trkpt>
      <trkpt lat="57.562201023101807" lon="-3.850345993414521">
        <ele>30.899999999999999</ele>
        <time>2023-08-19T08:31:00Z</time>
      </trkpt>
      <trkpt lat="57.562077976763248" lon="-3.850488988682628">
        <ele>30.899999999999999</ele>
        <time>2023-08-19T08:31:01Z</time>
      </trkpt>
      <trkpt lat="57.560504022985697" lon="-3.852081969380379">
        <ele>32.82</ele>
        <time>2023-08-19T08:31:13Z</time>
      </trkpt>
      <trkpt lat="57.559646973386407" lon="-3.85332802310586">
        <ele>34.259999999999998</ele>
        <time>2023-08-19T08:31:21Z</time>
      </trkpt>
      <trkpt lat="57.558588003739715" lon="-3.85526298545301">
        <ele>36.670000000000002</ele>
        <time>2023-08-19T08:31:31Z</time>
      </trkpt>
      <trkpt lat="57.557421997189522" lon="-3.857788033783436">
        <ele>32.82</ele>
        <time>2023-08-19T08:31:40Z</time>
      </trkpt>
      <trkpt lat="57.556146020069718" lon="-3.859960958361626">
        <ele>31.859999999999999</ele>
        <time>2023-08-19T08:31:49Z</time>
      </trkpt>
      <trkpt lat="57.554103014990687" lon="-3.863438023254275">
        <ele>25.609999999999999</ele>
        <time>2023-08-19T08:32:03Z</time>
      </trkpt>
      <trkpt lat="57.552976990118623" lon="-3.865787973627448">
        <ele>18.879999999999999</ele>
        <time>2023-08-19T08:32:12Z</time>
      </trkpt>
      <trkpt lat="57.552570970728993" lon="-3.867407022044063">
        <ele>16</ele>
        <time>2023-08-19T08:32:17Z</time>
      </trkpt>
      <trkpt lat="57.551691038534045" lon="-3.870859025046229">
        <ele>14.08</ele>
        <time>2023-08-19T08:32:28Z</time>
      </trkpt>
      <trkpt lat="57.550838012248278" lon="-3.873491026461124">
        <ele>16</ele>
        <time>2023-08-19T08:32:37Z</time>
      </trkpt>
      <trkpt lat="57.549986997619271" lon="-3.875817004591227">
        <ele>19.359999999999999</ele>
        <time>2023-08-19T08:32:45Z</time>
      </trkpt>
      <trkpt lat="57.549075968563557" lon="-3.877710979431868">
        <ele>21.77</ele>
        <time>2023-08-19T08:32:52Z</time>
      </trkpt>
      <trkpt lat="57.548331990838051" lon="-3.879287028685212">
        <ele>25.129999999999999</ele>
        <time>2023-08-19T08:32:58Z</time>
      </trkpt>
      <trkpt lat="57.547588013112545" lon="-3.88121796771884">
        <ele>25.129999999999999</ele>
        <time>2023-08-19T08:33:05Z</time>
      </trkpt>
      <trkpt lat="57.547007985413074" lon="-3.883207999169827">
        <ele>23.210000000000001</ele>
        <time>2023-08-19T08:33:12Z</time>
      </trkpt>
      <trkpt lat="57.546230982989073" lon="-3.885196018964052">
        <ele>22.73</ele>
        <time>2023-08-19T08:33:20Z</time>
      </trkpt>
      <trkpt lat="57.544792983680964" lon="-3.887414038181305">
        <ele>22.73</ele>
        <time>2023-08-19T08:33:31Z</time>
      </trkpt>
      <trkpt lat="57.543934006243944" lon="-3.889160994440317">
        <ele>23.690000000000001</ele>
        <time>2023-08-19T08:33:38Z</time>
      </trkpt>
      <trkpt lat="57.542536994442344" lon="-3.892017966136336">
        <ele>25.129999999999999</ele>
        <time>2023-08-19T08:33:49Z</time>
      </trkpt>
      <trkpt lat="57.540862038731575" lon="-3.895350024104118">
        <ele>26.09</ele>
        <time>2023-08-19T08:34:02Z</time>
      </trkpt>
      <trkpt lat="57.539870040491223" lon="-3.897895021364093">
        <ele>26.09</ele>
        <time>2023-08-19T08:34:12Z</time>
      </trkpt>
      <trkpt lat="57.538974015042186" lon="-3.899815985932946">
        <ele>27.050000000000001</ele>
        <time>2023-08-19T08:34:23Z</time>
      </trkpt>
      <trkpt lat="57.537779007107019" lon="-3.901594961062074">
        <ele>27.050000000000001</ele>
        <time>2023-08-19T08:34:36Z</time>
      </trkpt>
      <trkpt lat="57.536347964778543" lon="-3.903861008584499">
        <ele>31.379999999999999</ele>
        <time>2023-08-19T08:34:51Z</time>
      </trkpt>
      <trkpt lat="57.535636005923152" lon="-3.905835030600429">
        <ele>34.259999999999998</ele>
        <time>2023-08-19T08:35:00Z</time>
      </trkpt>
      <trkpt lat="57.534770993515849" lon="-3.909097015857697">
        <ele>36.670000000000002</ele>
        <time>2023-08-19T08:35:12Z</time>
      </trkpt>
      <trkpt lat="57.534146960824728" lon="-3.911483008414507">
        <ele>37.630000000000003</ele>
        <time>2023-08-19T08:35:20Z</time>
      </trkpt>
      <trkpt lat="57.533208020031452" lon="-3.914349032565951">
        <ele>39.549999999999997</ele>
        <time>2023-08-19T08:35:30Z</time>
      </trkpt>
      <trkpt lat="57.532661017030478" lon="-3.916791016235948">
        <ele>40.509999999999998</ele>
        <time>2023-08-19T08:35:38Z</time>
      </trkpt>
      <trkpt lat="57.532525984570384" lon="-3.917294014245272">
        <ele>40.990000000000002</ele>
        <time>2023-08-19T08:35:40Z</time>
      </trkpt>
      <trkpt lat="57.532445015385747" lon="-3.917504986748099">
        <ele>40.990000000000002</ele>
        <time>2023-08-19T08:35:41Z</time>
      </trkpt>
      <trkpt lat="57.532348036766052" lon="-3.917666003108025">
        <ele>40.990000000000002</ele>
        <time>2023-08-19T08:35:42Z</time>
      </trkpt>
      <trkpt lat="57.532239994034171" lon="-3.917814027518034">
        <ele>40.509999999999998</ele>
        <time>2023-08-19T08:35:43Z</time>
      </trkpt>
      <trkpt lat="57.532122982665896" lon="-3.91793598420918">
        <ele>40.509999999999998</ele>
        <time>2023-08-19T08:35:44Z</time>
      </trkpt>
      <trkpt lat="57.530832001939416" lon="-3.91926602460444">
        <ele>40.990000000000002</ele>
        <time>2023-08-19T08:35:53Z</time>
      </trkpt>
      <trkpt lat="57.529435995966196" lon="-3.92126502469182">
        <ele>43.880000000000003</ele>
        <time>2023-08-19T08:36:03Z</time>
      </trkpt>
      <trkpt lat="57.52862898632884" lon="-3.923728968948126">
        <ele>46.280000000000001</ele>
        <time>2023-08-19T08:36:12Z</time>
      </trkpt>
      <trkpt lat="57.527993973344564" lon="-3.925741966813803">
        <ele>48.68</ele>
        <time>2023-08-19T08:36:21Z</time>
      </trkpt>
      <trkpt lat="57.527465997263789" lon="-3.927739039063454">
        <ele>52.049999999999997</ele>
        <time>2023-08-19T08:36:32Z</time>
      </trkpt>
      <trkpt lat="57.52695101313293" lon="-3.929303018376231">
        <ele>53.009999999999998</ele>
        <time>2023-08-19T08:36:40Z</time>
      </trkpt>
      <trkpt lat="57.526868032291532" lon="-3.929466968402267">
        <ele>53.009999999999998</ele>
        <time>2023-08-19T08:36:41Z</time>
      </trkpt>
      <trkpt lat="57.526775998994708" lon="-3.929604012519121">
        <ele>53.490000000000002</ele>
        <time>2023-08-19T08:36:42Z</time>
      </trkpt>
      <trkpt lat="57.525690961629152" lon="-3.931286009028554">
        <ele>56.369999999999997</ele>
        <time>2023-08-19T08:36:54Z</time>
      </trkpt>
      <trkpt lat="57.525522988289595" lon="-3.931616004556418">
        <ele>56.859999999999999</ele>
        <time>2023-08-19T08:36:56Z</time>
      </trkpt>
      <trkpt lat="57.525187041610479" lon="-3.93267598003149">
        <ele>57.82</ele>
        <time>2023-08-19T08:37:02Z</time>
      </trkpt>
      <trkpt lat="57.525153011083603" lon="-3.93288997001946">
        <ele>57.82</ele>
        <time>2023-08-19T08:37:03Z</time>
      </trkpt>
      <trkpt lat="57.524883029982448" lon="-3.934557968750596">
        <ele>58.299999999999997</ele>
        <time>2023-08-19T08:37:11Z</time>
      </trkpt>
      <trkpt lat="57.52484698779881" lon="-3.934775982052088">
        <ele>58.299999999999997</ele>
        <time>2023-08-19T08:37:12Z</time>
      </trkpt>
      <trkpt lat="57.524749003350735" lon="-3.935473021119833">
        <ele>58.780000000000001</ele>
        <time>2023-08-19T08:37:15Z</time>
      </trkpt>
      <trkpt lat="57.524714972823858" lon="-3.935721041634679">
        <ele>59.259999999999998</ele>
        <time>2023-08-19T08:37:16Z</time>
      </trkpt>
      <trkpt lat="57.524682031944394" lon="-3.935962021350861">
        <ele>59.259999999999998</ele>
        <time>2023-08-19T08:37:17Z</time>
      </trkpt>
      <trkpt lat="57.524651018902659" lon="-3.936721002683044">
        <ele>59.259999999999998</ele>
        <time>2023-08-19T08:37:20Z</time>
      </trkpt>
      <trkpt lat="57.524653030559421" lon="-3.936987966299057">
        <ele>59.259999999999998</ele>
        <time>2023-08-19T08:37:21Z</time>
      </trkpt>
      <trkpt lat="57.524799965322018" lon="-3.939879974350333">
        <ele>55.890000000000001</ele>
        <time>2023-08-19T08:37:30Z</time>
      </trkpt>
      <trkpt lat="57.524893004447222" lon="-3.94133297726512">
        <ele>52.530000000000001</ele>
        <time>2023-08-19T08:37:34Z</time>
      </trkpt>
      <trkpt lat="57.525498010218143" lon="-3.945296024903655">
        <ele>49.649999999999999</ele>
        <time>2023-08-19T08:37:45Z</time>
      </trkpt>
      <trkpt lat="57.52579104155302" lon="-3.948155008256435">
        <ele>50.130000000000003</ele>
        <time>2023-08-19T08:37:53Z</time>
      </trkpt>
      <trkpt lat="57.525768997147679" lon="-3.948510987684131">
        <ele>49.649999999999999</ele>
        <time>2023-08-19T08:37:54Z</time>
      </trkpt>
      <trkpt lat="57.525719041004777" lon="-3.948849029839039">
        <ele>49.649999999999999</ele>
        <time>2023-08-19T08:37:55Z</time>
      </trkpt>
      <trkpt lat="57.525662966072559" lon="-3.949193023145199">
        <ele>49.649999999999999</ele>
        <time>2023-08-19T08:37:56Z</time>
      </trkpt>
      <trkpt lat="57.525601023808122" lon="-3.949535004794598">
        <ele>49.649999999999999</ele>
        <time>2023-08-19T08:37:57Z</time>
      </trkpt>
      <trkpt lat="57.525509996339679" lon="-3.949867011979222">
        <ele>49.649999999999999</ele>
        <time>2023-08-19T08:37:58Z</time>
      </trkpt>
      <trkpt lat="57.524246005341411" lon="-3.954471023753285">
        <ele>52.530000000000001</ele>
        <time>2023-08-19T08:38:12Z</time>
      </trkpt>
      <trkpt lat="57.524094041436911" lon="-3.955098995938897">
        <ele>52.530000000000001</ele>
        <time>2023-08-19T08:38:14Z</time>
      </trkpt>
      <trkpt lat="57.524047018960118" lon="-3.955434020608664">
        <ele>52.530000000000001</ele>
        <time>2023-08-19T08:38:15Z</time>
      </trkpt>
      <trkpt lat="57.523719035089016" lon="-3.957781037315726">
        <ele>53.490000000000002</ele>
        <time>2023-08-19T08:38:23Z</time>
      </trkpt>
      <trkpt lat="57.523491969332099" lon="-3.959713988006115">
        <ele>56.859999999999999</ele>
        <time>2023-08-19T08:38:32Z</time>
      </trkpt>
      <trkpt lat="57.523472020402551" lon="-3.959910040721297">
        <ele>57.340000000000003</ele>
        <time>2023-08-19T08:38:33Z</time>
      </trkpt>
      <trkpt lat="57.523362971842289" lon="-3.960249004885554">
        <ele>57.82</ele>
        <time>2023-08-19T08:38:35Z</time>
      </trkpt>
      <trkpt lat="57.523343022912741" lon="-3.960421001538634">
        <ele>57.82</ele>
        <time>2023-08-19T08:38:36Z</time>
      </trkpt>
      <trkpt lat="57.523121992126107" lon="-3.962284969165921">
        <ele>57.82</ele>
        <time>2023-08-19T08:38:45Z</time>
      </trkpt>
      <trkpt lat="57.522639026865363" lon="-3.964308025315404">
        <ele>58.780000000000001</ele>
        <time>2023-08-19T08:38:54Z</time>
      </trkpt>
      <trkpt lat="57.521691033616662" lon="-3.967508990317583">
        <ele>59.259999999999998</ele>
        <time>2023-08-19T08:39:06Z</time>
      </trkpt>
      <trkpt lat="57.520886035636067" lon="-3.969956003129482">
        <ele>59.740000000000002</ele>
        <time>2023-08-19T08:39:15Z</time>
      </trkpt>
      <trkpt lat="57.520772041752934" lon="-3.970109978690743">
        <ele>59.740000000000002</ele>
        <time>2023-08-19T08:39:16Z</time>
      </trkpt>
      <trkpt lat="57.519746012985706" lon="-3.971647974103689">
        <ele>59.740000000000002</ele>
        <time>2023-08-19T08:39:24Z</time>
      </trkpt>
      <trkpt lat="57.519650040194392" lon="-3.971838997676969">
        <ele>59.740000000000002</ele>
        <time>2023-08-19T08:39:25Z</time>
      </trkpt>
      <trkpt lat="57.519532022997737" lon="-3.971982998773456">
        <ele>59.740000000000002</ele>
        <time>2023-08-19T08:39:26Z</time>
      </trkpt>
      <trkpt lat="57.519425991922617" lon="-3.972095986828208">
        <ele>59.740000000000002</ele>
        <time>2023-08-19T08:39:27Z</time>
      </trkpt>
      <trkpt lat="57.519317027181387" lon="-3.972209980711341">
        <ele>59.740000000000002</ele>
        <time>2023-08-19T08:39:28Z</time>
      </trkpt>
      <trkpt lat="57.519191969186068" lon="-3.97229103371501">
        <ele>59.740000000000002</ele>
        <time>2023-08-19T08:39:29Z</time>
      </trkpt>
      <trkpt lat="57.519064983353019" lon="-3.972335960716009">
        <ele>59.740000000000002</ele>
        <time>2023-08-19T08:39:30Z</time>
      </trkpt>
      <trkpt lat="57.518945038318634" lon="-3.972378959879279">
        <ele>59.740000000000002</ele>
        <time>2023-08-19T08:39:31Z</time>
      </trkpt>
      <trkpt lat="57.518828026950359" lon="-3.97237803786993">
        <ele>59.740000000000002</ele>
        <time>2023-08-19T08:39:32Z</time>
      </trkpt>
      <trkpt lat="57.518718978390098" lon="-3.972352975979447">
        <ele>59.740000000000002</ele>
        <time>2023-08-19T08:39:33Z</time>
      </trkpt>
      <trkpt lat="57.518621999770403" lon="-3.972330009564757">
        <ele>59.740000000000002</ele>
        <time>2023-08-19T08:39:34Z</time>
      </trkpt>
      <trkpt lat="57.518544970080256" lon="-3.972249962389469">
        <ele>60.219999999999999</ele>
        <time>2023-08-19T08:39:35Z</time>
      </trkpt>
      <trkpt lat="57.518452014774084" lon="-3.972153989598155">
        <ele>60.219999999999999</ele>
        <time>2023-08-19T08:39:36Z</time>
      </trkpt>
      <trkpt lat="57.518261997029185" lon="-3.971953997388482">
        <ele>60.700000000000003</ele>
        <time>2023-08-19T08:39:38Z</time>
      </trkpt>
      <trkpt lat="57.518150014802814" lon="-3.971846960484982">
        <ele>60.700000000000003</ele>
        <time>2023-08-19T08:39:39Z</time>
      </trkpt>
      <trkpt lat="57.518033003434539" lon="-3.971782000735402">
        <ele>61.18</ele>
        <time>2023-08-19T08:39:40Z</time>
      </trkpt>
      <trkpt lat="57.517913980409503" lon="-3.971752999350429">
        <ele>61.18</ele>
        <time>2023-08-19T08:39:41Z</time>
      </trkpt>
      <trkpt lat="57.517804009839892" lon="-3.971757022663951">
        <ele>61.659999999999997</ele>
        <time>2023-08-19T08:39:42Z</time>
      </trkpt>
      <trkpt lat="57.517692027613521" lon="-3.971760962158442">
        <ele>61.659999999999997</ele>
        <time>2023-08-19T08:39:43Z</time>
      </trkpt>
      <trkpt lat="57.517565963789821" lon="-3.971764985471964">
        <ele>62.140000000000001</ele>
        <time>2023-08-19T08:39:44Z</time>
      </trkpt>
      <trkpt lat="57.517441995441914" lon="-3.971769008785486">
        <ele>61.659999999999997</ele>
        <time>2023-08-19T08:39:45Z</time>
      </trkpt>
      <trkpt lat="57.516772029921412" lon="-3.971791975200176">
        <ele>63.579999999999998</ele>
        <time>2023-08-19T08:39:52Z</time>
      </trkpt>
      <trkpt lat="57.51668200828135" lon="-3.971726009622216">
        <ele>63.579999999999998</ele>
        <time>2023-08-19T08:39:53Z</time>
      </trkpt>
      <trkpt lat="57.516606990247965" lon="-3.97162701934576">
        <ele>64.069999999999993</ele>
        <time>2023-08-19T08:39:54Z</time>
      </trkpt>
      <trkpt lat="57.516537001356483" lon="-3.971531968563795">
        <ele>64.549999999999997</ele>
        <time>2023-08-19T08:39:55Z</time>
      </trkpt>
      <trkpt lat="57.516467012465" lon="-3.971439013257623">
        <ele>64.549999999999997</ele>
        <time>2023-08-19T08:39:56Z</time>
      </trkpt>
      <trkpt lat="57.516387971118093" lon="-3.971332982182503">
        <ele>64.549999999999997</ele>
        <time>2023-08-19T08:39:57Z</time>
      </trkpt>
      <trkpt lat="57.516309013590217" lon="-3.971228040754795">
        <ele>64.549999999999997</ele>
        <time>2023-08-19T08:39:58Z</time>
      </trkpt>
      <trkpt lat="57.516218991950154" lon="-3.971170037984848">
        <ele>65.030000000000001</ele>
        <time>2023-08-19T08:39:59Z</time>
      </trkpt>
      <trkpt lat="57.516125030815601" lon="-3.971136007457972">
        <ele>65.030000000000001</ele>
        <time>2023-08-19T08:40:00Z</time>
      </trkpt>
      <trkpt lat="57.516026040539145" lon="-3.97111102938652">
        <ele>65.030000000000001</ele>
        <time>2023-08-19T08:40:01Z</time>
      </trkpt>
      <trkpt lat="57.515922021120787" lon="-3.97113399580121">
        <ele>65.030000000000001</ele>
        <time>2023-08-19T08:40:02Z</time>
      </trkpt>
      <trkpt lat="57.515703001990914" lon="-3.971183029934764">
        <ele>64.549999999999997</ele>
        <time>2023-08-19T08:40:04Z</time>
      </trkpt>
      <trkpt lat="57.515593031421304" lon="-3.971253018826246">
        <ele>64.549999999999997</ele>
        <time>2023-08-19T08:40:05Z</time>
      </trkpt>
      <trkpt lat="57.515489012002945" lon="-3.971346979960799">
        <ele>64.069999999999993</ele>
        <time>2023-08-19T08:40:06Z</time>
      </trkpt>
      <trkpt lat="57.515422962605953" lon="-3.971437001600862">
        <ele>64.069999999999993</ele>
        <time>2023-08-19T08:40:07Z</time>
      </trkpt>
      <trkpt lat="57.515368983149529" lon="-3.971560969948769">
        <ele>64.069999999999993</ele>
        <time>2023-08-19T08:40:08Z</time>
      </trkpt>
      <trkpt lat="57.515303017571568" lon="-3.9717130176723">
        <ele>64.069999999999993</ele>
        <time>2023-08-19T08:40:09Z</time>
      </trkpt>
      <trkpt lat="57.515234034508467" lon="-3.971871016547084">
        <ele>64.069999999999993</ele>
        <time>2023-08-19T08:40:10Z</time>
      </trkpt>
      <trkpt lat="57.515165973454714" lon="-3.972025997936726">
        <ele>64.069999999999993</ele>
        <time>2023-08-19T08:40:11Z</time>
      </trkpt>
      <trkpt lat="57.515089027583599" lon="-3.972202017903328">
        <ele>64.549999999999997</ele>
        <time>2023-08-19T08:40:12Z</time>
      </trkpt>
      <trkpt lat="57.514400035142899" lon="-3.973586959764361">
        <ele>66.950000000000003</ele>
        <time>2023-08-19T08:40:20Z</time>
      </trkpt>
      <trkpt lat="57.513449024409056" lon="-3.975568022578955">
        <ele>70.310000000000002</ele>
        <time>2023-08-19T08:40:30Z</time>
      </trkpt>
      <trkpt lat="57.512674033641815" lon="-3.977394020184875">
        <ele>73.200000000000003</ele>
        <time>2023-08-19T08:40:38Z</time>
      </trkpt>
      <trkpt lat="57.512214034795761" lon="-3.978193989023566">
        <ele>74.640000000000001</ele>
        <time>2023-08-19T08:40:42Z</time>
      </trkpt>
      <trkpt lat="57.511175014078617" lon="-3.979678004980087">
        <ele>78.480000000000004</ele>
        <time>2023-08-19T08:40:51Z</time>
      </trkpt>
      <trkpt lat="57.510931016877294" lon="-3.979874979704619">
        <ele>78.969999999999999</ele>
        <time>2023-08-19T08:40:53Z</time>
      </trkpt>
      <trkpt lat="57.510586017742753" lon="-3.980153007432818">
        <ele>80.409999999999997</ele>
        <time>2023-08-19T08:40:56Z</time>
      </trkpt>
      <trkpt lat="57.510508988052607" lon="-3.980292985215783">
        <ele>80.890000000000001</ele>
        <time>2023-08-19T08:40:57Z</time>
      </trkpt>
      <trkpt lat="57.510435981675982" lon="-3.980438997969031">
        <ele>81.370000000000005</ele>
        <time>2023-08-19T08:40:58Z</time>
      </trkpt>
      <trkpt lat="57.510360963642597" lon="-3.980588028207421">
        <ele>81.849999999999994</ele>
        <time>2023-08-19T08:40:59Z</time>
      </trkpt>
      <trkpt lat="57.510286029428244" lon="-3.980739992111921">
        <ele>82.329999999999998</ele>
        <time>2023-08-19T08:41:00Z</time>
      </trkpt>
      <trkpt lat="57.510203970596194" lon="-3.980903020128608">
        <ele>82.329999999999998</ele>
        <time>2023-08-19T08:41:01Z</time>
      </trkpt>
      <trkpt lat="57.510119983926415" lon="-3.981070993468165">
        <ele>82.329999999999998</ele>
        <time>2023-08-19T08:41:02Z</time>
      </trkpt>
      <trkpt lat="57.510031973943114" lon="-3.981242990121245">
        <ele>82.810000000000002</ele>
        <time>2023-08-19T08:41:03Z</time>
      </trkpt>
      <trkpt lat="57.509928038343787" lon="-3.981394032016397">
        <ele>83.290000000000006</ele>
        <time>2023-08-19T08:41:04Z</time>
      </trkpt>
      <trkpt lat="57.508944002911448" lon="-3.982822978869081">
        <ele>87.140000000000001</ele>
        <time>2023-08-19T08:41:13Z</time>
      </trkpt>
      <trkpt lat="57.508679972961545" lon="-3.983420021831989">
        <ele>85.689999999999998</ele>
        <time>2023-08-19T08:41:16Z</time>
      </trkpt>
      <trkpt lat="57.507648998871446" lon="-3.985752034932375">
        <ele>87.620000000000005</ele>
        <time>2023-08-19T08:41:28Z</time>
      </trkpt>
      <trkpt lat="57.50669396482408" lon="-3.988089999184012">
        <ele>89.540000000000006</ele>
        <time>2023-08-19T08:41:39Z</time>
      </trkpt>
      <trkpt lat="57.505742032080889" lon="-3.990618987008929">
        <ele>90.5</ele>
        <time>2023-08-19T08:41:51Z</time>
      </trkpt>
      <trkpt lat="57.50450000166893" lon="-3.993528010323644">
        <ele>92.900000000000006</ele>
        <time>2023-08-19T08:42:05Z</time>
      </trkpt>
      <trkpt lat="57.50333801843226" lon="-3.996170992031694">
        <ele>91.939999999999998</ele>
        <time>2023-08-19T08:42:17Z</time>
      </trkpt>
      <trkpt lat="57.502668974921107" lon="-3.997685015201569">
        <ele>91.939999999999998</ele>
        <time>2023-08-19T08:42:25Z</time>
      </trkpt>
      <trkpt lat="57.502606026828289" lon="-3.997787022963166">
        <ele>91.939999999999998</ele>
        <time>2023-08-19T08:42:26Z</time>
      </trkpt>
      <trkpt lat="57.502539977431297" lon="-3.99785902351141">
        <ele>91.939999999999998</ele>
        <time>2023-08-19T08:42:27Z</time>
      </trkpt>
      <trkpt lat="57.502466971054673" lon="-3.997896993532777">
        <ele>91.939999999999998</ele>
        <time>2023-08-19T08:42:28Z</time>
      </trkpt>
      <trkpt lat="57.502390025183558" lon="-3.997937981039286">
        <ele>91.939999999999998</ele>
        <time>2023-08-19T08:42:29Z</time>
      </trkpt>
      <trkpt lat="57.50230603851378" lon="-3.997981986030936">
        <ele>91.939999999999998</ele>
        <time>2023-08-19T08:42:30Z</time>
      </trkpt>
      <trkpt lat="57.501543033868074" lon="-3.998380964621902">
        <ele>93.390000000000001</ele>
        <time>2023-08-19T08:42:37Z</time>
      </trkpt>
      <trkpt lat="57.501429039984941" lon="-3.998439973220229">
        <ele>93.870000000000005</ele>
        <time>2023-08-19T08:42:38Z</time>
      </trkpt>
      <trkpt lat="57.500206036493182" lon="-3.99908403865993">
        <ele>102.52</ele>
        <time>2023-08-19T08:42:49Z</time>
      </trkpt>
      <trkpt lat="57.499525006860495" lon="-3.999367011711001">
        <ele>108.77</ele>
        <time>2023-08-19T08:42:55Z</time>
      </trkpt>
      <trkpt lat="57.499415958300233" lon="-3.999367011711001">
        <ele>109.73</ele>
        <time>2023-08-19T08:42:56Z</time>
      </trkpt>
      <trkpt lat="57.499307999387383" lon="-3.999367011711001">
        <ele>111.17</ele>
        <time>2023-08-19T08:42:57Z</time>
      </trkpt>
      <trkpt lat="57.498621018603444" lon="-3.999311020597816">
        <ele>116.94</ele>
        <time>2023-08-19T08:43:03Z</time>
      </trkpt>
      <trkpt lat="57.498282976448536" lon="-3.999164002016187">
        <ele>118.86</ele>
        <time>2023-08-19T08:43:06Z</time>
      </trkpt>
      <trkpt lat="57.497325008735061" lon="-3.999143969267607">
        <ele>124.15000000000001</ele>
        <time>2023-08-19T08:43:14Z</time>
      </trkpt>
      <trkpt lat="57.497229035943747" lon="-3.999183028936386">
        <ele>124.15000000000001</ele>
        <time>2023-08-19T08:43:15Z</time>
      </trkpt>
      <trkpt lat="57.497133985161781" lon="-3.999222004786134">
        <ele>125.11</ele>
        <time>2023-08-19T08:43:16Z</time>
      </trkpt>
      <trkpt lat="57.49704597517848" lon="-3.99925796315074">
        <ele>125.59</ele>
        <time>2023-08-19T08:43:17Z</time>
      </trkpt>
      <trkpt lat="57.496860986575484" lon="-3.999346978962421">
        <ele>126.06999999999999</ele>
        <time>2023-08-19T08:43:19Z</time>
      </trkpt>
      <trkpt lat="57.49676400795579" lon="-3.999464996159077">
        <ele>126.55</ele>
        <time>2023-08-19T08:43:20Z</time>
      </trkpt>
      <trkpt lat="57.496699970215559" lon="-3.999625006690621">
        <ele>126.55</ele>
        <time>2023-08-19T08:43:21Z</time>
      </trkpt>
      <trkpt lat="57.49663601629436" lon="-3.999784011393786">
        <ele>126.55</ele>
        <time>2023-08-19T08:43:22Z</time>
      </trkpt>
      <trkpt lat="57.496568039059639" lon="-3.999959025532007">
        <ele>127.03</ele>
        <time>2023-08-19T08:43:23Z</time>
      </trkpt>
      <trkpt lat="57.495716018602252" lon="-4.002185007557273">
        <ele>129.91999999999999</ele>
        <time>2023-08-19T08:43:34Z</time>
      </trkpt>
      <trkpt lat="57.494925018399954" lon="-4.004251984879375">
        <ele>134.72</ele>
        <time>2023-08-19T08:43:44Z</time>
      </trkpt>
      <trkpt lat="57.493846016004682" lon="-4.006955986842513">
        <ele>138.09</ele>
        <time>2023-08-19T08:43:57Z</time>
      </trkpt>
      <trkpt lat="57.493218965828419" lon="-4.008524995297194">
        <ele>138.56999999999999</ele>
        <time>2023-08-19T08:44:04Z</time>
      </trkpt>
      <trkpt lat="57.493125004693866" lon="-4.008760023862124">
        <ele>138.56999999999999</ele>
        <time>2023-08-19T08:44:05Z</time>
      </trkpt>
      <trkpt lat="57.492217998951674" lon="-4.01103001087904">
        <ele>137.13</ele>
        <time>2023-08-19T08:44:15Z</time>
      </trkpt>
      <trkpt lat="57.491336977109313" lon="-4.013278959318996">
        <ele>135.68000000000001</ele>
        <time>2023-08-19T08:44:25Z</time>
      </trkpt>
      <trkpt lat="57.490543965250254" lon="-4.016189994290471">
        <ele>135.68000000000001</ele>
        <time>2023-08-19T08:44:36Z</time>
      </trkpt>
      <trkpt lat="57.489863019436598" lon="-4.017973998561502">
        <ele>132.80000000000001</ele>
        <time>2023-08-19T08:44:44Z</time>
      </trkpt>
      <trkpt lat="57.489605024456978" lon="-4.018480014055967">
        <ele>131.36000000000001</ele>
        <time>2023-08-19T08:44:47Z</time>
      </trkpt>
      <trkpt lat="57.488716961815953" lon="-4.019971992820501">
        <ele>127.03</ele>
        <time>2023-08-19T08:44:56Z</time>
      </trkpt>
      <trkpt lat="57.488367017358541" lon="-4.020651010796428">
        <ele>125.59</ele>
        <time>2023-08-19T08:45:00Z</time>
      </trkpt>
      <trkpt lat="57.488317983224988" lon="-4.020837005227804">
        <ele>125.59</ele>
        <time>2023-08-19T08:45:01Z</time>
      </trkpt>
      <trkpt lat="57.488264003768563" lon="-4.021045966073871">
        <ele>125.11</ele>
        <time>2023-08-19T08:45:02Z</time>
      </trkpt>
      <trkpt lat="57.488014977425337" lon="-4.021965963765979">
        <ele>123.67</ele>
        <time>2023-08-19T08:45:08Z</time>
      </trkpt>
      <trkpt lat="57.487684981897473" lon="-4.022765010595322">
        <ele>124.15000000000001</ele>
        <time>2023-08-19T08:45:19Z</time>
      </trkpt>
      <trkpt lat="57.487215008586645" lon="-4.023903021588922">
        <ele>126.06999999999999</ele>
        <time>2023-08-19T08:45:25Z</time>
      </trkpt>
      <trkpt lat="57.486544959247112" lon="-4.025627011433244">
        <ele>133.28</ele>
        <time>2023-08-19T08:45:33Z</time>
      </trkpt>
      <trkpt lat="57.48656096868217" lon="-4.025782998651266">
        <ele>133.75999999999999</ele>
        <time>2023-08-19T08:45:34Z</time>
      </trkpt>
      <trkpt lat="57.486584018915892" lon="-4.025938985869288">
        <ele>134.72</ele>
        <time>2023-08-19T08:45:35Z</time>
      </trkpt>
      <trkpt lat="57.486610002815723" lon="-4.02611299417913">
        <ele>135.19999999999999</ele>
        <time>2023-08-19T08:45:36Z</time>
      </trkpt>
      <trkpt lat="57.486636992543936" lon="-4.026296976953745">
        <ele>135.68000000000001</ele>
        <time>2023-08-19T08:45:37Z</time>
      </trkpt>
      <trkpt lat="57.486648978665471" lon="-4.026486994698644">
        <ele>135.68000000000001</ele>
        <time>2023-08-19T08:45:38Z</time>
      </trkpt>
      <trkpt lat="57.486648978665471" lon="-4.026676006615162">
        <ele>135.68000000000001</ele>
        <time>2023-08-19T08:45:39Z</time>
      </trkpt>
      <trkpt lat="57.486619977280498" lon="-4.026856971904635">
        <ele>135.68000000000001</ele>
        <time>2023-08-19T08:45:40Z</time>
      </trkpt>
      <trkpt lat="57.486571026965976" lon="-4.027044977992773">
        <ele>135.68000000000001</ele>
        <time>2023-08-19T08:45:41Z</time>
      </trkpt>
      <trkpt lat="57.4865179695189" lon="-4.027245976030827">
        <ele>135.68000000000001</ele>
        <time>2023-08-19T08:45:42Z</time>
      </trkpt>
      <trkpt lat="57.485980018973351" lon="-4.029153026640415">
        <ele>132.31999999999999</ele>
        <time>2023-08-19T08:45:50Z</time>
      </trkpt>
      <trkpt lat="57.485137972980738" lon="-4.031375991180539">
        <ele>132.80000000000001</ele>
        <time>2023-08-19T08:46:00Z</time>
      </trkpt>
      <trkpt lat="57.485044011846185" lon="-4.031532984226942">
        <ele>132.80000000000001</ele>
        <time>2023-08-19T08:46:01Z</time>
      </trkpt>
      <trkpt lat="57.483869958668947" lon="-4.033078020438552">
        <ele>137.13</ele>
        <time>2023-08-19T08:46:11Z</time>
      </trkpt>
      <trkpt lat="57.482923977077007" lon="-4.034489030018449">
        <ele>139.05000000000001</ele>
        <time>2023-08-19T08:46:20Z</time>
      </trkpt>
      <trkpt lat="57.482163989916444" lon="-4.035721002146602">
        <ele>138.09</ele>
        <time>2023-08-19T08:46:29Z</time>
      </trkpt>
      <trkpt lat="57.481907000765204" lon="-4.036130961030722">
        <ele>139.05000000000001</ele>
        <time>2023-08-19T08:46:32Z</time>
      </trkpt>
      <trkpt lat="57.481855032965541" lon="-4.036300024017692">
        <ele>139.05000000000001</ele>
        <time>2023-08-19T08:46:33Z</time>
      </trkpt>
      <trkpt lat="57.481291014701128" lon="-4.037692006677389">
        <ele>142.88999999999999</ele>
        <time>2023-08-19T08:46:41Z</time>
      </trkpt>
      <trkpt lat="57.480535972863436" lon="-4.039322035387158">
        <ele>145.30000000000001</ele>
        <time>2023-08-19T08:46:49Z</time>
      </trkpt>
      <trkpt lat="57.479394022375345" lon="-4.041965017095208">
        <ele>146.25999999999999</ele>
        <time>2023-08-19T08:47:01Z</time>
      </trkpt>
      <trkpt lat="57.478494979441166" lon="-4.044344974681735">
        <ele>148.18000000000001</ele>
        <time>2023-08-19T08:47:12Z</time>
      </trkpt>
      <trkpt lat="57.477931967005134" lon="-4.046120010316372">
        <ele>147.22</ele>
        <time>2023-08-19T08:47:20Z</time>
      </trkpt>
      <trkpt lat="57.477358980104327" lon="-4.047821033746004">
        <ele>148.66</ele>
        <time>2023-08-19T08:47:28Z</time>
      </trkpt>
      <trkpt lat="57.477164017036557" lon="-4.048137031495571">
        <ele>148.18000000000001</ele>
        <time>2023-08-19T08:47:30Z</time>
      </trkpt>
      <trkpt lat="57.476980034261942" lon="-4.048394020646811">
        <ele>148.18000000000001</ele>
        <time>2023-08-19T08:47:32Z</time>
      </trkpt>
      <trkpt lat="57.476885989308357" lon="-4.048526035621762">
        <ele>148.18000000000001</ele>
        <time>2023-08-19T08:47:33Z</time>
      </trkpt>
      <trkpt lat="57.476831004023552" lon="-4.048685040324926">
        <ele>148.18000000000001</ele>
        <time>2023-08-19T08:47:34Z</time>
      </trkpt>
      <trkpt lat="57.476636040955782" lon="-4.049250986427069">
        <ele>149.13999999999999</ele>
        <time>2023-08-19T08:47:37Z</time>
      </trkpt>
      <trkpt lat="57.475926009938121" lon="-4.050943963229656">
        <ele>152.50999999999999</ele>
        <time>2023-08-19T08:47:46Z</time>
      </trkpt>
      <trkpt lat="57.475539017468691" lon="-4.051882987841964">
        <ele>152.50999999999999</ele>
        <time>2023-08-19T08:47:51Z</time>
      </trkpt>
      <trkpt lat="57.475414965301752" lon="-4.05226000584662">
        <ele>152.99000000000001</ele>
        <time>2023-08-19T08:47:53Z</time>
      </trkpt>
      <trkpt lat="57.47534598223865" lon="-4.052467038854957">
        <ele>152.99000000000001</ele>
        <time>2023-08-19T08:47:54Z</time>
      </trkpt>
      <trkpt lat="57.474869973957539" lon="-4.053853992372751">
        <ele>151.53999999999999</ele>
        <time>2023-08-19T08:48:01Z</time>
      </trkpt>
      <trkpt lat="57.47478598728776" lon="-4.053998999297619">
        <ele>151.06</ele>
        <time>2023-08-19T08:48:02Z</time>
      </trkpt>
      <trkpt lat="57.474695965647697" lon="-4.05415297485888">
        <ele>150.58000000000001</ele>
        <time>2023-08-19T08:48:03Z</time>
      </trkpt>
      <trkpt lat="57.474330011755228" lon="-4.054778013378382">
        <ele>148.18000000000001</ele>
        <time>2023-08-19T08:48:08Z</time>
      </trkpt>
      <trkpt lat="57.47429103590548" lon="-4.054844984784722">
        <ele>147.69999999999999</ele>
        <time>2023-08-19T08:48:09Z</time>
      </trkpt>
      <trkpt lat="57.474257005378604" lon="-4.05490399338305">
        <ele>147.22</ele>
        <time>2023-08-19T08:48:10Z</time>
      </trkpt>
      <trkpt lat="57.474277038127184" lon="-4.054954033344984">
        <ele>146.74000000000001</ele>
        <time>2023-08-19T08:48:11Z</time>
      </trkpt>
      <trkpt lat="57.474311990663409" lon="-4.054994015023112">
        <ele>146.25999999999999</ele>
        <time>2023-08-19T08:48:12Z</time>
      </trkpt>
      <trkpt lat="57.474358007311821" lon="-4.055044976994395">
        <ele>145.78</ele>
        <time>2023-08-19T08:48:13Z</time>
      </trkpt>
      <trkpt lat="57.474412992596626" lon="-4.055107003077865">
        <ele>145.30000000000001</ele>
        <time>2023-08-19T08:48:14Z</time>
      </trkpt>
      <trkpt lat="57.474476024508476" lon="-4.055176991969347">
        <ele>144.81999999999999</ele>
        <time>2023-08-19T08:48:15Z</time>
      </trkpt>
      <trkpt lat="57.474876008927822" lon="-4.055623998865485">
        <ele>142.41</ele>
        <time>2023-08-19T08:48:20Z</time>
      </trkpt>
      <trkpt lat="57.475425023585558" lon="-4.056058013811708">
        <ele>139.53</ele>
        <time>2023-08-19T08:48:25Z</time>
      </trkpt>
      <trkpt lat="57.475554021075368" lon="-4.05615096911788">
        <ele>138.56999999999999</ele>
        <time>2023-08-19T08:48:26Z</time>
      </trkpt>
      <trkpt lat="57.475687963888049" lon="-4.056247025728226">
        <ele>137.61000000000001</ele>
        <time>2023-08-19T08:48:27Z</time>
      </trkpt>
      <trkpt lat="57.476115021854639" lon="-4.056550031527877">
        <ele>132.80000000000001</ele>
        <time>2023-08-19T08:48:31Z</time>
      </trkpt>
      <trkpt lat="57.476198002696037" lon="-4.05662395991385">
        <ele>131.36000000000001</ele>
        <time>2023-08-19T08:48:32Z</time>
      </trkpt>
      <trkpt lat="57.476266985759139" lon="-4.056721022352576">
        <ele>129.91999999999999</ele>
        <time>2023-08-19T08:48:33Z</time>
      </trkpt>
      <trkpt lat="57.47633202932775" lon="-4.056847002357245">
        <ele>128.94999999999999</ele>
        <time>2023-08-19T08:48:34Z</time>
      </trkpt>
      <trkpt lat="57.476347032934427" lon="-4.05698899179697">
        <ele>127.51000000000001</ele>
        <time>2023-08-19T08:48:35Z</time>
      </trkpt>
      <trkpt lat="57.476362036541104" lon="-4.057142967358232">
        <ele>126.55</ele>
        <time>2023-08-19T08:48:36Z</time>
      </trkpt>
      <trkpt lat="57.47637796215713" lon="-4.057293003425002">
        <ele>125.11</ele>
        <time>2023-08-19T08:48:37Z</time>
      </trkpt>
      <trkpt lat="57.476393971592188" lon="-4.057448990643024">
        <ele>123.67</ele>
        <time>2023-08-19T08:48:38Z</time>
      </trkpt>
      <trkpt lat="57.476409981027246" lon="-4.05761101283133">
        <ele>122.22</ele>
        <time>2023-08-19T08:48:39Z</time>
      </trkpt>
      <trkpt lat="57.476446023210883" lon="-4.057748978957534">
        <ele>121.26000000000001</ele>
        <time>2023-08-19T08:48:40Z</time>
      </trkpt>
      <trkpt lat="57.476484999060631" lon="-4.057875964790583">
        <ele>119.81999999999999</ele>
        <time>2023-08-19T08:48:41Z</time>
      </trkpt>
      <trkpt lat="57.476527998223901" lon="-4.057941008359194">
        <ele>118.38</ele>
        <time>2023-08-19T08:48:42Z</time>
      </trkpt>
      <trkpt lat="57.476582983508706" lon="-4.05797403305769">
        <ele>117.42</ele>
        <time>2023-08-19T08:48:43Z</time>
      </trkpt>
      <trkpt lat="57.476648027077317" lon="-4.058010997250676">
        <ele>115.98</ele>
        <time>2023-08-19T08:48:44Z</time>
      </trkpt>
      <trkpt lat="57.476708041504025" lon="-4.058046033605933">
        <ele>114.53</ele>
        <time>2023-08-19T08:48:45Z</time>
      </trkpt>
      <trkpt lat="57.476768977940083" lon="-4.058120967820287">
        <ele>113.09</ele>
        <time>2023-08-19T08:48:46Z</time>
      </trkpt>
      <trkpt lat="57.476791022345424" lon="-4.058203026652336">
        <ele>111.65000000000001</ele>
        <time>2023-08-19T08:48:47Z</time>
      </trkpt>
      <trkpt lat="57.476812982931733" lon="-4.058287013322115">
        <ele>110.69</ele>
        <time>2023-08-19T08:48:48Z</time>
      </trkpt>
      <trkpt lat="57.476936029270291" lon="-4.058761009946466">
        <ele>105.40000000000001</ele>
        <time>2023-08-19T08:48:53Z</time>
      </trkpt>
      <trkpt lat="57.476991014555097" lon="-4.058971982449293">
        <ele>103.95999999999999</ele>
        <time>2023-08-19T08:48:55Z</time>
      </trkpt>
      <trkpt lat="57.476978022605181" lon="-4.059175997972488">
        <ele>102.52</ele>
        <time>2023-08-19T08:48:56Z</time>
      </trkpt>
      <trkpt lat="57.476942986249924" lon="-4.059282029047608">
        <ele>102.04000000000001</ele>
        <time>2023-08-19T08:48:57Z</time>
      </trkpt>
      <trkpt lat="57.476850030943751" lon="-4.059568019583821">
        <ele>99.150000000000006</ele>
        <time>2023-08-19T08:49:00Z</time>
      </trkpt>
      <trkpt lat="57.476751040667295" lon="-4.059873037040234">
        <ele>97.230000000000004</ele>
        <time>2023-08-19T08:49:03Z</time>
      </trkpt>
      <trkpt lat="57.476580971851945" lon="-4.060280984267592">
        <ele>96.75</ele>
        <time>2023-08-19T08:49:11Z</time>
      </trkpt>
      <trkpt lat="57.476580971851945" lon="-4.060280984267592">
        <ele>96.75</ele>
        <time>2023-08-19T08:49:31Z</time>
      </trkpt>
      <trkpt lat="57.476564040407538" lon="-4.060318032279611">
        <ele>96.75</ele>
        <time>2023-08-19T08:49:52Z</time>
      </trkpt>
      <trkpt lat="57.476521963253617" lon="-4.060410987585783">
        <ele>97.709999999999994</ele>
        <time>2023-08-19T08:49:53Z</time>
      </trkpt>
      <trkpt lat="57.476477958261967" lon="-4.060492962598801">
        <ele>99.150000000000006</ele>
        <time>2023-08-19T08:49:54Z</time>
      </trkpt>
      <trkpt lat="57.476422972977161" lon="-4.060592036694288">
        <ele>100.59999999999999</ele>
        <time>2023-08-19T08:49:55Z</time>
      </trkpt>
      <trkpt lat="57.476369999349117" lon="-4.060688009485602">
        <ele>100.11</ele>
        <time>2023-08-19T08:49:56Z</time>
      </trkpt>
      <trkpt lat="57.476313002407551" lon="-4.060792028903961">
        <ele>100.11</ele>
        <time>2023-08-19T08:49:57Z</time>
      </trkpt>
      <trkpt lat="57.475582016631961" lon="-4.062119973823428">
        <ele>97.709999999999994</ele>
        <time>2023-08-19T08:50:07Z</time>
      </trkpt>
      <trkpt lat="57.474775006994605" lon="-4.063577000051737">
        <ele>96.269999999999996</ele>
        <time>2023-08-19T08:50:15Z</time>
      </trkpt>
      <trkpt lat="57.47429296374321" lon="-4.064447963610292">
        <ele>96.269999999999996</ele>
        <time>2023-08-19T08:50:20Z</time>
      </trkpt>
      <trkpt lat="57.473999010398984" lon="-4.06497904099524">
        <ele>95.790000000000006</ele>
        <time>2023-08-19T08:50:24Z</time>
      </trkpt>
      <trkpt lat="57.473952993750572" lon="-4.065061016008258">
        <ele>95.310000000000002</ele>
        <time>2023-08-19T08:50:25Z</time>
      </trkpt>
      <trkpt lat="57.473942013457417" lon="-4.065200993791223">
        <ele>94.829999999999998</ele>
        <time>2023-08-19T08:50:26Z</time>
      </trkpt>
      <trkpt lat="57.473962968215346" lon="-4.065305013209581">
        <ele>93.870000000000005</ele>
        <time>2023-08-19T08:50:27Z</time>
      </trkpt>
      <trkpt lat="57.474000016227365" lon="-4.065405009314418">
        <ele>93.870000000000005</ele>
        <time>2023-08-19T08:50:28Z</time>
      </trkpt>
      <trkpt lat="57.474047960713506" lon="-4.065520009025931">
        <ele>93.390000000000001</ele>
        <time>2023-08-19T08:50:29Z</time>
      </trkpt>
      <trkpt lat="57.474103029817343" lon="-4.065649006515741">
        <ele>92.900000000000006</ele>
        <time>2023-08-19T08:50:30Z</time>
      </trkpt>
      <trkpt lat="57.47416103258729" lon="-4.065787978470326">
        <ele>92.420000000000002</ele>
        <time>2023-08-19T08:50:31Z</time>
      </trkpt>
      <trkpt lat="57.474895035848022" lon="-4.067538036033511">
        <ele>90.019999999999996</ele>
        <time>2023-08-19T08:50:44Z</time>
      </trkpt>
      <trkpt lat="57.474972987547517" lon="-4.067723024636507">
        <ele>90.019999999999996</ele>
        <time>2023-08-19T08:50:51Z</time>
      </trkpt>
      <trkpt lat="57.475055968388915" lon="-4.067863002419472">
        <ele>94.349999999999994</ele>
        <time>2023-08-19T08:51:16Z</time>
      </trkpt>
      <trkpt lat="57.474905010312796" lon="-4.067906001582742">
        <ele>95.790000000000006</ele>
        <time>2023-08-19T08:51:19Z</time>
      </trkpt>
      <trkpt lat="57.474868968129158" lon="-4.067994011566043">
        <ele>95.790000000000006</ele>
        <time>2023-08-19T08:51:20Z</time>
      </trkpt>
      <trkpt lat="57.4744229670614" lon="-4.069081982597709">
        <ele>97.230000000000004</ele>
        <time>2023-08-19T08:51:28Z</time>
      </trkpt>
      <trkpt lat="57.473601037636399" lon="-4.071088023483753">
        <ele>99.629999999999995</ele>
        <time>2023-08-19T08:51:40Z</time>
      </trkpt>
      <trkpt lat="57.473544040694833" lon="-4.071229007095099">
        <ele>99.629999999999995</ele>
        <time>2023-08-19T08:51:41Z</time>
      </trkpt>
      <trkpt lat="57.47349601238966" lon="-4.071345012634993">
        <ele>100.11</ele>
        <time>2023-08-19T08:51:42Z</time>
      </trkpt>
      <trkpt lat="57.473431974649429" lon="-4.071502005681396">
        <ele>100.59999999999999</ele>
        <time>2023-08-19T08:51:44Z</time>
      </trkpt>
      <trkpt lat="57.473409008234739" lon="-4.071556990966201">
        <ele>100.59999999999999</ele>
        <time>2023-08-19T08:51:45Z</time>
      </trkpt>
      <trkpt lat="57.473391992971301" lon="-4.071599990129471">
        <ele>100.59999999999999</ele>
        <time>2023-08-19T08:51:46Z</time>
      </trkpt>
      <trkpt lat="57.473302977159619" lon="-4.071830995380878">
        <ele>102.04000000000001</ele>
        <time>2023-08-19T08:51:57Z</time>
      </trkpt>
      <trkpt lat="57.473302977159619" lon="-4.071830995380878">
        <ele>102.04000000000001</ele>
        <time>2023-08-19T08:52:15Z</time>
      </trkpt>
      <trkpt lat="57.473302977159619" lon="-4.071830995380878">
        <ele>102.04000000000001</ele>
        <time>2023-08-19T08:52:34Z</time>
      </trkpt>
      <trkpt lat="57.473302977159619" lon="-4.071830995380878">
        <ele>102.04000000000001</ele>
        <time>2023-08-19T08:52:54Z</time>
      </trkpt>
      <trkpt lat="57.473416971042752" lon="-4.072281019762158">
        <ele>99.150000000000006</ele>
        <time>2023-08-19T09:20:01Z</time>
      </trkpt>
      <trkpt lat="57.473405990749598" lon="-4.072208013385534">
        <ele>103.48</ele>
        <time>2023-08-19T09:20:37Z</time>
      </trkpt>
      <trkpt lat="57.473373971879482" lon="-4.072211030870676">
        <ele>105.88</ele>
        <time>2023-08-19T09:20:55Z</time>
      </trkpt>
      <trkpt lat="57.473244974389672" lon="-4.072016989812255">
        <ele>106.36</ele>
        <time>2023-08-19T09:20:57Z</time>
      </trkpt>
      <trkpt lat="57.473323009908199" lon="-4.07176997512579">
        <ele>106.36</ele>
        <time>2023-08-19T09:21:06Z</time>
      </trkpt>
      <trkpt lat="57.473383024334908" lon="-4.071620022878051">
        <ele>105.88</ele>
        <time>2023-08-19T09:21:21Z</time>
      </trkpt>
      <trkpt lat="57.473413031548262" lon="-4.071548022329807">
        <ele>105.88</ele>
        <time>2023-08-19T09:21:22Z</time>
      </trkpt>
      <trkpt lat="57.473456030711532" lon="-4.071441991254687">
        <ele>105.88</ele>
        <time>2023-08-19T09:21:23Z</time>
      </trkpt>
      <trkpt lat="57.473973026499152" lon="-4.070181017741561">
        <ele>108.29000000000001</ele>
        <time>2023-08-19T09:21:34Z</time>
      </trkpt>
      <trkpt lat="57.47474399395287" lon="-4.068298023194075">
        <ele>110.20999999999999</ele>
        <time>2023-08-19T09:21:47Z</time>
      </trkpt>
      <trkpt lat="57.4748529586941" lon="-4.06803198158741">
        <ele>110.20999999999999</ele>
        <time>2023-08-19T09:21:49Z</time>
      </trkpt>
      <trkpt lat="57.475011963397264" lon="-4.067791001871228">
        <ele>111.17</ele>
        <time>2023-08-19T09:21:54Z</time>
      </trkpt>
      <trkpt lat="57.475066026672721" lon="-4.06788001768291">
        <ele>111.65000000000001</ele>
        <time>2023-08-19T09:21:56Z</time>
      </trkpt>
      <trkpt lat="57.47510701417923" lon="-4.067949000746012">
        <ele>111.65000000000001</ele>
        <time>2023-08-19T09:21:57Z</time>
      </trkpt>
      <trkpt lat="57.475404990836978" lon="-4.068445041775703">
        <ele>112.61</ele>
        <time>2023-08-19T09:22:02Z</time>
      </trkpt>
      <trkpt lat="57.475475985556841" lon="-4.068563980981708">
        <ele>113.09</ele>
        <time>2023-08-19T09:22:03Z</time>
      </trkpt>
      <trkpt lat="57.476333035156131" lon="-4.069992005825043">
        <ele>112.61</ele>
        <time>2023-08-19T09:22:13Z</time>
      </trkpt>
      <trkpt lat="57.476752968505025" lon="-4.070691978558898">
        <ele>112.13</ele>
        <time>2023-08-19T09:22:20Z</time>
      </trkpt>
      <trkpt lat="57.476842990145087" lon="-4.070842014625669">
        <ele>112.13</ele>
        <time>2023-08-19T09:22:22Z</time>
      </trkpt>
      <trkpt lat="57.47687098570168" lon="-4.070916026830673">
        <ele>112.13</ele>
        <time>2023-08-19T09:22:23Z</time>
      </trkpt>
      <trkpt lat="57.476901998743415" lon="-4.071000013500452">
        <ele>112.13</ele>
        <time>2023-08-19T09:22:24Z</time>
      </trkpt>
      <trkpt lat="57.476907027885318" lon="-4.071111995726824">
        <ele>112.13</ele>
        <time>2023-08-19T09:22:25Z</time>
      </trkpt>
      <trkpt lat="57.476907027885318" lon="-4.071186007931829">
        <ele>111.65000000000001</ele>
        <time>2023-08-19T09:22:26Z</time>
      </trkpt>
      <trkpt lat="57.476907027885318" lon="-4.071186007931829">
        <ele>111.65000000000001</ele>
        <time>2023-08-19T09:22:27Z</time>
      </trkpt>
      <trkpt lat="57.476851958781481" lon="-4.071367979049683">
        <ele>111.65000000000001</ele>
        <time>2023-08-19T09:22:28Z</time>
      </trkpt>
      <trkpt lat="57.476820023730397" lon="-4.071474010124803">
        <ele>111.17</ele>
        <time>2023-08-19T09:22:29Z</time>
      </trkpt>
      <trkpt lat="57.476782975718379" lon="-4.07159898430109">
        <ele>111.17</ele>
        <time>2023-08-19T09:22:30Z</time>
      </trkpt>
      <trkpt lat="57.476736959069967" lon="-4.071750026196241">
        <ele>110.69</ele>
        <time>2023-08-19T09:22:31Z</time>
      </trkpt>
      <trkpt lat="57.476683985441923" lon="-4.071926968172193">
        <ele>110.69</ele>
        <time>2023-08-19T09:22:32Z</time>
      </trkpt>
      <trkpt lat="57.476624976843596" lon="-4.072122015058994">
        <ele>110.20999999999999</ele>
        <time>2023-08-19T09:22:33Z</time>
      </trkpt>
      <trkpt lat="57.476152991876006" lon="-4.073694963008165">
        <ele>107.81</ele>
        <time>2023-08-19T09:22:41Z</time>
      </trkpt>
      <trkpt lat="57.476126002147794" lon="-4.073876012116671">
        <ele>107.81</ele>
        <time>2023-08-19T09:22:42Z</time>
      </trkpt>
      <trkpt lat="57.476091971620917" lon="-4.074117997661233">
        <ele>107.81</ele>
        <time>2023-08-19T09:22:43Z</time>
      </trkpt>
      <trkpt lat="57.476091971620917" lon="-4.074320001527667">
        <ele>107.81</ele>
        <time>2023-08-19T09:22:44Z</time>
      </trkpt>
      <trkpt lat="57.476101024076343" lon="-4.074575984850526">
        <ele>107.81</ele>
        <time>2023-08-19T09:22:45Z</time>
      </trkpt>
      <trkpt lat="57.476120973005891" lon="-4.074773965403438">
        <ele>108.29000000000001</ele>
        <time>2023-08-19T09:22:46Z</time>
      </trkpt>
      <trkpt lat="57.476195991039276" lon="-4.075517021119595">
        <ele>109.73</ele>
        <time>2023-08-19T09:22:50Z</time>
      </trkpt>
      <trkpt lat="57.476217029616237" lon="-4.075717013329268">
        <ele>110.20999999999999</ele>
        <time>2023-08-19T09:22:51Z</time>
      </trkpt>
      <trkpt lat="57.476242007687688" lon="-4.075970984995365">
        <ele>110.69</ele>
        <time>2023-08-19T09:22:52Z</time>
      </trkpt>
      <trkpt lat="57.476306967437267" lon="-4.076207019388676">
        <ele>111.65000000000001</ele>
        <time>2023-08-19T09:22:53Z</time>
      </trkpt>
      <trkpt lat="57.476372011005878" lon="-4.076285976916552">
        <ele>112.61</ele>
        <time>2023-08-19T09:22:54Z</time>
      </trkpt>
      <trkpt lat="57.476455997675657" lon="-4.076387984678149">
        <ele>114.05</ele>
        <time>2023-08-19T09:22:55Z</time>
      </trkpt>
      <trkpt lat="57.476543001830578" lon="-4.076494015753269">
        <ele>115.01000000000001</ele>
        <time>2023-08-19T09:22:56Z</time>
      </trkpt>
      <trkpt lat="57.476634029299021" lon="-4.07662401907146">
        <ele>116.45999999999999</ele>
        <time>2023-08-19T09:22:57Z</time>
      </trkpt>
      <trkpt lat="57.476710975170135" lon="-4.076779000461102">
        <ele>117.90000000000001</ele>
        <time>2023-08-19T09:22:58Z</time>
      </trkpt>
      <trkpt lat="57.476789010688663" lon="-4.076963989064097">
        <ele>118.86</ele>
        <time>2023-08-19T09:22:59Z</time>
      </trkpt>
      <trkpt lat="57.477524019777775" lon="-4.07920497469604">
        <ele>131.84</ele>
        <time>2023-08-19T09:23:11Z</time>
      </trkpt>
      <trkpt lat="57.478059958666563" lon="-4.081471022218466">
        <ele>142.41</ele>
        <time>2023-08-19T09:23:22Z</time>
      </trkpt>
      <trkpt lat="57.478729002177715" lon="-4.084232021123171">
        <ele>151.06</ele>
        <time>2023-08-19T09:23:35Z</time>
      </trkpt>
      <trkpt lat="57.478908961638808" lon="-4.084709035232663">
        <ele>152.99000000000001</ele>
        <time>2023-08-19T09:23:39Z</time>
      </trkpt>
      <trkpt lat="57.478965036571026" lon="-4.084857981652021">
        <ele>154.43000000000001</ele>
        <time>2023-08-19T09:23:43Z</time>
      </trkpt>
      <trkpt lat="57.478972999379039" lon="-4.084879020228982">
        <ele>154.91</ele>
        <time>2023-08-19T09:23:44Z</time>
      </trkpt>
      <trkpt lat="57.478947015479207" lon="-4.085155036300421">
        <ele>155.87</ele>
        <time>2023-08-19T09:23:49Z</time>
      </trkpt>
      <trkpt lat="57.47888901270926" lon="-4.085189988836646">
        <ele>155.87</ele>
        <time>2023-08-19T09:23:50Z</time>
      </trkpt>
      <trkpt lat="57.478228015825152" lon="-4.085591984912753">
        <ele>155.38999999999999</ele>
        <time>2023-08-19T09:23:58Z</time>
      </trkpt>
      <trkpt lat="57.478085020557046" lon="-4.085677983239293">
        <ele>155.38999999999999</ele>
        <time>2023-08-19T09:24:00Z</time>
      </trkpt>
      <trkpt lat="57.47800899669528" lon="-4.085725005716085">
        <ele>155.38999999999999</ele>
        <time>2023-08-19T09:24:01Z</time>
      </trkpt>
      <trkpt lat="57.47723400592804" lon="-4.086195984855294">
        <ele>154.43000000000001</ele>
        <time>2023-08-19T09:24:10Z</time>
      </trkpt>
      <trkpt lat="57.477068966254592" lon="-4.086295980960131">
        <ele>153.47</ele>
        <time>2023-08-19T09:24:17Z</time>
      </trkpt>
      <trkpt lat="57.477109031751752" lon="-4.08627200871706">
        <ele>152.99000000000001</ele>
        <time>2023-08-19T09:24:26Z</time>
      </trkpt>
      <trkpt lat="57.47719100676477" lon="-4.086221968755126">
        <ele>153.47</ele>
        <time>2023-08-19T09:24:29Z</time>
      </trkpt>
      <trkpt lat="57.477240040898323" lon="-4.086191961541772">
        <ele>153.47</ele>
        <time>2023-08-19T09:24:30Z</time>
      </trkpt>
      <trkpt lat="57.47794495895505" lon="-4.085763981565833">
        <ele>154.43000000000001</ele>
        <time>2023-08-19T09:24:39Z</time>
      </trkpt>
      <trkpt lat="57.478945003822446" lon="-4.08515595830977">
        <ele>154.43000000000001</ele>
        <time>2023-08-19T09:24:49Z</time>
      </trkpt>
      <trkpt lat="57.479005018249154" lon="-4.085118994116783">
        <ele>154.43000000000001</ele>
        <time>2023-08-19T09:24:50Z</time>
      </trkpt>
      <trkpt lat="57.479068972170353" lon="-4.085131986066699">
        <ele>154.43000000000001</ele>
        <time>2023-08-19T09:24:51Z</time>
      </trkpt>
      <trkpt lat="57.479098979383707" lon="-4.085208009928465">
        <ele>154.43000000000001</ele>
        <time>2023-08-19T09:24:52Z</time>
      </trkpt>
      <trkpt lat="57.479139966890216" lon="-4.085312029346824">
        <ele>154.43000000000001</ele>
        <time>2023-08-19T09:24:53Z</time>
      </trkpt>
      <trkpt lat="57.479191012680531" lon="-4.085443038493395">
        <ele>154.91</ele>
        <time>2023-08-19T09:24:54Z</time>
      </trkpt>
      <trkpt lat="57.479249015450478" lon="-4.085591984912753">
        <ele>155.38999999999999</ele>
        <time>2023-08-19T09:24:55Z</time>
      </trkpt>
      <trkpt lat="57.479838011786342" lon="-4.087098967283964">
        <ele>157.31</ele>
        <time>2023-08-19T09:25:03Z</time>
      </trkpt>
      <trkpt lat="57.479905989021063" lon="-4.087272975593805">
        <ele>157.31</ele>
        <time>2023-08-19T09:25:04Z</time>
      </trkpt>
      <trkpt lat="57.479967009276152" lon="-4.087428962811828">
        <ele>157.31</ele>
        <time>2023-08-19T09:25:05Z</time>
      </trkpt>
      <trkpt lat="57.480095000937581" lon="-4.087756024673581">
        <ele>158.27000000000001</ele>
        <time>2023-08-19T09:25:10Z</time>
      </trkpt>
      <trkpt lat="57.480104975402355" lon="-4.087922992184758">
        <ele>158.27000000000001</ele>
        <time>2023-08-19T09:25:13Z</time>
      </trkpt>
      <trkpt lat="57.480085026472807" lon="-4.088003961369395">
        <ele>158.27000000000001</ele>
        <time>2023-08-19T09:25:14Z</time>
      </trkpt>
      <trkpt lat="57.479838011786342" lon="-4.089023033156991">
        <ele>157.78999999999999</ele>
        <time>2023-08-19T09:25:20Z</time>
      </trkpt>
      <trkpt lat="57.479659980162978" lon="-4.090060964226723">
        <ele>157.78999999999999</ele>
        <time>2023-08-19T09:25:28Z</time>
      </trkpt>
      <trkpt lat="57.47959703207016" lon="-4.090474024415016">
        <ele>157.31</ele>
        <time>2023-08-19T09:25:30Z</time>
      </trkpt>
      <trkpt lat="57.479503992944956" lon="-4.092363975942135">
        <ele>157.31</ele>
        <time>2023-08-19T09:25:38Z</time>
      </trkpt>
      <trkpt lat="57.479582028463483" lon="-4.093457981944084">
        <ele>161.63999999999999</ele>
        <time>2023-08-19T09:25:45Z</time>
      </trkpt>
      <trkpt lat="57.479520002380013" lon="-4.093591002747417">
        <ele>162.12</ele>
        <time>2023-08-19T09:25:46Z</time>
      </trkpt>
      <trkpt lat="57.479471974074841" lon="-4.093609023839235">
        <ele>163.08000000000001</ele>
        <time>2023-08-19T09:25:47Z</time>
      </trkpt>
      <trkpt lat="57.479412965476513" lon="-4.093629978597164">
        <ele>163.56</ele>
        <time>2023-08-19T09:25:48Z</time>
      </trkpt>
      <trkpt lat="57.479354040697217" lon="-4.093652023002505">
        <ele>164.52000000000001</ele>
        <time>2023-08-19T09:25:49Z</time>
      </trkpt>
      <trkpt lat="57.47929603792727" lon="-4.093665014952421">
        <ele>165</ele>
        <time>2023-08-19T09:25:50Z</time>
      </trkpt>
      <trkpt lat="57.479252032935619" lon="-4.093674989417195">
        <ele>165.47999999999999</ele>
        <time>2023-08-19T09:25:51Z</time>
      </trkpt>
      <trkpt lat="57.479211967438459" lon="-4.093684041872621">
        <ele>165.96000000000001</ele>
        <time>2023-08-19T09:25:52Z</time>
      </trkpt>
      <trkpt lat="57.479178020730615" lon="-4.093692004680634">
        <ele>166.44999999999999</ele>
        <time>2023-08-19T09:25:53Z</time>
      </trkpt>
      <trkpt lat="57.479067966341972" lon="-4.093717988580465">
        <ele>166.93000000000001</ele>
        <time>2023-08-19T09:25:56Z</time>
      </trkpt>
      <trkpt lat="57.478643003851175" lon="-4.093764005228877">
        <ele>169.33000000000001</ele>
        <time>2023-08-19T09:26:04Z</time>
      </trkpt>
      <trkpt lat="57.478602016344666" lon="-4.093758976086974">
        <ele>168.84999999999999</ele>
        <time>2023-08-19T09:26:05Z</time>
      </trkpt>
      <trkpt lat="57.478569997474551" lon="-4.093713965266943">
        <ele>169.33000000000001</ele>
        <time>2023-08-19T09:26:06Z</time>
      </trkpt>
      <trkpt lat="57.478529009968042" lon="-4.093655962496996">
        <ele>169.33000000000001</ele>
        <time>2023-08-19T09:26:07Z</time>
      </trkpt>
      <trkpt lat="57.478490034118295" lon="-4.093592008575797">
        <ele>169.33000000000001</ele>
        <time>2023-08-19T09:26:08Z</time>
      </trkpt>
      <trkpt lat="57.478454997763038" lon="-4.093484971672297">
        <ele>169.33000000000001</ele>
        <time>2023-08-19T09:26:09Z</time>
      </trkpt>
      <trkpt lat="57.478417027741671" lon="-4.093371983617544">
        <ele>169.33000000000001</ele>
        <time>2023-08-19T09:26:10Z</time>
      </trkpt>
      <trkpt lat="57.477916041389108" lon="-4.091848991811276">
        <ele>164.52000000000001</ele>
        <time>2023-08-19T09:26:23Z</time>
      </trkpt>
      <trkpt lat="57.477758964523673" lon="-4.09142604097724">
        <ele>163.08000000000001</ele>
        <time>2023-08-19T09:26:28Z</time>
      </trkpt>
      <trkpt lat="57.477735998108983" lon="-4.09136401489377">
        <ele>162.59999999999999</ele>
        <time>2023-08-19T09:26:29Z</time>
      </trkpt>
      <trkpt lat="57.477718982845545" lon="-4.091316992416978">
        <ele>162.59999999999999</ele>
        <time>2023-08-19T09:26:30Z</time>
      </trkpt>
      <trkpt lat="57.477704985067248" lon="-4.091280028223991">
        <ele>162.59999999999999</ele>
        <time>2023-08-19T09:26:31Z</time>
      </trkpt>
      <trkpt lat="57.477694004774094" lon="-4.091249015182257">
        <ele>162.59999999999999</ele>
        <time>2023-08-19T09:26:32Z</time>
      </trkpt>
      <trkpt lat="57.4776850361377" lon="-4.091224037110806">
        <ele>162.59999999999999</ele>
        <time>2023-08-19T09:26:33Z</time>
      </trkpt>
      <trkpt lat="57.477673972025514" lon="-4.091194029897451">
        <ele>162.12</ele>
        <time>2023-08-19T09:26:34Z</time>
      </trkpt>
      <trkpt lat="57.477657962590456" lon="-4.091150024905801">
        <ele>160.68000000000001</ele>
        <time>2023-08-19T09:26:44Z</time>
      </trkpt>
      <trkpt lat="57.477657962590456" lon="-4.091150024905801">
        <ele>160.68000000000001</ele>
        <time>2023-08-19T09:27:11Z</time>
      </trkpt>
      <trkpt lat="57.477716971188784" lon="-4.091087998822331">
        <ele>157.31</ele>
        <time>2023-08-19T09:56:28Z</time>
      </trkpt>
      <trkpt lat="57.477729041129351" lon="-4.091018009930849">
        <ele>158.27000000000001</ele>
        <time>2023-08-19T09:57:33Z</time>
      </trkpt>
      <trkpt lat="57.477724011987448" lon="-4.09097601659596">
        <ele>156.34999999999999</ele>
        <time>2023-08-19T09:58:19Z</time>
      </trkpt>
      <trkpt lat="57.477722000330687" lon="-4.090978028252721">
        <ele>156.34999999999999</ele>
        <time>2023-08-19T09:59:10Z</time>
      </trkpt>
      <trkpt lat="57.477720994502306" lon="-4.090982973575592">
        <ele>156.34999999999999</ele>
        <time>2023-08-19T09:59:55Z</time>
      </trkpt>
      <trkpt lat="57.477714959532022" lon="-4.090968975797296">
        <ele>156.83000000000001</ele>
        <time>2023-08-19T10:00:02Z</time>
      </trkpt>
      <trkpt lat="57.477615969255567" lon="-4.091034019365907">
        <ele>157.31</ele>
        <time>2023-08-19T10:00:08Z</time>
      </trkpt>
      <trkpt lat="57.477639019489288" lon="-4.091097973287106">
        <ele>157.78999999999999</ele>
        <time>2023-08-19T10:00:10Z</time>
      </trkpt>
      <trkpt lat="57.477694004774094" lon="-4.091250021010637">
        <ele>157.78999999999999</ele>
        <time>2023-08-19T10:00:11Z</time>
      </trkpt>
      <trkpt lat="57.477726023644209" lon="-4.091337025165558">
        <ele>157.78999999999999</ele>
        <time>2023-08-19T10:00:12Z</time>
      </trkpt>
      <trkpt lat="57.478147968649864" lon="-4.092552987858653">
        <ele>159.72</ele>
        <time>2023-08-19T10:00:22Z</time>
      </trkpt>
      <trkpt lat="57.478494979441166" lon="-4.093609023839235">
        <ele>161.16</ele>
        <time>2023-08-19T10:00:29Z</time>
      </trkpt>
      <trkpt lat="57.47856798581779" lon="-4.093711031600833">
        <ele>160.68000000000001</ele>
        <time>2023-08-19T10:00:30Z</time>
      </trkpt>
      <trkpt lat="57.478638980537653" lon="-4.093762999400497">
        <ele>160.68000000000001</ele>
        <time>2023-08-19T10:00:31Z</time>
      </trkpt>
      <trkpt lat="57.478721039369702" lon="-4.09377196803689">
        <ele>160.19999999999999</ele>
        <time>2023-08-19T10:00:32Z</time>
      </trkpt>
      <trkpt lat="57.478799996897578" lon="-4.093780014663935">
        <ele>160.19999999999999</ele>
        <time>2023-08-19T10:00:33Z</time>
      </trkpt>
      <trkpt lat="57.478882977738976" lon="-4.093760987743735">
        <ele>159.24000000000001</ele>
        <time>2023-08-19T10:00:34Z</time>
      </trkpt>
      <trkpt lat="57.479422017931938" lon="-4.093626961112022">
        <ele>156.34999999999999</ele>
        <time>2023-08-19T10:00:41Z</time>
      </trkpt>
      <trkpt lat="57.479472979903221" lon="-4.093609023839235">
        <ele>156.34999999999999</ele>
        <time>2023-08-19T10:00:42Z</time>
      </trkpt>
      <trkpt lat="57.479503992944956" lon="-4.0935970377177">
        <ele>155.87</ele>
        <time>2023-08-19T10:00:43Z</time>
      </trkpt>
      <trkpt lat="57.479523019865155" lon="-4.093589996919036">
        <ele>155.87</ele>
        <time>2023-08-19T10:00:44Z</time>
      </trkpt>
      <trkpt lat="57.479603989049792" lon="-4.093693010509014">
        <ele>155.87</ele>
        <time>2023-08-19T10:00:46Z</time>
      </trkpt>
      <trkpt lat="57.479611029848456" lon="-4.093753024935722">
        <ele>155.87</ele>
        <time>2023-08-19T10:00:47Z</time>
      </trkpt>
      <trkpt lat="57.479638019576669" lon="-4.093983024358749">
        <ele>155.87</ele>
        <time>2023-08-19T10:00:48Z</time>
      </trkpt>
      <trkpt lat="57.479783026501536" lon="-4.095240980386734">
        <ele>156.34999999999999</ele>
        <time>2023-08-19T10:00:55Z</time>
      </trkpt>
      <trkpt lat="57.479917975142598" lon="-4.098164001479745">
        <ele>154.43000000000001</ele>
        <time>2023-08-19T10:01:04Z</time>
      </trkpt>
      <trkpt lat="57.479612035676837" lon="-4.101087022572756">
        <ele>150.58000000000001</ele>
        <time>2023-08-19T10:01:13Z</time>
      </trkpt>
      <trkpt lat="57.478914996609092" lon="-4.103575022891164">
        <ele>149.13999999999999</ele>
        <time>2023-08-19T10:01:21Z</time>
      </trkpt>
      <trkpt lat="57.477354034781456" lon="-4.106996012851596">
        <ele>151.06</ele>
        <time>2023-08-19T10:01:32Z</time>
      </trkpt>
      <trkpt lat="57.476339992135763" lon="-4.109158962965012">
        <ele>150.58000000000001</ele>
        <time>2023-08-19T10:01:39Z</time>
      </trkpt>
      <trkpt lat="57.476122984662652" lon="-4.10979900509119">
        <ele>150.58000000000001</ele>
        <time>2023-08-19T10:01:41Z</time>
      </trkpt>
      <trkpt lat="57.476019971072674" lon="-4.110136041417718">
        <ele>150.58000000000001</ele>
        <time>2023-08-19T10:01:42Z</time>
      </trkpt>
      <trkpt lat="57.475927015766501" lon="-4.110477017238736">
        <ele>150.58000000000001</ele>
        <time>2023-08-19T10:01:43Z</time>
      </trkpt>
      <trkpt lat="57.47586197219789" lon="-4.110855041071773">
        <ele>150.58000000000001</ele>
        <time>2023-08-19T10:01:44Z</time>
      </trkpt>
      <trkpt lat="57.475791983306408" lon="-4.111269023269415">
        <ele>151.06</ele>
        <time>2023-08-19T10:01:45Z</time>
      </trkpt>
      <trkpt lat="57.475769016891718" lon="-4.111620979383588">
        <ele>151.06</ele>
        <time>2023-08-19T10:01:46Z</time>
      </trkpt>
      <trkpt lat="57.475744038820267" lon="-4.112015012651682">
        <ele>151.06</ele>
        <time>2023-08-19T10:01:47Z</time>
      </trkpt>
      <trkpt lat="57.475545974448323" lon="-4.115132996812463">
        <ele>149.62</ele>
        <time>2023-08-19T10:01:55Z</time>
      </trkpt>
      <trkpt lat="57.475326033309102" lon="-4.11957498639822">
        <ele>150.58000000000001</ele>
        <time>2023-08-19T10:02:06Z</time>
      </trkpt>
      <trkpt lat="57.475300971418619" lon="-4.120703022927046">
        <ele>150.58000000000001</ele>
        <time>2023-08-19T10:02:09Z</time>
      </trkpt>
      <trkpt lat="57.475241962820292" lon="-4.121076017618179">
        <ele>150.09999999999999</ele>
        <time>2023-08-19T10:02:10Z</time>
      </trkpt>
      <trkpt lat="57.475165016949177" lon="-4.121427973732352">
        <ele>150.09999999999999</ele>
        <time>2023-08-19T10:02:11Z</time>
      </trkpt>
      <trkpt lat="57.474260022863746" lon="-4.125509960576892">
        <ele>147.22</ele>
        <time>2023-08-19T10:02:23Z</time>
      </trkpt>
      <trkpt lat="57.473271964117885" lon="-4.129056008532643">
        <ele>147.22</ele>
        <time>2023-08-19T10:02:32Z</time>
      </trkpt>
      <trkpt lat="57.472856976091862" lon="-4.130868008360267">
        <ele>146.25999999999999</ele>
        <time>2023-08-19T10:02:38Z</time>
      </trkpt>
      <trkpt lat="57.471324009820819" lon="-4.135089972987771">
        <ele>143.37</ele>
        <time>2023-08-19T10:02:50Z</time>
      </trkpt>
      <trkpt lat="57.471193000674248" lon="-4.135763039812446">
        <ele>142.88999999999999</ele>
        <time>2023-08-19T10:02:53Z</time>
      </trkpt>
      <trkpt lat="57.471088981255889" lon="-4.13643904030323">
        <ele>142.41</ele>
        <time>2023-08-19T10:02:55Z</time>
      </trkpt>
      <trkpt lat="57.470904998481274" lon="-4.138834001496434">
        <ele>140.97</ele>
        <time>2023-08-19T10:03:02Z</time>
      </trkpt>
      <trkpt lat="57.470404012128711" lon="-4.14140397682786">
        <ele>136.63999999999999</ele>
        <time>2023-08-19T10:03:12Z</time>
      </trkpt>
      <trkpt lat="57.470206031575799" lon="-4.142987988889217">
        <ele>135.19999999999999</ele>
        <time>2023-08-19T10:03:17Z</time>
      </trkpt>
      <trkpt lat="57.470183987170458" lon="-4.143245983868837">
        <ele>134.72</ele>
        <time>2023-08-19T10:03:18Z</time>
      </trkpt>
      <trkpt lat="57.47029303573072" lon="-4.145939005538821">
        <ele>131.36000000000001</ele>
        <time>2023-08-19T10:03:28Z</time>
      </trkpt>
      <trkpt lat="57.470394037663937" lon="-4.149034023284912">
        <ele>125.11</ele>
        <time>2023-08-19T10:03:39Z</time>
      </trkpt>
      <trkpt lat="57.47072596102953" lon="-4.150819033384323">
        <ele>117.42</ele>
        <time>2023-08-19T10:03:46Z</time>
      </trkpt>
      <trkpt lat="57.47085303068161" lon="-4.151386991143227">
        <ele>113.56999999999999</ele>
        <time>2023-08-19T10:03:50Z</time>
      </trkpt>
      <trkpt lat="57.470921007916331" lon="-4.15171598084271">
        <ele>109.25</ele>
        <time>2023-08-19T10:03:56Z</time>
      </trkpt>
      <trkpt lat="57.470952020958066" lon="-4.15216701105237">
        <ele>105.40000000000001</ele>
        <time>2023-08-19T10:04:08Z</time>
      </trkpt>
      <trkpt lat="57.470968030393124" lon="-4.153389008715749">
        <ele>100.11</ele>
        <time>2023-08-19T10:04:15Z</time>
      </trkpt>
      <trkpt lat="57.470687991008162" lon="-4.155577020719647">
        <ele>90.980000000000004</ele>
        <time>2023-08-19T10:04:24Z</time>
      </trkpt>
      <trkpt lat="57.47025397606194" lon="-4.158642031252384">
        <ele>84.25</ele>
        <time>2023-08-19T10:04:35Z</time>
      </trkpt>
      <trkpt lat="57.469954993575811" lon="-4.160032002255321">
        <ele>82.810000000000002</ele>
        <time>2023-08-19T10:04:43Z</time>
      </trkpt>
      <trkpt lat="57.469332972541451" lon="-4.162381030619144">
        <ele>81.849999999999994</ele>
        <time>2023-08-19T10:04:53Z</time>
      </trkpt>
      <trkpt lat="57.468607015907764" lon="-4.164582034572959">
        <ele>79.450000000000003</ele>
        <time>2023-08-19T10:05:03Z</time>
      </trkpt>
      <trkpt lat="57.467705961316824" lon="-4.166511967778206">
        <ele>82.329999999999998</ele>
        <time>2023-08-19T10:05:13Z</time>
      </trkpt>
      <trkpt lat="57.467186031863093" lon="-4.168481966480613">
        <ele>84.730000000000004</ele>
        <time>2023-08-19T10:05:22Z</time>
      </trkpt>
      <trkpt lat="57.467101039364934" lon="-4.169453009963036">
        <ele>86.659999999999997</ele>
        <time>2023-08-19T10:05:27Z</time>
      </trkpt>
      <trkpt lat="57.467268006876111" lon="-4.171405993402004">
        <ele>84.25</ele>
        <time>2023-08-19T10:05:35Z</time>
      </trkpt>
      <trkpt lat="57.468010978773236" lon="-4.173686038702726">
        <ele>73.680000000000007</ele>
        <time>2023-08-19T10:05:46Z</time>
      </trkpt>
      <trkpt lat="57.468228992074728" lon="-4.174285009503365">
        <ele>70.310000000000002</ele>
        <time>2023-08-19T10:05:49Z</time>
      </trkpt>
      <trkpt lat="57.468306021764874" lon="-4.174496987834573">
        <ele>69.349999999999994</ele>
        <time>2023-08-19T10:05:50Z</time>
      </trkpt>
      <trkpt lat="57.468411969020963" lon="-4.174673007801175">
        <ele>67.909999999999997</ele>
        <time>2023-08-19T10:05:51Z</time>
      </trkpt>
      <trkpt lat="57.468740036711097" lon="-4.175143986940384">
        <ele>63.579999999999998</ele>
        <time>2023-08-19T10:05:54Z</time>
      </trkpt>
      <trkpt lat="57.468851013109088" lon="-4.175284970551729">
        <ele>62.619999999999997</ele>
        <time>2023-08-19T10:05:55Z</time>
      </trkpt>
      <trkpt lat="57.469340013340116" lon="-4.175776988267899">
        <ele>57.82</ele>
        <time>2023-08-19T10:05:59Z</time>
      </trkpt>
      <trkpt lat="57.469658022746444" lon="-4.176232041791081">
        <ele>54.450000000000003</ele>
        <time>2023-08-19T10:06:02Z</time>
      </trkpt>
      <trkpt lat="57.470371993258595" lon="-4.177808007225394">
        <ele>47.240000000000002</ele>
        <time>2023-08-19T10:06:11Z</time>
      </trkpt>
      <trkpt lat="57.471185959875584" lon="-4.180027032271028">
        <ele>41.469999999999999</ele>
        <time>2023-08-19T10:06:25Z</time>
      </trkpt>
      <trkpt lat="57.471316969022155" lon="-4.180426010861993">
        <ele>41.469999999999999</ele>
        <time>2023-08-19T10:06:30Z</time>
      </trkpt>
      <trkpt lat="57.471417970955372" lon="-4.180736979469657">
        <ele>41.469999999999999</ele>
        <time>2023-08-19T10:06:42Z</time>
      </trkpt>
      <trkpt lat="57.471804963424802" lon="-4.18192402459681">
        <ele>42.439999999999998</ele>
        <time>2023-08-19T10:06:49Z</time>
      </trkpt>
      <trkpt lat="57.471989030018449" lon="-4.183261021971703">
        <ele>43.399999999999999</ele>
        <time>2023-08-19T10:06:54Z</time>
      </trkpt>
      <trkpt lat="57.471914011985064" lon="-4.185763020068407">
        <ele>42.920000000000002</ele>
        <time>2023-08-19T10:07:03Z</time>
      </trkpt>
      <trkpt lat="57.471678983420134" lon="-4.187351977452636">
        <ele>39.549999999999997</ele>
        <time>2023-08-19T10:07:11Z</time>
      </trkpt>
      <trkpt lat="57.471672026440501" lon="-4.187547024339438">
        <ele>39.07</ele>
        <time>2023-08-19T10:07:12Z</time>
      </trkpt>
      <trkpt lat="57.471672026440501" lon="-4.187734024599195">
        <ele>38.590000000000003</ele>
        <time>2023-08-19T10:07:13Z</time>
      </trkpt>
      <trkpt lat="57.471672026440501" lon="-4.18791800737381">
        <ele>38.109999999999999</ele>
        <time>2023-08-19T10:07:14Z</time>
      </trkpt>
      <trkpt lat="57.471672026440501" lon="-4.18809100985527">
        <ele>37.630000000000003</ele>
        <time>2023-08-19T10:07:15Z</time>
      </trkpt>
      <trkpt lat="57.471682000905275" lon="-4.188252026215196">
        <ele>37.630000000000003</ele>
        <time>2023-08-19T10:07:16Z</time>
      </trkpt>
      <trkpt lat="57.471725000068545" lon="-4.188785031437874">
        <ele>36.670000000000002</ele>
        <time>2023-08-19T10:07:19Z</time>
      </trkpt>
      <trkpt lat="57.4717359803617" lon="-4.188924003392458">
        <ele>36.189999999999998</ele>
        <time>2023-08-19T10:07:20Z</time>
      </trkpt>
      <trkpt lat="57.4717359803617" lon="-4.189160037785769">
        <ele>36.189999999999998</ele>
        <time>2023-08-19T10:07:21Z</time>
      </trkpt>
      <trkpt lat="57.4717359803617" lon="-4.189335973933339">
        <ele>35.710000000000001</ele>
        <time>2023-08-19T10:07:23Z</time>
      </trkpt>
      <trkpt lat="57.471672026440501" lon="-4.189632022753358">
        <ele>35.710000000000001</ele>
        <time>2023-08-19T10:07:24Z</time>
      </trkpt>
      <trkpt lat="57.471644030883908" lon="-4.189670998603106">
        <ele>36.189999999999998</ele>
        <time>2023-08-19T10:07:25Z</time>
      </trkpt>
      <trkpt lat="57.471578987315297" lon="-4.18976403772831">
        <ele>36.189999999999998</ele>
        <time>2023-08-19T10:07:26Z</time>
      </trkpt>
      <trkpt lat="57.471521990373731" lon="-4.189910972490907">
        <ele>36.189999999999998</ele>
        <time>2023-08-19T10:07:27Z</time>
      </trkpt>
      <trkpt lat="57.471511010080576" lon="-4.190075006335974">
        <ele>36.189999999999998</ele>
        <time>2023-08-19T10:07:28Z</time>
      </trkpt>
      <trkpt lat="57.471529031172395" lon="-4.190230993553996">
        <ele>36.670000000000002</ele>
        <time>2023-08-19T10:07:29Z</time>
      </trkpt>
      <trkpt lat="57.471568007022142" lon="-4.190411036834121">
        <ele>36.670000000000002</ele>
        <time>2023-08-19T10:07:30Z</time>
      </trkpt>
      <trkpt lat="57.471660962328315" lon="-4.190506003797054">
        <ele>36.670000000000002</ele>
        <time>2023-08-19T10:07:31Z</time>
      </trkpt>
      <trkpt lat="57.471743021160364" lon="-4.190530981868506">
        <ele>36.670000000000002</ele>
        <time>2023-08-19T10:07:32Z</time>
      </trkpt>
      <trkpt lat="57.471886016428471" lon="-4.190599964931607">
        <ele>36.670000000000002</ele>
        <time>2023-08-19T10:07:34Z</time>
      </trkpt>
      <trkpt lat="57.471925998106599" lon="-4.190765004605055">
        <ele>36.670000000000002</ele>
        <time>2023-08-19T10:07:35Z</time>
      </trkpt>
      <trkpt lat="57.472005961462855" lon="-4.191151997074485">
        <ele>37.149999999999999</ele>
        <time>2023-08-19T10:07:37Z</time>
      </trkpt>
      <trkpt lat="57.472411980852485" lon="-4.193853987380862">
        <ele>40.509999999999998</ele>
        <time>2023-08-19T10:07:51Z</time>
      </trkpt>
      <trkpt lat="57.472465038299561" lon="-4.194157999008894">
        <ele>41.469999999999999</ele>
        <time>2023-08-19T10:07:58Z</time>
      </trkpt>
      <trkpt lat="57.472478030249476" lon="-4.19423402287066">
        <ele>41.950000000000003</ele>
        <time>2023-08-19T10:08:00Z</time>
      </trkpt>
      <trkpt lat="57.472514994442463" lon="-4.194442983716726">
        <ele>42.920000000000002</ele>
        <time>2023-08-19T10:08:02Z</time>
      </trkpt>
      <trkpt lat="57.472534021362662" lon="-4.194550020620227">
        <ele>42.920000000000002</ele>
        <time>2023-08-19T10:08:03Z</time>
      </trkpt>
      <trkpt lat="57.472609039396048" lon="-4.194641970098019">
        <ele>42.920000000000002</ele>
        <time>2023-08-19T10:08:04Z</time>
      </trkpt>
      <trkpt lat="57.472666036337614" lon="-4.194629983976483">
        <ele>42.920000000000002</ele>
        <time>2023-08-19T10:08:05Z</time>
      </trkpt>
      <trkpt lat="57.472734013572335" lon="-4.194616992026568">
        <ele>42.920000000000002</ele>
        <time>2023-08-19T10:08:06Z</time>
      </trkpt>
      <trkpt lat="57.472811965271831" lon="-4.19460098259151">
        <ele>42.920000000000002</ele>
        <time>2023-08-19T10:08:07Z</time>
      </trkpt>
      <trkpt lat="57.473555020987988" lon="-4.194371988996863">
        <ele>43.399999999999999</ele>
        <time>2023-08-19T10:08:15Z</time>
      </trkpt>
      <trkpt lat="57.474014014005661" lon="-4.194216001778841">
        <ele>42.920000000000002</ele>
        <time>2023-08-19T10:08:20Z</time>
      </trkpt>
      <trkpt lat="57.474100012332201" lon="-4.194173002615571">
        <ele>42.920000000000002</ele>
        <time>2023-08-19T10:08:21Z</time>
      </trkpt>
      <trkpt lat="57.47463502921164" lon="-4.193864967674017">
        <ele>40.990000000000002</ele>
        <time>2023-08-19T10:08:29Z</time>
      </trkpt>
      <trkpt lat="57.474670987576246" lon="-4.193855999037623">
        <ele>40.030000000000001</ele>
        <time>2023-08-19T10:08:39Z</time>
      </trkpt>
      <trkpt lat="57.4747009947896" lon="-4.19384996406734">
        <ele>39.549999999999997</ele>
        <time>2023-08-19T10:08:40Z</time>
      </trkpt>
      <trkpt lat="57.474596975371242" lon="-4.193721972405911">
        <ele>38.590000000000003</ele>
        <time>2023-08-19T10:08:42Z</time>
      </trkpt>
      <trkpt lat="57.474633017554879" lon="-4.193516029044986">
        <ele>38.590000000000003</ele>
        <time>2023-08-19T10:08:43Z</time>
      </trkpt>
      <trkpt lat="57.474568979814649" lon="-4.193880977109075">
        <ele>38.590000000000003</ele>
        <time>2023-08-19T10:08:45Z</time>
      </trkpt>
      <trkpt lat="57.473950982093811" lon="-4.194237040355802">
        <ele>38.109999999999999</ele>
        <time>2023-08-19T10:08:53Z</time>
      </trkpt>
      <trkpt lat="57.473065014928579" lon="-4.194539040327072">
        <ele>41.950000000000003</ele>
        <time>2023-08-19T10:09:05Z</time>
      </trkpt>
      <trkpt lat="57.472686991095543" lon="-4.194625960662961">
        <ele>42.439999999999998</ele>
        <time>2023-08-19T10:09:09Z</time>
      </trkpt>
      <trkpt lat="57.472519017755985" lon="-4.194466033950448">
        <ele>41.950000000000003</ele>
        <time>2023-08-19T10:09:11Z</time>
      </trkpt>
      <trkpt lat="57.472498985007405" lon="-4.194351034238935">
        <ele>41.469999999999999</ele>
        <time>2023-08-19T10:09:12Z</time>
      </trkpt>
      <trkpt lat="57.472477024421096" lon="-4.194225976243615">
        <ele>40.990000000000002</ele>
        <time>2023-08-19T10:09:13Z</time>
      </trkpt>
      <trkpt lat="57.472179969772696" lon="-4.192527970299125">
        <ele>39.07</ele>
        <time>2023-08-19T10:09:22Z</time>
      </trkpt>
      <trkpt lat="57.472023982554674" lon="-4.191314019262791">
        <ele>38.109999999999999</ele>
        <time>2023-08-19T10:09:30Z</time>
      </trkpt>
      <trkpt lat="57.471977965906262" lon="-4.190985029563308">
        <ele>38.109999999999999</ele>
        <time>2023-08-19T10:09:33Z</time>
      </trkpt>
      <trkpt lat="57.471913006156683" lon="-4.19071001932025">
        <ele>38.109999999999999</ele>
        <time>2023-08-19T10:09:34Z</time>
      </trkpt>
      <trkpt lat="57.471893979236484" lon="-4.190635001286864">
        <ele>38.109999999999999</ele>
        <time>2023-08-19T10:09:36Z</time>
      </trkpt>
      <trkpt lat="57.471943013370037" lon="-4.190339036285877">
        <ele>37.630000000000003</ele>
        <time>2023-08-19T10:09:38Z</time>
      </trkpt>
      <trkpt lat="57.471972014755011" lon="-4.190276004374027">
        <ele>37.630000000000003</ele>
        <time>2023-08-19T10:09:39Z</time>
      </trkpt>
      <trkpt lat="57.472064970061183" lon="-4.19015203602612">
        <ele>37.630000000000003</ele>
        <time>2023-08-19T10:09:40Z</time>
      </trkpt>
      <trkpt lat="57.472141999751329" lon="-4.190063020214438">
        <ele>37.630000000000003</ele>
        <time>2023-08-19T10:09:41Z</time>
      </trkpt>
      <trkpt lat="57.472230009734631" lon="-4.189975010231137">
        <ele>37.630000000000003</ele>
        <time>2023-08-19T10:09:42Z</time>
      </trkpt>
      <trkpt lat="57.472320031374693" lon="-4.189914995804429">
        <ele>37.630000000000003</ele>
        <time>2023-08-19T10:09:43Z</time>
      </trkpt>
      <trkpt lat="57.473185965791345" lon="-4.189114021137357">
        <ele>38.590000000000003</ele>
        <time>2023-08-19T10:09:51Z</time>
      </trkpt>
      <trkpt lat="57.473874958232045" lon="-4.187550963833928">
        <ele>37.149999999999999</ele>
        <time>2023-08-19T10:10:00Z</time>
      </trkpt>
      <trkpt lat="57.474086014553905" lon="-4.187006978318095">
        <ele>36.189999999999998</ele>
        <time>2023-08-19T10:10:03Z</time>
      </trkpt>
      <trkpt lat="57.474138988181949" lon="-4.186906982213259">
        <ele>35.710000000000001</ele>
        <time>2023-08-19T10:10:04Z</time>
      </trkpt>
      <trkpt lat="57.474252982065082" lon="-4.186878986656666">
        <ele>35.229999999999997</ele>
        <time>2023-08-19T10:10:05Z</time>
      </trkpt>
      <trkpt lat="57.474359013140202" lon="-4.186851996928453">
        <ele>34.740000000000002</ele>
        <time>2023-08-19T10:10:06Z</time>
      </trkpt>
      <trkpt lat="57.474475018680096" lon="-4.18682299554348">
        <ele>34.259999999999998</ele>
        <time>2023-08-19T10:10:07Z</time>
      </trkpt>
      <trkpt lat="57.474637040868402" lon="-4.186839004978538">
        <ele>33.780000000000001</ele>
        <time>2023-08-19T10:10:08Z</time>
      </trkpt>
      <trkpt lat="57.475700033828616" lon="-4.187455996870995">
        <ele>32.340000000000003</ele>
        <time>2023-08-19T10:10:14Z</time>
      </trkpt>
      <trkpt lat="57.477422012016177" lon="-4.188279015943408">
        <ele>29.940000000000001</ele>
        <time>2023-08-19T10:10:22Z</time>
      </trkpt>
      <trkpt lat="57.479464011266828" lon="-4.189419960603118">
        <ele>28.5</ele>
        <time>2023-08-19T10:10:32Z</time>
      </trkpt>
      <trkpt lat="57.480948027223349" lon="-4.19116398319602">
        <ele>30.420000000000002</ele>
        <time>2023-08-19T10:10:40Z</time>
      </trkpt>
      <trkpt lat="57.482149992138147" lon="-4.193188967183232">
        <ele>30.899999999999999</ele>
        <time>2023-08-19T10:10:48Z</time>
      </trkpt>
      <trkpt lat="57.483148025348783" lon="-4.196077035740018">
        <ele>29.460000000000001</ele>
        <time>2023-08-19T10:10:57Z</time>
      </trkpt>
      <trkpt lat="57.484309002757072" lon="-4.200092973187566">
        <ele>25.609999999999999</ele>
        <time>2023-08-19T10:11:07Z</time>
      </trkpt>
      <trkpt lat="57.485506022349" lon="-4.203513041138649">
        <ele>21.289999999999999</ele>
        <time>2023-08-19T10:11:16Z</time>
      </trkpt>
      <trkpt lat="57.48728902079165" lon="-4.207710027694702">
        <ele>18.399999999999999</ele>
        <time>2023-08-19T10:11:29Z</time>
      </trkpt>
      <trkpt lat="57.488842019811273" lon="-4.210638999938965">
        <ele>16.960000000000001</ele>
        <time>2023-08-19T10:11:40Z</time>
      </trkpt>
      <trkpt lat="57.490048008039594" lon="-4.212673958390951">
        <ele>15.52</ele>
        <time>2023-08-19T10:11:49Z</time>
      </trkpt>
      <trkpt lat="57.490814030170441" lon="-4.213775005191565">
        <ele>15.039999999999999</ele>
        <time>2023-08-19T10:11:58Z</time>
      </trkpt>
      <trkpt lat="57.491350974887609" lon="-4.214584026485682">
        <ele>15.52</ele>
        <time>2023-08-19T10:12:07Z</time>
      </trkpt>
      <trkpt lat="57.491391040384769" lon="-4.214695002883673">
        <ele>15.52</ele>
        <time>2023-08-19T10:12:08Z</time>
      </trkpt>
      <trkpt lat="57.491399003192782" lon="-4.214813020080328">
        <ele>15.52</ele>
        <time>2023-08-19T10:12:09Z</time>
      </trkpt>
      <trkpt lat="57.491413000971079" lon="-4.215145027264953">
        <ele>15.52</ele>
        <time>2023-08-19T10:12:11Z</time>
      </trkpt>
      <trkpt lat="57.491443008184433" lon="-4.215265978127718">
        <ele>15.52</ele>
        <time>2023-08-19T10:12:12Z</time>
      </trkpt>
      <trkpt lat="57.491498999297619" lon="-4.215426994487643">
        <ele>16</ele>
        <time>2023-08-19T10:12:14Z</time>
      </trkpt>
      <trkpt lat="57.491677030920982" lon="-4.215617012232542">
        <ele>16</ele>
        <time>2023-08-19T10:12:15Z</time>
      </trkpt>
      <trkpt lat="57.491779960691929" lon="-4.215617012232542">
        <ele>15.52</ele>
        <time>2023-08-19T10:12:16Z</time>
      </trkpt>
      <trkpt lat="57.491891020908952" lon="-4.21563402749598">
        <ele>15.039999999999999</ele>
        <time>2023-08-19T10:12:17Z</time>
      </trkpt>
      <trkpt lat="57.492129988968372" lon="-4.215669985860586">
        <ele>14.56</ele>
        <time>2023-08-19T10:12:19Z</time>
      </trkpt>
      <trkpt lat="57.492240965366364" lon="-4.215730000287294">
        <ele>14.08</ele>
        <time>2023-08-19T10:12:20Z</time>
      </trkpt>
      <trkpt lat="57.4923409614712" lon="-4.215872995555401">
        <ele>14.08</ele>
        <time>2023-08-19T10:12:21Z</time>
      </trkpt>
      <trkpt lat="57.492441963404417" lon="-4.216023031622171">
        <ele>13.6</ele>
        <time>2023-08-19T10:12:22Z</time>
      </trkpt>
      <trkpt lat="57.492549000307918" lon="-4.216182958334684">
        <ele>13.119999999999999</ele>
        <time>2023-08-19T10:12:23Z</time>
      </trkpt>
      <trkpt lat="57.493461035192013" lon="-4.217542000114918">
        <ele>13.119999999999999</ele>
        <time>2023-08-19T10:12:30Z</time>
      </trkpt>
      <trkpt lat="57.494798032566905" lon="-4.219950037077069">
        <ele>16.48</ele>
        <time>2023-08-19T10:12:39Z</time>
      </trkpt>
      <trkpt lat="57.496332004666328" lon="-4.22315401956439">
        <ele>25.609999999999999</ele>
        <time>2023-08-19T10:12:51Z</time>
      </trkpt>
      <trkpt lat="57.497948035597801" lon="-4.226755974814296">
        <ele>40.030000000000001</ele>
        <time>2023-08-19T10:13:04Z</time>
      </trkpt>
      <trkpt lat="57.49921596609056" lon="-4.229584028944373">
        <ele>46.759999999999998</ele>
        <time>2023-08-19T10:13:14Z</time>
      </trkpt>
      <trkpt lat="57.501095021143556" lon="-4.233849998563528">
        <ele>49.159999999999997</ele>
        <time>2023-08-19T10:13:29Z</time>
      </trkpt>
      <trkpt lat="57.501768004149199" lon="-4.236512007191777">
        <ele>47.240000000000002</ele>
        <time>2023-08-19T10:13:37Z</time>
      </trkpt>
      <trkpt lat="57.501936983317137" lon="-4.239431004971266">
        <ele>43.880000000000003</ele>
        <time>2023-08-19T10:13:45Z</time>
      </trkpt>
      <trkpt lat="57.502005966380239" lon="-4.24289901740849">
        <ele>40.509999999999998</ele>
        <time>2023-08-19T10:13:55Z</time>
      </trkpt>
      <trkpt lat="57.502393964678049" lon="-4.246178017929196">
        <ele>40.990000000000002</ele>
        <time>2023-08-19T10:14:04Z</time>
      </trkpt>
      <trkpt lat="57.50316602177918" lon="-4.249225007370114">
        <ele>41.469999999999999</ele>
        <time>2023-08-19T10:14:13Z</time>
      </trkpt>
      <trkpt lat="57.504360023885965" lon="-4.252164037898183">
        <ele>41.469999999999999</ele>
        <time>2023-08-19T10:14:23Z</time>
      </trkpt>
      <trkpt lat="57.505508009344339" lon="-4.254718003794551">
        <ele>40.509999999999998</ele>
        <time>2023-08-19T10:14:32Z</time>
      </trkpt>
      <trkpt lat="57.507240967825055" lon="-4.258757997304201">
        <ele>40.990000000000002</ele>
        <time>2023-08-19T10:14:46Z</time>
      </trkpt>
      <trkpt lat="57.507978994399309" lon="-4.261748995631933">
        <ele>41.950000000000003</ele>
        <time>2023-08-19T10:14:55Z</time>
      </trkpt>
      <trkpt lat="57.508391970768571" lon="-4.265788989141583">
        <ele>44.840000000000003</ele>
        <time>2023-08-19T10:15:06Z</time>
      </trkpt>
      <trkpt lat="57.508597997948527" lon="-4.269323972985148">
        <ele>47.719999999999999</ele>
        <time>2023-08-19T10:15:14Z</time>
      </trkpt>
      <trkpt lat="57.509210966527462" lon="-4.272523010149598">
        <ele>49.159999999999997</ele>
        <time>2023-08-19T10:15:21Z</time>
      </trkpt>
      <trkpt lat="57.510187961161137" lon="-4.27701503969729">
        <ele>49.159999999999997</ele>
        <time>2023-08-19T10:15:31Z</time>
      </trkpt>
      <trkpt lat="57.510361969470978" lon="-4.280187003314495">
        <ele>53.009999999999998</ele>
        <time>2023-08-19T10:15:38Z</time>
      </trkpt>
      <trkpt lat="57.510764971375465" lon="-4.284004960209131">
        <ele>59.259999999999998</ele>
        <time>2023-08-19T10:15:47Z</time>
      </trkpt>
      <trkpt lat="57.511588996276259" lon="-4.286684989929199">
        <ele>64.069999999999993</ele>
        <time>2023-08-19T10:15:54Z</time>
      </trkpt>
      <trkpt lat="57.512934962287545" lon="-4.289100989699364">
        <ele>67.430000000000007</ele>
        <time>2023-08-19T10:16:02Z</time>
      </trkpt>
      <trkpt lat="57.515008980408311" lon="-4.292803024873138">
        <ele>74.159999999999997</ele>
        <time>2023-08-19T10:16:15Z</time>
      </trkpt>
      <trkpt lat="57.516382019966841" lon="-4.296398023143411">
        <ele>76.560000000000002</ele>
        <time>2023-08-19T10:16:25Z</time>
      </trkpt>
      <trkpt lat="57.517806021496654" lon="-4.300640020519495">
        <ele>78</ele>
        <time>2023-08-19T10:16:36Z</time>
      </trkpt>
      <trkpt lat="57.519371006637812" lon="-4.305302035063505">
        <ele>74.640000000000001</ele>
        <time>2023-08-19T10:16:48Z</time>
      </trkpt>
      <trkpt lat="57.521438989788294" lon="-4.311462985351682">
        <ele>66.950000000000003</ele>
        <time>2023-08-19T10:17:04Z</time>
      </trkpt>
      <trkpt lat="57.522791996598244" lon="-4.315489986911416">
        <ele>70.790000000000006</ele>
        <time>2023-08-19T10:17:15Z</time>
      </trkpt>
      <trkpt lat="57.524011982604861" lon="-4.318505041301251">
        <ele>75.599999999999994</ele>
        <time>2023-08-19T10:17:24Z</time>
      </trkpt>
      <trkpt lat="57.525336993858218" lon="-4.321081973612309">
        <ele>80.409999999999997</ele>
        <time>2023-08-19T10:17:32Z</time>
      </trkpt>
      <trkpt lat="57.527752993628383" lon="-4.32441302575171">
        <ele>84.730000000000004</ele>
        <time>2023-08-19T10:17:44Z</time>
      </trkpt>
      <trkpt lat="57.530030021443963" lon="-4.326470028609037">
        <ele>90.019999999999996</ele>
        <time>2023-08-19T10:17:54Z</time>
      </trkpt>
      <trkpt lat="57.532561020925641" lon="-4.328056974336505">
        <ele>91.939999999999998</ele>
        <time>2023-08-19T10:18:05Z</time>
      </trkpt>
      <trkpt lat="57.53500996157527" lon="-4.329545013606548">
        <ele>90.019999999999996</ele>
        <time>2023-08-19T10:18:16Z</time>
      </trkpt>
      <trkpt lat="57.536861021071672" lon="-4.331098012626171">
        <ele>87.140000000000001</ele>
        <time>2023-08-19T10:18:25Z</time>
      </trkpt>
      <trkpt lat="57.538518039509654" lon="-4.333010008558631">
        <ele>89.540000000000006</ele>
        <time>2023-08-19T10:18:35Z</time>
      </trkpt>
      <trkpt lat="57.539760991930962" lon="-4.334883028641343">
        <ele>93.390000000000001</ele>
        <time>2023-08-19T10:18:45Z</time>
      </trkpt>
      <trkpt lat="57.54018603824079" lon="-4.33560898527503">
        <ele>93.870000000000005</ele>
        <time>2023-08-19T10:18:51Z</time>
      </trkpt>
      <trkpt lat="57.540219984948635" lon="-4.335719961673021">
        <ele>93.870000000000005</ele>
        <time>2023-08-19T10:18:52Z</time>
      </trkpt>
      <trkpt lat="57.54025200381875" lon="-4.33582398109138">
        <ele>93.870000000000005</ele>
        <time>2023-08-19T10:18:53Z</time>
      </trkpt>
      <trkpt lat="57.540255021303892" lon="-4.335963036864996">
        <ele>94.349999999999994</ele>
        <time>2023-08-19T10:18:54Z</time>
      </trkpt>
      <trkpt lat="57.540234988555312" lon="-4.336133021861315">
        <ele>94.349999999999994</ele>
        <time>2023-08-19T10:18:55Z</time>
      </trkpt>
      <trkpt lat="57.540254015475512" lon="-4.336288003250957">
        <ele>93.870000000000005</ele>
        <time>2023-08-19T10:18:56Z</time>
      </trkpt>
      <trkpt lat="57.54027203656733" lon="-4.336441978812218">
        <ele>93.870000000000005</ele>
        <time>2023-08-19T10:18:57Z</time>
      </trkpt>
      <trkpt lat="57.540290979668498" lon="-4.336594026535749">
        <ele>93.870000000000005</ele>
        <time>2023-08-19T10:18:58Z</time>
      </trkpt>
      <trkpt lat="57.54035702906549" lon="-4.336730986833572">
        <ele>93.870000000000005</ele>
        <time>2023-08-19T10:18:59Z</time>
      </trkpt>
      <trkpt lat="57.54044302739203" lon="-4.336830982938409">
        <ele>93.390000000000001</ele>
        <time>2023-08-19T10:19:00Z</time>
      </trkpt>
      <trkpt lat="57.540546040982008" lon="-4.336883034557104">
        <ele>93.390000000000001</ele>
        <time>2023-08-19T10:19:01Z</time>
      </trkpt>
      <trkpt lat="57.540649976581335" lon="-4.336935002356768">
        <ele>92.900000000000006</ele>
        <time>2023-08-19T10:19:02Z</time>
      </trkpt>
      <trkpt lat="57.540761958807707" lon="-4.336904995143414">
        <ele>92.900000000000006</ele>
        <time>2023-08-19T10:19:03Z</time>
      </trkpt>
      <trkpt lat="57.540867989882827" lon="-4.33681002818048">
        <ele>92.900000000000006</ele>
        <time>2023-08-19T10:19:04Z</time>
      </trkpt>
      <trkpt lat="57.540989024564624" lon="-4.336754959076643">
        <ele>92.900000000000006</ele>
        <time>2023-08-19T10:19:06Z</time>
      </trkpt>
      <trkpt lat="57.541102012619376" lon="-4.336736015975475">
        <ele>92.900000000000006</ele>
        <time>2023-08-19T10:19:07Z</time>
      </trkpt>
      <trkpt lat="57.541336035355926" lon="-4.33672402985394">
        <ele>92.420000000000002</ele>
        <time>2023-08-19T10:19:08Z</time>
      </trkpt>
      <trkpt lat="57.541451035067439" lon="-4.336796030402184">
        <ele>92.420000000000002</ele>
        <time>2023-08-19T10:19:09Z</time>
      </trkpt>
      <trkpt lat="57.542954999953508" lon="-4.337738994508982">
        <ele>92.900000000000006</ele>
        <time>2023-08-19T10:19:20Z</time>
      </trkpt>
      <trkpt lat="57.544659040868282" lon="-4.338790001347661">
        <ele>96.269999999999996</ele>
        <time>2023-08-19T10:19:30Z</time>
      </trkpt>
      <trkpt lat="57.546227965503931" lon="-4.339234996587038">
        <ele>103</ele>
        <time>2023-08-19T10:19:38Z</time>
      </trkpt>
      <trkpt lat="57.548051029443741" lon="-4.338763011619449">
        <ele>114.53</ele>
        <time>2023-08-19T10:19:47Z</time>
      </trkpt>
      <trkpt lat="57.549453992396593" lon="-4.337698007002473">
        <ele>121.73999999999999</ele>
        <time>2023-08-19T10:19:55Z</time>
      </trkpt>
      <trkpt lat="57.551840990781784" lon="-4.335620971396565">
        <ele>134.24000000000001</ele>
        <time>2023-08-19T10:20:09Z</time>
      </trkpt>
      <trkpt lat="57.553820963948965" lon="-4.334567030891776">
        <ele>141.93000000000001</ele>
        <time>2023-08-19T10:20:19Z</time>
      </trkpt>
      <trkpt lat="57.555749975144863" lon="-4.334256984293461">
        <ele>148.66</ele>
        <time>2023-08-19T10:20:28Z</time>
      </trkpt>
      <trkpt lat="57.5578030385077" lon="-4.334804993122816">
        <ele>155.87</ele>
        <time>2023-08-19T10:20:37Z</time>
      </trkpt>
      <trkpt lat="57.559833973646164" lon="-4.336139978840947">
        <ele>162.59999999999999</ele>
        <time>2023-08-19T10:20:46Z</time>
      </trkpt>
      <trkpt lat="57.561333999037743" lon="-4.337843013927341">
        <ele>167.88999999999999</ele>
        <time>2023-08-19T10:20:54Z</time>
      </trkpt>
      <trkpt lat="57.562204040586948" lon="-4.338961998000741">
        <ele>170.77000000000001</ele>
        <time>2023-08-19T10:20:59Z</time>
      </trkpt>
      <trkpt lat="57.562379976734519" lon="-4.339188979938626">
        <ele>171.25</ele>
        <time>2023-08-19T10:21:00Z</time>
      </trkpt>
      <trkpt lat="57.564104972407222" lon="-4.341414039954543">
        <ele>175.09999999999999</ele>
        <time>2023-08-19T10:21:10Z</time>
      </trkpt>
      <trkpt lat="57.564927991479635" lon="-4.34248298406601">
        <ele>177.02000000000001</ele>
        <time>2023-08-19T10:21:15Z</time>
      </trkpt>
      <trkpt lat="57.566254008561373" lon="-4.344204040244222">
        <ele>175.09999999999999</ele>
        <time>2023-08-19T10:21:23Z</time>
      </trkpt>
      <trkpt lat="57.566423993557692" lon="-4.344422975555062">
        <ele>174.62</ele>
        <time>2023-08-19T10:21:24Z</time>
      </trkpt>
      <trkpt lat="57.56659297272563" lon="-4.344639983028173">
        <ele>174.13999999999999</ele>
        <time>2023-08-19T10:21:25Z</time>
      </trkpt>
      <trkpt lat="57.566761029884219" lon="-4.344856990501285">
        <ele>173.66</ele>
        <time>2023-08-19T10:21:26Z</time>
      </trkpt>
      <trkpt lat="57.568690963089466" lon="-4.347349014133215">
        <ele>167.41</ele>
        <time>2023-08-19T10:21:37Z</time>
      </trkpt>
      <trkpt lat="57.570728017017245" lon="-4.349976992234588">
        <ele>159.72</ele>
        <time>2023-08-19T10:21:48Z</time>
      </trkpt>
      <trkpt lat="57.572635989636183" lon="-4.352439008653164">
        <ele>149.62</ele>
        <time>2023-08-19T10:21:58Z</time>
      </trkpt>
      <trkpt lat="57.575110998004675" lon="-4.355490021407604">
        <ele>139.05000000000001</ele>
        <time>2023-08-19T10:22:11Z</time>
      </trkpt>
      <trkpt lat="57.577415015548468" lon="-4.357589017599821">
        <ele>132.80000000000001</ele>
        <time>2023-08-19T10:22:23Z</time>
      </trkpt>
      <trkpt lat="57.580110970884562" lon="-4.35932801105082">
        <ele>125.11</ele>
        <time>2023-08-19T10:22:37Z</time>
      </trkpt>
      <trkpt lat="57.58272796869278" lon="-4.360309028998017">
        <ele>117.90000000000001</ele>
        <time>2023-08-19T10:22:50Z</time>
      </trkpt>
      <trkpt lat="57.585600027814507" lon="-4.360644975677133">
        <ele>108.77</ele>
        <time>2023-08-19T10:23:04Z</time>
      </trkpt>
      <trkpt lat="57.588338982313871" lon="-4.360278015956283">
        <ele>100.59999999999999</ele>
        <time>2023-08-19T10:23:17Z</time>
      </trkpt>
      <trkpt lat="57.590903006494045" lon="-4.359291968867183">
        <ele>92.900000000000006</ele>
        <time>2023-08-19T10:23:29Z</time>
      </trkpt>
      <trkpt lat="57.592961015179753" lon="-4.358310028910637">
        <ele>84.25</ele>
        <time>2023-08-19T10:23:40Z</time>
      </trkpt>
      <trkpt lat="57.595154978334904" lon="-4.357262039557099">
        <ele>77.519999999999996</ele>
        <time>2023-08-19T10:23:51Z</time>
      </trkpt>
      <trkpt lat="57.597334021702409" lon="-4.356198962777853">
        <ele>69.829999999999998</ele>
        <time>2023-08-19T10:24:02Z</time>
      </trkpt>
      <trkpt lat="57.600615033879876" lon="-4.354308005422354">
        <ele>57.340000000000003</ele>
        <time>2023-08-19T10:24:20Z</time>
      </trkpt>
      <trkpt lat="57.603079983964562" lon="-4.352976959198713">
        <ele>48.200000000000003</ele>
        <time>2023-08-19T10:24:32Z</time>
      </trkpt>
      <trkpt lat="57.605281993746758" lon="-4.35249499976635">
        <ele>40.030000000000001</ele>
        <time>2023-08-19T10:24:42Z</time>
      </trkpt>
      <trkpt lat="57.607504958286881" lon="-4.352871011942625">
        <ele>29.460000000000001</ele>
        <time>2023-08-19T10:24:53Z</time>
      </trkpt>
      <trkpt lat="57.609608983621001" lon="-4.354133997112513">
        <ele>19.84</ele>
        <time>2023-08-19T10:25:04Z</time>
      </trkpt>
      <trkpt lat="57.611385025084019" lon="-4.355864021927118">
        <ele>15.52</ele>
        <time>2023-08-19T10:25:14Z</time>
      </trkpt>
      <trkpt lat="57.613950977101922" lon="-4.358796011656523">
        <ele>16.48</ele>
        <time>2023-08-19T10:25:29Z</time>
      </trkpt>
      <trkpt lat="57.61620101518929" lon="-4.360905988141894">
        <ele>16.960000000000001</ele>
        <time>2023-08-19T10:25:41Z</time>
      </trkpt>
      <trkpt lat="57.618593964725733" lon="-4.362826030701399">
        <ele>21.289999999999999</ele>
        <time>2023-08-19T10:25:53Z</time>
      </trkpt>
      <trkpt lat="57.621536012738943" lon="-4.364602994173765">
        <ele>22.73</ele>
        <time>2023-08-19T10:26:07Z</time>
      </trkpt>
      <trkpt lat="57.624466996639967" lon="-4.365862039849162">
        <ele>21.77</ele>
        <time>2023-08-19T10:26:21Z</time>
      </trkpt>
      <trkpt lat="57.627111990004778" lon="-4.366770973429084">
        <ele>20.32</ele>
        <time>2023-08-19T10:26:35Z</time>
      </trkpt>
      <trkpt lat="57.627605013549328" lon="-4.366941964253783">
        <ele>18.879999999999999</ele>
        <time>2023-08-19T10:26:41Z</time>
      </trkpt>
      <trkpt lat="57.627656981348991" lon="-4.366959985345602">
        <ele>18.879999999999999</ele>
        <time>2023-08-19T10:26:42Z</time>
      </trkpt>
      <trkpt lat="57.627711966633797" lon="-4.367080014199019">
        <ele>18.879999999999999</ele>
        <time>2023-08-19T10:26:43Z</time>
      </trkpt>
      <trkpt lat="57.627711966633797" lon="-4.367280006408691">
        <ele>19.359999999999999</ele>
        <time>2023-08-19T10:26:44Z</time>
      </trkpt>
      <trkpt lat="57.627729987725616" lon="-4.367353012785316">
        <ele>19.359999999999999</ele>
        <time>2023-08-19T10:26:45Z</time>
      </trkpt>
      <trkpt lat="57.62776100076735" lon="-4.367474969476461">
        <ele>19.359999999999999</ele>
        <time>2023-08-19T10:26:46Z</time>
      </trkpt>
      <trkpt lat="57.627790002152324" lon="-4.367591980844736">
        <ele>18.879999999999999</ele>
        <time>2023-08-19T10:26:47Z</time>
      </trkpt>
      <trkpt lat="57.627873988822103" lon="-4.367682002484798">
        <ele>18.879999999999999</ele>
        <time>2023-08-19T10:26:48Z</time>
      </trkpt>
      <trkpt lat="57.627943977713585" lon="-4.367736987769604">
        <ele>18.399999999999999</ele>
        <time>2023-08-19T10:26:49Z</time>
      </trkpt>
      <trkpt lat="57.628035005182028" lon="-4.367747968062758">
        <ele>18.399999999999999</ele>
        <time>2023-08-19T10:26:50Z</time>
      </trkpt>
      <trkpt lat="57.628098037093878" lon="-4.367708992213011">
        <ele>17.920000000000002</ele>
        <time>2023-08-19T10:26:51Z</time>
      </trkpt>
      <trkpt lat="57.628184035420418" lon="-4.367645038291812">
        <ele>17.440000000000001</ele>
        <time>2023-08-19T10:26:52Z</time>
      </trkpt>
      <trkpt lat="57.628227034583688" lon="-4.367500031366944">
        <ele>16.960000000000001</ele>
        <time>2023-08-19T10:26:53Z</time>
      </trkpt>
      <trkpt lat="57.628332981839776" lon="-4.367266008630395">
        <ele>16.48</ele>
        <time>2023-08-19T10:26:54Z</time>
      </trkpt>
      <trkpt lat="57.628521993756294" lon="-4.367199037224054">
        <ele>15.52</ele>
        <time>2023-08-19T10:26:56Z</time>
      </trkpt>
      <trkpt lat="57.628626013174653" lon="-4.367162995040417">
        <ele>15.039999999999999</ele>
        <time>2023-08-19T10:26:57Z</time>
      </trkpt>
      <trkpt lat="57.629727981984615" lon="-4.366661002859473">
        <ele>13.6</ele>
        <time>2023-08-19T10:27:06Z</time>
      </trkpt>
      <trkpt lat="57.63070497661829" lon="-4.365917025133967">
        <ele>13.6</ele>
        <time>2023-08-19T10:27:11Z</time>
      </trkpt>
      <trkpt lat="57.63201498426497" lon="-4.364495035260916">
        <ele>14.08</ele>
        <time>2023-08-19T10:27:18Z</time>
      </trkpt>
      <trkpt lat="57.634561993181705" lon="-4.360919985920191">
        <ele>11.67</ele>
        <time>2023-08-19T10:27:33Z</time>
      </trkpt>
      <trkpt lat="57.636105017736554" lon="-4.357874002307653">
        <ele>10.710000000000001</ele>
        <time>2023-08-19T10:27:44Z</time>
      </trkpt>
      <trkpt lat="57.637574030086398" lon="-4.354460975155234">
        <ele>10.710000000000001</ele>
        <time>2023-08-19T10:27:55Z</time>
      </trkpt>
      <trkpt lat="57.63944998383522" lon="-4.350976031273603">
        <ele>10.23</ele>
        <time>2023-08-19T10:28:07Z</time>
      </trkpt>
      <trkpt lat="57.640877002850175" lon="-4.34877896681428">
        <ele>9.75</ele>
        <time>2023-08-19T10:28:16Z</time>
      </trkpt>
      <trkpt lat="57.643303982913494" lon="-4.345259992405772">
        <ele>10.23</ele>
        <time>2023-08-19T10:28:30Z</time>
      </trkpt>
      <trkpt lat="57.645450001582503" lon="-4.342648023739457">
        <ele>14.08</ele>
        <time>2023-08-19T10:28:42Z</time>
      </trkpt>
      <trkpt lat="57.647800035774708" lon="-4.340664027258754">
        <ele>14.08</ele>
        <time>2023-08-19T10:28:54Z</time>
      </trkpt>
      <trkpt lat="57.64958999119699" lon="-4.340048963204026">
        <ele>15.039999999999999</ele>
        <time>2023-08-19T10:29:03Z</time>
      </trkpt>
      <trkpt lat="57.652391977608204" lon="-4.339121002703905">
        <ele>20.809999999999999</ele>
        <time>2023-08-19T10:29:17Z</time>
      </trkpt>
      <trkpt lat="57.655178960412741" lon="-4.337629023939371">
        <ele>26.09</ele>
        <time>2023-08-19T10:29:31Z</time>
      </trkpt>
      <trkpt lat="57.657545004040003" lon="-4.335810989141464">
        <ele>28.5</ele>
        <time>2023-08-19T10:29:43Z</time>
      </trkpt>
      <trkpt lat="57.659714994952083" lon="-4.33359095826745">
        <ele>25.129999999999999</ele>
        <time>2023-08-19T10:29:54Z</time>
      </trkpt>
      <trkpt lat="57.661307975649834" lon="-4.331506965681911">
        <ele>23.690000000000001</ele>
        <time>2023-08-19T10:30:03Z</time>
      </trkpt>
      <trkpt lat="57.663208991289139" lon="-4.328241962939501">
        <ele>21.77</ele>
        <time>2023-08-19T10:30:15Z</time>
      </trkpt>
      <trkpt lat="57.663889015093446" lon="-4.326898008584976">
        <ele>20.32</ele>
        <time>2023-08-19T10:30:20Z</time>
      </trkpt>
      <trkpt lat="57.664684038609266" lon="-4.32531600818038">
        <ele>20.809999999999999</ele>
        <time>2023-08-19T10:30:28Z</time>
      </trkpt>
      <trkpt lat="57.66576798632741" lon="-4.323158003389835">
        <ele>21.289999999999999</ele>
        <time>2023-08-19T10:30:36Z</time>
      </trkpt>
      <trkpt lat="57.667215038090944" lon="-4.320400021970272">
        <ele>18.399999999999999</ele>
        <time>2023-08-19T10:30:45Z</time>
      </trkpt>
      <trkpt lat="57.669344041496515" lon="-4.316641995683312">
        <ele>16.960000000000001</ele>
        <time>2023-08-19T10:30:59Z</time>
      </trkpt>
      <trkpt lat="57.670913971960545" lon="-4.313715035095811">
        <ele>16</ele>
        <time>2023-08-19T10:31:09Z</time>
      </trkpt>
      <trkpt lat="57.672177962958813" lon="-4.311107005923986">
        <ele>16.48</ele>
        <time>2023-08-19T10:31:18Z</time>
      </trkpt>
      <trkpt lat="57.674112003296614" lon="-4.306780016049743">
        <ele>19.84</ele>
        <time>2023-08-19T10:31:32Z</time>
      </trkpt>
      <trkpt lat="57.675039963796735" lon="-4.304516986012459">
        <ele>19.359999999999999</ele>
        <time>2023-08-19T10:31:40Z</time>
      </trkpt>
      <trkpt lat="57.675761980935931" lon="-4.30277899838984">
        <ele>18.879999999999999</ele>
        <time>2023-08-19T10:31:48Z</time>
      </trkpt>
      <trkpt lat="57.676664963364601" lon="-4.300606995820999">
        <ele>16.48</ele>
        <time>2023-08-19T10:31:58Z</time>
      </trkpt>
      <trkpt lat="57.677494017407298" lon="-4.299226999282837">
        <ele>15.039999999999999</ele>
        <time>2023-08-19T10:32:07Z</time>
      </trkpt>
      <trkpt lat="57.678306978195906" lon="-4.298624005168676">
        <ele>15.52</ele>
        <time>2023-08-19T10:32:14Z</time>
      </trkpt>
      <trkpt lat="57.678903015330434" lon="-4.298491990193725">
        <ele>16.960000000000001</ele>
        <time>2023-08-19T10:32:21Z</time>
      </trkpt>
      <trkpt lat="57.678966969251633" lon="-4.298513028770685">
        <ele>17.920000000000002</ele>
        <time>2023-08-19T10:32:23Z</time>
      </trkpt>
      <trkpt lat="57.679074006155133" lon="-4.298619981855154">
        <ele>18.399999999999999</ele>
        <time>2023-08-19T10:32:24Z</time>
      </trkpt>
      <trkpt lat="57.679126979783177" lon="-4.298705980181694">
        <ele>19.359999999999999</ele>
        <time>2023-08-19T10:32:25Z</time>
      </trkpt>
      <trkpt lat="57.679179031401873" lon="-4.298788961023092">
        <ele>19.84</ele>
        <time>2023-08-19T10:32:26Z</time>
      </trkpt>
      <trkpt lat="57.679229993373156" lon="-4.298927010968328">
        <ele>20.32</ele>
        <time>2023-08-19T10:32:27Z</time>
      </trkpt>
      <trkpt lat="57.679223958402872" lon="-4.299050979316235">
        <ele>20.809999999999999</ele>
        <time>2023-08-19T10:32:28Z</time>
      </trkpt>
      <trkpt lat="57.679220018908381" lon="-4.299154998734593">
        <ele>21.289999999999999</ele>
        <time>2023-08-19T10:32:29Z</time>
      </trkpt>
      <trkpt lat="57.67921700142324" lon="-4.29923496209085">
        <ele>22.25</ele>
        <time>2023-08-19T10:32:31Z</time>
      </trkpt>
      <trkpt lat="57.679166961461306" lon="-4.299403019249439">
        <ele>22.25</ele>
        <time>2023-08-19T10:32:32Z</time>
      </trkpt>
      <trkpt lat="57.679139971733093" lon="-4.299411987885833">
        <ele>22.73</ele>
        <time>2023-08-19T10:32:33Z</time>
      </trkpt>
      <trkpt lat="57.679076017811894" lon="-4.299435038119555">
        <ele>22.73</ele>
        <time>2023-08-19T10:32:35Z</time>
      </trkpt>
      <trkpt lat="57.679019020870328" lon="-4.299453981220722">
        <ele>24.170000000000002</ele>
        <time>2023-08-19T10:32:48Z</time>
      </trkpt>
      <trkpt lat="57.679037963971496" lon="-4.299723962321878">
        <ele>-9.960000000000001</ele>
        <time>2023-08-19T10:37:55Z</time>
      </trkpt>
      <trkpt lat="57.679035030305386" lon="-4.299569986760616">
        <ele>3.02</ele>
        <time>2023-08-19T10:38:27Z</time>
      </trkpt>
      <trkpt lat="57.678963029757142" lon="-4.299704013392329">
        <ele>6.39</ele>
        <time>2023-08-19T10:38:49Z</time>
      </trkpt>
      <trkpt lat="57.678947020322084" lon="-4.30015898309648">
        <ele>17.440000000000001</ele>
        <time>2023-08-19T10:38:59Z</time>
      </trkpt>
      <trkpt lat="57.678960012272" lon="-4.300174992531538">
        <ele>22.25</ele>
        <time>2023-08-19T10:39:08Z</time>
      </trkpt>
      <trkpt lat="57.678960012272" lon="-4.300174992531538">
        <ele>24.649999999999999</ele>
        <time>2023-08-19T10:39:53Z</time>
      </trkpt>
      <trkpt lat="57.678960012272" lon="-4.300174992531538">
        <ele>25.129999999999999</ele>
        <time>2023-08-19T10:40:41Z</time>
      </trkpt>
      <trkpt lat="57.678960012272" lon="-4.300174992531538">
        <ele>25.129999999999999</ele>
        <time>2023-08-19T10:41:24Z</time>
      </trkpt>
      <trkpt lat="57.678960012272" lon="-4.300174992531538">
        <ele>25.129999999999999</ele>
        <time>2023-08-19T10:41:54Z</time>
      </trkpt>
      <trkpt lat="57.678960012272" lon="-4.300174992531538">
        <ele>25.609999999999999</ele>
        <time>2023-08-19T10:41:55Z</time>
      </trkpt>
      <trkpt lat="57.679028995335102" lon="-4.300256967544556">
        <ele>26.57</ele>
        <time>2023-08-19T10:41:58Z</time>
      </trkpt>
      <trkpt lat="57.679069982841611" lon="-4.300162000581622">
        <ele>26.57</ele>
        <time>2023-08-19T10:41:59Z</time>
      </trkpt>
      <trkpt lat="57.679093033075333" lon="-4.300082959234715">
        <ele>26.57</ele>
        <time>2023-08-19T10:42:00Z</time>
      </trkpt>
      <trkpt lat="57.679126979783177" lon="-4.299968965351582">
        <ele>26.09</ele>
        <time>2023-08-19T10:42:01Z</time>
      </trkpt>
      <trkpt lat="57.67915204167366" lon="-4.299852959811688">
        <ele>26.09</ele>
        <time>2023-08-19T10:42:02Z</time>
      </trkpt>
      <trkpt lat="57.679168973118067" lon="-4.299714993685484">
        <ele>25.609999999999999</ele>
        <time>2023-08-19T10:42:03Z</time>
      </trkpt>
      <trkpt lat="57.679188000038266" lon="-4.299569986760616">
        <ele>25.609999999999999</ele>
        <time>2023-08-19T10:42:04Z</time>
      </trkpt>
      <trkpt lat="57.679207026958466" lon="-4.299416011199355">
        <ele>25.609999999999999</ele>
        <time>2023-08-19T10:42:05Z</time>
      </trkpt>
      <trkpt lat="57.679215995594859" lon="-4.299260023981333">
        <ele>25.609999999999999</ele>
        <time>2023-08-19T10:42:06Z</time>
      </trkpt>
      <trkpt lat="57.679222030565143" lon="-4.299099007621408">
        <ele>25.129999999999999</ele>
        <time>2023-08-19T10:42:07Z</time>
      </trkpt>
      <trkpt lat="57.679179031401873" lon="-4.298449996858835">
        <ele>24.649999999999999</ele>
        <time>2023-08-19T10:42:12Z</time>
      </trkpt>
      <trkpt lat="57.679169978946447" lon="-4.29837497882545">
        <ele>24.170000000000002</ele>
        <time>2023-08-19T10:42:13Z</time>
      </trkpt>
      <trkpt lat="57.679221024736762" lon="-4.298142967745662">
        <ele>24.170000000000002</ele>
        <time>2023-08-19T10:42:14Z</time>
      </trkpt>
      <trkpt lat="57.679255977272987" lon="-4.298123018816114">
        <ele>24.170000000000002</ele>
        <time>2023-08-19T10:42:15Z</time>
      </trkpt>
      <trkpt lat="57.679306017234921" lon="-4.298095023259521">
        <ele>23.690000000000001</ele>
        <time>2023-08-19T10:42:16Z</time>
      </trkpt>
      <trkpt lat="57.67936896532774" lon="-4.298057975247502">
        <ele>23.690000000000001</ele>
        <time>2023-08-19T10:42:17Z</time>
      </trkpt>
      <trkpt lat="57.679448006674647" lon="-4.298012964427471">
        <ele>23.690000000000001</ele>
        <time>2023-08-19T10:42:18Z</time>
      </trkpt>
      <trkpt lat="57.67953903414309" lon="-4.297960996627808">
        <ele>23.210000000000001</ele>
        <time>2023-08-19T10:42:19Z</time>
      </trkpt>
      <trkpt lat="57.680562967434525" lon="-4.297374011948705">
        <ele>23.210000000000001</ele>
        <time>2023-08-19T10:42:27Z</time>
      </trkpt>
      <trkpt lat="57.682396005839109" lon="-4.296113038435578">
        <ele>25.609999999999999</ele>
        <time>2023-08-19T10:42:39Z</time>
      </trkpt>
      <trkpt lat="57.684158971533179" lon="-4.295189017429948">
        <ele>28.5</ele>
        <time>2023-08-19T10:42:50Z</time>
      </trkpt>
      <trkpt lat="57.686404986307025" lon="-4.294456019997597">
        <ele>30.420000000000002</ele>
        <time>2023-08-19T10:43:04Z</time>
      </trkpt>
      <trkpt lat="57.688268031924963" lon="-4.294073972851038">
        <ele>36.189999999999998</ele>
        <time>2023-08-19T10:43:14Z</time>
      </trkpt>
      <trkpt lat="57.690961975604296" lon="-4.294101968407631">
        <ele>41.469999999999999</ele>
        <time>2023-08-19T10:43:28Z</time>
      </trkpt>
      <trkpt lat="57.692625029012561" lon="-4.293887978419662">
        <ele>49.159999999999997</ele>
        <time>2023-08-19T10:43:37Z</time>
      </trkpt>
      <trkpt lat="57.694100998342037" lon="-4.292919030413032">
        <ele>53.490000000000002</ele>
        <time>2023-08-19T10:43:45Z</time>
      </trkpt>
      <trkpt lat="57.69425799138844" lon="-4.292703028768301">
        <ele>53.969999999999999</ele>
        <time>2023-08-19T10:43:46Z</time>
      </trkpt>
      <trkpt lat="57.694415990263224" lon="-4.292484009638429">
        <ele>54.93</ele>
        <time>2023-08-19T10:43:47Z</time>
      </trkpt>
      <trkpt lat="57.695917021483183" lon="-4.290090976282954">
        <ele>56.859999999999999</ele>
        <time>2023-08-19T10:43:57Z</time>
      </trkpt>
      <trkpt lat="57.69715704023838" lon="-4.288342008367181">
        <ele>65.030000000000001</ele>
        <time>2023-08-19T10:44:06Z</time>
      </trkpt>
      <trkpt lat="57.697302969172597" lon="-4.288203958421946">
        <ele>65.989999999999995</ele>
        <time>2023-08-19T10:44:07Z</time>
      </trkpt>
      <trkpt lat="57.697449987754226" lon="-4.288165988400579">
        <ele>66.950000000000003</ele>
        <time>2023-08-19T10:44:08Z</time>
      </trkpt>
      <trkpt lat="57.697598012164235" lon="-4.288141010329127">
        <ele>67.430000000000007</ele>
        <time>2023-08-19T10:44:09Z</time>
      </trkpt>
      <trkpt lat="57.697744024917483" lon="-4.288132041692734">
        <ele>68.390000000000001</ele>
        <time>2023-08-19T10:44:10Z</time>
      </trkpt>
      <trkpt lat="57.697898000478745" lon="-4.288173029199243">
        <ele>68.870000000000005</ele>
        <time>2023-08-19T10:44:11Z</time>
      </trkpt>
      <trkpt lat="57.698052981868386" lon="-4.288214016705751">
        <ele>69.349999999999994</ele>
        <time>2023-08-19T10:44:12Z</time>
      </trkpt>
      <trkpt lat="57.699549989774823" lon="-4.28797303698957">
        <ele>74.640000000000001</ele>
        <time>2023-08-19T10:44:21Z</time>
      </trkpt>
      <trkpt lat="57.701500039547682" lon="-4.286800995469093">
        <ele>79.450000000000003</ele>
        <time>2023-08-19T10:44:32Z</time>
      </trkpt>
      <trkpt lat="57.703295024111867" lon="-4.285821989178658">
        <ele>84.730000000000004</ele>
        <time>2023-08-19T10:44:42Z</time>
      </trkpt>
      <trkpt lat="57.705841027200222" lon="-4.284754972904921">
        <ele>88.579999999999998</ele>
        <time>2023-08-19T10:44:55Z</time>
      </trkpt>
      <trkpt lat="57.707712035626173" lon="-4.283176995813847">
        <ele>90.980000000000004</ele>
        <time>2023-08-19T10:45:05Z</time>
      </trkpt>
      <trkpt lat="57.709478018805385" lon="-4.28101597353816">
        <ele>94.349999999999994</ele>
        <time>2023-08-19T10:45:16Z</time>
      </trkpt>
      <trkpt lat="57.710713008418679" lon="-4.279932025820017">
        <ele>92.900000000000006</ele>
        <time>2023-08-19T10:45:23Z</time>
      </trkpt>
      <trkpt lat="57.711410969495773" lon="-4.279666990041733">
        <ele>91.939999999999998</ele>
        <time>2023-08-19T10:45:27Z</time>
      </trkpt>
      <trkpt lat="57.711550025269389" lon="-4.279648968949914">
        <ele>91.459999999999994</ele>
        <time>2023-08-19T10:45:28Z</time>
      </trkpt>
      <trkpt lat="57.711649015545845" lon="-4.2797049600631">
        <ele>90.980000000000004</ele>
        <time>2023-08-19T10:45:29Z</time>
      </trkpt>
      <trkpt lat="57.71174699999392" lon="-4.279776038601995">
        <ele>90.980000000000004</ele>
        <time>2023-08-19T10:45:30Z</time>
      </trkpt>
      <trkpt lat="57.71181003190577" lon="-4.279834041371942">
        <ele>91.459999999999994</ele>
        <time>2023-08-19T10:45:31Z</time>
      </trkpt>
      <trkpt lat="57.711865017190576" lon="-4.279984999448061">
        <ele>91.459999999999994</ele>
        <time>2023-08-19T10:45:32Z</time>
      </trkpt>
      <trkpt lat="57.711900975555182" lon="-4.280142998322845">
        <ele>91.459999999999994</ele>
        <time>2023-08-19T10:45:33Z</time>
      </trkpt>
      <trkpt lat="57.711926959455013" lon="-4.28034801967442">
        <ele>91.459999999999994</ele>
        <time>2023-08-19T10:45:34Z</time>
      </trkpt>
      <trkpt lat="57.711954033002257" lon="-4.280561003834009">
        <ele>91.459999999999994</ele>
        <time>2023-08-19T10:45:35Z</time>
      </trkpt>
      <trkpt lat="57.712069032713771" lon="-4.281285032629967">
        <ele>89.540000000000006</ele>
        <time>2023-08-19T10:45:38Z</time>
      </trkpt>
      <trkpt lat="57.712119994685054" lon="-4.281489970162511">
        <ele>88.579999999999998</ele>
        <time>2023-08-19T10:45:39Z</time>
      </trkpt>
      <trkpt lat="57.712181014940143" lon="-4.281663978472352">
        <ele>87.620000000000005</ele>
        <time>2023-08-19T10:45:40Z</time>
      </trkpt>
      <trkpt lat="57.712257038801908" lon="-4.281812002882361">
        <ele>87.140000000000001</ele>
        <time>2023-08-19T10:45:41Z</time>
      </trkpt>
      <trkpt lat="57.712331973016262" lon="-4.28195902146399">
        <ele>86.180000000000007</ele>
        <time>2023-08-19T10:45:42Z</time>
      </trkpt>
      <trkpt lat="57.712409002706409" lon="-4.282108973711729">
        <ele>85.209999999999994</ele>
        <time>2023-08-19T10:45:43Z</time>
      </trkpt>
      <trkpt lat="57.712485026568174" lon="-4.282255992293358">
        <ele>84.730000000000004</ele>
        <time>2023-08-19T10:45:44Z</time>
      </trkpt>
      <trkpt lat="57.712641013786197" lon="-4.282523961737752">
        <ele>83.769999999999996</ele>
        <time>2023-08-19T10:45:46Z</time>
      </trkpt>
      <trkpt lat="57.712835976853967" lon="-4.282734012231231">
        <ele>82.810000000000002</ele>
        <time>2023-08-19T10:45:48Z</time>
      </trkpt>
      <trkpt lat="57.713204026222229" lon="-4.282995024695993">
        <ele>80.409999999999997</ele>
        <time>2023-08-19T10:45:52Z</time>
      </trkpt>
      <trkpt lat="57.713278038427234" lon="-4.283038023859263">
        <ele>79.450000000000003</ele>
        <time>2023-08-19T10:45:53Z</time>
      </trkpt>
      <trkpt lat="57.713351966813207" lon="-4.283045986667275">
        <ele>78.480000000000004</ele>
        <time>2023-08-19T10:45:54Z</time>
      </trkpt>
      <trkpt lat="57.71342002786696" lon="-4.28305302746594">
        <ele>78</ele>
        <time>2023-08-19T10:45:55Z</time>
      </trkpt>
      <trkpt lat="57.713478030636907" lon="-4.283058978617191">
        <ele>77.040000000000006</ele>
        <time>2023-08-19T10:45:56Z</time>
      </trkpt>
      <trkpt lat="57.713520023971796" lon="-4.283003993332386">
        <ele>76.560000000000002</ele>
        <time>2023-08-19T10:45:57Z</time>
      </trkpt>
      <trkpt lat="57.713554976508021" lon="-4.282955965027213">
        <ele>75.599999999999994</ele>
        <time>2023-08-19T10:45:58Z</time>
      </trkpt>
      <trkpt lat="57.713596969842911" lon="-4.282900979742408">
        <ele>75.120000000000005</ele>
        <time>2023-08-19T10:45:59Z</time>
      </trkpt>
      <trkpt lat="57.713609039783478" lon="-4.282830990850925">
        <ele>74.159999999999997</ele>
        <time>2023-08-19T10:46:00Z</time>
      </trkpt>
      <trkpt lat="57.713611973449588" lon="-4.282721020281315">
        <ele>73.200000000000003</ele>
        <time>2023-08-19T10:46:01Z</time>
      </trkpt>
      <trkpt lat="57.71361499093473" lon="-4.282591016963124">
        <ele>72.719999999999999</ele>
        <time>2023-08-19T10:46:02Z</time>
      </trkpt>
      <trkpt lat="57.713657990098" lon="-4.2819809820503">
        <ele>69.829999999999998</ele>
        <time>2023-08-19T10:46:06Z</time>
      </trkpt>
      <trkpt lat="57.713693026453257" lon="-4.281822983175516">
        <ele>69.349999999999994</ele>
        <time>2023-08-19T10:46:07Z</time>
      </trkpt>
      <trkpt lat="57.713726973161101" lon="-4.281672025099397">
        <ele>69.349999999999994</ele>
        <time>2023-08-19T10:46:08Z</time>
      </trkpt>
      <trkpt lat="57.713759997859597" lon="-4.28152802400291">
        <ele>68.870000000000005</ele>
        <time>2023-08-19T10:46:09Z</time>
      </trkpt>
      <trkpt lat="57.713814983144403" lon="-4.281404977664352">
        <ele>68.390000000000001</ele>
        <time>2023-08-19T10:46:10Z</time>
      </trkpt>
      <trkpt lat="57.713997960090637" lon="-4.281033994629979">
        <ele>68.870000000000005</ele>
        <time>2023-08-19T10:46:13Z</time>
      </trkpt>
      <trkpt lat="57.714067026972771" lon="-4.280917989090085">
        <ele>69.349999999999994</ele>
        <time>2023-08-19T10:46:14Z</time>
      </trkpt>
      <trkpt lat="57.714736992493272" lon="-4.280091030523181">
        <ele>73.200000000000003</ele>
        <time>2023-08-19T10:46:22Z</time>
      </trkpt>
      <trkpt lat="57.714820979163051" lon="-4.280027998611331">
        <ele>73.680000000000007</ele>
        <time>2023-08-19T10:46:23Z</time>
      </trkpt>
      <trkpt lat="57.714908989146352" lon="-4.280012995004654">
        <ele>74.159999999999997</ele>
        <time>2023-08-19T10:46:24Z</time>
      </trkpt>
      <trkpt lat="57.714985013008118" lon="-4.280000003054738">
        <ele>74.640000000000001</ele>
        <time>2023-08-19T10:46:25Z</time>
      </trkpt>
      <trkpt lat="57.715067993849516" lon="-4.280002014711499">
        <ele>75.120000000000005</ele>
        <time>2023-08-19T10:46:26Z</time>
      </trkpt>
      <trkpt lat="57.715153992176056" lon="-4.28004702553153">
        <ele>75.120000000000005</ele>
        <time>2023-08-19T10:46:27Z</time>
      </trkpt>
      <trkpt lat="57.715329006314278" lon="-4.280137969180942">
        <ele>76.079999999999998</ele>
        <time>2023-08-19T10:46:29Z</time>
      </trkpt>
      <trkpt lat="57.715409975498915" lon="-4.280179962515831">
        <ele>76.560000000000002</ele>
        <time>2023-08-19T10:46:30Z</time>
      </trkpt>
      <trkpt lat="57.71559102460742" lon="-4.280266966670752">
        <ele>77.519999999999996</ele>
        <time>2023-08-19T10:46:32Z</time>
      </trkpt>
      <trkpt lat="57.715819012373686" lon="-4.280209969729185">
        <ele>78.480000000000004</ele>
        <time>2023-08-19T10:46:34Z</time>
      </trkpt>
      <trkpt lat="57.715923031792045" lon="-4.280164958909154">
        <ele>78.969999999999999</ele>
        <time>2023-08-19T10:46:35Z</time>
      </trkpt>
      <trkpt lat="57.716341959312558" lon="-4.280000003054738">
        <ele>80.890000000000001</ele>
        <time>2023-08-19T10:46:39Z</time>
      </trkpt>
      <trkpt lat="57.716545974835753" lon="-4.279974019154906">
        <ele>81.849999999999994</ele>
        <time>2023-08-19T10:46:41Z</time>
      </trkpt>
      <trkpt lat="57.716764993965626" lon="-4.279948035255075">
        <ele>83.290000000000006</ele>
        <time>2023-08-19T10:46:43Z</time>
      </trkpt>
      <trkpt lat="57.71688099950552" lon="-4.279964966699481">
        <ele>83.769999999999996</ele>
        <time>2023-08-19T10:46:44Z</time>
      </trkpt>
      <trkpt lat="57.716997005045414" lon="-4.279981981962919">
        <ele>84.730000000000004</ele>
        <time>2023-08-19T10:46:45Z</time>
      </trkpt>
      <trkpt lat="57.717952961102128" lon="-4.280122965574265">
        <ele>89.540000000000006</ele>
        <time>2023-08-19T10:46:53Z</time>
      </trkpt>
      <trkpt lat="57.718812022358179" lon="-4.280581036582589">
        <ele>94.349999999999994</ele>
        <time>2023-08-19T10:47:00Z</time>
      </trkpt>
      <trkpt lat="57.719347961246967" lon="-4.280994012951851">
        <ele>97.230000000000004</ele>
        <time>2023-08-19T10:47:05Z</time>
      </trkpt>
      <trkpt lat="57.719563962891698" lon="-4.281110018491745">
        <ele>98.670000000000002</ele>
        <time>2023-08-19T10:47:07Z</time>
      </trkpt>
      <trkpt lat="57.720043994486332" lon="-4.281234992668033">
        <ele>101.08</ele>
        <time>2023-08-19T10:47:11Z</time>
      </trkpt>
      <trkpt lat="57.720121024176478" lon="-4.2812729626894">
        <ele>102.04000000000001</ele>
        <time>2023-08-19T10:47:12Z</time>
      </trkpt>
      <trkpt lat="57.720885034650564" lon="-4.281691974028945">
        <ele>107.31999999999999</ele>
        <time>2023-08-19T10:47:18Z</time>
      </trkpt>
      <trkpt lat="57.721674023196101" lon="-4.282521028071642">
        <ele>112.13</ele>
        <time>2023-08-19T10:47:23Z</time>
      </trkpt>
      <trkpt lat="57.7229830250144" lon="-4.284368986263871">
        <ele>118.86</ele>
        <time>2023-08-19T10:47:31Z</time>
      </trkpt>
      <trkpt lat="57.723285024985671" lon="-4.284765031188726">
        <ele>119.81999999999999</ele>
        <time>2023-08-19T10:47:33Z</time>
      </trkpt>
      <trkpt lat="57.72345601581037" lon="-4.284990001469851">
        <ele>120.3</ele>
        <time>2023-08-19T10:47:34Z</time>
      </trkpt>
      <trkpt lat="57.723626000806689" lon="-4.285097038373351">
        <ele>120.78</ele>
        <time>2023-08-19T10:47:35Z</time>
      </trkpt>
      <trkpt lat="57.723796991631389" lon="-4.285204997286201">
        <ele>120.78</ele>
        <time>2023-08-19T10:47:36Z</time>
      </trkpt>
      <trkpt lat="57.723979968577623" lon="-4.285254031419754">
        <ele>120.78</ele>
        <time>2023-08-19T10:47:37Z</time>
      </trkpt>
      <trkpt lat="57.724145008251071" lon="-4.285264005884528">
        <ele>120.78</ele>
        <time>2023-08-19T10:47:38Z</time>
      </trkpt>
      <trkpt lat="57.724322034046054" lon="-4.2852240242064">
        <ele>120.78</ele>
        <time>2023-08-19T10:47:39Z</time>
      </trkpt>
      <trkpt lat="57.724491013213992" lon="-4.285142971202731">
        <ele>120.78</ele>
        <time>2023-08-19T10:47:40Z</time>
      </trkpt>
      <trkpt lat="57.724666027352214" lon="-4.285057978704572">
        <ele>120.78</ele>
        <time>2023-08-19T10:47:41Z</time>
      </trkpt>
      <trkpt lat="57.724856967106462" lon="-4.284950019791722">
        <ele>120.78</ele>
        <time>2023-08-19T10:47:42Z</time>
      </trkpt>
      <trkpt lat="57.725034998729825" lon="-4.284806018695235">
        <ele>120.78</ele>
        <time>2023-08-19T10:47:43Z</time>
      </trkpt>
      <trkpt lat="57.725206995382905" lon="-4.284666040912271">
        <ele>120.3</ele>
        <time>2023-08-19T10:47:44Z</time>
      </trkpt>
      <trkpt lat="57.726477021351457" lon="-4.283758029341698">
        <ele>121.73999999999999</ele>
        <time>2023-08-19T10:47:51Z</time>
      </trkpt>
      <trkpt lat="57.726670978590846" lon="-4.283710001036525">
        <ele>121.73999999999999</ele>
        <time>2023-08-19T10:47:52Z</time>
      </trkpt>
      <trkpt lat="57.726863007992506" lon="-4.283662978559732">
        <ele>122.70999999999999</ele>
        <time>2023-08-19T10:47:53Z</time>
      </trkpt>
      <trkpt lat="57.728366972878575" lon="-4.283175989985466">
        <ele>128.47</ele>
        <time>2023-08-19T10:48:01Z</time>
      </trkpt>
      <trkpt lat="57.728680958971381" lon="-4.282930986955762">
        <ele>128.94999999999999</ele>
        <time>2023-08-19T10:48:03Z</time>
      </trkpt>
      <trkpt lat="57.728823032230139" lon="-4.282783968374133">
        <ele>129.43000000000001</ele>
        <time>2023-08-19T10:48:04Z</time>
      </trkpt>
      <trkpt lat="57.728954963386059" lon="-4.282576013356447">
        <ele>129.91999999999999</ele>
        <time>2023-08-19T10:48:05Z</time>
      </trkpt>
      <trkpt lat="57.729369029402733" lon="-4.281921973451972">
        <ele>130.40000000000001</ele>
        <time>2023-08-19T10:48:08Z</time>
      </trkpt>
      <trkpt lat="57.72951596416533" lon="-4.281688034534454">
        <ele>130.88</ele>
        <time>2023-08-19T10:48:09Z</time>
      </trkpt>
      <trkpt lat="57.730788001790643" lon="-4.279670007526875">
        <ele>133.75999999999999</ele>
        <time>2023-08-19T10:48:18Z</time>
      </trkpt>
      <trkpt lat="57.731097964569926" lon="-4.279191987589002">
        <ele>134.24000000000001</ele>
        <time>2023-08-19T10:48:21Z</time>
      </trkpt>
      <trkpt lat="57.732097003608942" lon="-4.27764100022614">
        <ele>134.72</ele>
        <time>2023-08-19T10:48:30Z</time>
      </trkpt>
      <trkpt lat="57.732219966128469" lon="-4.277444025501609">
        <ele>135.19999999999999</ele>
        <time>2023-08-19T10:48:31Z</time>
      </trkpt>
      <trkpt lat="57.733051031827927" lon="-4.276122031733394">
        <ele>141.44999999999999</ele>
        <time>2023-08-19T10:48:37Z</time>
      </trkpt>
      <trkpt lat="57.734573017805815" lon="-4.273830000311136">
        <ele>152.99000000000001</ele>
        <time>2023-08-19T10:48:47Z</time>
      </trkpt>
      <trkpt lat="57.734733028337359" lon="-4.273648029193282">
        <ele>153.47</ele>
        <time>2023-08-19T10:48:48Z</time>
      </trkpt>
      <trkpt lat="57.736298013478518" lon="-4.272307008504868">
        <ele>158.27000000000001</ele>
        <time>2023-08-19T10:48:57Z</time>
      </trkpt>
      <trkpt lat="57.737319013103843" lon="-4.271162040531635">
        <ele>159.24000000000001</ele>
        <time>2023-08-19T10:49:04Z</time>
      </trkpt>
      <trkpt lat="57.737413980066776" lon="-4.270986020565033">
        <ele>159.72</ele>
        <time>2023-08-19T10:49:05Z</time>
      </trkpt>
      <trkpt lat="57.737501990050077" lon="-4.270822992548347">
        <ele>159.72</ele>
        <time>2023-08-19T10:49:06Z</time>
      </trkpt>
      <trkpt lat="57.737533003091812" lon="-4.270598022267222">
        <ele>159.72</ele>
        <time>2023-08-19T10:49:07Z</time>
      </trkpt>
      <trkpt lat="57.737554041668773" lon="-4.27039903588593">
        <ele>160.19999999999999</ele>
        <time>2023-08-19T10:49:08Z</time>
      </trkpt>
      <trkpt lat="57.737520011141896" lon="-4.270149003714323">
        <ele>160.68000000000001</ele>
        <time>2023-08-19T10:49:09Z</time>
      </trkpt>
      <trkpt lat="57.73748598061502" lon="-4.269895032048225">
        <ele>161.16</ele>
        <time>2023-08-19T10:49:10Z</time>
      </trkpt>
      <trkpt lat="57.737450022250414" lon="-4.26962798461318">
        <ele>161.63999999999999</ele>
        <time>2023-08-19T10:49:11Z</time>
      </trkpt>
      <trkpt lat="57.737410962581635" lon="-4.269087016582489">
        <ele>163.56</ele>
        <time>2023-08-19T10:49:13Z</time>
      </trkpt>
      <trkpt lat="57.73742102086544" lon="-4.268834972754121">
        <ele>164.03999999999999</ele>
        <time>2023-08-19T10:49:14Z</time>
      </trkpt>
      <trkpt lat="57.737477011978626" lon="-4.268605979159474">
        <ele>164.52000000000001</ele>
        <time>2023-08-19T10:49:15Z</time>
      </trkpt>
      <trkpt lat="57.737553035840392" lon="-4.26840104162693">
        <ele>165</ele>
        <time>2023-08-19T10:49:16Z</time>
      </trkpt>
      <trkpt lat="57.73763501085341" lon="-4.268182022497058">
        <ele>165.96000000000001</ele>
        <time>2023-08-19T10:49:17Z</time>
      </trkpt>
      <trkpt lat="57.737730983644724" lon="-4.267958980053663">
        <ele>166.44999999999999</ele>
        <time>2023-08-19T10:49:18Z</time>
      </trkpt>
      <trkpt lat="57.737858975306153" lon="-4.267784971743822">
        <ele>166.93000000000001</ele>
        <time>2023-08-19T10:49:19Z</time>
      </trkpt>
      <trkpt lat="57.738304976373911" lon="-4.267287002876401">
        <ele>168.37</ele>
        <time>2023-08-19T10:49:22Z</time>
      </trkpt>
      <trkpt lat="57.738471021875739" lon="-4.267175020650029">
        <ele>168.84999999999999</ele>
        <time>2023-08-19T10:49:23Z</time>
      </trkpt>
      <trkpt lat="57.739864010363817" lon="-4.266605973243713">
        <ele>174.62</ele>
        <time>2023-08-19T10:49:31Z</time>
      </trkpt>
      <trkpt lat="57.740747965872288" lon="-4.266485022380948">
        <ele>176.06</ele>
        <time>2023-08-19T10:49:36Z</time>
      </trkpt>
      <trkpt lat="57.740917028859258" lon="-4.266407992690802">
        <ele>176.06</ele>
        <time>2023-08-19T10:49:37Z</time>
      </trkpt>
      <trkpt lat="57.742458963766694" lon="-4.265369977802038">
        <ele>177.02000000000001</ele>
        <time>2023-08-19T10:49:46Z</time>
      </trkpt>
      <trkpt lat="57.743425983935595" lon="-4.265142995864153">
        <ele>177.02000000000001</ele>
        <time>2023-08-19T10:49:52Z</time>
      </trkpt>
      <trkpt lat="57.743594041094184" lon="-4.265182977542281">
        <ele>177.5</ele>
        <time>2023-08-19T10:49:53Z</time>
      </trkpt>
      <trkpt lat="57.743767965584993" lon="-4.265250032767654">
        <ele>177.5</ele>
        <time>2023-08-19T10:49:54Z</time>
      </trkpt>
      <trkpt lat="57.744906982406974" lon="-4.265881022438407">
        <ele>177.97999999999999</ele>
        <time>2023-08-19T10:50:00Z</time>
      </trkpt>
      <trkpt lat="57.746039964258671" lon="-4.265960985794663">
        <ele>178.94</ele>
        <time>2023-08-19T10:50:06Z</time>
      </trkpt>
      <trkpt lat="57.746216990053654" lon="-4.265915974974632">
        <ele>178.94</ele>
        <time>2023-08-19T10:50:07Z</time>
      </trkpt>
      <trkpt lat="57.747822962701321" lon="-4.265553038567305">
        <ele>179.90000000000001</ele>
        <time>2023-08-19T10:50:16Z</time>
      </trkpt>
      <trkpt lat="57.750147012993693" lon="-4.265566030517221">
        <ele>189.03999999999999</ele>
        <time>2023-08-19T10:50:28Z</time>
      </trkpt>
      <trkpt lat="57.751972004771233" lon="-4.265454970300198">
        <ele>192.88</ele>
        <time>2023-08-19T10:50:37Z</time>
      </trkpt>
      <trkpt lat="57.752347011119127" lon="-4.265305018052459">
        <ele>192.40000000000001</ele>
        <time>2023-08-19T10:50:39Z</time>
      </trkpt>
      <trkpt lat="57.752535017207265" lon="-4.265188006684184">
        <ele>192.40000000000001</ele>
        <time>2023-08-19T10:50:40Z</time>
      </trkpt>
      <trkpt lat="57.752680024132133" lon="-4.264996983110905">
        <ele>192.40000000000001</ele>
        <time>2023-08-19T10:50:41Z</time>
      </trkpt>
      <trkpt lat="57.75282796472311" lon="-4.264802020043135">
        <ele>191.91999999999999</ele>
        <time>2023-08-19T10:50:42Z</time>
      </trkpt>
      <trkpt lat="57.752978000789881" lon="-4.264604039490223">
        <ele>192.40000000000001</ele>
        <time>2023-08-19T10:50:43Z</time>
      </trkpt>
      <trkpt lat="57.753130970522761" lon="-4.264402035623789">
        <ele>192.40000000000001</ele>
        <time>2023-08-19T10:50:44Z</time>
      </trkpt>
      <trkpt lat="57.753444034606218" lon="-4.264017976820469">
        <ele>192.88</ele>
        <time>2023-08-19T10:50:46Z</time>
      </trkpt>
      <trkpt lat="57.753612007945776" lon="-4.263856960460544">
        <ele>193.36000000000001</ele>
        <time>2023-08-19T10:50:47Z</time>
      </trkpt>
      <trkpt lat="57.753779981285334" lon="-4.26369602791965">
        <ele>193.84</ele>
        <time>2023-08-19T10:50:48Z</time>
      </trkpt>
      <trkpt lat="57.753954995423555" lon="-4.263559989631176">
        <ele>194.80000000000001</ele>
        <time>2023-08-19T10:50:49Z</time>
      </trkpt>
      <trkpt lat="57.754138978198171" lon="-4.263444989919663">
        <ele>195.28</ele>
        <time>2023-08-19T10:50:50Z</time>
      </trkpt>
      <trkpt lat="57.755760960280895" lon="-4.262433964759111">
        <ele>203.46000000000001</ele>
        <time>2023-08-19T10:50:59Z</time>
      </trkpt>
      <trkpt lat="57.757200971245766" lon="-4.261883022263646">
        <ele>208.25999999999999</ele>
        <time>2023-08-19T10:51:07Z</time>
      </trkpt>
      <trkpt lat="57.75884198024869" lon="-4.262058036401868">
        <ele>212.59</ele>
        <time>2023-08-19T10:51:16Z</time>
      </trkpt>
      <trkpt lat="57.760467985644937" lon="-4.262720039114356">
        <ele>216.43000000000001</ele>
        <time>2023-08-19T10:51:25Z</time>
      </trkpt>
      <trkpt lat="57.762102959677577" lon="-4.264541007578373">
        <ele>218.84</ele>
        <time>2023-08-19T10:51:35Z</time>
      </trkpt>
      <trkpt lat="57.763640033081174" lon="-4.2656309902668">
        <ele>217.88</ele>
        <time>2023-08-19T10:51:44Z</time>
      </trkpt>
      <trkpt lat="57.763983020558953" lon="-4.265645993873477">
        <ele>216.91</ele>
        <time>2023-08-19T10:51:46Z</time>
      </trkpt>
      <trkpt lat="57.764160968363285" lon="-4.265623027458787">
        <ele>215.94999999999999</ele>
        <time>2023-08-19T10:51:47Z</time>
      </trkpt>
      <trkpt lat="57.765054982155561" lon="-4.265381963923574">
        <ele>211.63</ele>
        <time>2023-08-19T10:51:52Z</time>
      </trkpt>
      <trkpt lat="57.765234019607306" lon="-4.265292026102543">
        <ele>210.66999999999999</ele>
        <time>2023-08-19T10:51:53Z</time>
      </trkpt>
      <trkpt lat="57.765381960198283" lon="-4.265098990872502">
        <ele>209.69999999999999</ele>
        <time>2023-08-19T10:51:54Z</time>
      </trkpt>
      <trkpt lat="57.765530990436673" lon="-4.264894975349307">
        <ele>208.74000000000001</ele>
        <time>2023-08-19T10:51:55Z</time>
      </trkpt>
      <trkpt lat="57.765663005411625" lon="-4.264653995633125">
        <ele>207.78</ele>
        <time>2023-08-19T10:51:56Z</time>
      </trkpt>
      <trkpt lat="57.765784962102771" lon="-4.264390971511602">
        <ele>206.34</ele>
        <time>2023-08-19T10:51:57Z</time>
      </trkpt>
      <trkpt lat="57.765884036198258" lon="-4.264095006510615">
        <ele>205.38</ele>
        <time>2023-08-19T10:51:58Z</time>
      </trkpt>
      <trkpt lat="57.76597598567605" lon="-4.263779008761048">
        <ele>204.41999999999999</ele>
        <time>2023-08-19T10:51:59Z</time>
      </trkpt>
      <trkpt lat="57.766057038679719" lon="-4.263447001576424">
        <ele>203.46000000000001</ele>
        <time>2023-08-19T10:52:00Z</time>
      </trkpt>
      <trkpt lat="57.766134990379214" lon="-4.263123963028193">
        <ele>202.49000000000001</ele>
        <time>2023-08-19T10:52:01Z</time>
      </trkpt>
      <trkpt lat="57.766789030283689" lon="-4.259935989975929">
        <ele>195.77000000000001</ele>
        <time>2023-08-19T10:52:11Z</time>
      </trkpt>
      <trkpt lat="57.7668990008533" lon="-4.259322015568614">
        <ele>193.84</ele>
        <time>2023-08-19T10:52:13Z</time>
      </trkpt>
      <trkpt lat="57.767235031351447" lon="-4.256296986714006">
        <ele>185.19</ele>
        <time>2023-08-19T10:52:22Z</time>
      </trkpt>
      <trkpt lat="57.767326980829239" lon="-4.25477902404964">
        <ele>181.83000000000001</ele>
        <time>2023-08-19T10:52:27Z</time>
      </trkpt>
      <trkpt lat="57.767322035506368" lon="-4.25450200214982">
        <ele>181.34999999999999</ele>
        <time>2023-08-19T10:52:28Z</time>
      </trkpt>
      <trkpt lat="57.767333015799522" lon="-4.254040997475386">
        <ele>179.90000000000001</ele>
        <time>2023-08-19T10:52:30Z</time>
      </trkpt>
      <trkpt lat="57.767355982214212" lon="-4.253890961408615">
        <ele>179.41999999999999</ele>
        <time>2023-08-19T10:52:31Z</time>
      </trkpt>
      <trkpt lat="57.767396969720721" lon="-4.253842011094093">
        <ele>178.94</ele>
        <time>2023-08-19T10:52:32Z</time>
      </trkpt>
      <trkpt lat="57.767454972490668" lon="-4.253789037466049">
        <ele>178.46000000000001</ele>
        <time>2023-08-19T10:52:33Z</time>
      </trkpt>
      <trkpt lat="57.767525967210531" lon="-4.253724999725819">
        <ele>177.97999999999999</ele>
        <time>2023-08-19T10:52:34Z</time>
      </trkpt>
      <trkpt lat="57.767609031870961" lon="-4.253674959763885">
        <ele>177.02000000000001</ele>
        <time>2023-08-19T10:52:35Z</time>
      </trkpt>
      <trkpt lat="57.76771598495543" lon="-4.253649981692433">
        <ele>176.53999999999999</ele>
        <time>2023-08-19T10:52:36Z</time>
      </trkpt>
      <trkpt lat="57.768397014588118" lon="-4.25344898365438">
        <ele>173.66</ele>
        <time>2023-08-19T10:52:41Z</time>
      </trkpt>
      <trkpt lat="57.768522994592786" lon="-4.25336399115622">
        <ele>173.66</ele>
        <time>2023-08-19T10:52:42Z</time>
      </trkpt>
      <trkpt lat="57.768640005961061" lon="-4.253263995051384">
        <ele>173.16999999999999</ele>
        <time>2023-08-19T10:52:43Z</time>
      </trkpt>
      <trkpt lat="57.768718963488936" lon="-4.253093004226685">
        <ele>173.16999999999999</ele>
        <time>2023-08-19T10:52:44Z</time>
      </trkpt>
      <trkpt lat="57.768804039806128" lon="-4.25291002728045">
        <ele>172.69</ele>
        <time>2023-08-19T10:52:45Z</time>
      </trkpt>
      <trkpt lat="57.768903030082583" lon="-4.252696037292481">
        <ele>172.69</ele>
        <time>2023-08-19T10:52:46Z</time>
      </trkpt>
      <trkpt lat="57.768973018974066" lon="-4.252468971535564">
        <ele>172.69</ele>
        <time>2023-08-19T10:52:47Z</time>
      </trkpt>
      <trkpt lat="57.769193965941668" lon="-4.251739997416735">
        <ele>173.66</ele>
        <time>2023-08-19T10:52:50Z</time>
      </trkpt>
      <trkpt lat="57.76924199424684" lon="-4.251474039629102">
        <ele>174.62</ele>
        <time>2023-08-19T10:52:51Z</time>
      </trkpt>
      <trkpt lat="57.769396975636482" lon="-4.249647036194801">
        <ele>177.97999999999999</ele>
        <time>2023-08-19T10:52:57Z</time>
      </trkpt>
      <trkpt lat="57.769448021426797" lon="-4.246176006272435">
        <ele>185.19</ele>
        <time>2023-08-19T10:53:08Z</time>
      </trkpt>
      <trkpt lat="57.769784973934293" lon="-4.243354992941022">
        <ele>189.52000000000001</ele>
        <time>2023-08-19T10:53:17Z</time>
      </trkpt>
      <trkpt lat="57.769856974482536" lon="-4.243080988526344">
        <ele>190</ele>
        <time>2023-08-19T10:53:18Z</time>
      </trkpt>
      <trkpt lat="57.769959988072515" lon="-4.242853000760078">
        <ele>190.96000000000001</ele>
        <time>2023-08-19T10:53:19Z</time>
      </trkpt>
      <trkpt lat="57.770065013319254" lon="-4.242621995508671">
        <ele>191.91999999999999</ele>
        <time>2023-08-19T10:53:20Z</time>
      </trkpt>
      <trkpt lat="57.770179007202387" lon="-4.242399958893657">
        <ele>192.88</ele>
        <time>2023-08-19T10:53:21Z</time>
      </trkpt>
      <trkpt lat="57.770314961671829" lon="-4.242230979725719">
        <ele>193.84</ele>
        <time>2023-08-19T10:53:22Z</time>
      </trkpt>
      <trkpt lat="57.770472038537264" lon="-4.242123020812869">
        <ele>194.80000000000001</ele>
        <time>2023-08-19T10:53:23Z</time>
      </trkpt>
      <trkpt lat="57.770630959421396" lon="-4.242016989737749">
        <ele>195.77000000000001</ele>
        <time>2023-08-19T10:53:24Z</time>
      </trkpt>
      <trkpt lat="57.770799016579986" lon="-4.241969967260957">
        <ele>196.72999999999999</ele>
        <time>2023-08-19T10:53:25Z</time>
      </trkpt>
      <trkpt lat="57.770976964384317" lon="-4.24197600223124">
        <ele>197.69</ele>
        <time>2023-08-19T10:53:26Z</time>
      </trkpt>
      <trkpt lat="57.771161030977964" lon="-4.241982037201524">
        <ele>198.65000000000001</ele>
        <time>2023-08-19T10:53:27Z</time>
      </trkpt>
      <trkpt lat="57.771351970732212" lon="-4.241988994181156">
        <ele>199.61000000000001</ele>
        <time>2023-08-19T10:53:28Z</time>
      </trkpt>
      <trkpt lat="57.771538970991969" lon="-4.242056971415877">
        <ele>200.56999999999999</ele>
        <time>2023-08-19T10:53:29Z</time>
      </trkpt>
      <trkpt lat="57.773799989372492" lon="-4.242687039077282">
        <ele>216.43000000000001</ele>
        <time>2023-08-19T10:53:41Z</time>
      </trkpt>
      <trkpt lat="57.775301020592451" lon="-4.243104038760066">
        <ele>227.49000000000001</ele>
        <time>2023-08-19T10:53:50Z</time>
      </trkpt>
      <trkpt lat="57.775457007810473" lon="-4.243232030421495">
        <ele>228.44999999999999</ele>
        <time>2023-08-19T10:53:51Z</time>
      </trkpt>
      <trkpt lat="57.77594399638474" lon="-4.243622962385416">
        <ele>230.37</ele>
        <time>2023-08-19T10:53:54Z</time>
      </trkpt>
      <trkpt lat="57.776124961674213" lon="-4.243698986247182">
        <ele>231.33000000000001</ele>
        <time>2023-08-19T10:53:55Z</time>
      </trkpt>
      <trkpt lat="57.776310034096241" lon="-4.243748020380735">
        <ele>231.81</ele>
        <time>2023-08-19T10:53:56Z</time>
      </trkpt>
      <trkpt lat="57.776501979678869" lon="-4.243748020380735">
        <ele>232.30000000000001</ele>
        <time>2023-08-19T10:53:57Z</time>
      </trkpt>
      <trkpt lat="57.776698032394052" lon="-4.243748020380735">
        <ele>233.25999999999999</ele>
        <time>2023-08-19T10:53:58Z</time>
      </trkpt>
      <trkpt lat="57.778550013899803" lon="-4.243729999288917">
        <ele>239.50999999999999</ele>
        <time>2023-08-19T10:54:08Z</time>
      </trkpt>
      <trkpt lat="57.780590001493692" lon="-4.244127972051501">
        <ele>240.94999999999999</ele>
        <time>2023-08-19T10:54:19Z</time>
      </trkpt>
      <trkpt lat="57.780769960954785" lon="-4.244177006185055">
        <ele>240.47</ele>
        <time>2023-08-19T10:54:20Z</time>
      </trkpt>
      <trkpt lat="57.780921002849936" lon="-4.244315978139639">
        <ele>240.47</ele>
        <time>2023-08-19T10:54:21Z</time>
      </trkpt>
      <trkpt lat="57.781077995896339" lon="-4.244493003934622">
        <ele>240.47</ele>
        <time>2023-08-19T10:54:22Z</time>
      </trkpt>
      <trkpt lat="57.781215040013194" lon="-4.24470498226583">
        <ele>240.47</ele>
        <time>2023-08-19T10:54:23Z</time>
      </trkpt>
      <trkpt lat="57.781350994482636" lon="-4.244917966425419">
        <ele>239.99000000000001</ele>
        <time>2023-08-19T10:54:24Z</time>
      </trkpt>
      <trkpt lat="57.781490972265601" lon="-4.24513497389853">
        <ele>239.99000000000001</ele>
        <time>2023-08-19T10:54:25Z</time>
      </trkpt>
      <trkpt lat="57.781633967533708" lon="-4.245335971936584">
        <ele>239.50999999999999</ele>
        <time>2023-08-19T10:54:26Z</time>
      </trkpt>
      <trkpt lat="57.781804958358407" lon="-4.245469998568296">
        <ele>239.02000000000001</ele>
        <time>2023-08-19T10:54:27Z</time>
      </trkpt>
      <trkpt lat="57.781974021345377" lon="-4.245573012158275">
        <ele>239.02000000000001</ele>
        <time>2023-08-19T10:54:28Z</time>
      </trkpt>
      <trkpt lat="57.782150963321328" lon="-4.245632020756602">
        <ele>238.53999999999999</ele>
        <time>2023-08-19T10:54:29Z</time>
      </trkpt>
      <trkpt lat="57.782324971631169" lon="-4.245613999664784">
        <ele>238.53999999999999</ele>
        <time>2023-08-19T10:54:30Z</time>
      </trkpt>
      <trkpt lat="57.78249897994101" lon="-4.245574017986655">
        <ele>238.06</ele>
        <time>2023-08-19T10:54:31Z</time>
      </trkpt>
      <trkpt lat="57.782664019614458" lon="-4.245477961376309">
        <ele>238.06</ele>
        <time>2023-08-19T10:54:32Z</time>
      </trkpt>
      <trkpt lat="57.782814977690578" lon="-4.245344018563628">
        <ele>237.58000000000001</ele>
        <time>2023-08-19T10:54:33Z</time>
      </trkpt>
      <trkpt lat="57.782963002100587" lon="-4.245186019688845">
        <ele>237.58000000000001</ele>
        <time>2023-08-19T10:54:34Z</time>
      </trkpt>
      <trkpt lat="57.78309803456068" lon="-4.24500597640872">
        <ele>237.09999999999999</ele>
        <time>2023-08-19T10:54:35Z</time>
      </trkpt>
      <trkpt lat="57.783225020393729" lon="-4.244812019169331">
        <ele>237.09999999999999</ele>
        <time>2023-08-19T10:54:36Z</time>
      </trkpt>
      <trkpt lat="57.783487038686872" lon="-4.24444598145783">
        <ele>236.62</ele>
        <time>2023-08-19T10:54:38Z</time>
      </trkpt>
      <trkpt lat="57.78363598510623" lon="-4.244308015331626">
        <ele>236.13999999999999</ele>
        <time>2023-08-19T10:54:39Z</time>
      </trkpt>
      <trkpt lat="57.783797001466155" lon="-4.24418798647821">
        <ele>236.13999999999999</ele>
        <time>2023-08-19T10:54:40Z</time>
      </trkpt>
      <trkpt lat="57.783967992290854" lon="-4.244146998971701">
        <ele>235.66</ele>
        <time>2023-08-19T10:54:41Z</time>
      </trkpt>
      <trkpt lat="57.784147029742599" lon="-4.244103999808431">
        <ele>235.18000000000001</ele>
        <time>2023-08-19T10:54:42Z</time>
      </trkpt>
      <trkpt lat="57.785684019327164" lon="-4.243732010945678">
        <ele>231.81</ele>
        <time>2023-08-19T10:54:51Z</time>
      </trkpt>
      <trkpt lat="57.785831037908792" lon="-4.243662022054195">
        <ele>231.81</ele>
        <time>2023-08-19T10:54:52Z</time>
      </trkpt>
      <trkpt lat="57.785974033176899" lon="-4.243556996807456">
        <ele>231.33000000000001</ele>
        <time>2023-08-19T10:54:53Z</time>
      </trkpt>
      <trkpt lat="57.78610797598958" lon="-4.243404027074575">
        <ele>231.33000000000001</ele>
        <time>2023-08-19T10:54:54Z</time>
      </trkpt>
      <trkpt lat="57.786247031763196" lon="-4.243247034028173">
        <ele>230.84999999999999</ele>
        <time>2023-08-19T10:54:55Z</time>
      </trkpt>
      <trkpt lat="57.788627995178103" lon="-4.24053699709475">
        <ele>226.05000000000001</ele>
        <time>2023-08-19T10:55:11Z</time>
      </trkpt>
      <trkpt lat="57.789569031447172" lon="-4.239538963884115">
        <ele>224.61000000000001</ele>
        <time>2023-08-19T10:55:17Z</time>
      </trkpt>
      <trkpt lat="57.789731975644827" lon="-4.239405021071434">
        <ele>224.61000000000001</ele>
        <time>2023-08-19T10:55:18Z</time>
      </trkpt>
      <trkpt lat="57.789898021146655" lon="-4.239291027188301">
        <ele>224.61000000000001</ele>
        <time>2023-08-19T10:55:19Z</time>
      </trkpt>
      <trkpt lat="57.79167196713388" lon="-4.238764978945255">
        <ele>223.16</ele>
        <time>2023-08-19T10:55:29Z</time>
      </trkpt>
      <trkpt lat="57.792737977579236" lon="-4.238578984513879">
        <ele>219.31999999999999</ele>
        <time>2023-08-19T10:55:35Z</time>
      </trkpt>
      <trkpt lat="57.793249022215605" lon="-4.238383015617728">
        <ele>217.40000000000001</ele>
        <time>2023-08-19T10:55:38Z</time>
      </trkpt>
      <trkpt lat="57.793422024697065" lon="-4.238370023667812">
        <ele>216.91</ele>
        <time>2023-08-19T10:55:39Z</time>
      </trkpt>
      <trkpt lat="57.793593015521765" lon="-4.238381003960967">
        <ele>216.43000000000001</ele>
        <time>2023-08-19T10:55:40Z</time>
      </trkpt>
      <trkpt lat="57.793760988861322" lon="-4.238457027822733">
        <ele>215.94999999999999</ele>
        <time>2023-08-19T10:55:41Z</time>
      </trkpt>
      <trkpt lat="57.793923011049628" lon="-4.23855802975595">
        <ele>214.99000000000001</ele>
        <time>2023-08-19T10:55:42Z</time>
      </trkpt>
      <trkpt lat="57.794073969125748" lon="-4.238713011145592">
        <ele>214.50999999999999</ele>
        <time>2023-08-19T10:55:43Z</time>
      </trkpt>
      <trkpt lat="57.794212019070983" lon="-4.238897999748588">
        <ele>213.55000000000001</ele>
        <time>2023-08-19T10:55:44Z</time>
      </trkpt>
      <trkpt lat="57.794329030439258" lon="-4.239149037748575">
        <ele>213.06999999999999</ele>
        <time>2023-08-19T10:55:45Z</time>
      </trkpt>
      <trkpt lat="57.794434977695346" lon="-4.239412983879447">
        <ele>212.11000000000001</ele>
        <time>2023-08-19T10:55:46Z</time>
      </trkpt>
      <trkpt lat="57.794542014598846" lon="-4.239678019657731">
        <ele>212.11000000000001</ele>
        <time>2023-08-19T10:55:47Z</time>
      </trkpt>
      <trkpt lat="57.794751981273293" lon="-4.240185040980578">
        <ele>210.66999999999999</ele>
        <time>2023-08-19T10:55:49Z</time>
      </trkpt>
      <trkpt lat="57.794887013733387" lon="-4.24038696102798">
        <ele>210.19</ele>
        <time>2023-08-19T10:55:50Z</time>
      </trkpt>
      <trkpt lat="57.7950210403651" lon="-4.240587959066033">
        <ele>209.69999999999999</ele>
        <time>2023-08-19T10:55:51Z</time>
      </trkpt>
      <trkpt lat="57.795169986784458" lon="-4.240733971819282">
        <ele>208.74000000000001</ele>
        <time>2023-08-19T10:55:52Z</time>
      </trkpt>
      <trkpt lat="57.795335026457906" lon="-4.240833967924118">
        <ele>208.25999999999999</ele>
        <time>2023-08-19T10:55:53Z</time>
      </trkpt>
      <trkpt lat="57.795499982312322" lon="-4.240924995392561">
        <ele>208.25999999999999</ele>
        <time>2023-08-19T10:55:54Z</time>
      </trkpt>
      <trkpt lat="57.795676002278924" lon="-4.240972017869353">
        <ele>207.78</ele>
        <time>2023-08-19T10:55:55Z</time>
      </trkpt>
      <trkpt lat="57.795851016417146" lon="-4.241019962355495">
        <ele>207.78</ele>
        <time>2023-08-19T10:55:56Z</time>
      </trkpt>
      <trkpt lat="57.797118024900556" lon="-4.241787996143103">
        <ele>207.78</ele>
        <time>2023-08-19T10:56:04Z</time>
      </trkpt>
      <trkpt lat="57.798528028652072" lon="-4.243380976840854">
        <ele>207.78</ele>
        <time>2023-08-19T10:56:15Z</time>
      </trkpt>
      <trkpt lat="57.800344973802567" lon="-4.245434040203691">
        <ele>208.25999999999999</ele>
        <time>2023-08-19T10:56:27Z</time>
      </trkpt>
      <trkpt lat="57.801712984219193" lon="-4.246968012303114">
        <ele>209.22</ele>
        <time>2023-08-19T10:56:36Z</time>
      </trkpt>
      <trkpt lat="57.80383100733161" lon="-4.249340007081628">
        <ele>210.66999999999999</ele>
        <time>2023-08-19T10:56:50Z</time>
      </trkpt>
      <trkpt lat="57.80512198805809" lon="-4.25078596919775">
        <ele>211.63</ele>
        <time>2023-08-19T10:57:00Z</time>
      </trkpt>
      <trkpt lat="57.80518401414156" lon="-4.250856041908264">
        <ele>211.63</ele>
        <time>2023-08-19T10:57:01Z</time>
      </trkpt>
      <trkpt lat="57.805410996079445" lon="-4.251110013574362">
        <ele>212.59</ele>
        <time>2023-08-19T10:57:08Z</time>
      </trkpt>
      <trkpt lat="57.805438991636038" lon="-4.251142032444477">
        <ele>212.59</ele>
        <time>2023-08-19T10:57:19Z</time>
      </trkpt>
      <trkpt lat="57.805418036878109" lon="-4.2512789927423">
        <ele>206.81999999999999</ele>
        <time>2023-08-19T11:17:40Z</time>
      </trkpt>
      <trkpt lat="57.805407978594303" lon="-4.251270024105907">
        <ele>208.25999999999999</ele>
        <time>2023-08-19T11:18:19Z</time>
      </trkpt>
      <trkpt lat="57.805410996079445" lon="-4.251287961378694">
        <ele>207.30000000000001</ele>
        <time>2023-08-19T11:18:57Z</time>
      </trkpt>
      <trkpt lat="57.805537981912494" lon="-4.251254014670849">
        <ele>207.30000000000001</ele>
        <time>2023-08-19T11:19:06Z</time>
      </trkpt>
      <trkpt lat="57.80559103935957" lon="-4.251312017440796">
        <ele>207.78</ele>
        <time>2023-08-19T11:19:07Z</time>
      </trkpt>
      <trkpt lat="57.806281037628651" lon="-4.252140987664461">
        <ele>207.78</ele>
        <time>2023-08-19T11:19:15Z</time>
      </trkpt>
      <trkpt lat="57.807466993108392" lon="-4.253610000014305">
        <ele>205.86000000000001</ele>
        <time>2023-08-19T11:19:24Z</time>
      </trkpt>
      <trkpt lat="57.809417964890599" lon="-4.255857020616531">
        <ele>202.00999999999999</ele>
        <time>2023-08-19T11:19:37Z</time>
      </trkpt>
      <trkpt lat="57.810883959755301" lon="-4.256335040554404">
        <ele>201.05000000000001</ele>
        <time>2023-08-19T11:19:46Z</time>
      </trkpt>
      <trkpt lat="57.813332984223962" lon="-4.255899013951421">
        <ele>207.78</ele>
        <time>2023-08-19T11:19:59Z</time>
      </trkpt>
      <trkpt lat="57.816045032814145" lon="-4.255566000938416">
        <ele>210.66999999999999</ele>
        <time>2023-08-19T11:20:12Z</time>
      </trkpt>
      <trkpt lat="57.81790598295629" lon="-4.25576901063323">
        <ele>210.19</ele>
        <time>2023-08-19T11:20:21Z</time>
      </trkpt>
      <trkpt lat="57.818089965730906" lon="-4.255890967324376">
        <ele>209.69999999999999</ele>
        <time>2023-08-19T11:20:22Z</time>
      </trkpt>
      <trkpt lat="57.819641036912799" lon="-4.256913978606463">
        <ele>206.81999999999999</ele>
        <time>2023-08-19T11:20:30Z</time>
      </trkpt>
      <trkpt lat="57.821526965126395" lon="-4.257644964382052">
        <ele>203.94</ele>
        <time>2023-08-19T11:20:40Z</time>
      </trkpt>
      <trkpt lat="57.821699967607856" lon="-4.257738003507257">
        <ele>203.94</ele>
        <time>2023-08-19T11:20:41Z</time>
      </trkpt>
      <trkpt lat="57.821842040866613" lon="-4.257920980453491">
        <ele>203.46000000000001</ele>
        <time>2023-08-19T11:20:42Z</time>
      </trkpt>
      <trkpt lat="57.82198897562921" lon="-4.258112004026771">
        <ele>203.46000000000001</ele>
        <time>2023-08-19T11:20:43Z</time>
      </trkpt>
      <trkpt lat="57.8231689799577" lon="-4.260385008528829">
        <ele>202.00999999999999</ele>
        <time>2023-08-19T11:20:51Z</time>
      </trkpt>
      <trkpt lat="57.824605973437428" lon="-4.262968981638551">
        <ele>203.94</ele>
        <time>2023-08-19T11:21:00Z</time>
      </trkpt>
      <trkpt lat="57.825908018276095" lon="-4.265267970040441">
        <ele>205.38</ele>
        <time>2023-08-19T11:21:09Z</time>
      </trkpt>
      <trkpt lat="57.827450037002563" lon="-4.26713696680963">
        <ele>205.86000000000001</ele>
        <time>2023-08-19T11:21:18Z</time>
      </trkpt>
      <trkpt lat="57.829411989077926" lon="-4.268927006050944">
        <ele>206.34</ele>
        <time>2023-08-19T11:21:29Z</time>
      </trkpt>
      <trkpt lat="57.831158023327589" lon="-4.270780999213457">
        <ele>203.46000000000001</ele>
        <time>2023-08-19T11:21:39Z</time>
      </trkpt>
      <trkpt lat="57.832589987665415" lon="-4.272801959887147">
        <ele>203.94</ele>
        <time>2023-08-19T11:21:48Z</time>
      </trkpt>
      <trkpt lat="57.833314016461372" lon="-4.2738370411098">
        <ele>205.38</ele>
        <time>2023-08-19T11:21:53Z</time>
      </trkpt>
      <trkpt lat="57.833464974537492" lon="-4.273977018892765">
        <ele>205.86000000000001</ele>
        <time>2023-08-19T11:21:54Z</time>
      </trkpt>
      <trkpt lat="57.833630014210939" lon="-4.274036027491093">
        <ele>205.86000000000001</ele>
        <time>2023-08-19T11:21:55Z</time>
      </trkpt>
      <trkpt lat="57.833806034177542" lon="-4.274083971977234">
        <ele>205.86000000000001</ele>
        <time>2023-08-19T11:21:56Z</time>
      </trkpt>
      <trkpt lat="57.833976019173861" lon="-4.274022029712796">
        <ele>205.38</ele>
        <time>2023-08-19T11:21:57Z</time>
      </trkpt>
      <trkpt lat="57.834148015826941" lon="-4.273957991972566">
        <ele>205.86000000000001</ele>
        <time>2023-08-19T11:21:58Z</time>
      </trkpt>
      <trkpt lat="57.834321018308401" lon="-4.273861013352871">
        <ele>205.86000000000001</ele>
        <time>2023-08-19T11:21:59Z</time>
      </trkpt>
      <trkpt lat="57.835693974047899" lon="-4.272989965975285">
        <ele>208.25999999999999</ele>
        <time>2023-08-19T11:22:07Z</time>
      </trkpt>
      <trkpt lat="57.835847027599812" lon="-4.2728700209409">
        <ele>208.74000000000001</ele>
        <time>2023-08-19T11:22:08Z</time>
      </trkpt>
      <trkpt lat="57.83599697984755" lon="-4.27272099070251">
        <ele>209.22</ele>
        <time>2023-08-19T11:22:09Z</time>
      </trkpt>
      <trkpt lat="57.837242027744651" lon="-4.270725008100271">
        <ele>209.69999999999999</ele>
        <time>2023-08-19T11:22:18Z</time>
      </trkpt>
      <trkpt lat="57.838398981839418" lon="-4.268903033807874">
        <ele>205.86000000000001</ele>
        <time>2023-08-19T11:22:27Z</time>
      </trkpt>
      <trkpt lat="57.838524961844087" lon="-4.268776969984174">
        <ele>204.90000000000001</ele>
        <time>2023-08-19T11:22:28Z</time>
      </trkpt>
      <trkpt lat="57.838656976819038" lon="-4.268722990527749">
        <ele>203.94</ele>
        <time>2023-08-19T11:22:29Z</time>
      </trkpt>
      <trkpt lat="57.838797038421035" lon="-4.268672028556466">
        <ele>202.97999999999999</ele>
        <time>2023-08-19T11:22:30Z</time>
      </trkpt>
      <trkpt lat="57.838935004547238" lon="-4.268621988594532">
        <ele>202.00999999999999</ele>
        <time>2023-08-19T11:22:31Z</time>
      </trkpt>
      <trkpt lat="57.83906601369381" lon="-4.268602961674333">
        <ele>201.05000000000001</ele>
        <time>2023-08-19T11:22:32Z</time>
      </trkpt>
      <trkpt lat="57.839201968163252" lon="-4.268616959452629">
        <ele>199.61000000000001</ele>
        <time>2023-08-19T11:22:33Z</time>
      </trkpt>
      <trkpt lat="57.839338006451726" lon="-4.268631041049957">
        <ele>199.13</ele>
        <time>2023-08-19T11:22:34Z</time>
      </trkpt>
      <trkpt lat="57.839465998113155" lon="-4.268674962222576">
        <ele>198.16999999999999</ele>
        <time>2023-08-19T11:22:35Z</time>
      </trkpt>
      <trkpt lat="57.839594995602965" lon="-4.268763978034258">
        <ele>197.21000000000001</ele>
        <time>2023-08-19T11:22:36Z</time>
      </trkpt>
      <trkpt lat="57.839723993092775" lon="-4.26885299384594">
        <ele>196.25</ele>
        <time>2023-08-19T11:22:37Z</time>
      </trkpt>
      <trkpt lat="57.839838992804289" lon="-4.268986014649272">
        <ele>195.28</ele>
        <time>2023-08-19T11:22:38Z</time>
      </trkpt>
      <trkpt lat="57.839952986687422" lon="-4.269139990210533">
        <ele>193.84</ele>
        <time>2023-08-19T11:22:39Z</time>
      </trkpt>
      <trkpt lat="57.840298991650343" lon="-4.269642988219857">
        <ele>190.47999999999999</ele>
        <time>2023-08-19T11:22:42Z</time>
      </trkpt>
      <trkpt lat="57.840810958296061" lon="-4.270716039463878">
        <ele>183.75</ele>
        <time>2023-08-19T11:22:49Z</time>
      </trkpt>
      <trkpt lat="57.841056967154145" lon="-4.271350968629122">
        <ele>178.46000000000001</ele>
        <time>2023-08-19T11:22:58Z</time>
      </trkpt>
      <trkpt lat="57.841145982965827" lon="-4.271712983027101">
        <ele>174.62</ele>
        <time>2023-08-19T11:23:05Z</time>
      </trkpt>
      <trkpt lat="57.841153023764491" lon="-4.271611981093884">
        <ele>174.62</ele>
        <time>2023-08-19T11:25:04Z</time>
      </trkpt>
      <trkpt lat="57.841203985735774" lon="-4.271743996068835">
        <ele>181.34999999999999</ele>
        <time>2023-08-19T11:25:27Z</time>
      </trkpt>
      <trkpt lat="57.841189987957478" lon="-4.271799987182021">
        <ele>180.38</ele>
        <time>2023-08-19T11:25:45Z</time>
      </trkpt>
      <trkpt lat="57.841180013492703" lon="-4.271853966638446">
        <ele>179.90000000000001</ele>
        <time>2023-08-19T11:26:07Z</time>
      </trkpt>
      <trkpt lat="57.841197028756142" lon="-4.271923033520579">
        <ele>179.90000000000001</ele>
        <time>2023-08-19T11:26:08Z</time>
      </trkpt>
      <trkpt lat="57.841225024312735" lon="-4.272036021575332">
        <ele>179.90000000000001</ele>
        <time>2023-08-19T11:26:09Z</time>
      </trkpt>
      <trkpt lat="57.841484025120735" lon="-4.273281991481781">
        <ele>176.53999999999999</ele>
        <time>2023-08-19T11:26:15Z</time>
      </trkpt>
      <trkpt lat="57.841994985938072" lon="-4.276191014796495">
        <ele>165.47999999999999</ele>
        <time>2023-08-19T11:26:24Z</time>
      </trkpt>
      <trkpt lat="57.842761008068919" lon="-4.280931986868382">
        <ele>146.74000000000001</ele>
        <time>2023-08-19T11:26:37Z</time>
      </trkpt>
      <trkpt lat="57.843164009973407" lon="-4.285407001152635">
        <ele>131.84</ele>
        <time>2023-08-19T11:26:49Z</time>
      </trkpt>
      <trkpt lat="57.843311028555036" lon="-4.288912983611226">
        <ele>121.73999999999999</ele>
        <time>2023-08-19T11:27:00Z</time>
      </trkpt>
      <trkpt lat="57.843337012454867" lon="-4.289439031854272">
        <ele>119.81999999999999</ele>
        <time>2023-08-19T11:27:02Z</time>
      </trkpt>
      <trkpt lat="57.843380011618137" lon="-4.289653021842241">
        <ele>118.86</ele>
        <time>2023-08-19T11:27:03Z</time>
      </trkpt>
      <trkpt lat="57.843426028266549" lon="-4.289882015436888">
        <ele>117.90000000000001</ele>
        <time>2023-08-19T11:27:04Z</time>
      </trkpt>
      <trkpt lat="57.843500962480903" lon="-4.289999026805162">
        <ele>116.45999999999999</ele>
        <time>2023-08-19T11:27:05Z</time>
      </trkpt>
      <trkpt lat="57.843598024919629" lon="-4.290134981274605">
        <ele>115.01000000000001</ele>
        <time>2023-08-19T11:27:06Z</time>
      </trkpt>
      <trkpt lat="57.843724004924297" lon="-4.29022902622819">
        <ele>113.56999999999999</ele>
        <time>2023-08-19T11:27:07Z</time>
      </trkpt>
      <trkpt lat="57.84385995939374" lon="-4.290331033989787">
        <ele>112.13</ele>
        <time>2023-08-19T11:27:08Z</time>
      </trkpt>
      <trkpt lat="57.844848018139601" lon="-4.290780974552035">
        <ele>101.08</ele>
        <time>2023-08-19T11:27:15Z</time>
      </trkpt>
      <trkpt lat="57.844941979274154" lon="-4.290853980928659">
        <ele>100.11</ele>
        <time>2023-08-19T11:27:16Z</time>
      </trkpt>
      <trkpt lat="57.845035018399358" lon="-4.290925981476903">
        <ele>98.670000000000002</ele>
        <time>2023-08-19T11:27:17Z</time>
      </trkpt>
      <trkpt lat="57.84512403421104" lon="-4.291033018380404">
        <ele>97.709999999999994</ele>
        <time>2023-08-19T11:27:18Z</time>
      </trkpt>
      <trkpt lat="57.845189999789" lon="-4.291184982284904">
        <ele>96.269999999999996</ele>
        <time>2023-08-19T11:27:19Z</time>
      </trkpt>
      <trkpt lat="57.84525403752923" lon="-4.291330995038152">
        <ele>95.310000000000002</ele>
        <time>2023-08-19T11:27:20Z</time>
      </trkpt>
      <trkpt lat="57.845313968136907" lon="-4.291469966992736">
        <ele>94.349999999999994</ele>
        <time>2023-08-19T11:27:21Z</time>
      </trkpt>
      <trkpt lat="57.845343975350261" lon="-4.291647998616099">
        <ele>92.900000000000006</ele>
        <time>2023-08-19T11:27:22Z</time>
      </trkpt>
      <trkpt lat="57.845369037240744" lon="-4.291801974177361">
        <ele>92.420000000000002</ele>
        <time>2023-08-19T11:27:23Z</time>
      </trkpt>
      <trkpt lat="57.845392003655434" lon="-4.291933989152312">
        <ele>91.459999999999994</ele>
        <time>2023-08-19T11:27:24Z</time>
      </trkpt>
      <trkpt lat="57.845410024747252" lon="-4.292043959721923">
        <ele>90.980000000000004</ele>
        <time>2023-08-19T11:27:25Z</time>
      </trkpt>
      <trkpt lat="57.84542502835393" lon="-4.292135993018746">
        <ele>90.5</ele>
        <time>2023-08-19T11:27:26Z</time>
      </trkpt>
      <trkpt lat="57.845439026132226" lon="-4.292219979688525">
        <ele>90.019999999999996</ele>
        <time>2023-08-19T11:27:27Z</time>
      </trkpt>
      <trkpt lat="57.845485964789987" lon="-4.292226014658809">
        <ele>89.540000000000006</ele>
        <time>2023-08-19T11:27:28Z</time>
      </trkpt>
      <trkpt lat="57.845558971166611" lon="-4.292196007445455">
        <ele>89.060000000000002</ele>
        <time>2023-08-19T11:27:29Z</time>
      </trkpt>
      <trkpt lat="57.845657961443067" lon="-4.292157031595707">
        <ele>88.579999999999998</ele>
        <time>2023-08-19T11:27:30Z</time>
      </trkpt>
      <trkpt lat="57.845714958384633" lon="-4.292054018005729">
        <ele>88.099999999999994</ele>
        <time>2023-08-19T11:27:31Z</time>
      </trkpt>
      <trkpt lat="57.845800034701824" lon="-4.291900964453816">
        <ele>87.620000000000005</ele>
        <time>2023-08-19T11:27:32Z</time>
      </trkpt>
      <trkpt lat="57.845901036635041" lon="-4.291717987507582">
        <ele>87.140000000000001</ele>
        <time>2023-08-19T11:27:33Z</time>
      </trkpt>
      <trkpt lat="57.846006983891129" lon="-4.291536016389728">
        <ele>87.140000000000001</ele>
        <time>2023-08-19T11:27:34Z</time>
      </trkpt>
      <trkpt lat="57.846109997481108" lon="-4.291382040828466">
        <ele>86.659999999999997</ele>
        <time>2023-08-19T11:27:35Z</time>
      </trkpt>
      <trkpt lat="57.846213011071086" lon="-4.291227981448174">
        <ele>86.180000000000007</ele>
        <time>2023-08-19T11:27:36Z</time>
      </trkpt>
      <trkpt lat="57.846550969406962" lon="-4.290748033672571">
        <ele>84.730000000000004</ele>
        <time>2023-08-19T11:27:39Z</time>
      </trkpt>
      <trkpt lat="57.846680972725153" lon="-4.290605038404465">
        <ele>84.730000000000004</ele>
        <time>2023-08-19T11:27:40Z</time>
      </trkpt>
      <trkpt lat="57.847972037270665" lon="-4.289539027959108">
        <ele>78.969999999999999</ele>
        <time>2023-08-19T11:27:49Z</time>
      </trkpt>
      <trkpt lat="57.848103968426585" lon="-4.289431991055608">
        <ele>78</ele>
        <time>2023-08-19T11:27:50Z</time>
      </trkpt>
      <trkpt lat="57.848203964531422" lon="-4.289230993017554">
        <ele>77.040000000000006</ele>
        <time>2023-08-19T11:27:51Z</time>
      </trkpt>
      <trkpt lat="57.84828501753509" lon="-4.289068970829248">
        <ele>76.560000000000002</ele>
        <time>2023-08-19T11:27:52Z</time>
      </trkpt>
      <trkpt lat="57.848383001983166" lon="-4.288874007761478">
        <ele>76.079999999999998</ele>
        <time>2023-08-19T11:27:53Z</time>
      </trkpt>
      <trkpt lat="57.848432958126068" lon="-4.288738975301385">
        <ele>75.599999999999994</ele>
        <time>2023-08-19T11:27:54Z</time>
      </trkpt>
      <trkpt lat="57.848494984209538" lon="-4.288568990305066">
        <ele>74.640000000000001</ele>
        <time>2023-08-19T11:27:55Z</time>
      </trkpt>
      <trkpt lat="57.848557010293007" lon="-4.28840403445065">
        <ele>74.159999999999997</ele>
        <time>2023-08-19T11:27:56Z</time>
      </trkpt>
      <trkpt lat="57.848623981699347" lon="-4.288264978677034">
        <ele>73.680000000000007</ele>
        <time>2023-08-19T11:27:57Z</time>
      </trkpt>
      <trkpt lat="57.848717020824552" lon="-4.288161965087056">
        <ele>72.719999999999999</ele>
        <time>2023-08-19T11:27:58Z</time>
      </trkpt>
      <trkpt lat="57.848790027201176" lon="-4.288079990074039">
        <ele>71.760000000000005</ele>
        <time>2023-08-19T11:27:59Z</time>
      </trkpt>
      <trkpt lat="57.848903015255928" lon="-4.288060963153839">
        <ele>70.310000000000002</ele>
        <time>2023-08-19T11:28:00Z</time>
      </trkpt>
      <trkpt lat="57.84899203106761" lon="-4.288106979802251">
        <ele>69.349999999999994</ele>
        <time>2023-08-19T11:28:01Z</time>
      </trkpt>
      <trkpt lat="57.849068976938725" lon="-4.288199013099074">
        <ele>67.909999999999997</ele>
        <time>2023-08-19T11:28:02Z</time>
      </trkpt>
      <trkpt lat="57.849126979708672" lon="-4.288348965346813">
        <ele>67.430000000000007</ele>
        <time>2023-08-19T11:28:03Z</time>
      </trkpt>
      <trkpt lat="57.849197974428535" lon="-4.288530014455319">
        <ele>66.469999999999999</ele>
        <time>2023-08-19T11:28:04Z</time>
      </trkpt>
      <trkpt lat="57.84925103187561" lon="-4.288688013330102">
        <ele>65.510000000000005</ele>
        <time>2023-08-19T11:28:05Z</time>
      </trkpt>
      <trkpt lat="57.849728967994452" lon="-4.289872040972114">
        <ele>59.259999999999998</ele>
        <time>2023-08-19T11:28:11Z</time>
      </trkpt>
      <trkpt lat="57.849824018776417" lon="-4.290061974897981">
        <ele>58.299999999999997</ele>
        <time>2023-08-19T11:28:12Z</time>
      </trkpt>
      <trkpt lat="57.849919991567731" lon="-4.290254004299641">
        <ele>56.859999999999999</ele>
        <time>2023-08-19T11:28:13Z</time>
      </trkpt>
      <trkpt lat="57.85000397823751" lon="-4.290474029257894">
        <ele>55.890000000000001</ele>
        <time>2023-08-19T11:28:14Z</time>
      </trkpt>
      <trkpt lat="57.850070027634501" lon="-4.290707968175411">
        <ele>54.450000000000003</ele>
        <time>2023-08-19T11:28:15Z</time>
      </trkpt>
      <trkpt lat="57.850135993212461" lon="-4.290945008397102">
        <ele>53.490000000000002</ele>
        <time>2023-08-19T11:28:16Z</time>
      </trkpt>
      <trkpt lat="57.85038803704083" lon="-4.29184396751225">
        <ele>49.649999999999999</ele>
        <time>2023-08-19T11:28:20Z</time>
      </trkpt>
      <trkpt lat="57.850703028962016" lon="-4.294243035838008">
        <ele>43.399999999999999</ele>
        <time>2023-08-19T11:28:28Z</time>
      </trkpt>
      <trkpt lat="57.851062025874853" lon="-4.297233028337359">
        <ele>39.07</ele>
        <time>2023-08-19T11:28:37Z</time>
      </trkpt>
      <trkpt lat="57.851126985624433" lon="-4.297482976689935">
        <ele>38.590000000000003</ele>
        <time>2023-08-19T11:28:38Z</time>
      </trkpt>
      <trkpt lat="57.851214995607734" lon="-4.297720016911626">
        <ele>38.109999999999999</ele>
        <time>2023-08-19T11:28:39Z</time>
      </trkpt>
      <trkpt lat="57.851912034675479" lon="-4.299953961744905">
        <ele>32.340000000000003</ele>
        <time>2023-08-19T11:28:48Z</time>
      </trkpt>
      <trkpt lat="57.852501031011343" lon="-4.301707036793232">
        <ele>29.460000000000001</ele>
        <time>2023-08-19T11:28:56Z</time>
      </trkpt>
      <trkpt lat="57.853100001811981" lon="-4.303348967805505">
        <ele>28.02</ele>
        <time>2023-08-19T11:29:05Z</time>
      </trkpt>
      <trkpt lat="57.853575004264712" lon="-4.304472981020808">
        <ele>24.649999999999999</ele>
        <time>2023-08-19T11:29:13Z</time>
      </trkpt>
      <trkpt lat="57.853712970390916" lon="-4.304529977962375">
        <ele>22.25</ele>
        <time>2023-08-19T11:29:16Z</time>
      </trkpt>
      <trkpt lat="57.854191996157169" lon="-4.304924011230469">
        <ele>19.84</ele>
        <time>2023-08-19T11:29:22Z</time>
      </trkpt>
      <trkpt lat="57.854541018605232" lon="-4.305159961804748">
        <ele>19.359999999999999</ele>
        <time>2023-08-19T11:29:25Z</time>
      </trkpt>
      <trkpt lat="57.854633973911405" lon="-4.305278984829783">
        <ele>19.359999999999999</ele>
        <time>2023-08-19T11:29:26Z</time>
      </trkpt>
      <trkpt lat="57.854731036350131" lon="-4.305402031168342">
        <ele>18.879999999999999</ele>
        <time>2023-08-19T11:29:27Z</time>
      </trkpt>
      <trkpt lat="57.85481502301991" lon="-4.305562963709235">
        <ele>18.879999999999999</ele>
        <time>2023-08-19T11:29:28Z</time>
      </trkpt>
      <trkpt lat="57.85488199442625" lon="-4.305739989504218">
        <ele>18.399999999999999</ele>
        <time>2023-08-19T11:29:29Z</time>
      </trkpt>
      <trkpt lat="57.854922981932759" lon="-4.305932018905878">
        <ele>18.399999999999999</ele>
        <time>2023-08-19T11:29:30Z</time>
      </trkpt>
      <trkpt lat="57.854948965832591" lon="-4.30613100528717">
        <ele>18.399999999999999</ele>
        <time>2023-08-19T11:29:31Z</time>
      </trkpt>
      <trkpt lat="57.854975033551455" lon="-4.30632303468883">
        <ele>18.399999999999999</ele>
        <time>2023-08-19T11:29:32Z</time>
      </trkpt>
      <trkpt lat="57.854997999966145" lon="-4.30649796500802">
        <ele>18.399999999999999</ele>
        <time>2023-08-19T11:29:33Z</time>
      </trkpt>
      <trkpt lat="57.855021972209215" lon="-4.306674990803003">
        <ele>18.399999999999999</ele>
        <time>2023-08-19T11:29:34Z</time>
      </trkpt>
      <trkpt lat="57.855051979422569" lon="-4.306854028254747">
        <ele>17.920000000000002</ele>
        <time>2023-08-19T11:29:35Z</time>
      </trkpt>
      <trkpt lat="57.855128003284335" lon="-4.30722501128912">
        <ele>17.920000000000002</ele>
        <time>2023-08-19T11:29:37Z</time>
      </trkpt>
      <trkpt lat="57.855167984962463" lon="-4.30741997435689">
        <ele>17.920000000000002</ele>
        <time>2023-08-19T11:29:38Z</time>
      </trkpt>
      <trkpt lat="57.855509966611862" lon="-4.308523032814264">
        <ele>18.879999999999999</ele>
        <time>2023-08-19T11:29:42Z</time>
      </trkpt>
      <trkpt lat="57.8563869651407" lon="-4.311024025082588">
        <ele>20.809999999999999</ele>
        <time>2023-08-19T11:29:50Z</time>
      </trkpt>
      <trkpt lat="57.856541024520993" lon="-4.311443958431482">
        <ele>21.289999999999999</ele>
        <time>2023-08-19T11:29:52Z</time>
      </trkpt>
      <trkpt lat="57.856654012575746" lon="-4.311555018648505">
        <ele>21.77</ele>
        <time>2023-08-19T11:29:53Z</time>
      </trkpt>
      <trkpt lat="57.856783010065556" lon="-4.311644034460187">
        <ele>21.77</ele>
        <time>2023-08-19T11:29:54Z</time>
      </trkpt>
      <trkpt lat="57.856927011162043" lon="-4.311742018908262">
        <ele>21.77</ele>
        <time>2023-08-19T11:29:55Z</time>
      </trkpt>
      <trkpt lat="57.857082998380065" lon="-4.311848971992731">
        <ele>21.77</ele>
        <time>2023-08-19T11:29:56Z</time>
      </trkpt>
      <trkpt lat="57.858263002708554" lon="-4.312252979725599">
        <ele>16.960000000000001</ele>
        <time>2023-08-19T11:30:03Z</time>
      </trkpt>
      <trkpt lat="57.858539018779993" lon="-4.312377031892538">
        <ele>16.48</ele>
        <time>2023-08-19T11:30:05Z</time>
      </trkpt>
      <trkpt lat="57.858670027926564" lon="-4.312470993027091">
        <ele>16</ele>
        <time>2023-08-19T11:30:06Z</time>
      </trkpt>
      <trkpt lat="57.858800031244755" lon="-4.312617005780339">
        <ele>15.52</ele>
        <time>2023-08-19T11:30:07Z</time>
      </trkpt>
      <trkpt lat="57.858932968229055" lon="-4.312767963856459">
        <ele>15.039999999999999</ele>
        <time>2023-08-19T11:30:08Z</time>
      </trkpt>
      <trkpt lat="57.859056014567614" lon="-4.312954964116216">
        <ele>14.56</ele>
        <time>2023-08-19T11:30:09Z</time>
      </trkpt>
      <trkpt lat="57.859180988743901" lon="-4.313163002952933">
        <ele>13.6</ele>
        <time>2023-08-19T11:30:10Z</time>
      </trkpt>
      <trkpt lat="57.860341966152191" lon="-4.315168960019946">
        <ele>8.310000000000001</ele>
        <time>2023-08-19T11:30:19Z</time>
      </trkpt>
      <trkpt lat="57.860787967219949" lon="-4.316303031519055">
        <ele>6.39</ele>
        <time>2023-08-19T11:30:23Z</time>
      </trkpt>
      <trkpt lat="57.860915958881378" lon="-4.316538982093334">
        <ele>5.91</ele>
        <time>2023-08-19T11:30:24Z</time>
      </trkpt>
      <trkpt lat="57.861062977463007" lon="-4.316712990403175">
        <ele>5.42</ele>
        <time>2023-08-19T11:30:25Z</time>
      </trkpt>
      <trkpt lat="57.861615009605885" lon="-4.317367030307651">
        <ele>4.46</ele>
        <time>2023-08-19T11:30:29Z</time>
      </trkpt>
      <trkpt lat="57.861740989610553" lon="-4.317539026960731">
        <ele>4.46</ele>
        <time>2023-08-19T11:30:30Z</time>
      </trkpt>
      <trkpt lat="57.861851966008544" lon="-4.317747987806797">
        <ele>4.46</ele>
        <time>2023-08-19T11:30:31Z</time>
      </trkpt>
      <trkpt lat="57.86195196211338" lon="-4.318007994443178">
        <ele>3.98</ele>
        <time>2023-08-19T11:30:32Z</time>
      </trkpt>
      <trkpt lat="57.862047012895346" lon="-4.318278981372714">
        <ele>3.98</ele>
        <time>2023-08-19T11:30:33Z</time>
      </trkpt>
      <trkpt lat="57.862144997343421" lon="-4.318561032414436">
        <ele>4.46</ele>
        <time>2023-08-19T11:30:34Z</time>
      </trkpt>
      <trkpt lat="57.86255001090467" lon="-4.319727038964629">
        <ele>6.39</ele>
        <time>2023-08-19T11:30:38Z</time>
      </trkpt>
      <trkpt lat="57.86261597648263" lon="-4.320064997300506">
        <ele>6.87</ele>
        <time>2023-08-19T11:30:39Z</time>
      </trkpt>
      <trkpt lat="57.863253001123667" lon="-4.322914006188512">
        <ele>7.83</ele>
        <time>2023-08-19T11:30:47Z</time>
      </trkpt>
      <trkpt lat="57.864095969125628" lon="-4.326255032792687">
        <ele>9.27</ele>
        <time>2023-08-19T11:30:57Z</time>
      </trkpt>
      <trkpt lat="57.864455971866846" lon="-4.327472001314163">
        <ele>10.23</ele>
        <time>2023-08-19T11:31:01Z</time>
      </trkpt>
      <trkpt lat="57.864993000403047" lon="-4.328901031985879">
        <ele>12.630000000000001</ele>
        <time>2023-08-19T11:31:06Z</time>
      </trkpt>
      <trkpt lat="57.86510800011456" lon="-4.329175036400557">
        <ele>13.119999999999999</ele>
        <time>2023-08-19T11:31:07Z</time>
      </trkpt>
      <trkpt lat="57.866072002798319" lon="-4.331485005095601">
        <ele>14.56</ele>
        <time>2023-08-19T11:31:15Z</time>
      </trkpt>
      <trkpt lat="57.866985965520144" lon="-4.333797991275787">
        <ele>15.039999999999999</ele>
        <time>2023-08-19T11:31:23Z</time>
      </trkpt>
      <trkpt lat="57.868104027584195" lon="-4.336738027632237">
        <ele>13.119999999999999</ele>
        <time>2023-08-19T11:31:33Z</time>
      </trkpt>
      <trkpt lat="57.869115974754095" lon="-4.33994896709919">
        <ele>14.08</ele>
        <time>2023-08-19T11:31:43Z</time>
      </trkpt>
      <trkpt lat="57.870234036818147" lon="-4.344364972785115">
        <ele>15.52</ele>
        <time>2023-08-19T11:31:56Z</time>
      </trkpt>
      <trkpt lat="57.871155962347984" lon="-4.348334977403283">
        <ele>17.440000000000001</ele>
        <time>2023-08-19T11:32:08Z</time>
      </trkpt>
      <trkpt lat="57.872070008888841" lon="-4.351762002333999">
        <ele>17.920000000000002</ele>
        <time>2023-08-19T11:32:19Z</time>
      </trkpt>
      <trkpt lat="57.872178973630071" lon="-4.351981021463871">
        <ele>17.920000000000002</ele>
        <time>2023-08-19T11:32:20Z</time>
      </trkpt>
      <trkpt lat="57.872290033847094" lon="-4.352200040593743">
        <ele>17.920000000000002</ele>
        <time>2023-08-19T11:32:21Z</time>
      </trkpt>
      <trkpt lat="57.873446987941861" lon="-4.353492027148604">
        <ele>15.52</ele>
        <time>2023-08-19T11:32:29Z</time>
      </trkpt>
      <trkpt lat="57.874701004475355" lon="-4.355174023658037">
        <ele>12.630000000000001</ele>
        <time>2023-08-19T11:32:37Z</time>
      </trkpt>
      <trkpt lat="57.875901041552424" lon="-4.357228009030223">
        <ele>16</ele>
        <time>2023-08-19T11:32:45Z</time>
      </trkpt>
      <trkpt lat="57.877255976200104" lon="-4.358612028881908">
        <ele>17.920000000000002</ele>
        <time>2023-08-19T11:32:53Z</time>
      </trkpt>
      <trkpt lat="57.877866011112928" lon="-4.359203036874533">
        <ele>18.399999999999999</ele>
        <time>2023-08-19T11:32:59Z</time>
      </trkpt>
      <trkpt lat="57.878574030473828" lon="-4.359989007934928">
        <ele>16.960000000000001</ele>
        <time>2023-08-19T11:33:09Z</time>
      </trkpt>
      <trkpt lat="57.879481036216021" lon="-4.361113021150231">
        <ele>12.15</ele>
        <time>2023-08-19T11:33:21Z</time>
      </trkpt>
      <trkpt lat="57.880758019164205" lon="-4.362530987709761">
        <ele>8.789999999999999</ele>
        <time>2023-08-19T11:33:37Z</time>
      </trkpt>
      <trkpt lat="57.88100796751678" lon="-4.362767022103071">
        <ele>8.789999999999999</ele>
        <time>2023-08-19T11:33:40Z</time>
      </trkpt>
      <trkpt lat="57.88109203800559" lon="-4.362846985459328">
        <ele>8.789999999999999</ele>
        <time>2023-08-19T11:33:41Z</time>
      </trkpt>
      <trkpt lat="57.8816510271281" lon="-4.363127024844289">
        <ele>10.23</ele>
        <time>2023-08-19T11:33:47Z</time>
      </trkpt>
      <trkpt lat="57.881740964949131" lon="-4.363132975995541">
        <ele>10.23</ele>
        <time>2023-08-19T11:33:48Z</time>
      </trkpt>
      <trkpt lat="57.881835009902716" lon="-4.363116966560483">
        <ele>11.19</ele>
        <time>2023-08-19T11:33:49Z</time>
      </trkpt>
      <trkpt lat="57.881917990744114" lon="-4.363029962405562">
        <ele>11.19</ele>
        <time>2023-08-19T11:33:50Z</time>
      </trkpt>
      <trkpt lat="57.882002983242273" lon="-4.362941030412912">
        <ele>11.19</ele>
        <time>2023-08-19T11:33:51Z</time>
      </trkpt>
      <trkpt lat="57.882090993225574" lon="-4.362847991287708">
        <ele>11.19</ele>
        <time>2023-08-19T11:33:52Z</time>
      </trkpt>
      <trkpt lat="57.882907977327704" lon="-4.362100996077061">
        <ele>9.75</ele>
        <time>2023-08-19T11:33:59Z</time>
      </trkpt>
      <trkpt lat="57.884630961343646" lon="-4.360743965953589">
        <ele>3.98</ele>
        <time>2023-08-19T11:34:11Z</time>
      </trkpt>
      <trkpt lat="57.886545974761248" lon="-4.358828030526638">
        <ele>2.54</ele>
        <time>2023-08-19T11:34:24Z</time>
      </trkpt>
      <trkpt lat="57.888021022081375" lon="-4.356443965807557">
        <ele>1.58</ele>
        <time>2023-08-19T11:34:34Z</time>
      </trkpt>
      <trkpt lat="57.8897949680686" lon="-4.352842010557652">
        <ele>1.1</ele>
        <time>2023-08-19T11:34:47Z</time>
      </trkpt>
      <trkpt lat="57.890598038211465" lon="-4.351023975759745">
        <ele>0.14</ele>
        <time>2023-08-19T11:34:55Z</time>
      </trkpt>
      <trkpt lat="57.891262974590063" lon="-4.349208036437631">
        <ele>0.62</ele>
        <time>2023-08-19T11:35:03Z</time>
      </trkpt>
      <trkpt lat="57.891543013975024" lon="-4.347946979105473">
        <ele>3.5</ele>
        <time>2023-08-19T11:35:11Z</time>
      </trkpt>
      <trkpt lat="57.89170503616333" lon="-4.347085990011692">
        <ele>5.91</ele>
        <time>2023-08-19T11:35:19Z</time>
      </trkpt>
      <trkpt lat="57.891725990921259" lon="-4.346975013613701">
        <ele>6.39</ele>
        <time>2023-08-19T11:35:20Z</time>
      </trkpt>
      <trkpt lat="57.89176999591291" lon="-4.346616016700864">
        <ele>7.35</ele>
        <time>2023-08-19T11:35:24Z</time>
      </trkpt>
      <trkpt lat="57.89176999591291" lon="-4.346616016700864">
        <ele>7.35</ele>
        <time>2023-08-19T11:35:25Z</time>
      </trkpt>
      <trkpt lat="57.891795979812741" lon="-4.34639398008585">
        <ele>7.35</ele>
        <time>2023-08-19T11:35:26Z</time>
      </trkpt>
      <trkpt lat="57.89187703281641" lon="-4.346359027549624">
        <ele>7.83</ele>
        <time>2023-08-19T11:35:27Z</time>
      </trkpt>
      <trkpt lat="57.89187703281641" lon="-4.346359027549624">
        <ele>7.83</ele>
        <time>2023-08-19T11:35:28Z</time>
      </trkpt>
      <trkpt lat="57.891893964260817" lon="-4.346315022557974">
        <ele>8.310000000000001</ele>
        <time>2023-08-19T11:35:29Z</time>
      </trkpt>
      <trkpt lat="57.891918020322919" lon="-4.346250984817743">
        <ele>8.789999999999999</ele>
        <time>2023-08-19T11:35:30Z</time>
      </trkpt>
      <trkpt lat="57.891938975080848" lon="-4.346192982047796">
        <ele>8.789999999999999</ele>
        <time>2023-08-19T11:35:31Z</time>
      </trkpt>
      <trkpt lat="57.89200603030622" lon="-4.346016040071845">
        <ele>9.75</ele>
        <time>2023-08-19T11:35:34Z</time>
      </trkpt>
      <trkpt lat="57.892045006155968" lon="-4.345990978181362">
        <ele>9.75</ele>
        <time>2023-08-19T11:35:35Z</time>
      </trkpt>
      <trkpt lat="57.892391011118889" lon="-4.345771037042141">
        <ele>12.15</ele>
        <time>2023-08-19T11:35:41Z</time>
      </trkpt>
      <trkpt lat="57.892932984977961" lon="-4.345181034877896">
        <ele>18.879999999999999</ele>
        <time>2023-08-19T11:35:51Z</time>
      </trkpt>
      <trkpt lat="57.892984030768275" lon="-4.345079027116299">
        <ele>19.84</ele>
        <time>2023-08-19T11:35:52Z</time>
      </trkpt>
      <trkpt lat="57.893026024103165" lon="-4.344961009919643">
        <ele>20.809999999999999</ele>
        <time>2023-08-19T11:35:53Z</time>
      </trkpt>
      <trkpt lat="57.893067011609674" lon="-4.344843998551369">
        <ele>21.77</ele>
        <time>2023-08-19T11:35:54Z</time>
      </trkpt>
      <trkpt lat="57.893192991614342" lon="-4.343457967042923">
        <ele>29.940000000000001</ele>
        <time>2023-08-19T11:36:02Z</time>
      </trkpt>
      <trkpt lat="57.893307991325855" lon="-4.34162300080061">
        <ele>39.07</ele>
        <time>2023-08-19T11:36:13Z</time>
      </trkpt>
      <trkpt lat="57.893278989940882" lon="-4.341095024719834">
        <ele>41.950000000000003</ele>
        <time>2023-08-19T11:36:16Z</time>
      </trkpt>
      <trkpt lat="57.893207995221019" lon="-4.340416006743908">
        <ele>44.840000000000003</ele>
        <time>2023-08-19T11:36:20Z</time>
      </trkpt>
      <trkpt lat="57.893219981342554" lon="-4.34024803340435">
        <ele>45.32</ele>
        <time>2023-08-19T11:36:21Z</time>
      </trkpt>
      <trkpt lat="57.893231967464089" lon="-4.340081987902522">
        <ele>45.799999999999997</ele>
        <time>2023-08-19T11:36:22Z</time>
      </trkpt>
      <trkpt lat="57.893243031576276" lon="-4.339916026219726">
        <ele>46.280000000000001</ele>
        <time>2023-08-19T11:36:23Z</time>
      </trkpt>
      <trkpt lat="57.893255017697811" lon="-4.33975400403142">
        <ele>46.759999999999998</ele>
        <time>2023-08-19T11:36:24Z</time>
      </trkpt>
      <trkpt lat="57.893313020467758" lon="-4.338948000222445">
        <ele>49.159999999999997</ele>
        <time>2023-08-19T11:36:29Z</time>
      </trkpt>
      <trkpt lat="57.89340203627944" lon="-4.337181011214852">
        <ele>53.009999999999998</ele>
        <time>2023-08-19T11:36:39Z</time>
      </trkpt>
      <trkpt lat="57.893409999087453" lon="-4.337013959884644">
        <ele>53.490000000000002</ele>
        <time>2023-08-19T11:36:40Z</time>
      </trkpt>
      <trkpt lat="57.89344796910882" lon="-4.336184989660978">
        <ele>55.409999999999997</ele>
        <time>2023-08-19T11:36:45Z</time>
      </trkpt>
      <trkpt lat="57.893489040434361" lon="-4.335562968626618">
        <ele>57.340000000000003</ele>
        <time>2023-08-19T11:36:49Z</time>
      </trkpt>
      <trkpt lat="57.893503960222006" lon="-4.335417039692402">
        <ele>57.340000000000003</ele>
        <time>2023-08-19T11:36:50Z</time>
      </trkpt>
      <trkpt lat="57.893532961606979" lon="-4.335121996700764">
        <ele>58.299999999999997</ele>
        <time>2023-08-19T11:36:52Z</time>
      </trkpt>
      <trkpt lat="57.893547965213656" lon="-4.334974978119135">
        <ele>58.780000000000001</ele>
        <time>2023-08-19T11:36:53Z</time>
      </trkpt>
      <trkpt lat="57.893561962991953" lon="-4.334828965365887">
        <ele>59.259999999999998</ele>
        <time>2023-08-19T11:36:54Z</time>
      </trkpt>
      <trkpt lat="57.893805038183928" lon="-4.33309399522841">
        <ele>62.140000000000001</ele>
        <time>2023-08-19T11:37:05Z</time>
      </trkpt>
      <trkpt lat="57.894150037318468" lon="-4.331166995689273">
        <ele>62.619999999999997</ele>
        <time>2023-08-19T11:37:13Z</time>
      </trkpt>
      <trkpt lat="57.89492997340858" lon="-4.327427996322513">
        <ele>62.140000000000001</ele>
        <time>2023-08-19T11:37:27Z</time>
      </trkpt>
      <trkpt lat="57.89514496922493" lon="-4.326144978404045">
        <ele>61.659999999999997</ele>
        <time>2023-08-19T11:37:32Z</time>
      </trkpt>
      <trkpt lat="57.895162990316749" lon="-4.32589603587985">
        <ele>61.659999999999997</ele>
        <time>2023-08-19T11:37:33Z</time>
      </trkpt>
      <trkpt lat="57.895307997241616" lon="-4.324289979413152">
        <ele>62.619999999999997</ele>
        <time>2023-08-19T11:37:41Z</time>
      </trkpt>
      <trkpt lat="57.895497009158134" lon="-4.323326982557774">
        <ele>63.579999999999998</ele>
        <time>2023-08-19T11:37:46Z</time>
      </trkpt>
      <trkpt lat="57.895531039685011" lon="-4.323158003389835">
        <ele>64.069999999999993</ele>
        <time>2023-08-19T11:37:47Z</time>
      </trkpt>
      <trkpt lat="57.895588036626577" lon="-4.323023976758122">
        <ele>64.069999999999993</ele>
        <time>2023-08-19T11:37:48Z</time>
      </trkpt>
      <trkpt lat="57.89574796333909" lon="-4.322817027568817">
        <ele>64.069999999999993</ele>
        <time>2023-08-19T11:37:50Z</time>
      </trkpt>
      <trkpt lat="57.895833039656281" lon="-4.322707979008555">
        <ele>63.579999999999998</ele>
        <time>2023-08-19T11:37:51Z</time>
      </trkpt>
      <trkpt lat="57.896102014929056" lon="-4.322360968217254">
        <ele>63.100000000000001</ele>
        <time>2023-08-19T11:37:54Z</time>
      </trkpt>
      <trkpt lat="57.896211985498667" lon="-4.322218978777528">
        <ele>63.100000000000001</ele>
        <time>2023-08-19T11:37:55Z</time>
      </trkpt>
      <trkpt lat="57.896281974390149" lon="-4.322084030136466">
        <ele>62.140000000000001</ele>
        <time>2023-08-19T11:37:56Z</time>
      </trkpt>
      <trkpt lat="57.897006003186107" lon="-4.320823978632689">
        <ele>61.659999999999997</ele>
        <time>2023-08-19T11:38:04Z</time>
      </trkpt>
      <trkpt lat="57.897111028432846" lon="-4.32073999196291">
        <ele>61.18</ele>
        <time>2023-08-19T11:38:05Z</time>
      </trkpt>
      <trkpt lat="57.89765601977706" lon="-4.320306982845068">
        <ele>60.700000000000003</ele>
        <time>2023-08-19T11:38:10Z</time>
      </trkpt>
      <trkpt lat="57.897770013660192" lon="-4.320274963974953">
        <ele>60.700000000000003</ele>
        <time>2023-08-19T11:38:11Z</time>
      </trkpt>
      <trkpt lat="57.898837029933929" lon="-4.32024504058063">
        <ele>59.259999999999998</ele>
        <time>2023-08-19T11:38:19Z</time>
      </trkpt>
      <trkpt lat="57.899596011266112" lon="-4.320317963138223">
        <ele>56.859999999999999</ele>
        <time>2023-08-19T11:38:24Z</time>
      </trkpt>
      <trkpt lat="57.899746969342232" lon="-4.320356016978622">
        <ele>56.369999999999997</ele>
        <time>2023-08-19T11:38:25Z</time>
      </trkpt>
      <trkpt lat="57.900907024741173" lon="-4.320872006937861">
        <ele>53.969999999999999</ele>
        <time>2023-08-19T11:38:33Z</time>
      </trkpt>
      <trkpt lat="57.901432989165187" lon="-4.320947024971247">
        <ele>53.490000000000002</ele>
        <time>2023-08-19T11:38:37Z</time>
      </trkpt>
      <trkpt lat="57.901557041332126" lon="-4.320921041071415">
        <ele>53.969999999999999</ele>
        <time>2023-08-19T11:38:38Z</time>
      </trkpt>
      <trkpt lat="57.90167598053813" lon="-4.320894973352552">
        <ele>53.969999999999999</ele>
        <time>2023-08-19T11:38:39Z</time>
      </trkpt>
      <trkpt lat="57.901878990232944" lon="-4.320684000849724">
        <ele>53.490000000000002</ele>
        <time>2023-08-19T11:38:41Z</time>
      </trkpt>
      <trkpt lat="57.901980997994542" lon="-4.320563971996307">
        <ele>53.490000000000002</ele>
        <time>2023-08-19T11:38:42Z</time>
      </trkpt>
      <trkpt lat="57.90219297632575" lon="-4.320316035300493">
        <ele>52.530000000000001</ele>
        <time>2023-08-19T11:38:44Z</time>
      </trkpt>
      <trkpt lat="57.902304958552122" lon="-4.320184020325542">
        <ele>52.530000000000001</ele>
        <time>2023-08-19T11:38:45Z</time>
      </trkpt>
      <trkpt lat="57.903037033975124" lon="-4.319324037060142">
        <ele>53.009999999999998</ele>
        <time>2023-08-19T11:38:52Z</time>
      </trkpt>
      <trkpt lat="57.903109034523368" lon="-4.319211971014738">
        <ele>53.490000000000002</ele>
        <time>2023-08-19T11:38:53Z</time>
      </trkpt>
      <trkpt lat="57.903207018971443" lon="-4.3190429918468">
        <ele>53.490000000000002</ele>
        <time>2023-08-19T11:38:54Z</time>
      </trkpt>
      <trkpt lat="57.903241971507668" lon="-4.318930003792048">
        <ele>53.490000000000002</ele>
        <time>2023-08-19T11:38:55Z</time>
      </trkpt>
      <trkpt lat="57.903296034783125" lon="-4.318755995482206">
        <ele>53.969999999999999</ele>
        <time>2023-08-19T11:38:56Z</time>
      </trkpt>
      <trkpt lat="57.903762990608811" lon="-4.317322019487619">
        <ele>57.340000000000003</ele>
        <time>2023-08-19T11:39:04Z</time>
      </trkpt>
      <trkpt lat="57.904089968651533" lon="-4.316631015390158">
        <ele>59.259999999999998</ele>
        <time>2023-08-19T11:39:08Z</time>
      </trkpt>
      <trkpt lat="57.904172027483582" lon="-4.316458012908697">
        <ele>60.219999999999999</ele>
        <time>2023-08-19T11:39:09Z</time>
      </trkpt>
      <trkpt lat="57.904960010200739" lon="-4.313959032297134">
        <ele>67.430000000000007</ele>
        <time>2023-08-19T11:39:21Z</time>
      </trkpt>
      <trkpt lat="57.905359994620085" lon="-4.311602963134646">
        <ele>79.450000000000003</ele>
        <time>2023-08-19T11:39:31Z</time>
      </trkpt>
      <trkpt lat="57.905429983511567" lon="-4.310368979349732">
        <ele>85.689999999999998</ele>
        <time>2023-08-19T11:39:36Z</time>
      </trkpt>
      <trkpt lat="57.905450016260147" lon="-4.310175022110343">
        <ele>86.659999999999997</ele>
        <time>2023-08-19T11:39:37Z</time>
      </trkpt>
      <trkpt lat="57.905491003766656" lon="-4.31001702323556">
        <ele>87.620000000000005</ele>
        <time>2023-08-19T11:39:38Z</time>
      </trkpt>
      <trkpt lat="57.905566021800041" lon="-4.309906968846917">
        <ele>88.579999999999998</ele>
        <time>2023-08-19T11:39:39Z</time>
      </trkpt>
      <trkpt lat="57.905642967671156" lon="-4.309793980792165">
        <ele>89.540000000000006</ele>
        <time>2023-08-19T11:39:40Z</time>
      </trkpt>
      <trkpt lat="57.906493982300162" lon="-4.30853602476418">
        <ele>98.189999999999998</ele>
        <time>2023-08-19T11:39:49Z</time>
      </trkpt>
      <trkpt lat="57.907037967815995" lon="-4.307628013193607">
        <ele>103.95999999999999</ele>
        <time>2023-08-19T11:39:54Z</time>
      </trkpt>
      <trkpt lat="57.908172961324453" lon="-4.305773014202714">
        <ele>116.94</ele>
        <time>2023-08-19T11:40:04Z</time>
      </trkpt>
      <trkpt lat="57.90872398763895" lon="-4.30509801954031">
        <ele>121.26000000000001</ele>
        <time>2023-08-19T11:40:09Z</time>
      </trkpt>
      <trkpt lat="57.908805040642619" lon="-4.304929040372372">
        <ele>122.22</ele>
        <time>2023-08-19T11:40:10Z</time>
      </trkpt>
      <trkpt lat="57.908882992342114" lon="-4.304745979607105">
        <ele>123.19</ele>
        <time>2023-08-19T11:40:11Z</time>
      </trkpt>
      <trkpt lat="57.90904400870204" lon="-4.304368039593101">
        <ele>124.63</ele>
        <time>2023-08-19T11:40:13Z</time>
      </trkpt>
      <trkpt lat="57.90913000702858" lon="-4.304185984656215">
        <ele>125.11</ele>
        <time>2023-08-19T11:40:14Z</time>
      </trkpt>
      <trkpt lat="57.909234026446939" lon="-4.304043995216489">
        <ele>125.59</ele>
        <time>2023-08-19T11:40:15Z</time>
      </trkpt>
      <trkpt lat="57.909820005297661" lon="-4.303169008344412">
        <ele>126.55</ele>
        <time>2023-08-19T11:40:21Z</time>
      </trkpt>
      <trkpt lat="57.90988203138113" lon="-4.30301696062088">
        <ele>127.51000000000001</ele>
        <time>2023-08-19T11:40:22Z</time>
      </trkpt>
      <trkpt lat="57.910155029967427" lon="-4.302346995100379">
        <ele>128.94999999999999</ele>
        <time>2023-08-19T11:40:26Z</time>
      </trkpt>
      <trkpt lat="57.910224013030529" lon="-4.30217701010406">
        <ele>129.43000000000001</ele>
        <time>2023-08-19T11:40:27Z</time>
      </trkpt>
      <trkpt lat="57.910328032448888" lon="-4.302044995129108">
        <ele>129.91999999999999</ele>
        <time>2023-08-19T11:40:28Z</time>
      </trkpt>
      <trkpt lat="57.910432973876595" lon="-4.301910968497396">
        <ele>129.91999999999999</ele>
        <time>2023-08-19T11:40:29Z</time>
      </trkpt>
      <trkpt lat="57.910540010780096" lon="-4.301775014027953">
        <ele>130.40000000000001</ele>
        <time>2023-08-19T11:40:30Z</time>
      </trkpt>
      <trkpt lat="57.910648975521326" lon="-4.301636964082718">
        <ele>130.88</ele>
        <time>2023-08-19T11:40:31Z</time>
      </trkpt>
      <trkpt lat="57.911235960200429" lon="-4.301003040745854">
        <ele>132.80000000000001</ele>
        <time>2023-08-19T11:40:36Z</time>
      </trkpt>
      <trkpt lat="57.911371998488903" lon="-4.300958029925823">
        <ele>133.28</ele>
        <time>2023-08-19T11:40:37Z</time>
      </trkpt>
      <trkpt lat="57.91162395849824" lon="-4.300811011344194">
        <ele>134.24000000000001</ele>
        <time>2023-08-19T11:40:39Z</time>
      </trkpt>
      <trkpt lat="57.911742981523275" lon="-4.300704980269074">
        <ele>135.19999999999999</ele>
        <time>2023-08-19T11:40:40Z</time>
      </trkpt>
      <trkpt lat="57.912733973935246" lon="-4.299858994781971">
        <ele>139.53</ele>
        <time>2023-08-19T11:40:48Z</time>
      </trkpt>
      <trkpt lat="57.91284897364676" lon="-4.299820018932223">
        <ele>140.00999999999999</ele>
        <time>2023-08-19T11:40:49Z</time>
      </trkpt>
      <trkpt lat="57.912959028035402" lon="-4.299780959263444">
        <ele>140.49000000000001</ele>
        <time>2023-08-19T11:40:50Z</time>
      </trkpt>
      <trkpt lat="57.913062963634729" lon="-4.299745000898838">
        <ele>140.97</ele>
        <time>2023-08-19T11:40:51Z</time>
      </trkpt>
      <trkpt lat="57.913164971396327" lon="-4.299709964543581">
        <ele>141.93000000000001</ele>
        <time>2023-08-19T11:40:52Z</time>
      </trkpt>
      <trkpt lat="57.913257004693151" lon="-4.299741983413696">
        <ele>142.88999999999999</ele>
        <time>2023-08-19T11:40:53Z</time>
      </trkpt>
      <trkpt lat="57.913353983312845" lon="-4.299776013940573">
        <ele>143.37</ele>
        <time>2023-08-19T11:40:54Z</time>
      </trkpt>
      <trkpt lat="57.913455991074443" lon="-4.299810966476798">
        <ele>144.34</ele>
        <time>2023-08-19T11:40:55Z</time>
      </trkpt>
      <trkpt lat="57.913669981062412" lon="-4.299884978681803">
        <ele>145.78</ele>
        <time>2023-08-19T11:40:57Z</time>
      </trkpt>
      <trkpt lat="57.913769977167249" lon="-4.299880033358932">
        <ele>146.25999999999999</ele>
        <time>2023-08-19T11:40:58Z</time>
      </trkpt>
      <trkpt lat="57.913871984928846" lon="-4.299833010882139">
        <ele>146.74000000000001</ele>
        <time>2023-08-19T11:40:59Z</time>
      </trkpt>
      <trkpt lat="57.913974998518825" lon="-4.299784982576966">
        <ele>146.74000000000001</ele>
        <time>2023-08-19T11:41:00Z</time>
      </trkpt>
      <trkpt lat="57.914082035422325" lon="-4.299717005342245">
        <ele>147.22</ele>
        <time>2023-08-19T11:41:01Z</time>
      </trkpt>
      <trkpt lat="57.914191000163555" lon="-4.299614997580648">
        <ele>147.69999999999999</ele>
        <time>2023-08-19T11:41:02Z</time>
      </trkpt>
      <trkpt lat="57.914304994046688" lon="-4.299509972333908">
        <ele>147.69999999999999</ele>
        <time>2023-08-19T11:41:03Z</time>
      </trkpt>
      <trkpt lat="57.91441697627306" lon="-4.299388015642762">
        <ele>148.18000000000001</ele>
        <time>2023-08-19T11:41:04Z</time>
      </trkpt>
      <trkpt lat="57.915406040847301" lon="-4.298334997147322">
        <ele>152.99000000000001</ele>
        <time>2023-08-19T11:41:12Z</time>
      </trkpt>
      <trkpt lat="57.917255004867911" lon="-4.296775963157415">
        <ele>160.68000000000001</ele>
        <time>2023-08-19T11:41:25Z</time>
      </trkpt>
      <trkpt lat="57.918921997770667" lon="-4.295928971841931">
        <ele>165</ele>
        <time>2023-08-19T11:41:36Z</time>
      </trkpt>
      <trkpt lat="57.921157032251358" lon="-4.295118022710085">
        <ele>168.37</ele>
        <time>2023-08-19T11:41:49Z</time>
      </trkpt>
      <trkpt lat="57.922898037359118" lon="-4.295041998848319">
        <ele>169.81</ele>
        <time>2023-08-19T11:41:59Z</time>
      </trkpt>
      <trkpt lat="57.924717999994755" lon="-4.295348022133112">
        <ele>165.96000000000001</ele>
        <time>2023-08-19T11:42:10Z</time>
      </trkpt>
      <trkpt lat="57.926782965660095" lon="-4.295696038752794">
        <ele>153.94999999999999</ele>
        <time>2023-08-19T11:42:22Z</time>
      </trkpt>
      <trkpt lat="57.927947966381907" lon="-4.295402001589537">
        <ele>144.81999999999999</ele>
        <time>2023-08-19T11:42:30Z</time>
      </trkpt>
      <trkpt lat="57.929445980116725" lon="-4.294922975823283">
        <ele>138.56999999999999</ele>
        <time>2023-08-19T11:42:41Z</time>
      </trkpt>
      <trkpt lat="57.931086989119649" lon="-4.294796995818615">
        <ele>143.84999999999999</ele>
        <time>2023-08-19T11:42:51Z</time>
      </trkpt>
      <trkpt lat="57.932966966181993" lon="-4.294853992760181">
        <ele>147.69999999999999</ele>
        <time>2023-08-19T11:43:03Z</time>
      </trkpt>
      <trkpt lat="57.934643011540174" lon="-4.294798001646996">
        <ele>151.53999999999999</ele>
        <time>2023-08-19T11:43:14Z</time>
      </trkpt>
      <trkpt lat="57.934777960181236" lon="-4.294738993048668">
        <ele>152.03</ele>
        <time>2023-08-19T11:43:15Z</time>
      </trkpt>
      <trkpt lat="57.934897989034653" lon="-4.294627010822296">
        <ele>152.50999999999999</ele>
        <time>2023-08-19T11:43:16Z</time>
      </trkpt>
      <trkpt lat="57.935023969039321" lon="-4.294501030817628">
        <ele>152.99000000000001</ele>
        <time>2023-08-19T11:43:17Z</time>
      </trkpt>
      <trkpt lat="57.935136035084724" lon="-4.294387958943844">
        <ele>153.94999999999999</ele>
        <time>2023-08-19T11:43:18Z</time>
      </trkpt>
      <trkpt lat="57.935263020917773" lon="-4.294199030846357">
        <ele>154.43000000000001</ele>
        <time>2023-08-19T11:43:19Z</time>
      </trkpt>
      <trkpt lat="57.936240015551448" lon="-4.292820040136576">
        <ele>163.08000000000001</ele>
        <time>2023-08-19T11:43:27Z</time>
      </trkpt>
      <trkpt lat="57.936378987506032" lon="-4.292716020718217">
        <ele>164.03999999999999</ele>
        <time>2023-08-19T11:43:28Z</time>
      </trkpt>
      <trkpt lat="57.937089018523693" lon="-4.292115960270166">
        <ele>168.37</ele>
        <time>2023-08-19T11:43:33Z</time>
      </trkpt>
      <trkpt lat="57.937220027670264" lon="-4.291937006637454">
        <ele>169.33000000000001</ele>
        <time>2023-08-19T11:43:34Z</time>
      </trkpt>
      <trkpt lat="57.938219988718629" lon="-4.290565978735685">
        <ele>176.53999999999999</ele>
        <time>2023-08-19T11:43:42Z</time>
      </trkpt>
      <trkpt lat="57.93833096511662" lon="-4.290431030094624">
        <ele>177.5</ele>
        <time>2023-08-19T11:43:43Z</time>
      </trkpt>
      <trkpt lat="57.938468009233475" lon="-4.29036196321249">
        <ele>178.46000000000001</ele>
        <time>2023-08-19T11:43:44Z</time>
      </trkpt>
      <trkpt lat="57.938609998673201" lon="-4.290290968492627">
        <ele>179.41999999999999</ele>
        <time>2023-08-19T11:43:45Z</time>
      </trkpt>
      <trkpt lat="57.938753999769688" lon="-4.290218967944384">
        <ele>180.38</ele>
        <time>2023-08-19T11:43:46Z</time>
      </trkpt>
      <trkpt lat="57.940345974639058" lon="-4.289597030729055">
        <ele>188.56</ele>
        <time>2023-08-19T11:43:56Z</time>
      </trkpt>
      <trkpt lat="57.941652964800596" lon="-4.288957994431257">
        <ele>195.77000000000001</ele>
        <time>2023-08-19T11:44:05Z</time>
      </trkpt>
      <trkpt lat="57.943316018208861" lon="-4.288524985313416">
        <ele>201.05000000000001</ele>
        <time>2023-08-19T11:44:16Z</time>
      </trkpt>
      <trkpt lat="57.944522006437182" lon="-4.288263972848654">
        <ele>201.05000000000001</ele>
        <time>2023-08-19T11:44:24Z</time>
      </trkpt>
      <trkpt lat="57.944647986441851" lon="-4.288137992843986">
        <ele>200.56999999999999</ele>
        <time>2023-08-19T11:44:25Z</time>
      </trkpt>
      <trkpt lat="57.94477597810328" lon="-4.288010001182556">
        <ele>200.09</ele>
        <time>2023-08-19T11:44:26Z</time>
      </trkpt>
      <trkpt lat="57.944906987249851" lon="-4.287878992035985">
        <ele>199.61000000000001</ele>
        <time>2023-08-19T11:44:27Z</time>
      </trkpt>
      <trkpt lat="57.945048976689577" lon="-4.287735996767879">
        <ele>199.13</ele>
        <time>2023-08-19T11:44:28Z</time>
      </trkpt>
      <trkpt lat="57.945172023028135" lon="-4.287581015378237">
        <ele>198.65000000000001</ele>
        <time>2023-08-19T11:44:29Z</time>
      </trkpt>
      <trkpt lat="57.946213977411389" lon="-4.286337979137898">
        <ele>193.84</ele>
        <time>2023-08-19T11:44:37Z</time>
      </trkpt>
      <trkpt lat="57.94634398072958" lon="-4.286258015781641">
        <ele>193.36000000000001</ele>
        <time>2023-08-19T11:44:38Z</time>
      </trkpt>
      <trkpt lat="57.946469960734248" lon="-4.286180986091495">
        <ele>192.88</ele>
        <time>2023-08-19T11:44:39Z</time>
      </trkpt>
      <trkpt lat="57.946594012901187" lon="-4.286105968058109">
        <ele>191.91999999999999</ele>
        <time>2023-08-19T11:44:40Z</time>
      </trkpt>
      <trkpt lat="57.946719992905855" lon="-4.286136981099844">
        <ele>191.44</ele>
        <time>2023-08-19T11:44:41Z</time>
      </trkpt>
      <trkpt lat="57.946851002052426" lon="-4.28617000579834">
        <ele>190.96000000000001</ele>
        <time>2023-08-19T11:44:42Z</time>
      </trkpt>
      <trkpt lat="57.946984022855759" lon="-4.286221973598003">
        <ele>190</ele>
        <time>2023-08-19T11:44:43Z</time>
      </trkpt>
      <trkpt lat="57.947116959840059" lon="-4.286307971924543">
        <ele>189.52000000000001</ele>
        <time>2023-08-19T11:44:44Z</time>
      </trkpt>
      <trkpt lat="57.947366992011666" lon="-4.286469994112849">
        <ele>188.56</ele>
        <time>2023-08-19T11:44:46Z</time>
      </trkpt>
      <trkpt lat="57.947520967572927" lon="-4.286461025476456">
        <ele>188.08000000000001</ele>
        <time>2023-08-19T11:44:47Z</time>
      </trkpt>
      <trkpt lat="57.947658011689782" lon="-4.28645197302103">
        <ele>187.59</ele>
        <time>2023-08-19T11:44:48Z</time>
      </trkpt>
      <trkpt lat="57.94801902025938" lon="-4.28642900660634">
        <ele>186.15000000000001</ele>
        <time>2023-08-19T11:44:51Z</time>
      </trkpt>
      <trkpt lat="57.948109041899443" lon="-4.286313001066446">
        <ele>185.66999999999999</ele>
        <time>2023-08-19T11:44:52Z</time>
      </trkpt>
      <trkpt lat="57.948193028569221" lon="-4.286188026890159">
        <ele>185.19</ele>
        <time>2023-08-19T11:44:53Z</time>
      </trkpt>
      <trkpt lat="57.94911403208971" lon="-4.284895034506917">
        <ele>180.87</ele>
        <time>2023-08-19T11:45:01Z</time>
      </trkpt>
      <trkpt lat="57.949250992387533" lon="-4.284723037853837">
        <ele>180.87</ele>
        <time>2023-08-19T11:45:02Z</time>
      </trkpt>
      <trkpt lat="57.949384013190866" lon="-4.284570990130305">
        <ele>180.38</ele>
        <time>2023-08-19T11:45:03Z</time>
      </trkpt>
      <trkpt lat="57.949534971266985" lon="-4.284489015117288">
        <ele>179.90000000000001</ele>
        <time>2023-08-19T11:45:04Z</time>
      </trkpt>
      <trkpt lat="57.950194040313363" lon="-4.284008983522654">
        <ele>177.97999999999999</ele>
        <time>2023-08-19T11:45:09Z</time>
      </trkpt>
      <trkpt lat="57.951638996601105" lon="-4.282191032543778">
        <ele>176.06</ele>
        <time>2023-08-19T11:45:21Z</time>
      </trkpt>
      <trkpt lat="57.952136965468526" lon="-4.281137008219957">
        <ele>173.66</ele>
        <time>2023-08-19T11:45:30Z</time>
      </trkpt>
      <trkpt lat="57.952633006498218" lon="-4.279485018923879">
        <ele>170.28999999999999</ele>
        <time>2023-08-19T11:45:41Z</time>
      </trkpt>
      <trkpt lat="57.953156959265471" lon="-4.277611998841167">
        <ele>166.44999999999999</ele>
        <time>2023-08-19T11:45:53Z</time>
      </trkpt>
      <trkpt lat="57.953185038641095" lon="-4.277414018288255">
        <ele>165.96000000000001</ele>
        <time>2023-08-19T11:45:54Z</time>
      </trkpt>
      <trkpt lat="57.953396011143923" lon="-4.275375036522746">
        <ele>164.52000000000001</ele>
        <time>2023-08-19T11:46:03Z</time>
      </trkpt>
      <trkpt lat="57.953531965613365" lon="-4.272465007379651">
        <ele>164.03999999999999</ele>
        <time>2023-08-19T11:46:16Z</time>
      </trkpt>
      <trkpt lat="57.953559039160609" lon="-4.270396018400788">
        <ele>164.03999999999999</ele>
        <time>2023-08-19T11:46:26Z</time>
      </trkpt>
      <trkpt lat="57.9535629786551" lon="-4.270079014822841">
        <ele>164.52000000000001</ele>
        <time>2023-08-19T11:46:32Z</time>
      </trkpt>
      <trkpt lat="57.9535629786551" lon="-4.270079014822841">
        <ele>165</ele>
        <time>2023-08-19T11:46:43Z</time>
      </trkpt>
      <trkpt lat="57.95356398448348" lon="-4.270028974860907">
        <ele>165.47999999999999</ele>
        <time>2023-08-19T11:46:55Z</time>
      </trkpt>
      <trkpt lat="57.953514028340578" lon="-4.270005002617836">
        <ele>168.84999999999999</ele>
        <time>2023-08-19T11:51:19Z</time>
      </trkpt>
      <trkpt lat="57.953565996140242" lon="-4.269850021228194">
        <ele>165.47999999999999</ele>
        <time>2023-08-19T11:51:36Z</time>
      </trkpt>
      <trkpt lat="57.953567001968622" lon="-4.269743990153074">
        <ele>165.47999999999999</ele>
        <time>2023-08-19T11:51:37Z</time>
      </trkpt>
      <trkpt lat="57.953588040545583" lon="-4.268172970041633">
        <ele>165</ele>
        <time>2023-08-19T11:51:47Z</time>
      </trkpt>
      <trkpt lat="57.953551998361945" lon="-4.265709025785327">
        <ele>165.47999999999999</ele>
        <time>2023-08-19T11:52:01Z</time>
      </trkpt>
      <trkpt lat="57.953491983935237" lon="-4.26313896663487">
        <ele>165.96000000000001</ele>
        <time>2023-08-19T11:52:15Z</time>
      </trkpt>
      <trkpt lat="57.95328302308917" lon="-4.260330023244023">
        <ele>165.96000000000001</ele>
        <time>2023-08-19T11:52:27Z</time>
      </trkpt>
      <trkpt lat="57.953082025051117" lon="-4.25800203345716">
        <ele>165</ele>
        <time>2023-08-19T11:52:37Z</time>
      </trkpt>
      <trkpt lat="57.95293802395463" lon="-4.255512021481991">
        <ele>164.52000000000001</ele>
        <time>2023-08-19T11:52:51Z</time>
      </trkpt>
      <trkpt lat="57.952614985406399" lon="-4.25349298864603">
        <ele>165</ele>
        <time>2023-08-19T11:53:01Z</time>
      </trkpt>
      <trkpt lat="57.952539967373013" lon="-4.250858975574374">
        <ele>165</ele>
        <time>2023-08-19T11:53:14Z</time>
      </trkpt>
      <trkpt lat="57.952591013163328" lon="-4.247963028028607">
        <ele>165.47999999999999</ele>
        <time>2023-08-19T11:53:28Z</time>
      </trkpt>
      <trkpt lat="57.952844984829426" lon="-4.245758000761271">
        <ele>165.47999999999999</ele>
        <time>2023-08-19T11:53:39Z</time>
      </trkpt>
      <trkpt lat="57.952881027013063" lon="-4.245581980794668">
        <ele>165.47999999999999</ele>
        <time>2023-08-19T11:53:40Z</time>
      </trkpt>
      <trkpt lat="57.953315963968635" lon="-4.243708038702607">
        <ele>165.47999999999999</ele>
        <time>2023-08-19T11:53:50Z</time>
      </trkpt>
      <trkpt lat="57.954212995246053" lon="-4.241025997325778">
        <ele>166.93000000000001</ele>
        <time>2023-08-19T11:54:04Z</time>
      </trkpt>
      <trkpt lat="57.954383986070752" lon="-4.240395007655025">
        <ele>166.93000000000001</ele>
        <time>2023-08-19T11:54:07Z</time>
      </trkpt>
      <trkpt lat="57.9544229619205" lon="-4.240156961604953">
        <ele>166.93000000000001</ele>
        <time>2023-08-19T11:54:08Z</time>
      </trkpt>
      <trkpt lat="57.95480702072382" lon="-4.238004991784692">
        <ele>165.47999999999999</ele>
        <time>2023-08-19T11:54:17Z</time>
      </trkpt>
      <trkpt lat="57.955299960449338" lon="-4.235856039449573">
        <ele>164.03999999999999</ele>
        <time>2023-08-19T11:54:27Z</time>
      </trkpt>
      <trkpt lat="57.955317981541157" lon="-4.235607013106346">
        <ele>164.03999999999999</ele>
        <time>2023-08-19T11:54:28Z</time>
      </trkpt>
      <trkpt lat="57.955476986244321" lon="-4.233240969479084">
        <ele>163.08000000000001</ele>
        <time>2023-08-19T11:54:37Z</time>
      </trkpt>
      <trkpt lat="57.95586196705699" lon="-4.230118039995432">
        <ele>160.19999999999999</ele>
        <time>2023-08-19T11:54:50Z</time>
      </trkpt>
      <trkpt lat="57.956049973145127" lon="-4.227813016623259">
        <ele>158.75</ele>
        <time>2023-08-19T11:55:00Z</time>
      </trkpt>
      <trkpt lat="57.956048967316747" lon="-4.227586034685373">
        <ele>158.75</ele>
        <time>2023-08-19T11:55:01Z</time>
      </trkpt>
      <trkpt lat="57.95601099729538" lon="-4.227369027212262">
        <ele>158.27000000000001</ele>
        <time>2023-08-19T11:55:02Z</time>
      </trkpt>
      <trkpt lat="57.955975038930774" lon="-4.227157970890403">
        <ele>157.78999999999999</ele>
        <time>2023-08-19T11:55:03Z</time>
      </trkpt>
      <trkpt lat="57.955917958170176" lon="-4.226967031136155">
        <ele>157.78999999999999</ele>
        <time>2023-08-19T11:55:04Z</time>
      </trkpt>
      <trkpt lat="57.95585903339088" lon="-4.226771984249353">
        <ele>157.31</ele>
        <time>2023-08-19T11:55:05Z</time>
      </trkpt>
      <trkpt lat="57.95541001483798" lon="-4.225041037425399">
        <ele>158.27000000000001</ele>
        <time>2023-08-19T11:55:14Z</time>
      </trkpt>
      <trkpt lat="57.955381013453007" lon="-4.224832998588681">
        <ele>158.75</ele>
        <time>2023-08-19T11:55:15Z</time>
      </trkpt>
      <trkpt lat="57.955371038988233" lon="-4.224624037742615">
        <ele>158.75</ele>
        <time>2023-08-19T11:55:16Z</time>
      </trkpt>
      <trkpt lat="57.955371038988233" lon="-4.22440099529922">
        <ele>159.24000000000001</ele>
        <time>2023-08-19T11:55:17Z</time>
      </trkpt>
      <trkpt lat="57.955371038988233" lon="-4.224199997261167">
        <ele>159.72</ele>
        <time>2023-08-19T11:55:18Z</time>
      </trkpt>
      <trkpt lat="57.955398028716445" lon="-4.223965974524617">
        <ele>160.19999999999999</ele>
        <time>2023-08-19T11:55:19Z</time>
      </trkpt>
      <trkpt lat="57.955650994554162" lon="-4.222220024093986">
        <ele>161.16</ele>
        <time>2023-08-19T11:55:28Z</time>
      </trkpt>
      <trkpt lat="57.955697011202574" lon="-4.222036963328719">
        <ele>161.63999999999999</ele>
        <time>2023-08-19T11:55:29Z</time>
      </trkpt>
      <trkpt lat="57.956213001161814" lon="-4.220172995701432">
        <ele>160.68000000000001</ele>
        <time>2023-08-19T11:55:39Z</time>
      </trkpt>
      <trkpt lat="57.956272009760141" lon="-4.219973003491759">
        <ele>160.19999999999999</ele>
        <time>2023-08-19T11:55:40Z</time>
      </trkpt>
      <trkpt lat="57.956382986158133" lon="-4.219433963298798">
        <ele>160.68000000000001</ele>
        <time>2023-08-19T11:55:43Z</time>
      </trkpt>
      <trkpt lat="57.956433026120067" lon="-4.219285016879439">
        <ele>160.68000000000001</ele>
        <time>2023-08-19T11:55:44Z</time>
      </trkpt>
      <trkpt lat="57.956541990861297" lon="-4.219068009406328">
        <ele>160.68000000000001</ele>
        <time>2023-08-19T11:55:46Z</time>
      </trkpt>
      <trkpt lat="57.95659395866096" lon="-4.21896499581635">
        <ele>160.19999999999999</ele>
        <time>2023-08-19T11:55:47Z</time>
      </trkpt>
      <trkpt lat="57.956673000007868" lon="-4.218903975561261">
        <ele>159.72</ele>
        <time>2023-08-19T11:55:48Z</time>
      </trkpt>
      <trkpt lat="57.956749023869634" lon="-4.218845972791314">
        <ele>159.72</ele>
        <time>2023-08-19T11:55:49Z</time>
      </trkpt>
      <trkpt lat="57.95682798139751" lon="-4.218785958364606">
        <ele>159.24000000000001</ele>
        <time>2023-08-19T11:55:50Z</time>
      </trkpt>
      <trkpt lat="57.956909034401178" lon="-4.218724016100168">
        <ele>159.24000000000001</ele>
        <time>2023-08-19T11:55:51Z</time>
      </trkpt>
      <trkpt lat="57.956988997757435" lon="-4.218627959489822">
        <ele>158.75</ele>
        <time>2023-08-19T11:55:52Z</time>
      </trkpt>
      <trkpt lat="57.957054041326046" lon="-4.218504996970296">
        <ele>158.27000000000001</ele>
        <time>2023-08-19T11:55:53Z</time>
      </trkpt>
      <trkpt lat="57.957220003008842" lon="-4.21810400672257">
        <ele>157.78999999999999</ele>
        <time>2023-08-19T11:55:56Z</time>
      </trkpt>
      <trkpt lat="57.957263002172112" lon="-4.217943996191025">
        <ele>157.78999999999999</ele>
        <time>2023-08-19T11:55:57Z</time>
      </trkpt>
      <trkpt lat="57.957309018820524" lon="-4.217777028679848">
        <ele>157.31</ele>
        <time>2023-08-19T11:55:58Z</time>
      </trkpt>
      <trkpt lat="57.957793995738029" lon="-4.215979026630521">
        <ele>154.91</ele>
        <time>2023-08-19T11:56:07Z</time>
      </trkpt>
      <trkpt lat="57.958000022917986" lon="-4.213890004903078">
        <ele>151.06</ele>
        <time>2023-08-19T11:56:16Z</time>
      </trkpt>
      <trkpt lat="57.958282995969057" lon="-4.212319990620017">
        <ele>150.09999999999999</ele>
        <time>2023-08-19T11:56:24Z</time>
      </trkpt>
      <trkpt lat="57.95835399068892" lon="-4.211492026224732">
        <ele>148.66</ele>
        <time>2023-08-19T11:56:28Z</time>
      </trkpt>
      <trkpt lat="57.958405958488584" lon="-4.211324974894524">
        <ele>148.18000000000001</ele>
        <time>2023-08-19T11:56:29Z</time>
      </trkpt>
      <trkpt lat="57.958570998162031" lon="-4.210788030177355">
        <ele>147.22</ele>
        <time>2023-08-19T11:56:32Z</time>
      </trkpt>
      <trkpt lat="57.958603017032146" lon="-4.210588037967682">
        <ele>147.22</ele>
        <time>2023-08-19T11:56:33Z</time>
      </trkpt>
      <trkpt lat="57.95863201841712" lon="-4.210402965545654">
        <ele>146.74000000000001</ele>
        <time>2023-08-19T11:56:34Z</time>
      </trkpt>
      <trkpt lat="57.958645010367036" lon="-4.210173971951008">
        <ele>146.25999999999999</ele>
        <time>2023-08-19T11:56:35Z</time>
      </trkpt>
      <trkpt lat="57.958655990660191" lon="-4.209967022761703">
        <ele>145.78</ele>
        <time>2023-08-19T11:56:36Z</time>
      </trkpt>
      <trkpt lat="57.958666970953345" lon="-4.209764013066888">
        <ele>145.30000000000001</ele>
        <time>2023-08-19T11:56:37Z</time>
      </trkpt>
      <trkpt lat="57.958668982610106" lon="-4.209556980058551">
        <ele>144.81999999999999</ele>
        <time>2023-08-19T11:56:38Z</time>
      </trkpt>
      <trkpt lat="57.958645010367036" lon="-4.209358999505639">
        <ele>144.34</ele>
        <time>2023-08-19T11:56:39Z</time>
      </trkpt>
      <trkpt lat="57.958621038123965" lon="-4.209154983982444">
        <ele>143.84999999999999</ele>
        <time>2023-08-19T11:56:40Z</time>
      </trkpt>
      <trkpt lat="57.958596982061863" lon="-4.208950968459249">
        <ele>143.37</ele>
        <time>2023-08-19T11:56:41Z</time>
      </trkpt>
      <trkpt lat="57.958573009818792" lon="-4.208745025098324">
        <ele>143.37</ele>
        <time>2023-08-19T11:56:42Z</time>
      </trkpt>
      <trkpt lat="57.958524981513619" lon="-4.20813700184226">
        <ele>141.93000000000001</ele>
        <time>2023-08-19T11:56:45Z</time>
      </trkpt>
      <trkpt lat="57.958529004827142" lon="-4.207936003804207">
        <ele>141.93000000000001</ele>
        <time>2023-08-19T11:56:46Z</time>
      </trkpt>
      <trkpt lat="57.958741988986731" lon="-4.205802977085114">
        <ele>137.13</ele>
        <time>2023-08-19T11:56:56Z</time>
      </trkpt>
      <trkpt lat="57.958790017291903" lon="-4.203613959252834">
        <ele>134.24000000000001</ele>
        <time>2023-08-19T11:57:06Z</time>
      </trkpt>
      <trkpt lat="57.958910968154669" lon="-4.201010959222913">
        <ele>127.98999999999999</ele>
        <time>2023-08-19T11:57:17Z</time>
      </trkpt>
      <trkpt lat="57.958821030333638" lon="-4.198432015255094">
        <ele>123.67</ele>
        <time>2023-08-19T11:57:28Z</time>
      </trkpt>
      <trkpt lat="57.958564041182399" lon="-4.19610695913434">
        <ele>120.3</ele>
        <time>2023-08-19T11:57:38Z</time>
      </trkpt>
      <trkpt lat="57.958406964316964" lon="-4.194082980975509">
        <ele>118.38</ele>
        <time>2023-08-19T11:57:47Z</time>
      </trkpt>
      <trkpt lat="57.958101024851203" lon="-4.191936040297151">
        <ele>115.98</ele>
        <time>2023-08-19T11:57:57Z</time>
      </trkpt>
      <trkpt lat="57.957635996863246" lon="-4.189495984464884">
        <ele>112.13</ele>
        <time>2023-08-19T11:58:08Z</time>
      </trkpt>
      <trkpt lat="57.957099974155426" lon="-4.186685029417276">
        <ele>106.84</ele>
        <time>2023-08-19T11:58:20Z</time>
      </trkpt>
      <trkpt lat="57.956540985032916" lon="-4.184343041852117">
        <ele>103.48</ele>
        <time>2023-08-19T11:58:30Z</time>
      </trkpt>
      <trkpt lat="57.955713020637631" lon="-4.181479029357433">
        <ele>102.04000000000001</ele>
        <time>2023-08-19T11:58:43Z</time>
      </trkpt>
      <trkpt lat="57.954941969364882" lon="-4.178767986595631">
        <ele>101.56</ele>
        <time>2023-08-19T11:58:56Z</time>
      </trkpt>
      <trkpt lat="57.954381974413991" lon="-4.175936998799443">
        <ele>100.59999999999999</ele>
        <time>2023-08-19T11:59:09Z</time>
      </trkpt>
      <trkpt lat="57.954362025484443" lon="-4.174163974821568">
        <ele>100.11</ele>
        <time>2023-08-19T11:59:17Z</time>
      </trkpt>
      <trkpt lat="57.954419022426009" lon="-4.173739012330771">
        <ele>100.59999999999999</ele>
        <time>2023-08-19T11:59:19Z</time>
      </trkpt>
      <trkpt lat="57.954452969133854" lon="-4.173556035384536">
        <ele>100.59999999999999</ele>
        <time>2023-08-19T11:59:20Z</time>
      </trkpt>
      <trkpt lat="57.954484988003969" lon="-4.173374986276031">
        <ele>100.59999999999999</ele>
        <time>2023-08-19T11:59:21Z</time>
      </trkpt>
      <trkpt lat="57.954518012702465" lon="-4.173197038471699">
        <ele>100.59999999999999</ele>
        <time>2023-08-19T11:59:22Z</time>
      </trkpt>
      <trkpt lat="57.954585989937186" lon="-4.173004003241658">
        <ele>100.59999999999999</ele>
        <time>2023-08-19T11:59:23Z</time>
      </trkpt>
      <trkpt lat="57.95465799048543" lon="-4.172860002145171">
        <ele>100.11</ele>
        <time>2023-08-19T11:59:24Z</time>
      </trkpt>
      <trkpt lat="57.954733008518815" lon="-4.172710971906781">
        <ele>100.11</ele>
        <time>2023-08-19T11:59:25Z</time>
      </trkpt>
      <trkpt lat="57.955414038151503" lon="-4.171350002288818">
        <ele>97.709999999999994</ele>
        <time>2023-08-19T11:59:34Z</time>
      </trkpt>
      <trkpt lat="57.95547497458756" lon="-4.1711800172925">
        <ele>97.709999999999994</ele>
        <time>2023-08-19T11:59:35Z</time>
      </trkpt>
      <trkpt lat="57.95551797375083" lon="-4.17098798789084">
        <ele>97.230000000000004</ele>
        <time>2023-08-19T11:59:36Z</time>
      </trkpt>
      <trkpt lat="57.955549992620945" lon="-4.170787995681167">
        <ele>97.230000000000004</ele>
        <time>2023-08-19T11:59:37Z</time>
      </trkpt>
      <trkpt lat="57.955662980675697" lon="-4.169714022427797">
        <ele>95.790000000000006</ele>
        <time>2023-08-19T11:59:42Z</time>
      </trkpt>
      <trkpt lat="57.956047961488366" lon="-4.168344000354409">
        <ele>95.310000000000002</ele>
        <time>2023-08-19T11:59:50Z</time>
      </trkpt>
      <trkpt lat="57.956099007278681" lon="-4.1681959759444">
        <ele>95.790000000000006</ele>
        <time>2023-08-19T11:59:51Z</time>
      </trkpt>
      <trkpt lat="57.956127002835274" lon="-4.1680249851197">
        <ele>95.790000000000006</ele>
        <time>2023-08-19T11:59:52Z</time>
      </trkpt>
      <trkpt lat="57.956135971471667" lon="-4.167834967374802">
        <ele>95.790000000000006</ele>
        <time>2023-08-19T11:59:53Z</time>
      </trkpt>
      <trkpt lat="57.95613999478519" lon="-4.167628018185496">
        <ele>95.790000000000006</ele>
        <time>2023-08-19T11:59:54Z</time>
      </trkpt>
      <trkpt lat="57.956132031977177" lon="-4.167396007105708">
        <ele>95.790000000000006</ele>
        <time>2023-08-19T11:59:55Z</time>
      </trkpt>
      <trkpt lat="57.956057013943791" lon="-4.165405975654721">
        <ele>92.900000000000006</ele>
        <time>2023-08-19T12:00:03Z</time>
      </trkpt>
      <trkpt lat="57.956092972308397" lon="-4.164384976029396">
        <ele>91.459999999999994</ele>
        <time>2023-08-19T12:00:08Z</time>
      </trkpt>
      <trkpt lat="57.956100013107061" lon="-4.164182972162962">
        <ele>91.459999999999994</ele>
        <time>2023-08-19T12:00:09Z</time>
      </trkpt>
      <trkpt lat="57.956135971471667" lon="-4.164052968844771">
        <ele>90.980000000000004</ele>
        <time>2023-08-19T12:00:10Z</time>
      </trkpt>
      <trkpt lat="57.956177964806557" lon="-4.16389899328351">
        <ele>90.980000000000004</ele>
        <time>2023-08-19T12:00:11Z</time>
      </trkpt>
      <trkpt lat="57.956229010596871" lon="-4.163710987195373">
        <ele>90.980000000000004</ele>
        <time>2023-08-19T12:00:12Z</time>
      </trkpt>
      <trkpt lat="57.956275027245283" lon="-4.163587018847466">
        <ele>90.5</ele>
        <time>2023-08-19T12:00:13Z</time>
      </trkpt>
      <trkpt lat="57.956328000873327" lon="-4.163447041064501">
        <ele>90.5</ele>
        <time>2023-08-19T12:00:14Z</time>
      </trkpt>
      <trkpt lat="57.956382986158133" lon="-4.163298010826111">
        <ele>90.5</ele>
        <time>2023-08-19T12:00:15Z</time>
      </trkpt>
      <trkpt lat="57.956501003354788" lon="-4.162981007248163">
        <ele>90.019999999999996</ele>
        <time>2023-08-19T12:00:17Z</time>
      </trkpt>
      <trkpt lat="57.956668976694345" lon="-4.162531988695264">
        <ele>90.019999999999996</ele>
        <time>2023-08-19T12:00:20Z</time>
      </trkpt>
      <trkpt lat="57.956707030534744" lon="-4.162366027012467">
        <ele>90.019999999999996</ele>
        <time>2023-08-19T12:00:21Z</time>
      </trkpt>
      <trkpt lat="57.956708958372474" lon="-4.162027984857559">
        <ele>90.019999999999996</ele>
        <time>2023-08-19T12:00:23Z</time>
      </trkpt>
      <trkpt lat="57.956689009442925" lon="-4.161853976547718">
        <ele>90.019999999999996</ele>
        <time>2023-08-19T12:00:24Z</time>
      </trkpt>
      <trkpt lat="57.956667970865965" lon="-4.161673011258245">
        <ele>90.019999999999996</ele>
        <time>2023-08-19T12:00:25Z</time>
      </trkpt>
      <trkpt lat="57.956646010279655" lon="-4.161488022655249">
        <ele>89.540000000000006</ele>
        <time>2023-08-19T12:00:26Z</time>
      </trkpt>
      <trkpt lat="57.956623965874314" lon="-4.16129901073873">
        <ele>89.540000000000006</ele>
        <time>2023-08-19T12:00:27Z</time>
      </trkpt>
      <trkpt lat="57.956581972539425" lon="-4.161108992993832">
        <ele>89.060000000000002</ele>
        <time>2023-08-19T12:00:28Z</time>
      </trkpt>
      <trkpt lat="57.956262035295367" lon="-4.16001096367836">
        <ele>86.659999999999997</ele>
        <time>2023-08-19T12:00:35Z</time>
      </trkpt>
      <trkpt lat="57.956219036132097" lon="-4.159862017259002">
        <ele>86.659999999999997</ele>
        <time>2023-08-19T12:00:36Z</time>
      </trkpt>
      <trkpt lat="57.956178970634937" lon="-4.159724973142147">
        <ele>86.180000000000007</ele>
        <time>2023-08-19T12:00:37Z</time>
      </trkpt>
      <trkpt lat="57.956159021705389" lon="-4.159566974267364">
        <ele>86.180000000000007</ele>
        <time>2023-08-19T12:00:38Z</time>
      </trkpt>
      <trkpt lat="57.956148963421583" lon="-4.159392965957522">
        <ele>85.689999999999998</ele>
        <time>2023-08-19T12:00:39Z</time>
      </trkpt>
      <trkpt lat="57.956138988956809" lon="-4.159205965697765">
        <ele>85.209999999999994</ele>
        <time>2023-08-19T12:00:40Z</time>
      </trkpt>
      <trkpt lat="57.956130020320415" lon="-4.158643959090114">
        <ele>84.25</ele>
        <time>2023-08-19T12:00:43Z</time>
      </trkpt>
      <trkpt lat="57.956135971471667" lon="-4.158469028770924">
        <ele>83.769999999999996</ele>
        <time>2023-08-19T12:00:44Z</time>
      </trkpt>
      <trkpt lat="57.956150975078344" lon="-4.158242968842387">
        <ele>83.290000000000006</ele>
        <time>2023-08-19T12:00:45Z</time>
      </trkpt>
      <trkpt lat="57.956279972568154" lon="-4.157614996656776">
        <ele>82.329999999999998</ele>
        <time>2023-08-19T12:00:49Z</time>
      </trkpt>
      <trkpt lat="57.95633596368134" lon="-4.157337974756956">
        <ele>82.329999999999998</ele>
        <time>2023-08-19T12:00:50Z</time>
      </trkpt>
      <trkpt lat="57.956334035843611" lon="-4.157292963936925">
        <ele>81.849999999999994</ele>
        <time>2023-08-19T12:00:51Z</time>
      </trkpt>
      <trkpt lat="57.956297993659973" lon="-4.156405990943313">
        <ele>80.409999999999997</ele>
        <time>2023-08-19T12:00:55Z</time>
      </trkpt>
      <trkpt lat="57.956279972568154" lon="-4.155964013189077">
        <ele>79.930000000000007</ele>
        <time>2023-08-19T12:00:57Z</time>
      </trkpt>
      <trkpt lat="57.956415005028248" lon="-4.154024021700025">
        <ele>78.969999999999999</ele>
        <time>2023-08-19T12:01:06Z</time>
      </trkpt>
      <trkpt lat="57.956430008634925" lon="-4.153839033097029">
        <ele>78.969999999999999</ele>
        <time>2023-08-19T12:01:07Z</time>
      </trkpt>
      <trkpt lat="57.956443000584841" lon="-4.153656978160143">
        <ele>79.450000000000003</ele>
        <time>2023-08-19T12:01:08Z</time>
      </trkpt>
      <trkpt lat="57.95635499060154" lon="-4.151537027209997">
        <ele>80.890000000000001</ele>
        <time>2023-08-19T12:01:18Z</time>
      </trkpt>
      <trkpt lat="57.956338981166482" lon="-4.151167972013354">
        <ele>81.370000000000005</ele>
        <time>2023-08-19T12:01:20Z</time>
      </trkpt>
      <trkpt lat="57.956362031400204" lon="-4.150993963703513">
        <ele>81.370000000000005</ele>
        <time>2023-08-19T12:01:21Z</time>
      </trkpt>
      <trkpt lat="57.956402013078332" lon="-4.150838982313871">
        <ele>80.890000000000001</ele>
        <time>2023-08-19T12:01:22Z</time>
      </trkpt>
      <trkpt lat="57.956482982262969" lon="-4.150524996221066">
        <ele>80.409999999999997</ele>
        <time>2023-08-19T12:01:24Z</time>
      </trkpt>
      <trkpt lat="57.956513995304704" lon="-4.150351993739605">
        <ele>80.409999999999997</ele>
        <time>2023-08-19T12:01:25Z</time>
      </trkpt>
      <trkpt lat="57.956530004739761" lon="-4.150158036500216">
        <ele>80.409999999999997</ele>
        <time>2023-08-19T12:01:26Z</time>
      </trkpt>
      <trkpt lat="57.95655095949769" lon="-4.149891994893551">
        <ele>80.409999999999997</ele>
        <time>2023-08-19T12:01:27Z</time>
      </trkpt>
      <trkpt lat="57.956542996689677" lon="-4.149701977148652">
        <ele>80.409999999999997</ele>
        <time>2023-08-19T12:01:28Z</time>
      </trkpt>
      <trkpt lat="57.956448029726744" lon="-4.147421009838581">
        <ele>80.409999999999997</ele>
        <time>2023-08-19T12:01:38Z</time>
      </trkpt>
      <trkpt lat="57.956550037488341" lon="-4.145130990073085">
        <ele>81.849999999999994</ele>
        <time>2023-08-19T12:01:48Z</time>
      </trkpt>
      <trkpt lat="57.956608040258288" lon="-4.142552968114615">
        <ele>83.290000000000006</ele>
        <time>2023-08-19T12:01:58Z</time>
      </trkpt>
      <trkpt lat="57.956715999171138" lon="-4.140836019068956">
        <ele>82.810000000000002</ele>
        <time>2023-08-19T12:02:05Z</time>
      </trkpt>
      <trkpt lat="57.956731002777815" lon="-4.140596967190504">
        <ele>82.810000000000002</ele>
        <time>2023-08-19T12:02:06Z</time>
      </trkpt>
      <trkpt lat="57.956746006384492" lon="-4.140360010787845">
        <ele>82.329999999999998</ele>
        <time>2023-08-19T12:02:07Z</time>
      </trkpt>
      <trkpt lat="57.956760004162788" lon="-4.140130011364818">
        <ele>81.849999999999994</ele>
        <time>2023-08-19T12:02:08Z</time>
      </trkpt>
      <trkpt lat="57.956775007769465" lon="-4.139891965314746">
        <ele>81.370000000000005</ele>
        <time>2023-08-19T12:02:09Z</time>
      </trkpt>
      <trkpt lat="57.956790011376143" lon="-4.139647968113422">
        <ele>80.890000000000001</ele>
        <time>2023-08-19T12:02:10Z</time>
      </trkpt>
      <trkpt lat="57.956842985004187" lon="-4.138593021780253">
        <ele>79.450000000000003</ele>
        <time>2023-08-19T12:02:15Z</time>
      </trkpt>
      <trkpt lat="57.956820018589497" lon="-4.138388000428677">
        <ele>79.450000000000003</ele>
        <time>2023-08-19T12:02:16Z</time>
      </trkpt>
      <trkpt lat="57.956795040518045" lon="-4.138165963813663">
        <ele>78.969999999999999</ele>
        <time>2023-08-19T12:02:17Z</time>
      </trkpt>
      <trkpt lat="57.956685991957784" lon="-4.136833995580673">
        <ele>78</ele>
        <time>2023-08-19T12:02:23Z</time>
      </trkpt>
      <trkpt lat="57.956690015271306" lon="-4.13661397062242">
        <ele>78</ele>
        <time>2023-08-19T12:02:24Z</time>
      </trkpt>
      <trkpt lat="57.956706024706364" lon="-4.134221021085978">
        <ele>76.560000000000002</ele>
        <time>2023-08-19T12:02:34Z</time>
      </trkpt>
      <trkpt lat="57.956614997237921" lon="-4.131431020796299">
        <ele>71.269999999999996</ele>
        <time>2023-08-19T12:02:46Z</time>
      </trkpt>
      <trkpt lat="57.956596976146102" lon="-4.13104897364974">
        <ele>69.829999999999998</ele>
        <time>2023-08-19T12:02:48Z</time>
      </trkpt>
      <trkpt lat="57.956611979752779" lon="-4.130893992260099">
        <ele>69.349999999999994</ele>
        <time>2023-08-19T12:02:49Z</time>
      </trkpt>
      <trkpt lat="57.956651961430907" lon="-4.130733981728554">
        <ele>68.390000000000001</ele>
        <time>2023-08-19T12:02:50Z</time>
      </trkpt>
      <trkpt lat="57.956694038584828" lon="-4.130566008388996">
        <ele>67.909999999999997</ele>
        <time>2023-08-19T12:02:51Z</time>
      </trkpt>
      <trkpt lat="57.956737959757447" lon="-4.130390994250774">
        <ele>67.430000000000007</ele>
        <time>2023-08-19T12:02:52Z</time>
      </trkpt>
      <trkpt lat="57.956910040229559" lon="-4.129702001810074">
        <ele>65.030000000000001</ele>
        <time>2023-08-19T12:02:56Z</time>
      </trkpt>
      <trkpt lat="57.957239029929042" lon="-4.127626977860928">
        <ele>61.18</ele>
        <time>2023-08-19T12:03:07Z</time>
      </trkpt>
      <trkpt lat="57.9572550393641" lon="-4.126804964616895">
        <ele>59.259999999999998</ele>
        <time>2023-08-19T12:03:11Z</time>
      </trkpt>
      <trkpt lat="57.95725897885859" lon="-4.126588962972164">
        <ele>59.259999999999998</ele>
        <time>2023-08-19T12:03:12Z</time>
      </trkpt>
      <trkpt lat="57.957323016598821" lon="-4.126243963837624">
        <ele>58.299999999999997</ele>
        <time>2023-08-19T12:03:14Z</time>
      </trkpt>
      <trkpt lat="57.957468023523688" lon="-4.125751024112105">
        <ele>57.82</ele>
        <time>2023-08-19T12:03:17Z</time>
      </trkpt>
      <trkpt lat="57.957530971616507" lon="-4.125592019408941">
        <ele>57.340000000000003</ele>
        <time>2023-08-19T12:03:18Z</time>
      </trkpt>
      <trkpt lat="57.957720989361405" lon="-4.125111987814307">
        <ele>56.369999999999997</ele>
        <time>2023-08-19T12:03:21Z</time>
      </trkpt>
      <trkpt lat="57.957746973261237" lon="-4.124957006424666">
        <ele>55.409999999999997</ele>
        <time>2023-08-19T12:03:22Z</time>
      </trkpt>
      <trkpt lat="57.957962974905968" lon="-4.123232010751963">
        <ele>50.130000000000003</ele>
        <time>2023-08-19T12:03:30Z</time>
      </trkpt>
      <trkpt lat="57.95798703096807" lon="-4.123038975521922">
        <ele>49.649999999999999</ele>
        <time>2023-08-19T12:03:31Z</time>
      </trkpt>
      <trkpt lat="57.957974961027503" lon="-4.12288399413228">
        <ele>48.68</ele>
        <time>2023-08-19T12:03:32Z</time>
      </trkpt>
      <trkpt lat="57.957958029583097" lon="-4.122708979994059">
        <ele>48.200000000000003</ele>
        <time>2023-08-19T12:03:33Z</time>
      </trkpt>
      <trkpt lat="57.957940008491278" lon="-4.12251896224916">
        <ele>47.240000000000002</ele>
        <time>2023-08-19T12:03:34Z</time>
      </trkpt>
      <trkpt lat="57.957919975742698" lon="-4.122311007231474">
        <ele>46.280000000000001</ele>
        <time>2023-08-19T12:03:35Z</time>
      </trkpt>
      <trkpt lat="57.95788099989295" lon="-4.121912028640509">
        <ele>44.840000000000003</ele>
        <time>2023-08-19T12:03:37Z</time>
      </trkpt>
      <trkpt lat="57.95788099989295" lon="-4.121697032824159">
        <ele>44.840000000000003</ele>
        <time>2023-08-19T12:03:38Z</time>
      </trkpt>
      <trkpt lat="57.957878988236189" lon="-4.121018014848232">
        <ele>42.920000000000002</ele>
        <time>2023-08-19T12:03:41Z</time>
      </trkpt>
      <trkpt lat="57.957843029871583" lon="-4.120797989889979">
        <ele>42.439999999999998</ele>
        <time>2023-08-19T12:03:42Z</time>
      </trkpt>
      <trkpt lat="57.957618981599808" lon="-4.119047010317445">
        <ele>35.229999999999997</ele>
        <time>2023-08-19T12:03:50Z</time>
      </trkpt>
      <trkpt lat="57.957555027678609" lon="-4.11843303591013">
        <ele>31.859999999999999</ele>
        <time>2023-08-19T12:03:53Z</time>
      </trkpt>
      <trkpt lat="57.957553016021848" lon="-4.117731973528862">
        <ele>26.57</ele>
        <time>2023-08-19T12:03:57Z</time>
      </trkpt>
      <trkpt lat="57.957872031256557" lon="-4.116150978952646">
        <ele>18.399999999999999</ele>
        <time>2023-08-19T12:04:06Z</time>
      </trkpt>
      <trkpt lat="57.957934979349375" lon="-4.116017958149314">
        <ele>17.440000000000001</ele>
        <time>2023-08-19T12:04:07Z</time>
      </trkpt>
      <trkpt lat="57.957988036796451" lon="-4.1159029584378">
        <ele>16.48</ele>
        <time>2023-08-19T12:04:08Z</time>
      </trkpt>
      <trkpt lat="57.958064982667565" lon="-4.11583699285984">
        <ele>15.039999999999999</ele>
        <time>2023-08-19T12:04:09Z</time>
      </trkpt>
      <trkpt lat="57.958148969337344" lon="-4.115763986483216">
        <ele>14.08</ele>
        <time>2023-08-19T12:04:10Z</time>
      </trkpt>
      <trkpt lat="57.958883978426456" lon="-4.115122016519308">
        <ele>5.91</ele>
        <time>2023-08-19T12:04:18Z</time>
      </trkpt>
      <trkpt lat="57.958977017551661" lon="-4.115040963515639">
        <ele>5.42</ele>
        <time>2023-08-19T12:04:19Z</time>
      </trkpt>
      <trkpt lat="57.959063015878201" lon="-4.114966029301286">
        <ele>4.94</ele>
        <time>2023-08-19T12:04:20Z</time>
      </trkpt>
      <trkpt lat="57.959128981456161" lon="-4.114908026531339">
        <ele>4.46</ele>
        <time>2023-08-19T12:04:21Z</time>
      </trkpt>
      <trkpt lat="57.959190001711249" lon="-4.114819010719657">
        <ele>4.46</ele>
        <time>2023-08-19T12:04:22Z</time>
      </trkpt>
      <trkpt lat="57.959229983389378" lon="-4.114712979644537">
        <ele>4.46</ele>
        <time>2023-08-19T12:04:23Z</time>
      </trkpt>
      <trkpt lat="57.959279017522931" lon="-4.114579036831856">
        <ele>4.46</ele>
        <time>2023-08-19T12:04:24Z</time>
      </trkpt>
      <trkpt lat="57.959311036393046" lon="-4.114419026300311">
        <ele>4.46</ele>
        <time>2023-08-19T12:04:25Z</time>
      </trkpt>
      <trkpt lat="57.959628961980343" lon="-4.112560003995895">
        <ele>3.98</ele>
        <time>2023-08-19T12:04:34Z</time>
      </trkpt>
      <trkpt lat="57.95972996391356" lon="-4.111520983278751">
        <ele>2.54</ele>
        <time>2023-08-19T12:04:39Z</time>
      </trkpt>
      <trkpt lat="57.959782015532255" lon="-4.111374970525503">
        <ele>2.54</ele>
        <time>2023-08-19T12:04:40Z</time>
      </trkpt>
      <trkpt lat="57.959834989160299" lon="-4.111225018277764">
        <ele>2.06</ele>
        <time>2023-08-19T12:04:41Z</time>
      </trkpt>
      <trkpt lat="57.960275961086154" lon="-4.110029004514217">
        <ele>2.06</ele>
        <time>2023-08-19T12:04:49Z</time>
      </trkpt>
      <trkpt lat="57.960327006876469" lon="-4.109894977882505">
        <ele>2.06</ele>
        <time>2023-08-19T12:04:50Z</time>
      </trkpt>
      <trkpt lat="57.960326001048088" lon="-4.109758017584682">
        <ele>2.06</ele>
        <time>2023-08-19T12:04:51Z</time>
      </trkpt>
      <trkpt lat="57.960323989391327" lon="-4.10958400927484">
        <ele>2.54</ele>
        <time>2023-08-19T12:04:52Z</time>
      </trkpt>
      <trkpt lat="57.960321977734566" lon="-4.10939197987318">
        <ele>2.54</ele>
        <time>2023-08-19T12:04:53Z</time>
      </trkpt>
      <trkpt lat="57.960284007713199" lon="-4.106836002320051">
        <ele>4.46</ele>
        <time>2023-08-19T12:05:04Z</time>
      </trkpt>
      <trkpt lat="57.96024695970118" lon="-4.105233969166875">
        <ele>4.94</ele>
        <time>2023-08-19T12:05:11Z</time>
      </trkpt>
      <trkpt lat="57.960242014378309" lon="-4.105024002492428">
        <ele>4.94</ele>
        <time>2023-08-19T12:05:12Z</time>
      </trkpt>
      <trkpt lat="57.960205972194672" lon="-4.104852005839348">
        <ele>5.42</ele>
        <time>2023-08-19T12:05:13Z</time>
      </trkpt>
      <trkpt lat="57.959817973896861" lon="-4.102951996028423">
        <ele>3.98</ele>
        <time>2023-08-19T12:05:21Z</time>
      </trkpt>
      <trkpt lat="57.959302989766002" lon="-4.100501965731382">
        <ele>0.14</ele>
        <time>2023-08-19T12:05:30Z</time>
      </trkpt>
      <trkpt lat="57.959241969510913" lon="-4.100250005722046">
        <ele>0.14</ele>
        <time>2023-08-19T12:05:31Z</time>
      </trkpt>
      <trkpt lat="57.959067039191723" lon="-4.099520025774837">
        <ele>-0.34</ele>
        <time>2023-08-19T12:05:34Z</time>
      </trkpt>
      <trkpt lat="57.958477037027478" lon="-4.097061026841402">
        <ele>-2.75</ele>
        <time>2023-08-19T12:05:44Z</time>
      </trkpt>
      <trkpt lat="57.957762982696295" lon="-4.094087965786457">
        <ele>-3.23</ele>
        <time>2023-08-19T12:05:56Z</time>
      </trkpt>
      <trkpt lat="57.957575982436538" lon="-4.093477008864284">
        <ele>-3.23</ele>
        <time>2023-08-19T12:05:59Z</time>
      </trkpt>
      <trkpt lat="57.957510016858578" lon="-4.093286991119385">
        <ele>-2.75</ele>
        <time>2023-08-19T12:06:00Z</time>
      </trkpt>
      <trkpt lat="57.957428963854909" lon="-4.093129998072982">
        <ele>-2.75</ele>
        <time>2023-08-19T12:06:01Z</time>
      </trkpt>
      <trkpt lat="57.957329973578453" lon="-4.093019021674991">
        <ele>-2.27</ele>
        <time>2023-08-19T12:06:02Z</time>
      </trkpt>
      <trkpt lat="57.957222014665604" lon="-4.092897986993194">
        <ele>-2.27</ele>
        <time>2023-08-19T12:06:03Z</time>
      </trkpt>
      <trkpt lat="57.957108020782471" lon="-4.092769995331764">
        <ele>-2.27</ele>
        <time>2023-08-19T12:06:04Z</time>
      </trkpt>
      <trkpt lat="57.956991009414196" lon="-4.092639992013574">
        <ele>-2.27</ele>
        <time>2023-08-19T12:06:05Z</time>
      </trkpt>
      <trkpt lat="57.955975038930774" lon="-4.091319004073739">
        <ele>-2.27</ele>
        <time>2023-08-19T12:06:14Z</time>
      </trkpt>
      <trkpt lat="57.955200970172882" lon="-4.089931966736913">
        <ele>-1.79</ele>
        <time>2023-08-19T12:06:23Z</time>
      </trkpt>
      <trkpt lat="57.95472102239728" lon="-4.088960001245141">
        <ele>-0.82</ele>
        <time>2023-08-19T12:06:29Z</time>
      </trkpt>
      <trkpt lat="57.954638041555882" lon="-4.088789010420442">
        <ele>-0.82</ele>
        <time>2023-08-19T12:06:30Z</time>
      </trkpt>
      <trkpt lat="57.95455296523869" lon="-4.08861399628222">
        <ele>-0.82</ele>
        <time>2023-08-19T12:06:31Z</time>
      </trkpt>
      <trkpt lat="57.953802030533552" lon="-4.087067032232881">
        <ele>0.62</ele>
        <time>2023-08-19T12:06:40Z</time>
      </trkpt>
      <trkpt lat="57.953726006671786" lon="-4.086910039186478">
        <ele>0.62</ele>
        <time>2023-08-19T12:06:41Z</time>
      </trkpt>
      <trkpt lat="57.952935006469488" lon="-4.08515696413815">
        <ele>1.58</ele>
        <time>2023-08-19T12:06:51Z</time>
      </trkpt>
      <trkpt lat="57.952127996832132" lon="-4.083366002887487">
        <ele>2.06</ele>
        <time>2023-08-19T12:07:02Z</time>
      </trkpt>
      <trkpt lat="57.951851980760694" lon="-4.082751022651792">
        <ele>2.54</ele>
        <time>2023-08-19T12:07:06Z</time>
      </trkpt>
      <trkpt lat="57.951774029061198" lon="-4.082625964656472">
        <ele>3.02</ele>
        <time>2023-08-19T12:07:07Z</time>
      </trkpt>
      <trkpt lat="57.951706973835826" lon="-4.082518005743623">
        <ele>3.5</ele>
        <time>2023-08-19T12:07:08Z</time>
      </trkpt>
      <trkpt lat="57.951647965237498" lon="-4.082422032952309">
        <ele>3.98</ele>
        <time>2023-08-19T12:07:09Z</time>
      </trkpt>
      <trkpt lat="57.951573031023145" lon="-4.082300998270512">
        <ele>4.94</ele>
        <time>2023-08-19T12:07:10Z</time>
      </trkpt>
      <trkpt lat="57.951549980789423" lon="-4.08229798078537">
        <ele>5.42</ele>
        <time>2023-08-19T12:07:11Z</time>
      </trkpt>
      <trkpt lat="57.951492983847857" lon="-4.082290017977357">
        <ele>5.42</ele>
        <time>2023-08-19T12:07:12Z</time>
      </trkpt>
      <trkpt lat="57.951454007998109" lon="-4.082283983007073">
        <ele>6.39</ele>
        <time>2023-08-19T12:07:18Z</time>
      </trkpt>
      <trkpt lat="57.951420983299613" lon="-4.082279037684202">
        <ele>6.39</ele>
        <time>2023-08-19T12:07:27Z</time>
      </trkpt>
      <trkpt lat="57.951365998014808" lon="-4.082070998847485">
        <ele>5.91</ele>
        <time>2023-08-19T12:07:29Z</time>
      </trkpt>
      <trkpt lat="57.951390976086259" lon="-4.082019031047821">
        <ele>5.91</ele>
        <time>2023-08-19T12:07:30Z</time>
      </trkpt>
      <trkpt lat="57.951441016048193" lon="-4.081920040771365">
        <ele>5.91</ele>
        <time>2023-08-19T12:07:31Z</time>
      </trkpt>
      <trkpt lat="57.951502958312631" lon="-4.081787019968033">
        <ele>5.91</ele>
        <time>2023-08-19T12:07:32Z</time>
      </trkpt>
      <trkpt lat="57.951574958860874" lon="-4.081633966416121">
        <ele>5.42</ele>
        <time>2023-08-19T12:07:33Z</time>
      </trkpt>
      <trkpt lat="57.951656011864543" lon="-4.081461969763041">
        <ele>5.42</ele>
        <time>2023-08-19T12:07:34Z</time>
      </trkpt>
      <trkpt lat="57.951747039332986" lon="-4.081271030008793">
        <ele>4.94</ele>
        <time>2023-08-19T12:07:35Z</time>
      </trkpt>
      <trkpt lat="57.952628983184695" lon="-4.079291978850961">
        <ele>2.06</ele>
        <time>2023-08-19T12:07:43Z</time>
      </trkpt>
      <trkpt lat="57.954222969710827" lon="-4.075647024437785">
        <ele>1.58</ele>
        <time>2023-08-19T12:07:55Z</time>
      </trkpt>
      <trkpt lat="57.955524008721113" lon="-4.072159985080361">
        <ele>3.5</ele>
        <time>2023-08-19T12:08:06Z</time>
      </trkpt>
      <trkpt lat="57.956944992765784" lon="-4.068090990185738">
        <ele>17.440000000000001</ele>
        <time>2023-08-19T12:08:20Z</time>
      </trkpt>
      <trkpt lat="57.958328006789088" lon="-4.063952006399632">
        <ele>29.460000000000001</ele>
        <time>2023-08-19T12:08:33Z</time>
      </trkpt>
      <trkpt lat="57.959044994786382" lon="-4.061269965022802">
        <ele>28.02</ele>
        <time>2023-08-19T12:08:41Z</time>
      </trkpt>
      <trkpt lat="57.959743961691856" lon="-4.058251976966858">
        <ele>22.73</ele>
        <time>2023-08-19T12:08:50Z</time>
      </trkpt>
      <trkpt lat="57.960755992680788" lon="-4.053926998749375">
        <ele>15.52</ele>
        <time>2023-08-19T12:09:03Z</time>
      </trkpt>
      <trkpt lat="57.961178021505475" lon="-4.051919030025601">
        <ele>12.630000000000001</ele>
        <time>2023-08-19T12:09:09Z</time>
      </trkpt>
      <trkpt lat="57.961224038153887" lon="-4.051569001749158">
        <ele>12.15</ele>
        <time>2023-08-19T12:09:10Z</time>
      </trkpt>
      <trkpt lat="57.961225965991616" lon="-4.05118603259325">
        <ele>11.67</ele>
        <time>2023-08-19T12:09:11Z</time>
      </trkpt>
      <trkpt lat="57.961196964606643" lon="-4.047525990754366">
        <ele>10.23</ele>
        <time>2023-08-19T12:09:21Z</time>
      </trkpt>
      <trkpt lat="57.96114700846374" lon="-4.043555986136198">
        <ele>5.91</ele>
        <time>2023-08-19T12:09:32Z</time>
      </trkpt>
      <trkpt lat="57.961165029555559" lon="-4.038526006042957">
        <ele>4.94</ele>
        <time>2023-08-19T12:09:46Z</time>
      </trkpt>
      <trkpt lat="57.961242981255054" lon="-4.033765001222491">
        <ele>7.35</ele>
        <time>2023-08-19T12:09:59Z</time>
      </trkpt>
      <trkpt lat="57.961444985121489" lon="-4.030493963509798">
        <ele>10.23</ele>
        <time>2023-08-19T12:10:08Z</time>
      </trkpt>
      <trkpt lat="57.961840024217963" lon="-4.027597010135651">
        <ele>13.119999999999999</ele>
        <time>2023-08-19T12:10:16Z</time>
      </trkpt>
      <trkpt lat="57.962486017495394" lon="-4.025069028139114">
        <ele>12.15</ele>
        <time>2023-08-19T12:10:24Z</time>
      </trkpt>
      <trkpt lat="57.963515985757113" lon="-4.021629011258483">
        <ele>12.15</ele>
        <time>2023-08-19T12:10:35Z</time>
      </trkpt>
      <trkpt lat="57.964572021737695" lon="-4.018226964399219">
        <ele>12.630000000000001</ele>
        <time>2023-08-19T12:10:46Z</time>
      </trkpt>
      <trkpt lat="57.965183984488249" lon="-4.015594040974975">
        <ele>13.6</ele>
        <time>2023-08-19T12:10:54Z</time>
      </trkpt>
      <trkpt lat="57.965777004137635" lon="-4.012678982689977">
        <ele>12.630000000000001</ele>
        <time>2023-08-19T12:11:02Z</time>
      </trkpt>
      <trkpt lat="57.966371029615402" lon="-4.009514981880784">
        <ele>12.15</ele>
        <time>2023-08-19T12:11:11Z</time>
      </trkpt>
      <trkpt lat="57.967188013717532" lon="-4.005204001441598">
        <ele>14.08</ele>
        <time>2023-08-19T12:11:24Z</time>
      </trkpt>
      <trkpt lat="57.968038022518158" lon="-4.002324985340238">
        <ele>14.56</ele>
        <time>2023-08-19T12:11:34Z</time>
      </trkpt>
      <trkpt lat="57.969004958868027" lon="-3.998737027868629">
        <ele>17.440000000000001</ele>
        <time>2023-08-19T12:11:46Z</time>
      </trkpt>
      <trkpt lat="57.969301007688046" lon="-3.99756096303463">
        <ele>17.440000000000001</ele>
        <time>2023-08-19T12:11:51Z</time>
      </trkpt>
      <trkpt lat="57.969422964379191" lon="-3.997574038803577">
        <ele>17.920000000000002</ele>
        <time>2023-08-19T12:11:52Z</time>
      </trkpt>
      <trkpt lat="57.9694829788059" lon="-3.997488040477037">
        <ele>17.920000000000002</ele>
        <time>2023-08-19T12:11:53Z</time>
      </trkpt>
      <trkpt lat="57.969541987404227" lon="-3.997402964159846">
        <ele>17.920000000000002</ele>
        <time>2023-08-19T12:11:54Z</time>
      </trkpt>
      <trkpt lat="57.969704009592533" lon="-3.997328029945493">
        <ele>17.920000000000002</ele>
        <time>2023-08-19T12:11:55Z</time>
      </trkpt>
      <trkpt lat="57.96971800737083" lon="-3.997316965833306">
        <ele>17.920000000000002</ele>
        <time>2023-08-19T12:11:56Z</time>
      </trkpt>
      <trkpt lat="57.969812974333763" lon="-3.997232979163528">
        <ele>18.399999999999999</ele>
        <time>2023-08-19T12:11:57Z</time>
      </trkpt>
      <trkpt lat="57.969915987923741" lon="-3.997098030522466">
        <ele>18.399999999999999</ele>
        <time>2023-08-19T12:11:58Z</time>
      </trkpt>
      <trkpt lat="57.969997962936759" lon="-3.996932990849018">
        <ele>19.359999999999999</ele>
        <time>2023-08-19T12:11:59Z</time>
      </trkpt>
      <trkpt lat="57.970080021768808" lon="-3.996769962832332">
        <ele>19.84</ele>
        <time>2023-08-19T12:12:00Z</time>
      </trkpt>
      <trkpt lat="57.970686033368111" lon="-3.995587024837732">
        <ele>27.530000000000001</ele>
        <time>2023-08-19T12:12:08Z</time>
      </trkpt>
      <trkpt lat="57.970759961754084" lon="-3.99547697044909">
        <ele>28.02</ele>
        <time>2023-08-19T12:12:09Z</time>
      </trkpt>
      <trkpt lat="57.970828022807837" lon="-3.995374962687492">
        <ele>28.98</ele>
        <time>2023-08-19T12:12:10Z</time>
      </trkpt>
      <trkpt lat="57.970912009477615" lon="-3.99528200738132">
        <ele>29.460000000000001</ele>
        <time>2023-08-19T12:12:11Z</time>
      </trkpt>
      <trkpt lat="57.970950985327363" lon="-3.995271027088165">
        <ele>29.940000000000001</ele>
        <time>2023-08-19T12:12:12Z</time>
      </trkpt>
      <trkpt lat="57.970978980883956" lon="-3.995262980461121">
        <ele>30.420000000000002</ele>
        <time>2023-08-19T12:12:13Z</time>
      </trkpt>
      <trkpt lat="57.970999013632536" lon="-3.995257029309869">
        <ele>30.899999999999999</ele>
        <time>2023-08-19T12:12:14Z</time>
      </trkpt>
      <trkpt lat="57.971034971997142" lon="-3.995246971026063">
        <ele>30.899999999999999</ele>
        <time>2023-08-19T12:12:26Z</time>
      </trkpt>
      <trkpt lat="57.971034971997142" lon="-3.995246971026063">
        <ele>30.899999999999999</ele>
        <time>2023-08-19T12:13:16Z</time>
      </trkpt>
      <trkpt lat="57.971034971997142" lon="-3.995246971026063">
        <ele>30.899999999999999</ele>
        <time>2023-08-19T12:14:05Z</time>
      </trkpt>
      <trkpt lat="57.971049975603819" lon="-3.995244037359953">
        <ele>28.98</ele>
        <time>2023-08-19T12:14:30Z</time>
      </trkpt>
      <trkpt lat="57.971055004745722" lon="-3.995243031531572">
        <ele>28.5</ele>
        <time>2023-08-19T12:14:31Z</time>
      </trkpt>
      <trkpt lat="57.971228007227182" lon="-3.995203971862793">
        <ele>28.5</ele>
        <time>2023-08-19T12:14:32Z</time>
      </trkpt>
      <trkpt lat="57.971034971997142" lon="-3.995246971026063">
        <ele>28.98</ele>
        <time>2023-08-19T12:14:33Z</time>
      </trkpt>
      <trkpt lat="57.970973029732704" lon="-3.995263986289501">
        <ele>28.98</ele>
        <time>2023-08-19T12:14:34Z</time>
      </trkpt>
      <trkpt lat="57.970901029184461" lon="-3.995285024866462">
        <ele>28.98</ele>
        <time>2023-08-19T12:14:35Z</time>
      </trkpt>
      <trkpt lat="57.970830034464598" lon="-3.995371023193002">
        <ele>28.98</ele>
        <time>2023-08-19T12:14:36Z</time>
      </trkpt>
      <trkpt lat="57.97074998728931" lon="-3.995490968227387">
        <ele>28.98</ele>
        <time>2023-08-19T12:14:37Z</time>
      </trkpt>
      <trkpt lat="57.970658037811518" lon="-3.995629018172622">
        <ele>28.5</ele>
        <time>2023-08-19T12:14:38Z</time>
      </trkpt>
      <trkpt lat="57.970572039484978" lon="-3.995785005390644">
        <ele>28.5</ele>
        <time>2023-08-19T12:14:39Z</time>
      </trkpt>
      <trkpt lat="57.970479000359774" lon="-3.995972005650401">
        <ele>28.02</ele>
        <time>2023-08-19T12:14:40Z</time>
      </trkpt>
      <trkpt lat="57.96982797794044" lon="-3.997219987213612">
        <ele>24.649999999999999</ele>
        <time>2023-08-19T12:14:47Z</time>
      </trkpt>
      <trkpt lat="57.96976201236248" lon="-3.997277989983559">
        <ele>24.170000000000002</ele>
        <time>2023-08-19T12:14:48Z</time>
      </trkpt>
      <trkpt lat="57.969681965187192" lon="-3.997305985540152">
        <ele>23.690000000000001</ele>
        <time>2023-08-19T12:14:49Z</time>
      </trkpt>
      <trkpt lat="57.969634020701051" lon="-3.99725703522563">
        <ele>22.73</ele>
        <time>2023-08-19T12:14:50Z</time>
      </trkpt>
      <trkpt lat="57.969592027366161" lon="-3.997211018577218">
        <ele>22.25</ele>
        <time>2023-08-19T12:14:51Z</time>
      </trkpt>
      <trkpt lat="57.969566965475678" lon="-3.997183023020625">
        <ele>21.289999999999999</ele>
        <time>2023-08-19T12:14:52Z</time>
      </trkpt>
      <trkpt lat="57.969550034031272" lon="-3.997163996100426">
        <ele>20.809999999999999</ele>
        <time>2023-08-19T12:14:53Z</time>
      </trkpt>
      <trkpt lat="57.969550034031272" lon="-3.997163996100426">
        <ele>19.84</ele>
        <time>2023-08-19T12:14:54Z</time>
      </trkpt>
      <trkpt lat="57.969481972977519" lon="-3.996927039697766">
        <ele>19.359999999999999</ele>
        <time>2023-08-19T12:14:59Z</time>
      </trkpt>
      <trkpt lat="57.969497982412577" lon="-3.99687297642231">
        <ele>18.879999999999999</ele>
        <time>2023-08-19T12:15:00Z</time>
      </trkpt>
      <trkpt lat="57.969524972140789" lon="-3.996778009459376">
        <ele>18.399999999999999</ele>
        <time>2023-08-19T12:15:01Z</time>
      </trkpt>
      <trkpt lat="57.969565037637949" lon="-3.996640965342522">
        <ele>17.920000000000002</ele>
        <time>2023-08-19T12:15:02Z</time>
      </trkpt>
      <trkpt lat="57.969613987952471" lon="-3.996470980346203">
        <ele>17.440000000000001</ele>
        <time>2023-08-19T12:15:03Z</time>
      </trkpt>
      <trkpt lat="57.970087984576821" lon="-3.994789989665151">
        <ele>14.56</ele>
        <time>2023-08-19T12:15:10Z</time>
      </trkpt>
      <trkpt lat="57.970660971477628" lon="-3.992261001840234">
        <ele>12.15</ele>
        <time>2023-08-19T12:15:20Z</time>
      </trkpt>
      <trkpt lat="57.97126698307693" lon="-3.989520035684109">
        <ele>11.19</ele>
        <time>2023-08-19T12:15:33Z</time>
      </trkpt>
      <trkpt lat="57.971723964437842" lon="-3.987422967329621">
        <ele>11.67</ele>
        <time>2023-08-19T12:15:43Z</time>
      </trkpt>
      <trkpt lat="57.972214976325631" lon="-3.98524803109467">
        <ele>9.27</ele>
        <time>2023-08-19T12:15:54Z</time>
      </trkpt>
      <trkpt lat="57.972537009045482" lon="-3.983810031786561">
        <ele>7.35</ele>
        <time>2023-08-19T12:16:03Z</time>
      </trkpt>
      <trkpt lat="57.972601968795061" lon="-3.983711963519454">
        <ele>7.35</ele>
        <time>2023-08-19T12:16:04Z</time>
      </trkpt>
      <trkpt lat="57.972659971565008" lon="-3.983624959364533">
        <ele>6.87</ele>
        <time>2023-08-19T12:16:05Z</time>
      </trkpt>
      <trkpt lat="57.973275035619736" lon="-3.982698004692793">
        <ele>4.46</ele>
        <time>2023-08-19T12:16:15Z</time>
      </trkpt>
      <trkpt lat="57.973456000909209" lon="-3.982425006106496">
        <ele>3.98</ele>
        <time>2023-08-19T12:16:18Z</time>
      </trkpt>
      <trkpt lat="57.973511992022395" lon="-3.982341019436717">
        <ele>4.46</ele>
        <time>2023-08-19T12:16:19Z</time>
      </trkpt>
      <trkpt lat="57.973567983135581" lon="-3.982256026938558">
        <ele>4.46</ele>
        <time>2023-08-19T12:16:20Z</time>
      </trkpt>
      <trkpt lat="57.973684994503856" lon="-3.982081012800336">
        <ele>4.94</ele>
        <time>2023-08-19T12:16:22Z</time>
      </trkpt>
      <trkpt lat="57.97393100336194" lon="-3.981711035594344">
        <ele>5.91</ele>
        <time>2023-08-19T12:16:26Z</time>
      </trkpt>
      <trkpt lat="57.974511031061411" lon="-3.980656005442143">
        <ele>6.87</ele>
        <time>2023-08-19T12:16:36Z</time>
      </trkpt>
      <trkpt lat="57.974976981058717" lon="-3.9795340038836">
        <ele>7.35</ele>
        <time>2023-08-19T12:16:46Z</time>
      </trkpt>
      <trkpt lat="57.97511201351881" lon="-3.979183975607157">
        <ele>7.35</ele>
        <time>2023-08-19T12:16:49Z</time>
      </trkpt>
      <trkpt lat="57.975182002410293" lon="-3.978945007547736">
        <ele>7.35</ele>
        <time>2023-08-19T12:16:51Z</time>
      </trkpt>
      <trkpt lat="57.97528300434351" lon="-3.978595985099673">
        <ele>6.87</ele>
        <time>2023-08-19T12:16:54Z</time>
      </trkpt>
      <trkpt lat="57.97560797072947" lon="-3.976940978318453">
        <ele>5.91</ele>
        <time>2023-08-19T12:17:05Z</time>
      </trkpt>
      <trkpt lat="57.975850962102413" lon="-3.975954009220004">
        <ele>5.42</ele>
        <time>2023-08-19T12:17:13Z</time>
      </trkpt>
      <trkpt lat="57.975893039256334" lon="-3.975835992023349">
        <ele>5.91</ele>
        <time>2023-08-19T12:17:14Z</time>
      </trkpt>
      <trkpt lat="57.975933020934463" lon="-3.975723003968597">
        <ele>5.91</ele>
        <time>2023-08-19T12:17:15Z</time>
      </trkpt>
      <trkpt lat="57.975973002612591" lon="-3.975611021742225">
        <ele>6.39</ele>
        <time>2023-08-19T12:17:16Z</time>
      </trkpt>
      <trkpt lat="57.9760139901191" lon="-3.975496022030711">
        <ele>6.87</ele>
        <time>2023-08-19T12:17:17Z</time>
      </trkpt>
      <trkpt lat="57.976054977625608" lon="-3.975381022319198">
        <ele>6.87</ele>
        <time>2023-08-19T12:17:18Z</time>
      </trkpt>
      <trkpt lat="57.976223034784198" lon="-3.974812980741262">
        <ele>7.83</ele>
        <time>2023-08-19T12:17:23Z</time>
      </trkpt>
      <trkpt lat="57.976417997851968" lon="-3.973466008901596">
        <ele>9.27</ele>
        <time>2023-08-19T12:17:32Z</time>
      </trkpt>
      <trkpt lat="57.976430989801884" lon="-3.973356038331986">
        <ele>9.27</ele>
        <time>2023-08-19T12:17:33Z</time>
      </trkpt>
      <trkpt lat="57.976439958438277" lon="-3.973270962014794">
        <ele>9.75</ele>
        <time>2023-08-19T12:17:34Z</time>
      </trkpt>
      <trkpt lat="57.976521011441946" lon="-3.973279008641839">
        <ele>9.75</ele>
        <time>2023-08-19T12:17:35Z</time>
      </trkpt>
      <trkpt lat="57.976574990898371" lon="-3.973297029733658">
        <ele>9.75</ele>
        <time>2023-08-19T12:17:36Z</time>
      </trkpt>
      <trkpt lat="57.976635005325079" lon="-3.973316978663206">
        <ele>10.23</ele>
        <time>2023-08-19T12:17:37Z</time>
      </trkpt>
      <trkpt lat="57.976699965074658" lon="-3.973339023068547">
        <ele>10.23</ele>
        <time>2023-08-19T12:17:38Z</time>
      </trkpt>
      <trkpt lat="57.976760985329747" lon="-3.973369030281901">
        <ele>10.23</ele>
        <time>2023-08-19T12:17:39Z</time>
      </trkpt>
      <trkpt lat="57.977450983598828" lon="-3.973576985299587">
        <ele>9.27</ele>
        <time>2023-08-19T12:17:48Z</time>
      </trkpt>
      <trkpt lat="57.977531030774117" lon="-3.973542032763362">
        <ele>9.27</ele>
        <time>2023-08-19T12:17:49Z</time>
      </trkpt>
      <trkpt lat="57.977614011615515" lon="-3.973505990579724">
        <ele>9.27</ele>
        <time>2023-08-19T12:17:50Z</time>
      </trkpt>
      <trkpt lat="57.977695986628532" lon="-3.973470032215118">
        <ele>9.27</ele>
        <time>2023-08-19T12:17:51Z</time>
      </trkpt>
      <trkpt lat="57.97777502797544" lon="-3.973412029445171">
        <ele>9.27</ele>
        <time>2023-08-19T12:17:52Z</time>
      </trkpt>
      <trkpt lat="57.977846022695303" lon="-3.973313961178064">
        <ele>9.27</ele>
        <time>2023-08-19T12:17:53Z</time>
      </trkpt>
      <trkpt lat="57.977919029071927" lon="-3.973211031407118">
        <ele>9.27</ele>
        <time>2023-08-19T12:17:54Z</time>
      </trkpt>
      <trkpt lat="57.977984994649887" lon="-3.973099971190095">
        <ele>9.27</ele>
        <time>2023-08-19T12:17:55Z</time>
      </trkpt>
      <trkpt lat="57.978038974106312" lon="-3.972969967871904">
        <ele>9.27</ele>
        <time>2023-08-19T12:17:56Z</time>
      </trkpt>
      <trkpt lat="57.978093959391117" lon="-3.972837030887604">
        <ele>9.75</ele>
        <time>2023-08-19T12:17:57Z</time>
      </trkpt>
      <trkpt lat="57.978448010981083" lon="-3.971923990175128">
        <ele>13.119999999999999</ele>
        <time>2023-08-19T12:18:04Z</time>
      </trkpt>
      <trkpt lat="57.978501990437508" lon="-3.971772026270628">
        <ele>14.08</ele>
        <time>2023-08-19T12:18:05Z</time>
      </trkpt>
      <trkpt lat="57.978659989312291" lon="-3.971288977190852">
        <ele>16.48</ele>
        <time>2023-08-19T12:18:09Z</time>
      </trkpt>
      <trkpt lat="57.9787009768188" lon="-3.971162997186184">
        <ele>16.960000000000001</ele>
        <time>2023-08-19T12:18:10Z</time>
      </trkpt>
      <trkpt lat="57.978744981810451" lon="-3.971029976382852">
        <ele>17.440000000000001</ele>
        <time>2023-08-19T12:18:11Z</time>
      </trkpt>
      <trkpt lat="57.978874985128641" lon="-3.970630997791886">
        <ele>19.359999999999999</ele>
        <time>2023-08-19T12:18:14Z</time>
      </trkpt>
      <trkpt lat="57.978883031755686" lon="-3.9704679697752">
        <ele>19.84</ele>
        <time>2023-08-19T12:18:15Z</time>
      </trkpt>
      <trkpt lat="57.978875990957022" lon="-3.970315000042319">
        <ele>20.32</ele>
        <time>2023-08-19T12:18:16Z</time>
      </trkpt>
      <trkpt lat="57.97887003980577" lon="-3.970161024481058">
        <ele>20.809999999999999</ele>
        <time>2023-08-19T12:18:17Z</time>
      </trkpt>
      <trkpt lat="57.978862999007106" lon="-3.970005037263036">
        <ele>21.289999999999999</ele>
        <time>2023-08-19T12:18:18Z</time>
      </trkpt>
      <trkpt lat="57.978855958208442" lon="-3.969849972054362">
        <ele>21.77</ele>
        <time>2023-08-19T12:18:19Z</time>
      </trkpt>
      <trkpt lat="57.978844977915287" lon="-3.969604969024658">
        <ele>22.25</ele>
        <time>2023-08-19T12:18:21Z</time>
      </trkpt>
      <trkpt lat="57.97878404147923" lon="-3.969445964321494">
        <ele>22.25</ele>
        <time>2023-08-19T12:18:22Z</time>
      </trkpt>
      <trkpt lat="57.97874397598207" lon="-3.969140024855733">
        <ele>22.73</ele>
        <time>2023-08-19T12:18:24Z</time>
      </trkpt>
      <trkpt lat="57.978749005123973" lon="-3.96898596547544">
        <ele>22.73</ele>
        <time>2023-08-19T12:18:25Z</time>
      </trkpt>
      <trkpt lat="57.978754034265876" lon="-3.968829978257418">
        <ele>22.73</ele>
        <time>2023-08-19T12:18:26Z</time>
      </trkpt>
      <trkpt lat="57.978758979588747" lon="-3.968679020181298">
        <ele>23.210000000000001</ele>
        <time>2023-08-19T12:18:27Z</time>
      </trkpt>
      <trkpt lat="57.978779012337327" lon="-3.968582041561604">
        <ele>23.210000000000001</ele>
        <time>2023-08-19T12:18:28Z</time>
      </trkpt>
      <trkpt lat="57.978801978752017" lon="-3.968492019921541">
        <ele>23.210000000000001</ele>
        <time>2023-08-19T12:18:29Z</time>
      </trkpt>
      <trkpt lat="57.978824023157358" lon="-3.968400992453098">
        <ele>23.210000000000001</ele>
        <time>2023-08-19T12:18:36Z</time>
      </trkpt>
      <trkpt lat="57.978832991793752" lon="-3.968367967754602">
        <ele>23.210000000000001</ele>
        <time>2023-08-19T12:18:37Z</time>
      </trkpt>
      <trkpt lat="57.978798961266875" lon="-3.968269983306527">
        <ele>23.210000000000001</ele>
        <time>2023-08-19T12:18:38Z</time>
      </trkpt>
      <trkpt lat="57.978765014559031" lon="-3.968234024941921">
        <ele>23.210000000000001</ele>
        <time>2023-08-19T12:18:39Z</time>
      </trkpt>
      <trkpt lat="57.978714974597096" lon="-3.968181973323226">
        <ele>22.73</ele>
        <time>2023-08-19T12:18:40Z</time>
      </trkpt>
      <trkpt lat="57.978654038161039" lon="-3.968118019402027">
        <ele>22.73</ele>
        <time>2023-08-19T12:18:41Z</time>
      </trkpt>
      <trkpt lat="57.978465026244521" lon="-3.967920960858464">
        <ele>22.25</ele>
        <time>2023-08-19T12:18:44Z</time>
      </trkpt>
      <trkpt lat="57.978406017646194" lon="-3.967859018594027">
        <ele>21.77</ele>
        <time>2023-08-19T12:18:45Z</time>
      </trkpt>
      <trkpt lat="57.978347009047866" lon="-3.967793975025415">
        <ele>21.289999999999999</ele>
        <time>2023-08-19T12:18:46Z</time>
      </trkpt>
      <trkpt lat="57.978350026533008" lon="-3.967658020555973">
        <ele>21.289999999999999</ele>
        <time>2023-08-19T12:18:47Z</time>
      </trkpt>
      <trkpt lat="57.978373998776078" lon="-3.967534974217415">
        <ele>20.809999999999999</ele>
        <time>2023-08-19T12:18:48Z</time>
      </trkpt>
      <trkpt lat="57.978398976847529" lon="-3.967404970899224">
        <ele>20.809999999999999</ele>
        <time>2023-08-19T12:18:49Z</time>
      </trkpt>
      <trkpt lat="57.978425966575742" lon="-3.96726599894464">
        <ele>20.809999999999999</ele>
        <time>2023-08-19T12:18:50Z</time>
      </trkpt>
      <trkpt lat="57.97880700789392" lon="-3.965293988585472">
        <ele>21.289999999999999</ele>
        <time>2023-08-19T12:19:03Z</time>
      </trkpt>
      <trkpt lat="57.978832991793752" lon="-3.964990982785821">
        <ele>21.77</ele>
        <time>2023-08-19T12:19:05Z</time>
      </trkpt>
      <trkpt lat="57.978840032592416" lon="-3.964832983911037">
        <ele>21.289999999999999</ele>
        <time>2023-08-19T12:19:06Z</time>
      </trkpt>
      <trkpt lat="57.978845983743668" lon="-3.964672973379493">
        <ele>21.289999999999999</ele>
        <time>2023-08-19T12:19:07Z</time>
      </trkpt>
      <trkpt lat="57.978866016492248" lon="-3.96421599201858">
        <ele>21.77</ele>
        <time>2023-08-19T12:19:10Z</time>
      </trkpt>
      <trkpt lat="57.978833997622132" lon="-3.964122030884028">
        <ele>21.289999999999999</ele>
        <time>2023-08-19T12:19:11Z</time>
      </trkpt>
      <trkpt lat="57.978789992630482" lon="-3.964022034779191">
        <ele>21.289999999999999</ele>
        <time>2023-08-19T12:19:12Z</time>
      </trkpt>
      <trkpt lat="57.97874397598207" lon="-3.963917009532452">
        <ele>20.809999999999999</ele>
        <time>2023-08-19T12:19:13Z</time>
      </trkpt>
      <trkpt lat="57.978697037324309" lon="-3.963808966800571">
        <ele>20.32</ele>
        <time>2023-08-19T12:19:14Z</time>
      </trkpt>
      <trkpt lat="57.978652026504278" lon="-3.963704025372863">
        <ele>20.32</ele>
        <time>2023-08-19T12:19:15Z</time>
      </trkpt>
      <trkpt lat="57.978548007085919" lon="-3.963466985151172">
        <ele>17.440000000000001</ele>
        <time>2023-08-19T12:19:22Z</time>
      </trkpt>
      <trkpt lat="57.978530991822481" lon="-3.963427003473043">
        <ele>17.440000000000001</ele>
        <time>2023-08-19T12:19:23Z</time>
      </trkpt>
      <trkpt lat="57.978547001257539" lon="-3.963264981284738">
        <ele>16.960000000000001</ele>
        <time>2023-08-19T12:19:24Z</time>
      </trkpt>
      <trkpt lat="57.978580025956035" lon="-3.963194992393255">
        <ele>16.960000000000001</ele>
        <time>2023-08-19T12:19:25Z</time>
      </trkpt>
      <trkpt lat="57.978624030947685" lon="-3.963102037087083">
        <ele>16.48</ele>
        <time>2023-08-19T12:19:26Z</time>
      </trkpt>
      <trkpt lat="57.978673987090588" lon="-3.962996006011963">
        <ele>16.48</ele>
        <time>2023-08-19T12:19:27Z</time>
      </trkpt>
      <trkpt lat="57.978720003738999" lon="-3.962864996865392">
        <ele>16.48</ele>
        <time>2023-08-19T12:19:28Z</time>
      </trkpt>
      <trkpt lat="57.978772977367043" lon="-3.962714038789272">
        <ele>16.48</ele>
        <time>2023-08-19T12:19:29Z</time>
      </trkpt>
      <trkpt lat="57.978828968480229" lon="-3.962541958317161">
        <ele>16.48</ele>
        <time>2023-08-19T12:19:30Z</time>
      </trkpt>
      <trkpt lat="57.979189977049828" lon="-3.960596015676856">
        <ele>21.77</ele>
        <time>2023-08-19T12:19:38Z</time>
      </trkpt>
      <trkpt lat="57.979540005326271" lon="-3.958801031112671">
        <ele>28.5</ele>
        <time>2023-08-19T12:19:45Z</time>
      </trkpt>
      <trkpt lat="57.979606976732612" lon="-3.958569020032883">
        <ele>29.940000000000001</ele>
        <time>2023-08-19T12:19:46Z</time>
      </trkpt>
      <trkpt lat="57.97996798530221" lon="-3.957751030102372">
        <ele>33.780000000000001</ele>
        <time>2023-08-19T12:19:50Z</time>
      </trkpt>
      <trkpt lat="57.980087008327246" lon="-3.957592025399208">
        <ele>34.740000000000002</ele>
        <time>2023-08-19T12:19:51Z</time>
      </trkpt>
      <trkpt lat="57.980220029130578" lon="-3.957457998767495">
        <ele>35.710000000000001</ele>
        <time>2023-08-19T12:19:52Z</time>
      </trkpt>
      <trkpt lat="57.98035598360002" lon="-3.957322966307402">
        <ele>36.670000000000002</ele>
        <time>2023-08-19T12:19:53Z</time>
      </trkpt>
      <trkpt lat="57.980494033545256" lon="-3.957183994352818">
        <ele>37.149999999999999</ele>
        <time>2023-08-19T12:19:54Z</time>
      </trkpt>
      <trkpt lat="57.980643985792994" lon="-3.957082992419601">
        <ele>38.109999999999999</ele>
        <time>2023-08-19T12:19:55Z</time>
      </trkpt>
      <trkpt lat="57.980796033516526" lon="-3.956981990486383">
        <ele>39.07</ele>
        <time>2023-08-19T12:19:56Z</time>
      </trkpt>
      <trkpt lat="57.980963001027703" lon="-3.956916024908423">
        <ele>39.549999999999997</ele>
        <time>2023-08-19T12:19:57Z</time>
      </trkpt>
      <trkpt lat="57.982274014502764" lon="-3.956821979954839">
        <ele>45.32</ele>
        <time>2023-08-19T12:20:05Z</time>
      </trkpt>
      <trkpt lat="57.982597975060344" lon="-3.95667496137321">
        <ele>46.280000000000001</ele>
        <time>2023-08-19T12:20:07Z</time>
      </trkpt>
      <trkpt lat="57.982751028612256" lon="-3.956573037430644">
        <ele>47.240000000000002</ele>
        <time>2023-08-19T12:20:08Z</time>
      </trkpt>
      <trkpt lat="57.982887988910079" lon="-3.956415960565209">
        <ele>47.719999999999999</ele>
        <time>2023-08-19T12:20:09Z</time>
      </trkpt>
      <trkpt lat="57.983026960864663" lon="-3.95624496974051">
        <ele>48.200000000000003</ele>
        <time>2023-08-19T12:20:10Z</time>
      </trkpt>
      <trkpt lat="57.983139026910067" lon="-3.956033997237682">
        <ele>48.68</ele>
        <time>2023-08-19T12:20:11Z</time>
      </trkpt>
      <trkpt lat="57.98325402662158" lon="-3.955798968672752">
        <ele>49.159999999999997</ele>
        <time>2023-08-19T12:20:12Z</time>
      </trkpt>
      <trkpt lat="57.984152985736728" lon="-3.953870963305235">
        <ele>49.159999999999997</ele>
        <time>2023-08-19T12:20:20Z</time>
      </trkpt>
      <trkpt lat="57.984576020389795" lon="-3.952622981742024">
        <ele>50.130000000000003</ele>
        <time>2023-08-19T12:20:25Z</time>
      </trkpt>
      <trkpt lat="57.984626982361078" lon="-3.952368004247546">
        <ele>50.130000000000003</ele>
        <time>2023-08-19T12:20:26Z</time>
      </trkpt>
      <trkpt lat="57.984679033979774" lon="-3.952107997611165">
        <ele>50.130000000000003</ele>
        <time>2023-08-19T12:20:27Z</time>
      </trkpt>
      <trkpt lat="57.985246991738677" lon="-3.949052961543202">
        <ele>52.049999999999997</ele>
        <time>2023-08-19T12:20:39Z</time>
      </trkpt>
      <trkpt lat="57.98546701669693" lon="-3.947878992184997">
        <ele>53.969999999999999</ele>
        <time>2023-08-19T12:20:46Z</time>
      </trkpt>
      <trkpt lat="57.985485037788749" lon="-3.947795005515218">
        <ele>53.969999999999999</ele>
        <time>2023-08-19T12:20:47Z</time>
      </trkpt>
      <trkpt lat="57.985499035567045" lon="-3.947726022452116">
        <ele>53.969999999999999</ele>
        <time>2023-08-19T12:20:48Z</time>
      </trkpt>
      <trkpt lat="57.985443966463208" lon="-3.947593001648784">
        <ele>54.450000000000003</ele>
        <time>2023-08-19T12:20:49Z</time>
      </trkpt>
      <trkpt lat="57.985410019755363" lon="-3.947574980556965">
        <ele>54.450000000000003</ele>
        <time>2023-08-19T12:20:50Z</time>
      </trkpt>
      <trkpt lat="57.985370038077235" lon="-3.947553019970655">
        <ele>54.450000000000003</ele>
        <time>2023-08-19T12:20:51Z</time>
      </trkpt>
      <trkpt lat="57.985315974801779" lon="-3.947525024414063">
        <ele>54.93</ele>
        <time>2023-08-19T12:20:52Z</time>
      </trkpt>
      <trkpt lat="57.985250009223819" lon="-3.947489988058806">
        <ele>54.93</ele>
        <time>2023-08-19T12:20:53Z</time>
      </trkpt>
      <trkpt lat="57.985179014503956" lon="-3.947452018037438">
        <ele>54.93</ele>
        <time>2023-08-19T12:20:54Z</time>
      </trkpt>
      <trkpt lat="57.984332023188472" lon="-3.947002999484539">
        <ele>53.969999999999999</ele>
        <time>2023-08-19T12:21:03Z</time>
      </trkpt>
      <trkpt lat="57.983556026592851" lon="-3.946591028943658">
        <ele>51.57</ele>
        <time>2023-08-19T12:21:11Z</time>
      </trkpt>
      <trkpt lat="57.983476985245943" lon="-3.946549035608769">
        <ele>51.57</ele>
        <time>2023-08-19T12:21:12Z</time>
      </trkpt>
      <trkpt lat="57.983098039403558" lon="-3.946348037570715">
        <ele>51.57</ele>
        <time>2023-08-19T12:21:17Z</time>
      </trkpt>
      <trkpt lat="57.983030984178185" lon="-3.946311995387077">
        <ele>51.57</ele>
        <time>2023-08-19T12:21:18Z</time>
      </trkpt>
      <trkpt lat="57.982970969751477" lon="-3.946279976516962">
        <ele>51.57</ele>
        <time>2023-08-19T12:21:19Z</time>
      </trkpt>
      <trkpt lat="57.982825040817261" lon="-3.946203030645847">
        <ele>51.57</ele>
        <time>2023-08-19T12:21:22Z</time>
      </trkpt>
      <trkpt lat="57.982784975320101" lon="-3.946181992068887">
        <ele>51.57</ele>
        <time>2023-08-19T12:21:23Z</time>
      </trkpt>
      <trkpt lat="57.982728984206915" lon="-3.946151984855533">
        <ele>51.57</ele>
        <time>2023-08-19T12:21:24Z</time>
      </trkpt>
      <trkpt lat="57.98271800391376" lon="-3.946143016219139">
        <ele>51.57</ele>
        <time>2023-08-19T12:21:25Z</time>
      </trkpt>
      <trkpt lat="57.982689002528787" lon="-3.946118960157037">
        <ele>51.57</ele>
        <time>2023-08-19T12:21:26Z</time>
      </trkpt>
      <trkpt lat="57.982658995315433" lon="-3.946093982085586">
        <ele>51.57</ele>
        <time>2023-08-19T12:21:27Z</time>
      </trkpt>
      <trkpt lat="57.982531003654003" lon="-3.945987029001117">
        <ele>51.090000000000003</ele>
        <time>2023-08-19T12:21:32Z</time>
      </trkpt>
      <trkpt lat="57.982519017532468" lon="-3.945976970717311">
        <ele>50.609999999999999</ele>
        <time>2023-08-19T12:21:33Z</time>
      </trkpt>
      <trkpt lat="57.982519017532468" lon="-3.945976970717311">
        <ele>50.609999999999999</ele>
        <time>2023-08-19T12:21:34Z</time>
      </trkpt>
      <trkpt lat="57.982519017532468" lon="-3.945976970717311">
        <ele>50.130000000000003</ele>
        <time>2023-08-19T12:21:48Z</time>
      </trkpt>
      <trkpt lat="57.982519017532468" lon="-3.945976970717311">
        <ele>50.130000000000003</ele>
        <time>2023-08-19T12:22:08Z</time>
      </trkpt>
      <trkpt lat="57.982423966750503" lon="-3.946112003177404">
        <ele>50.609999999999999</ele>
        <time>2023-08-19T12:29:24Z</time>
      </trkpt>
      <trkpt lat="57.982432013377547" lon="-3.946075960993767">
        <ele>68.390000000000001</ele>
        <time>2023-08-19T12:29:55Z</time>
      </trkpt>
      <trkpt lat="57.98239597119391" lon="-3.945978982374072">
        <ele>70.790000000000006</ele>
        <time>2023-08-19T12:30:39Z</time>
      </trkpt>
      <trkpt lat="57.982408963143826" lon="-3.946036985144019">
        <ele>78.480000000000004</ele>
        <time>2023-08-19T12:31:24Z</time>
      </trkpt>
      <trkpt lat="57.982453973963857" lon="-3.945921985432506">
        <ele>78.480000000000004</ele>
        <time>2023-08-19T12:31:26Z</time>
      </trkpt>
      <trkpt lat="57.982519017532468" lon="-3.945976970717311">
        <ele>77.040000000000006</ele>
        <time>2023-08-19T12:31:29Z</time>
      </trkpt>
      <trkpt lat="57.982550030574203" lon="-3.946002032607794">
        <ele>76.560000000000002</ele>
        <time>2023-08-19T12:31:30Z</time>
      </trkpt>
      <trkpt lat="57.98258800059557" lon="-3.946033967658877">
        <ele>76.079999999999998</ele>
        <time>2023-08-19T12:31:31Z</time>
      </trkpt>
      <trkpt lat="57.982622031122446" lon="-3.946062969043851">
        <ele>75.599999999999994</ele>
        <time>2023-08-19T12:31:32Z</time>
      </trkpt>
      <trkpt lat="57.98267500475049" lon="-3.94668398424983">
        <ele>71.269999999999996</ele>
        <time>2023-08-19T12:31:38Z</time>
      </trkpt>
      <trkpt lat="57.982647009193897" lon="-3.94696201197803">
        <ele>71.269999999999996</ele>
        <time>2023-08-19T12:31:41Z</time>
      </trkpt>
      <trkpt lat="57.982636028900743" lon="-3.94706703722477">
        <ele>71.269999999999996</ele>
        <time>2023-08-19T12:31:42Z</time>
      </trkpt>
      <trkpt lat="57.982624964788556" lon="-3.947170972824097">
        <ele>71.269999999999996</ele>
        <time>2023-08-19T12:31:43Z</time>
      </trkpt>
      <trkpt lat="57.982613984495401" lon="-3.94728203304112">
        <ele>69.829999999999998</ele>
        <time>2023-08-19T12:31:44Z</time>
      </trkpt>
      <trkpt lat="57.982600992545485" lon="-3.947410024702549">
        <ele>68.390000000000001</ele>
        <time>2023-08-19T12:31:45Z</time>
      </trkpt>
      <trkpt lat="57.982586994767189" lon="-3.947551008313894">
        <ele>66.469999999999999</ele>
        <time>2023-08-19T12:31:46Z</time>
      </trkpt>
      <trkpt lat="57.982543995603919" lon="-3.94797102548182">
        <ele>64.549999999999997</ele>
        <time>2023-08-19T12:31:49Z</time>
      </trkpt>
      <trkpt lat="57.982516000047326" lon="-3.948249975219369">
        <ele>63.579999999999998</ele>
        <time>2023-08-19T12:31:51Z</time>
      </trkpt>
      <trkpt lat="57.98248297534883" lon="-3.948567984625697">
        <ele>63.579999999999998</ele>
        <time>2023-08-19T12:31:53Z</time>
      </trkpt>
      <trkpt lat="57.982465960085392" lon="-3.948736963793635">
        <ele>63.579999999999998</ele>
        <time>2023-08-19T12:31:54Z</time>
      </trkpt>
      <trkpt lat="57.98241700977087" lon="-3.949221018701792">
        <ele>64.549999999999997</ele>
        <time>2023-08-19T12:31:57Z</time>
      </trkpt>
      <trkpt lat="57.982401000335813" lon="-3.949379017576575">
        <ele>64.549999999999997</ele>
        <time>2023-08-19T12:31:58Z</time>
      </trkpt>
      <trkpt lat="57.982384990900755" lon="-3.949529975652695">
        <ele>64.549999999999997</ele>
        <time>2023-08-19T12:31:59Z</time>
      </trkpt>
      <trkpt lat="57.982291029766202" lon="-3.950451985001564">
        <ele>64.549999999999997</ele>
        <time>2023-08-19T12:32:04Z</time>
      </trkpt>
      <trkpt lat="57.982249036431313" lon="-3.950813999399543">
        <ele>64.069999999999993</ele>
        <time>2023-08-19T12:32:06Z</time>
      </trkpt>
      <trkpt lat="57.982206959277391" lon="-3.950963029637933">
        <ele>63.579999999999998</ele>
        <time>2023-08-19T12:32:07Z</time>
      </trkpt>
      <trkpt lat="57.982165971770883" lon="-3.95110703073442">
        <ele>62.619999999999997</ele>
        <time>2023-08-19T12:32:08Z</time>
      </trkpt>
      <trkpt lat="57.982045020908117" lon="-3.951528975740075">
        <ele>61.18</ele>
        <time>2023-08-19T12:32:11Z</time>
      </trkpt>
      <trkpt lat="57.982007972896099" lon="-3.951657973229885">
        <ele>60.700000000000003</ele>
        <time>2023-08-19T12:32:12Z</time>
      </trkpt>
      <trkpt lat="57.981956005096436" lon="-3.951800968497992">
        <ele>60.219999999999999</ele>
        <time>2023-08-19T12:32:13Z</time>
      </trkpt>
      <trkpt lat="57.981904959306121" lon="-3.951930971816182">
        <ele>59.259999999999998</ele>
        <time>2023-08-19T12:32:14Z</time>
      </trkpt>
      <trkpt lat="57.981853997334838" lon="-3.952063992619515">
        <ele>58.780000000000001</ele>
        <time>2023-08-19T12:32:15Z</time>
      </trkpt>
      <trkpt lat="57.981656016781926" lon="-3.952573025599122">
        <ele>56.369999999999997</ele>
        <time>2023-08-19T12:32:20Z</time>
      </trkpt>
      <trkpt lat="57.981603965163231" lon="-3.952707974240184">
        <ele>54.93</ele>
        <time>2023-08-19T12:32:22Z</time>
      </trkpt>
      <trkpt lat="57.981571024283767" lon="-3.952786009758711">
        <ele>54.450000000000003</ele>
        <time>2023-08-19T12:32:23Z</time>
      </trkpt>
      <trkpt lat="57.981529030948877" lon="-3.952880976721644">
        <ele>54.450000000000003</ele>
        <time>2023-08-19T12:32:24Z</time>
      </trkpt>
      <trkpt lat="57.981366002932191" lon="-3.953251037746668">
        <ele>52.530000000000001</ele>
        <time>2023-08-19T12:32:28Z</time>
      </trkpt>
      <trkpt lat="57.981329038739204" lon="-3.953333012759686">
        <ele>52.049999999999997</ele>
        <time>2023-08-19T12:32:29Z</time>
      </trkpt>
      <trkpt lat="57.981185959652066" lon="-3.953654961660504">
        <ele>51.090000000000003</ele>
        <time>2023-08-19T12:32:33Z</time>
      </trkpt>
      <trkpt lat="57.981154024600983" lon="-3.953728973865509">
        <ele>50.609999999999999</ele>
        <time>2023-08-19T12:32:34Z</time>
      </trkpt>
      <trkpt lat="57.981093004345894" lon="-3.953867023810744">
        <ele>50.130000000000003</ele>
        <time>2023-08-19T12:32:36Z</time>
      </trkpt>
      <trkpt lat="57.981057967990637" lon="-3.95394497551024">
        <ele>49.649999999999999</ele>
        <time>2023-08-19T12:32:37Z</time>
      </trkpt>
      <trkpt lat="57.98095403239131" lon="-3.95418000407517">
        <ele>48.68</ele>
        <time>2023-08-19T12:32:40Z</time>
      </trkpt>
      <trkpt lat="57.980920001864433" lon="-3.954254016280174">
        <ele>48.68</ele>
        <time>2023-08-19T12:32:41Z</time>
      </trkpt>
      <trkpt lat="57.980446005240083" lon="-3.955127997323871">
        <ele>45.32</ele>
        <time>2023-08-19T12:32:51Z</time>
      </trkpt>
      <trkpt lat="57.980404011905193" lon="-3.955207038670778">
        <ele>44.840000000000003</ele>
        <time>2023-08-19T12:32:52Z</time>
      </trkpt>
      <trkpt lat="57.980251964181662" lon="-3.955552959814668">
        <ele>43.880000000000003</ele>
        <time>2023-08-19T12:32:56Z</time>
      </trkpt>
      <trkpt lat="57.980212988331914" lon="-3.955648010596633">
        <ele>43.880000000000003</ele>
        <time>2023-08-19T12:32:57Z</time>
      </trkpt>
      <trkpt lat="57.980172000825405" lon="-3.955748006701469">
        <ele>43.399999999999999</ele>
        <time>2023-08-19T12:32:58Z</time>
      </trkpt>
      <trkpt lat="57.980110980570316" lon="-3.955894019454718">
        <ele>43.399999999999999</ele>
        <time>2023-08-19T12:32:59Z</time>
      </trkpt>
      <trkpt lat="57.980100000277162" lon="-3.955966020002961">
        <ele>43.399999999999999</ele>
        <time>2023-08-19T12:33:00Z</time>
      </trkpt>
      <trkpt lat="57.980078961700201" lon="-3.956097029149532">
        <ele>43.399999999999999</ele>
        <time>2023-08-19T12:33:01Z</time>
      </trkpt>
      <trkpt lat="57.980047026649117" lon="-3.956300960853696">
        <ele>43.880000000000003</ele>
        <time>2023-08-19T12:33:02Z</time>
      </trkpt>
      <trkpt lat="57.980050966143608" lon="-3.956417972221971">
        <ele>44.359999999999999</ele>
        <time>2023-08-19T12:33:03Z</time>
      </trkpt>
      <trkpt lat="57.98005498945713" lon="-3.956545041874051">
        <ele>44.359999999999999</ele>
        <time>2023-08-19T12:33:04Z</time>
      </trkpt>
      <trkpt lat="57.980059012770653" lon="-3.956655012443662">
        <ele>44.840000000000003</ele>
        <time>2023-08-19T12:33:05Z</time>
      </trkpt>
      <trkpt lat="57.980062030255795" lon="-3.956757020205259">
        <ele>45.32</ele>
        <time>2023-08-19T12:33:06Z</time>
      </trkpt>
      <trkpt lat="57.980065969750285" lon="-3.956860033795238">
        <ele>46.280000000000001</ele>
        <time>2023-08-19T12:33:07Z</time>
      </trkpt>
      <trkpt lat="57.980076028034091" lon="-3.957163039594889">
        <ele>47.719999999999999</ele>
        <time>2023-08-19T12:33:10Z</time>
      </trkpt>
      <trkpt lat="57.980078039690852" lon="-3.957240991294384">
        <ele>47.719999999999999</ele>
        <time>2023-08-19T12:33:11Z</time>
      </trkpt>
      <trkpt lat="57.980079967528582" lon="-3.95729698240757">
        <ele>47.719999999999999</ele>
        <time>2023-08-19T12:33:12Z</time>
      </trkpt>
      <trkpt lat="57.980082985013723" lon="-3.957393961027265">
        <ele>47.240000000000002</ele>
        <time>2023-08-19T12:33:23Z</time>
      </trkpt>
      <trkpt lat="57.980193039402366" lon="-3.957485994324088">
        <ele>46.759999999999998</ele>
        <time>2023-08-19T12:33:24Z</time>
      </trkpt>
      <trkpt lat="57.980224974453449" lon="-3.957453975453973">
        <ele>46.759999999999998</ele>
        <time>2023-08-19T12:33:25Z</time>
      </trkpt>
      <trkpt lat="57.980280965566635" lon="-3.957396978512406">
        <ele>46.759999999999998</ele>
        <time>2023-08-19T12:33:26Z</time>
      </trkpt>
      <trkpt lat="57.980883959680796" lon="-3.956923987716436">
        <ele>46.759999999999998</ele>
        <time>2023-08-19T12:33:32Z</time>
      </trkpt>
      <trkpt lat="57.98104296438396" lon="-3.956907978281379">
        <ele>46.759999999999998</ele>
        <time>2023-08-19T12:33:33Z</time>
      </trkpt>
      <trkpt lat="57.98116902820766" lon="-3.956895992159843">
        <ele>47.240000000000002</ele>
        <time>2023-08-19T12:33:34Z</time>
      </trkpt>
      <trkpt lat="57.982680033892393" lon="-3.956619976088405">
        <ele>50.130000000000003</ele>
        <time>2023-08-19T12:33:45Z</time>
      </trkpt>
      <trkpt lat="57.982811965048313" lon="-3.956510005518794">
        <ele>50.609999999999999</ele>
        <time>2023-08-19T12:33:46Z</time>
      </trkpt>
      <trkpt lat="57.982940962538123" lon="-3.956352006644011">
        <ele>50.609999999999999</ele>
        <time>2023-08-19T12:33:47Z</time>
      </trkpt>
      <trkpt lat="57.983070965856314" lon="-3.956174980849028">
        <ele>51.090000000000003</ele>
        <time>2023-08-19T12:33:48Z</time>
      </trkpt>
      <trkpt lat="57.983175991103053" lon="-3.955957973375917">
        <ele>51.57</ele>
        <time>2023-08-19T12:33:49Z</time>
      </trkpt>
      <trkpt lat="57.983286967501044" lon="-3.955730991438031">
        <ele>51.57</ele>
        <time>2023-08-19T12:33:50Z</time>
      </trkpt>
      <trkpt lat="57.984382985159755" lon="-3.953298982232809">
        <ele>46.759999999999998</ele>
        <time>2023-08-19T12:34:00Z</time>
      </trkpt>
      <trkpt lat="57.984596975147724" lon="-3.952519968152046">
        <ele>46.759999999999998</ele>
        <time>2023-08-19T12:34:03Z</time>
      </trkpt>
      <trkpt lat="57.985168034210801" lon="-3.949483036994934">
        <ele>47.719999999999999</ele>
        <time>2023-08-19T12:34:13Z</time>
      </trkpt>
      <trkpt lat="57.98568201251328" lon="-3.946728995069861">
        <ele>49.649999999999999</ele>
        <time>2023-08-19T12:34:22Z</time>
      </trkpt>
      <trkpt lat="57.986209988594055" lon="-3.943760963156819">
        <ele>53.969999999999999</ele>
        <time>2023-08-19T12:34:31Z</time>
      </trkpt>
      <trkpt lat="57.986268997192383" lon="-3.943427028134465">
        <ele>54.450000000000003</ele>
        <time>2023-08-19T12:34:32Z</time>
      </trkpt>
      <trkpt lat="57.98632800579071" lon="-3.943097032606602">
        <ele>54.93</ele>
        <time>2023-08-19T12:34:33Z</time>
      </trkpt>
      <trkpt lat="57.98684298992157" lon="-3.939434979110956">
        <ele>58.780000000000001</ele>
        <time>2023-08-19T12:34:44Z</time>
      </trkpt>
      <trkpt lat="57.987032001838088" lon="-3.935735039412975">
        <ele>56.369999999999997</ele>
        <time>2023-08-19T12:34:54Z</time>
      </trkpt>
      <trkpt lat="57.987235011532903" lon="-3.931289026513696">
        <ele>50.609999999999999</ele>
        <time>2023-08-19T12:35:06Z</time>
      </trkpt>
      <trkpt lat="57.987436009570956" lon="-3.926794985309243">
        <ele>41.469999999999999</ele>
        <time>2023-08-19T12:35:18Z</time>
      </trkpt>
      <trkpt lat="57.987657962366939" lon="-3.921827031299472">
        <ele>34.259999999999998</ele>
        <time>2023-08-19T12:35:32Z</time>
      </trkpt>
      <trkpt lat="57.987820990383625" lon="-3.917771028354764">
        <ele>28.98</ele>
        <time>2023-08-19T12:35:44Z</time>
      </trkpt>
      <trkpt lat="57.987627033144236" lon="-3.913774034008384">
        <ele>24.170000000000002</ele>
        <time>2023-08-19T12:35:55Z</time>
      </trkpt>
      <trkpt lat="57.987758964300156" lon="-3.910904992371798">
        <ele>25.609999999999999</ele>
        <time>2023-08-19T12:36:03Z</time>
      </trkpt>
      <trkpt lat="57.988294987007976" lon="-3.90699801966548">
        <ele>28.98</ele>
        <time>2023-08-19T12:36:14Z</time>
      </trkpt>
      <trkpt lat="57.988332035019994" lon="-3.906210958957672">
        <ele>28.5</ele>
        <time>2023-08-19T12:36:16Z</time>
      </trkpt>
      <trkpt lat="57.988456003367901" lon="-3.901163963600993">
        <ele>24.649999999999999</ele>
        <time>2023-08-19T12:36:28Z</time>
      </trkpt>
      <trkpt lat="57.988831009715796" lon="-3.897995017468929">
        <ele>26.09</ele>
        <time>2023-08-19T12:36:36Z</time>
      </trkpt>
      <trkpt lat="57.989652017131448" lon="-3.896013032644987">
        <ele>27.530000000000001</ele>
        <time>2023-08-19T12:36:42Z</time>
      </trkpt>
      <trkpt lat="57.991037964820862" lon="-3.894418040290475">
        <ele>28.98</ele>
        <time>2023-08-19T12:36:49Z</time>
      </trkpt>
      <trkpt lat="57.992778969928622" lon="-3.892710981890559">
        <ele>29.460000000000001</ele>
        <time>2023-08-19T12:36:58Z</time>
      </trkpt>
      <trkpt lat="57.99513403326273" lon="-3.889806987717748">
        <ele>29.940000000000001</ele>
        <time>2023-08-19T12:37:12Z</time>
      </trkpt>
      <trkpt lat="57.996679991483688" lon="-3.888335041701794">
        <ele>26.57</ele>
        <time>2023-08-19T12:37:21Z</time>
      </trkpt>
      <trkpt lat="57.999116024002433" lon="-3.886220036074519">
        <ele>22.25</ele>
        <time>2023-08-19T12:37:35Z</time>
      </trkpt>
      <trkpt lat="57.99939296208322" lon="-3.88587998226285">
        <ele>22.73</ele>
        <time>2023-08-19T12:37:37Z</time>
      </trkpt>
      <trkpt lat="57.999533023685217" lon="-3.885675966739655">
        <ele>22.73</ele>
        <time>2023-08-19T12:37:38Z</time>
      </trkpt>
      <trkpt lat="57.999636037275195" lon="-3.885410008952022">
        <ele>23.210000000000001</ele>
        <time>2023-08-19T12:37:39Z</time>
      </trkpt>
      <trkpt lat="57.999742990359664" lon="-3.885131981223822">
        <ele>23.210000000000001</ele>
        <time>2023-08-19T12:37:40Z</time>
      </trkpt>
      <trkpt lat="57.999838041141629" lon="-3.884826041758061">
        <ele>23.210000000000001</ele>
        <time>2023-08-19T12:37:41Z</time>
      </trkpt>
      <trkpt lat="58.001159029081464" lon="-3.88020602054894">
        <ele>25.609999999999999</ele>
        <time>2023-08-19T12:37:55Z</time>
      </trkpt>
      <trkpt lat="58.002619994804263" lon="-3.874602969735861">
        <ele>24.649999999999999</ele>
        <time>2023-08-19T12:38:11Z</time>
      </trkpt>
      <trkpt lat="58.004187997430563" lon="-3.868195004761219">
        <ele>22.73</ele>
        <time>2023-08-19T12:38:29Z</time>
      </trkpt>
      <trkpt lat="58.005120987072587" lon="-3.865163018926978">
        <ele>22.73</ele>
        <time>2023-08-19T12:38:38Z</time>
      </trkpt>
      <trkpt lat="58.006299985572696" lon="-3.863708004355431">
        <ele>22.73</ele>
        <time>2023-08-19T12:38:45Z</time>
      </trkpt>
      <trkpt lat="58.008094970136881" lon="-3.862056015059352">
        <ele>21.77</ele>
        <time>2023-08-19T12:38:56Z</time>
      </trkpt>
      <trkpt lat="58.008998958393931" lon="-3.861229978501797">
        <ele>21.289999999999999</ele>
        <time>2023-08-19T12:39:05Z</time>
      </trkpt>
      <trkpt lat="58.010177034884691" lon="-3.85998803190887">
        <ele>22.73</ele>
        <time>2023-08-19T12:39:17Z</time>
      </trkpt>
      <trkpt lat="58.010410973802209" lon="-3.859468018636107">
        <ele>22.25</ele>
        <time>2023-08-19T12:39:20Z</time>
      </trkpt>
      <trkpt lat="58.010893017053604" lon="-3.857513023540378">
        <ele>19.359999999999999</ele>
        <time>2023-08-19T12:39:30Z</time>
      </trkpt>
      <trkpt lat="58.011188982054591" lon="-3.854957967996597">
        <ele>18.399999999999999</ele>
        <time>2023-08-19T12:39:42Z</time>
      </trkpt>
      <trkpt lat="58.011490982025862" lon="-3.853418966755271">
        <ele>15.52</ele>
        <time>2023-08-19T12:39:50Z</time>
      </trkpt>
      <trkpt lat="58.011548984795809" lon="-3.853253005072475">
        <ele>15.039999999999999</ele>
        <time>2023-08-19T12:39:51Z</time>
      </trkpt>
      <trkpt lat="58.011628026142716" lon="-3.85313699953258">
        <ele>14.08</ele>
        <time>2023-08-19T12:39:52Z</time>
      </trkpt>
      <trkpt lat="58.011720981448889" lon="-3.853043960407376">
        <ele>13.6</ele>
        <time>2023-08-19T12:39:53Z</time>
      </trkpt>
      <trkpt lat="58.011826006695628" lon="-3.852940024808049">
        <ele>13.6</ele>
        <time>2023-08-19T12:39:54Z</time>
      </trkpt>
      <trkpt lat="58.011921979486942" lon="-3.852940024808049">
        <ele>13.6</ele>
        <time>2023-08-19T12:39:55Z</time>
      </trkpt>
      <trkpt lat="58.012029016390443" lon="-3.852953016757965">
        <ele>13.6</ele>
        <time>2023-08-19T12:39:56Z</time>
      </trkpt>
      <trkpt lat="58.012135969474912" lon="-3.852981012314558">
        <ele>13.6</ele>
        <time>2023-08-19T12:39:57Z</time>
      </trkpt>
      <trkpt lat="58.012244012206793" lon="-3.853009007871151">
        <ele>13.6</ele>
        <time>2023-08-19T12:39:58Z</time>
      </trkpt>
      <trkpt lat="58.012351971119642" lon="-3.853037003427744">
        <ele>13.6</ele>
        <time>2023-08-19T12:39:59Z</time>
      </trkpt>
      <trkpt lat="58.013706989586353" lon="-3.853483004495502">
        <ele>18.879999999999999</ele>
        <time>2023-08-19T12:40:12Z</time>
      </trkpt>
      <trkpt lat="58.015163009986281" lon="-3.854040987789631">
        <ele>19.84</ele>
        <time>2023-08-19T12:40:26Z</time>
      </trkpt>
      <trkpt lat="58.016620958223939" lon="-3.85461799800396">
        <ele>17.920000000000002</ele>
        <time>2023-08-19T12:40:40Z</time>
      </trkpt>
      <trkpt lat="58.018038002774119" lon="-3.855199031531811">
        <ele>16.48</ele>
        <time>2023-08-19T12:40:53Z</time>
      </trkpt>
      <trkpt lat="58.019345998764038" lon="-3.855732036754489">
        <ele>16.960000000000001</ele>
        <time>2023-08-19T12:41:03Z</time>
      </trkpt>
      <trkpt lat="58.021263023838401" lon="-3.856513984501362">
        <ele>16</ele>
        <time>2023-08-19T12:41:16Z</time>
      </trkpt>
      <trkpt lat="58.022850975394249" lon="-3.857128964737058">
        <ele>15.039999999999999</ele>
        <time>2023-08-19T12:41:27Z</time>
      </trkpt>
      <trkpt lat="58.023729985579848" lon="-3.857450997456908">
        <ele>15.52</ele>
        <time>2023-08-19T12:41:33Z</time>
      </trkpt>
      <trkpt lat="58.023870969191194" lon="-3.857462983578444">
        <ele>15.52</ele>
        <time>2023-08-19T12:41:34Z</time>
      </trkpt>
      <trkpt lat="58.0240139644593" lon="-3.857434988021851">
        <ele>15.52</ele>
        <time>2023-08-19T12:41:35Z</time>
      </trkpt>
      <trkpt lat="58.024156037718058" lon="-3.857382014393807">
        <ele>16</ele>
        <time>2023-08-19T12:41:36Z</time>
      </trkpt>
      <trkpt lat="58.024300038814545" lon="-3.857313031330705">
        <ele>16</ele>
        <time>2023-08-19T12:41:37Z</time>
      </trkpt>
      <trkpt lat="58.024436999112368" lon="-3.857188979163766">
        <ele>16</ele>
        <time>2023-08-19T12:41:38Z</time>
      </trkpt>
      <trkpt lat="58.024582006037235" lon="-3.857058975845575">
        <ele>16.48</ele>
        <time>2023-08-19T12:41:39Z</time>
      </trkpt>
      <trkpt lat="58.024731958284974" lon="-3.856924027204514">
        <ele>16.48</ele>
        <time>2023-08-19T12:41:40Z</time>
      </trkpt>
      <trkpt lat="58.026411021128297" lon="-3.855178998783231">
        <ele>16.48</ele>
        <time>2023-08-19T12:41:50Z</time>
      </trkpt>
      <trkpt lat="58.028347995132208" lon="-3.852910017594695">
        <ele>16.960000000000001</ele>
        <time>2023-08-19T12:42:01Z</time>
      </trkpt>
      <trkpt lat="58.028489984571934" lon="-3.852611035108566">
        <ele>16.48</ele>
        <time>2023-08-19T12:42:02Z</time>
      </trkpt>
      <trkpt lat="58.029969977214932" lon="-3.849150985479355">
        <ele>13.119999999999999</ele>
        <time>2023-08-19T12:42:13Z</time>
      </trkpt>
      <trkpt lat="58.031207984313369" lon="-3.846185971051455">
        <ele>10.710000000000001</ele>
        <time>2023-08-19T12:42:23Z</time>
      </trkpt>
      <trkpt lat="58.033088967204094" lon="-3.842793982475996">
        <ele>9.75</ele>
        <time>2023-08-19T12:42:36Z</time>
      </trkpt>
      <trkpt lat="58.035123003646731" lon="-3.839309960603714">
        <ele>8.310000000000001</ele>
        <time>2023-08-19T12:42:50Z</time>
      </trkpt>
      <trkpt lat="58.03649595938623" lon="-3.837960977107287">
        <ele>8.789999999999999</ele>
        <time>2023-08-19T12:42:58Z</time>
      </trkpt>
      <trkpt lat="58.036648007109761" lon="-3.837738018482924">
        <ele>8.789999999999999</ele>
        <time>2023-08-19T12:42:59Z</time>
      </trkpt>
      <trkpt lat="58.036785973235965" lon="-3.8374940212816">
        <ele>8.789999999999999</ele>
        <time>2023-08-19T12:43:00Z</time>
      </trkpt>
      <trkpt lat="58.0369240231812" lon="-3.837241977453232">
        <ele>8.310000000000001</ele>
        <time>2023-08-19T12:43:01Z</time>
      </trkpt>
      <trkpt lat="58.037044974043965" lon="-3.83695799857378">
        <ele>8.310000000000001</ele>
        <time>2023-08-19T12:43:02Z</time>
      </trkpt>
      <trkpt lat="58.038293039426208" lon="-3.834749031811953">
        <ele>6.87</ele>
        <time>2023-08-19T12:43:11Z</time>
      </trkpt>
      <trkpt lat="58.040344007313251" lon="-3.832210991531611">
        <ele>6.87</ele>
        <time>2023-08-19T12:43:24Z</time>
      </trkpt>
      <trkpt lat="58.04163197055459" lon="-3.829713016748428">
        <ele>6.39</ele>
        <time>2023-08-19T12:43:34Z</time>
      </trkpt>
      <trkpt lat="58.043090002611279" lon="-3.826350029557943">
        <ele>6.87</ele>
        <time>2023-08-19T12:43:46Z</time>
      </trkpt>
      <trkpt lat="58.044319041073322" lon="-3.824077025055885">
        <ele>12.15</ele>
        <time>2023-08-19T12:43:55Z</time>
      </trkpt>
      <trkpt lat="58.045575991272926" lon="-3.821602016687393">
        <ele>15.52</ele>
        <time>2023-08-19T12:44:04Z</time>
      </trkpt>
      <trkpt lat="58.047080039978027" lon="-3.819564040750265">
        <ele>19.84</ele>
        <time>2023-08-19T12:44:13Z</time>
      </trkpt>
      <trkpt lat="58.048930009827018" lon="-3.818089999258518">
        <ele>24.170000000000002</ele>
        <time>2023-08-19T12:44:23Z</time>
      </trkpt>
      <trkpt lat="58.051209971308708" lon="-3.816240029409528">
        <ele>23.690000000000001</ele>
        <time>2023-08-19T12:44:35Z</time>
      </trkpt>
      <trkpt lat="58.052559960633516" lon="-3.814793983474374">
        <ele>22.25</ele>
        <time>2023-08-19T12:44:43Z</time>
      </trkpt>
      <trkpt lat="58.054173979908228" lon="-3.812029967084527">
        <ele>30.899999999999999</ele>
        <time>2023-08-19T12:44:54Z</time>
      </trkpt>
      <trkpt lat="58.055594963952899" lon="-3.810290973633528">
        <ele>41.469999999999999</ele>
        <time>2023-08-19T12:45:03Z</time>
      </trkpt>
      <trkpt lat="58.057676022872329" lon="-3.808375960215926">
        <ele>53.490000000000002</ele>
        <time>2023-08-19T12:45:15Z</time>
      </trkpt>
      <trkpt lat="58.059232039377093" lon="-3.806179985404015">
        <ele>58.780000000000001</ele>
        <time>2023-08-19T12:45:25Z</time>
      </trkpt>
      <trkpt lat="58.06141602806747" lon="-3.802898973226547">
        <ele>59.259999999999998</ele>
        <time>2023-08-19T12:45:39Z</time>
      </trkpt>
      <trkpt lat="58.063203971832991" lon="-3.799717035144568">
        <ele>56.369999999999997</ele>
        <time>2023-08-19T12:45:51Z</time>
      </trkpt>
      <trkpt lat="58.065022006630898" lon="-3.796870959922671">
        <ele>53.490000000000002</ele>
        <time>2023-08-19T12:46:03Z</time>
      </trkpt>
      <trkpt lat="58.066613981500268" lon="-3.795365989208221">
        <ele>49.159999999999997</ele>
        <time>2023-08-19T12:46:12Z</time>
      </trkpt>
      <trkpt lat="58.067966988310218" lon="-3.793530017137528">
        <ele>40.509999999999998</ele>
        <time>2023-08-19T12:46:20Z</time>
      </trkpt>
      <trkpt lat="58.069351008161902" lon="-3.790998011827469">
        <ele>32.82</ele>
        <time>2023-08-19T12:46:30Z</time>
      </trkpt>
      <trkpt lat="58.069944027811289" lon="-3.789102025330067">
        <ele>31.379999999999999</ele>
        <time>2023-08-19T12:46:36Z</time>
      </trkpt>
      <trkpt lat="58.070005970075727" lon="-3.788737999275327">
        <ele>31.859999999999999</ele>
        <time>2023-08-19T12:46:37Z</time>
      </trkpt>
      <trkpt lat="58.0700349714607" lon="-3.788360981270671">
        <ele>31.859999999999999</ele>
        <time>2023-08-19T12:46:38Z</time>
      </trkpt>
      <trkpt lat="58.070065984502435" lon="-3.787977006286383">
        <ele>31.859999999999999</ele>
        <time>2023-08-19T12:46:39Z</time>
      </trkpt>
      <trkpt lat="58.070082999765873" lon="-3.787583978846669">
        <ele>31.859999999999999</ele>
        <time>2023-08-19T12:46:40Z</time>
      </trkpt>
      <trkpt lat="58.070080988109112" lon="-3.787182988598943">
        <ele>31.859999999999999</ele>
        <time>2023-08-19T12:46:41Z</time>
      </trkpt>
      <trkpt lat="58.070070007815957" lon="-3.783838022500277">
        <ele>27.050000000000001</ele>
        <time>2023-08-19T12:46:50Z</time>
      </trkpt>
      <trkpt lat="58.070189030840993" lon="-3.780161971226335">
        <ele>18.399999999999999</ele>
        <time>2023-08-19T12:47:00Z</time>
      </trkpt>
      <trkpt lat="58.070494970306754" lon="-3.778796978294849">
        <ele>16.48</ele>
        <time>2023-08-19T12:47:04Z</time>
      </trkpt>
      <trkpt lat="58.070595972239971" lon="-3.778477041050792">
        <ele>16</ele>
        <time>2023-08-19T12:47:05Z</time>
      </trkpt>
      <trkpt lat="58.070710971951485" lon="-3.778165988624096">
        <ele>15.52</ele>
        <time>2023-08-19T12:47:06Z</time>
      </trkpt>
      <trkpt lat="58.072112007066607" lon="-3.775463998317719">
        <ele>14.08</ele>
        <time>2023-08-19T12:47:16Z</time>
      </trkpt>
      <trkpt lat="58.073393013328314" lon="-3.773667002096772">
        <ele>23.690000000000001</ele>
        <time>2023-08-19T12:47:24Z</time>
      </trkpt>
      <trkpt lat="58.074170015752316" lon="-3.771962961181998">
        <ele>30.899999999999999</ele>
        <time>2023-08-19T12:47:30Z</time>
      </trkpt>
      <trkpt lat="58.074946012347937" lon="-3.768930975347757">
        <ele>41.469999999999999</ele>
        <time>2023-08-19T12:47:39Z</time>
      </trkpt>
      <trkpt lat="58.076143031939864" lon="-3.76442302018404">
        <ele>49.649999999999999</ele>
        <time>2023-08-19T12:47:53Z</time>
      </trkpt>
      <trkpt lat="58.076804028823972" lon="-3.761256001889706">
        <ele>53.490000000000002</ele>
        <time>2023-08-19T12:48:02Z</time>
      </trkpt>
      <trkpt lat="58.076972002163529" lon="-3.759987987577915">
        <ele>51.57</ele>
        <time>2023-08-19T12:48:06Z</time>
      </trkpt>
      <trkpt lat="58.077046014368534" lon="-3.759726975113154">
        <ele>51.090000000000003</ele>
        <time>2023-08-19T12:48:07Z</time>
      </trkpt>
      <trkpt lat="58.077139975503087" lon="-3.759462023153901">
        <ele>50.609999999999999</ele>
        <time>2023-08-19T12:48:08Z</time>
      </trkpt>
      <trkpt lat="58.078151000663638" lon="-3.756547970697284">
        <ele>48.200000000000003</ele>
        <time>2023-08-19T12:48:18Z</time>
      </trkpt>
      <trkpt lat="58.0791010055691" lon="-3.754613008350134">
        <ele>50.609999999999999</ele>
        <time>2023-08-19T12:48:26Z</time>
      </trkpt>
      <trkpt lat="58.079328993335366" lon="-3.754143035039306">
        <ele>52.530000000000001</ele>
        <time>2023-08-19T12:48:28Z</time>
      </trkpt>
      <trkpt lat="58.079440975561738" lon="-3.75389602035284">
        <ele>53.490000000000002</ele>
        <time>2023-08-19T12:48:29Z</time>
      </trkpt>
      <trkpt lat="58.079525968059897" lon="-3.753613969311118">
        <ele>53.969999999999999</ele>
        <time>2023-08-19T12:48:30Z</time>
      </trkpt>
      <trkpt lat="58.079599980264902" lon="-3.75329595990479">
        <ele>54.93</ele>
        <time>2023-08-19T12:48:31Z</time>
      </trkpt>
      <trkpt lat="58.079676004126668" lon="-3.752968981862068">
        <ele>55.409999999999997</ele>
        <time>2023-08-19T12:48:32Z</time>
      </trkpt>
      <trkpt lat="58.08055903762579" lon="-3.749178014695644">
        <ele>59.740000000000002</ele>
        <time>2023-08-19T12:48:43Z</time>
      </trkpt>
      <trkpt lat="58.081130012869835" lon="-3.746768971905112">
        <ele>63.100000000000001</ele>
        <time>2023-08-19T12:48:51Z</time>
      </trkpt>
      <trkpt lat="58.081216011196375" lon="-3.746506031602621">
        <ele>63.100000000000001</ele>
        <time>2023-08-19T12:48:52Z</time>
      </trkpt>
      <trkpt lat="58.082073982805014" lon="-3.744650026783347">
        <ele>64.549999999999997</ele>
        <time>2023-08-19T12:49:00Z</time>
      </trkpt>
      <trkpt lat="58.082196023315191" lon="-3.744436958804727">
        <ele>64.069999999999993</ele>
        <time>2023-08-19T12:49:01Z</time>
      </trkpt>
      <trkpt lat="58.082447983324528" lon="-3.743995986878872">
        <ele>63.579999999999998</ele>
        <time>2023-08-19T12:49:03Z</time>
      </trkpt>
      <trkpt lat="58.082562983036041" lon="-3.743732962757349">
        <ele>63.100000000000001</ele>
        <time>2023-08-19T12:49:04Z</time>
      </trkpt>
      <trkpt lat="58.082664990797639" lon="-3.743442026898265">
        <ele>62.619999999999997</ele>
        <time>2023-08-19T12:49:05Z</time>
      </trkpt>
      <trkpt lat="58.082769010215998" lon="-3.743142960593104">
        <ele>62.140000000000001</ele>
        <time>2023-08-19T12:49:06Z</time>
      </trkpt>
      <trkpt lat="58.082866994664073" lon="-3.742835009470582">
        <ele>61.659999999999997</ele>
        <time>2023-08-19T12:49:07Z</time>
      </trkpt>
      <trkpt lat="58.083672998473048" lon="-3.739777961745858">
        <ele>59.740000000000002</ele>
        <time>2023-08-19T12:49:17Z</time>
      </trkpt>
      <trkpt lat="58.084607999771833" lon="-3.736991984769702">
        <ele>60.219999999999999</ele>
        <time>2023-08-19T12:49:26Z</time>
      </trkpt>
      <trkpt lat="58.085538977757096" lon="-3.733724970370531">
        <ele>62.619999999999997</ele>
        <time>2023-08-19T12:49:36Z</time>
      </trkpt>
      <trkpt lat="58.086044993251562" lon="-3.730342034250498">
        <ele>61.18</ele>
        <time>2023-08-19T12:49:45Z</time>
      </trkpt>
      <trkpt lat="58.086637007072568" lon="-3.726835967972875">
        <ele>59.259999999999998</ele>
        <time>2023-08-19T12:49:54Z</time>
      </trkpt>
      <trkpt lat="58.087324993684888" lon="-3.722344022244215">
        <ele>57.340000000000003</ele>
        <time>2023-08-19T12:50:05Z</time>
      </trkpt>
      <trkpt lat="58.087978027760983" lon="-3.719180021435022">
        <ele>57.340000000000003</ele>
        <time>2023-08-19T12:50:14Z</time>
      </trkpt>
      <trkpt lat="58.088858965784311" lon="-3.716241996735334">
        <ele>63.100000000000001</ele>
        <time>2023-08-19T12:50:23Z</time>
      </trkpt>
      <trkpt lat="58.089375961571932" lon="-3.714992003515363">
        <ele>65.030000000000001</ele>
        <time>2023-08-19T12:50:27Z</time>
      </trkpt>
      <trkpt lat="58.089509988203645" lon="-3.714682040736079">
        <ele>65.030000000000001</ele>
        <time>2023-08-19T12:50:28Z</time>
      </trkpt>
      <trkpt lat="58.091259961947799" lon="-3.710745982825756">
        <ele>60.219999999999999</ele>
        <time>2023-08-19T12:50:41Z</time>
      </trkpt>
      <trkpt lat="58.092702990397811" lon="-3.708627037703991">
        <ele>59.259999999999998</ele>
        <time>2023-08-19T12:50:50Z</time>
      </trkpt>
      <trkpt lat="58.094306029379368" lon="-3.706312039867044">
        <ele>65.030000000000001</ele>
        <time>2023-08-19T12:51:00Z</time>
      </trkpt>
      <trkpt lat="58.09497800655663" lon="-3.703950019553304">
        <ele>65.989999999999995</ele>
        <time>2023-08-19T12:51:07Z</time>
      </trkpt>
      <trkpt lat="58.095803959295154" lon="-3.700083028525114">
        <ele>63.579999999999998</ele>
        <time>2023-08-19T12:51:18Z</time>
      </trkpt>
      <trkpt lat="58.096897965297103" lon="-3.695977991446853">
        <ele>53.969999999999999</ele>
        <time>2023-08-19T12:51:30Z</time>
      </trkpt>
      <trkpt lat="58.097722996026278" lon="-3.692368995398283">
        <ele>49.159999999999997</ele>
        <time>2023-08-19T12:51:41Z</time>
      </trkpt>
      <trkpt lat="58.098076041787863" lon="-3.690389022231102">
        <ele>46.759999999999998</ele>
        <time>2023-08-19T12:51:49Z</time>
      </trkpt>
      <trkpt lat="58.098453981801867" lon="-3.688057009130716">
        <ele>43.399999999999999</ele>
        <time>2023-08-19T12:52:00Z</time>
      </trkpt>
      <trkpt lat="58.098493041470647" lon="-3.687815023586154">
        <ele>42.920000000000002</ele>
        <time>2023-08-19T12:52:01Z</time>
      </trkpt>
      <trkpt lat="58.098536040633917" lon="-3.687544036656618">
        <ele>42.439999999999998</ele>
        <time>2023-08-19T12:52:02Z</time>
      </trkpt>
      <trkpt lat="58.098916998133063" lon="-3.684543985873461">
        <ele>32.82</ele>
        <time>2023-08-19T12:52:14Z</time>
      </trkpt>
      <trkpt lat="58.099195025861263" lon="-3.682861989364028">
        <ele>27.050000000000001</ele>
        <time>2023-08-19T12:52:21Z</time>
      </trkpt>
      <trkpt lat="58.099267026409507" lon="-3.682669959962368">
        <ele>26.09</ele>
        <time>2023-08-19T12:52:22Z</time>
      </trkpt>
      <trkpt lat="58.099342966452241" lon="-3.68247801437974">
        <ele>25.609999999999999</ele>
        <time>2023-08-19T12:52:23Z</time>
      </trkpt>
      <trkpt lat="58.099749991670251" lon="-3.681745016947389">
        <ele>20.809999999999999</ele>
        <time>2023-08-19T12:52:27Z</time>
      </trkpt>
      <trkpt lat="58.099830960854888" lon="-3.681505965068936">
        <ele>19.359999999999999</ele>
        <time>2023-08-19T12:52:28Z</time>
      </trkpt>
      <trkpt lat="58.099911008030176" lon="-3.681259034201503">
        <ele>17.920000000000002</ele>
        <time>2023-08-19T12:52:29Z</time>
      </trkpt>
      <trkpt lat="58.099987031891942" lon="-3.680998021736741">
        <ele>16.48</ele>
        <time>2023-08-19T12:52:30Z</time>
      </trkpt>
      <trkpt lat="58.100060038268566" lon="-3.680724017322063">
        <ele>15.039999999999999</ele>
        <time>2023-08-19T12:52:31Z</time>
      </trkpt>
      <trkpt lat="58.100668983533978" lon="-3.678612029179931">
        <ele>6.39</ele>
        <time>2023-08-19T12:52:39Z</time>
      </trkpt>
      <trkpt lat="58.101163012906909" lon="-3.676194017753005">
        <ele>5.42</ele>
        <time>2023-08-19T12:52:47Z</time>
      </trkpt>
      <trkpt lat="58.101769024506211" lon="-3.673792015761137">
        <ele>3.5</ele>
        <time>2023-08-19T12:52:55Z</time>
      </trkpt>
      <trkpt lat="58.101843036711216" lon="-3.673549024388194">
        <ele>3.5</ele>
        <time>2023-08-19T12:52:56Z</time>
      </trkpt>
      <trkpt lat="58.101949989795685" lon="-3.673335034400225">
        <ele>3.5</ele>
        <time>2023-08-19T12:52:57Z</time>
      </trkpt>
      <trkpt lat="58.102059038355947" lon="-3.673118026927114">
        <ele>3.98</ele>
        <time>2023-08-19T12:52:58Z</time>
      </trkpt>
      <trkpt lat="58.102169008925557" lon="-3.67289699614048">
        <ele>3.98</ele>
        <time>2023-08-19T12:52:59Z</time>
      </trkpt>
      <trkpt lat="58.102281996980309" lon="-3.672671020030975">
        <ele>3.98</ele>
        <time>2023-08-19T12:53:00Z</time>
      </trkpt>
      <trkpt lat="58.103525033220649" lon="-3.6713279876858">
        <ele>4.46</ele>
        <time>2023-08-19T12:53:09Z</time>
      </trkpt>
      <trkpt lat="58.105404004454613" lon="-3.669622018933296">
        <ele>6.39</ele>
        <time>2023-08-19T12:53:21Z</time>
      </trkpt>
      <trkpt lat="58.107475005090237" lon="-3.667774982750416">
        <ele>6.87</ele>
        <time>2023-08-19T12:53:33Z</time>
      </trkpt>
      <trkpt lat="58.107626968994737" lon="-3.667579013854265">
        <ele>6.87</ele>
        <time>2023-08-19T12:53:34Z</time>
      </trkpt>
      <trkpt lat="58.10778102837503" lon="-3.667381033301354">
        <ele>6.87</ele>
        <time>2023-08-19T12:53:35Z</time>
      </trkpt>
      <trkpt lat="58.109015012159944" lon="-3.665277007967234">
        <ele>4.94</ele>
        <time>2023-08-19T12:53:44Z</time>
      </trkpt>
      <trkpt lat="58.110784012824297" lon="-3.662225995212793">
        <ele>6.39</ele>
        <time>2023-08-19T12:53:57Z</time>
      </trkpt>
      <trkpt lat="58.111482979729772" lon="-3.661545971408486">
        <ele>6.87</ele>
        <time>2023-08-19T12:54:01Z</time>
      </trkpt>
      <trkpt lat="58.111675009131432" lon="-3.661418985575438">
        <ele>6.87</ele>
        <time>2023-08-19T12:54:02Z</time>
      </trkpt>
      <trkpt lat="58.11306900344789" lon="-3.660139990970492">
        <ele>12.15</ele>
        <time>2023-08-19T12:54:10Z</time>
      </trkpt>
      <trkpt lat="58.113211998715997" lon="-3.659944022074342">
        <ele>13.119999999999999</ele>
        <time>2023-08-19T12:54:11Z</time>
      </trkpt>
      <trkpt lat="58.113345019519329" lon="-3.659761967137456">
        <ele>14.08</ele>
        <time>2023-08-19T12:54:12Z</time>
      </trkpt>
      <trkpt lat="58.114024037495255" lon="-3.658063961192966">
        <ele>20.809999999999999</ele>
        <time>2023-08-19T12:54:20Z</time>
      </trkpt>
      <trkpt lat="58.114413963630795" lon="-3.655770001932979">
        <ele>21.77</ele>
        <time>2023-08-19T12:54:30Z</time>
      </trkpt>
      <trkpt lat="58.114945041015744" lon="-3.652797024697065">
        <ele>15.52</ele>
        <time>2023-08-19T12:54:43Z</time>
      </trkpt>
      <trkpt lat="58.115622969344258" lon="-3.651292975991964">
        <ele>12.15</ele>
        <time>2023-08-19T12:54:52Z</time>
      </trkpt>
      <trkpt lat="58.115998981520534" lon="-3.650757959112525">
        <ele>11.67</ele>
        <time>2023-08-19T12:54:56Z</time>
      </trkpt>
      <trkpt lat="58.116096965968609" lon="-3.650641031563282">
        <ele>11.67</ele>
        <time>2023-08-19T12:54:57Z</time>
      </trkpt>
      <trkpt lat="58.117059962823987" lon="-3.649487011134625">
        <ele>13.119999999999999</ele>
        <time>2023-08-19T12:55:08Z</time>
      </trkpt>
      <trkpt lat="58.117533959448338" lon="-3.64889700897038">
        <ele>17.920000000000002</ele>
        <time>2023-08-19T12:55:14Z</time>
      </trkpt>
      <trkpt lat="58.11785900965333" lon="-3.648421000689268">
        <ele>21.289999999999999</ele>
        <time>2023-08-19T12:55:18Z</time>
      </trkpt>
      <trkpt lat="58.117896979674697" lon="-3.648239029571414">
        <ele>22.25</ele>
        <time>2023-08-19T12:55:19Z</time>
      </trkpt>
      <trkpt lat="58.117917012423277" lon="-3.648040965199471">
        <ele>22.73</ele>
        <time>2023-08-19T12:55:20Z</time>
      </trkpt>
      <trkpt lat="58.117891028523445" lon="-3.645551037043333">
        <ele>25.609999999999999</ele>
        <time>2023-08-19T12:55:30Z</time>
      </trkpt>
      <trkpt lat="58.117922963574529" lon="-3.64530997350812">
        <ele>26.09</ele>
        <time>2023-08-19T12:55:31Z</time>
      </trkpt>
      <trkpt lat="58.117955988273025" lon="-3.645066982135177">
        <ele>26.09</ele>
        <time>2023-08-19T12:55:32Z</time>
      </trkpt>
      <trkpt lat="58.117995969951153" lon="-3.644833965227008">
        <ele>26.57</ele>
        <time>2023-08-19T12:55:33Z</time>
      </trkpt>
      <trkpt lat="58.118715975433588" lon="-3.642227025702596">
        <ele>38.590000000000003</ele>
        <time>2023-08-19T12:55:45Z</time>
      </trkpt>
      <trkpt lat="58.119232971221209" lon="-3.640450984239578">
        <ele>46.280000000000001</ele>
        <time>2023-08-19T12:55:53Z</time>
      </trkpt>
      <trkpt lat="58.119690036401153" lon="-3.637866005301476">
        <ele>47.240000000000002</ele>
        <time>2023-08-19T12:56:03Z</time>
      </trkpt>
      <trkpt lat="58.120032018050551" lon="-3.63555402494967">
        <ele>50.130000000000003</ele>
        <time>2023-08-19T12:56:13Z</time>
      </trkpt>
      <trkpt lat="58.120248019695282" lon="-3.634478962048888">
        <ele>51.57</ele>
        <time>2023-08-19T12:56:18Z</time>
      </trkpt>
      <trkpt lat="58.120299987494946" lon="-3.634338984265924">
        <ele>52.049999999999997</ele>
        <time>2023-08-19T12:56:19Z</time>
      </trkpt>
      <trkpt lat="58.120385985821486" lon="-3.63418098539114">
        <ele>52.049999999999997</ele>
        <time>2023-08-19T12:56:20Z</time>
      </trkpt>
      <trkpt lat="58.120461003854871" lon="-3.634189032018185">
        <ele>52.530000000000001</ele>
        <time>2023-08-19T12:56:21Z</time>
      </trkpt>
      <trkpt lat="58.120572986081243" lon="-3.634200012311339">
        <ele>52.530000000000001</ele>
        <time>2023-08-19T12:56:22Z</time>
      </trkpt>
      <trkpt lat="58.120623026043177" lon="-3.634124994277954">
        <ele>53.009999999999998</ele>
        <time>2023-08-19T12:56:23Z</time>
      </trkpt>
      <trkpt lat="58.120658984407783" lon="-3.634071014821529">
        <ele>52.530000000000001</ele>
        <time>2023-08-19T12:56:24Z</time>
      </trkpt>
      <trkpt lat="58.120696032419801" lon="-3.633704977110028">
        <ele>52.530000000000001</ele>
        <time>2023-08-19T12:56:25Z</time>
      </trkpt>
      <trkpt lat="58.120775995776057" lon="-3.633655020967126">
        <ele>52.530000000000001</ele>
        <time>2023-08-19T12:56:26Z</time>
      </trkpt>
      <trkpt lat="58.120868029072881" lon="-3.633597018197179">
        <ele>52.530000000000001</ele>
        <time>2023-08-19T12:56:27Z</time>
      </trkpt>
      <trkpt lat="58.12097598798573" lon="-3.633529962971807">
        <ele>52.530000000000001</ele>
        <time>2023-08-19T12:56:28Z</time>
      </trkpt>
      <trkpt lat="58.121092999354005" lon="-3.633457040414214">
        <ele>52.049999999999997</ele>
        <time>2023-08-19T12:56:29Z</time>
      </trkpt>
      <trkpt lat="58.122266968712211" lon="-3.632896039634943">
        <ele>50.609999999999999</ele>
        <time>2023-08-19T12:56:37Z</time>
      </trkpt>
      <trkpt lat="58.123981989920139" lon="-3.632851028814912">
        <ele>47.719999999999999</ele>
        <time>2023-08-19T12:56:46Z</time>
      </trkpt>
      <trkpt lat="58.126745000481606" lon="-3.632924035191536">
        <ele>53.009999999999998</ele>
        <time>2023-08-19T12:57:00Z</time>
      </trkpt>
      <trkpt lat="58.128673005849123" lon="-3.632737034931779">
        <ele>66.950000000000003</ele>
        <time>2023-08-19T12:57:11Z</time>
      </trkpt>
      <trkpt lat="58.130121985450387" lon="-3.63173296675086">
        <ele>80.890000000000001</ele>
        <time>2023-08-19T12:57:19Z</time>
      </trkpt>
      <trkpt lat="58.131366027519107" lon="-3.629888026043773">
        <ele>93.870000000000005</ele>
        <time>2023-08-19T12:57:26Z</time>
      </trkpt>
      <trkpt lat="58.132315026596189" lon="-3.627445036545396">
        <ele>108.29000000000001</ele>
        <time>2023-08-19T12:57:33Z</time>
      </trkpt>
      <trkpt lat="58.132835039868951" lon="-3.624623017385602">
        <ele>120.78</ele>
        <time>2023-08-19T12:57:40Z</time>
      </trkpt>
      <trkpt lat="58.133357986807823" lon="-3.621190041303635">
        <ele>129.91999999999999</ele>
        <time>2023-08-19T12:57:49Z</time>
      </trkpt>
      <trkpt lat="58.134203972294927" lon="-3.618542030453682">
        <ele>133.28</ele>
        <time>2023-08-19T12:57:57Z</time>
      </trkpt>
      <trkpt lat="58.135097986087203" lon="-3.615735014900565">
        <ele>143.37</ele>
        <time>2023-08-19T12:58:06Z</time>
      </trkpt>
      <trkpt lat="58.135912958532572" lon="-3.61207296140492">
        <ele>159.72</ele>
        <time>2023-08-19T12:58:16Z</time>
      </trkpt>
      <trkpt lat="58.136361977085471" lon="-3.610766977071762">
        <ele>165</ele>
        <time>2023-08-19T12:58:20Z</time>
      </trkpt>
      <trkpt lat="58.136496003717184" lon="-3.610489033162594">
        <ele>166.44999999999999</ele>
        <time>2023-08-19T12:58:21Z</time>
      </trkpt>
      <trkpt lat="58.136648973450065" lon="-3.610246963799">
        <ele>167.88999999999999</ele>
        <time>2023-08-19T12:58:22Z</time>
      </trkpt>
      <trkpt lat="58.136803032830358" lon="-3.610015958547592">
        <ele>168.84999999999999</ele>
        <time>2023-08-19T12:58:23Z</time>
      </trkpt>
      <trkpt lat="58.136972011998296" lon="-3.609818983823061">
        <ele>170.28999999999999</ele>
        <time>2023-08-19T12:58:24Z</time>
      </trkpt>
      <trkpt lat="58.137147026136518" lon="-3.609643969684839">
        <ele>171.25</ele>
        <time>2023-08-19T12:58:25Z</time>
      </trkpt>
      <trkpt lat="58.137322040274739" lon="-3.609469039365649">
        <ele>173.16999999999999</ele>
        <time>2023-08-19T12:58:26Z</time>
      </trkpt>
      <trkpt lat="58.137505017220974" lon="-3.609328977763653">
        <ele>174.62</ele>
        <time>2023-08-19T12:58:27Z</time>
      </trkpt>
      <trkpt lat="58.137694029137492" lon="-3.609212972223759">
        <ele>176.06</ele>
        <time>2023-08-19T12:58:28Z</time>
      </trkpt>
      <trkpt lat="58.137894021347165" lon="-3.609137032181025">
        <ele>177.5</ele>
        <time>2023-08-19T12:58:29Z</time>
      </trkpt>
      <trkpt lat="58.138093007728457" lon="-3.609096966683865">
        <ele>178.94</ele>
        <time>2023-08-19T12:58:30Z</time>
      </trkpt>
      <trkpt lat="58.138294005766511" lon="-3.609086992219091">
        <ele>181.34999999999999</ele>
        <time>2023-08-19T12:58:31Z</time>
      </trkpt>
      <trkpt lat="58.138491986319423" lon="-3.609121022745967">
        <ele>183.27000000000001</ele>
        <time>2023-08-19T12:58:32Z</time>
      </trkpt>
      <trkpt lat="58.138688961043954" lon="-3.609154969453812">
        <ele>185.19</ele>
        <time>2023-08-19T12:58:33Z</time>
      </trkpt>
      <trkpt lat="58.138886019587517" lon="-3.609216995537281">
        <ele>187.11000000000001</ele>
        <time>2023-08-19T12:58:34Z</time>
      </trkpt>
      <trkpt lat="58.139064973220229" lon="-3.609342975541949">
        <ele>189.03999999999999</ele>
        <time>2023-08-19T12:58:35Z</time>
      </trkpt>
      <trkpt lat="58.139245016500354" lon="-3.609469961374998">
        <ele>190.96000000000001</ele>
        <time>2023-08-19T12:58:36Z</time>
      </trkpt>
      <trkpt lat="58.139425981789827" lon="-3.60960197634995">
        <ele>192.40000000000001</ele>
        <time>2023-08-19T12:58:37Z</time>
      </trkpt>
      <trkpt lat="58.139594960957766" lon="-3.609791994094849">
        <ele>193.84</ele>
        <time>2023-08-19T12:58:38Z</time>
      </trkpt>
      <trkpt lat="58.140989039093256" lon="-3.611088003963232">
        <ele>200.56999999999999</ele>
        <time>2023-08-19T12:58:46Z</time>
      </trkpt>
      <trkpt lat="58.141411989927292" lon="-3.611371982842684">
        <ele>201.53</ele>
        <time>2023-08-19T12:58:49Z</time>
      </trkpt>
      <trkpt lat="58.141531012952328" lon="-3.61142504028976">
        <ele>201.53</ele>
        <time>2023-08-19T12:58:50Z</time>
      </trkpt>
      <trkpt lat="58.141630003228784" lon="-3.611469967290759">
        <ele>202.00999999999999</ele>
        <time>2023-08-19T12:58:51Z</time>
      </trkpt>
      <trkpt lat="58.141722958534956" lon="-3.611420011147857">
        <ele>202.00999999999999</ele>
        <time>2023-08-19T12:58:52Z</time>
      </trkpt>
      <trkpt lat="58.141807029023767" lon="-3.611358990892768">
        <ele>202.00999999999999</ele>
        <time>2023-08-19T12:58:53Z</time>
      </trkpt>
      <trkpt lat="58.141894033178687" lon="-3.611200992017984">
        <ele>202.00999999999999</ele>
        <time>2023-08-19T12:58:54Z</time>
      </trkpt>
      <trkpt lat="58.141918005421758" lon="-3.611006028950214">
        <ele>201.53</ele>
        <time>2023-08-19T12:58:55Z</time>
      </trkpt>
      <trkpt lat="58.141943989321589" lon="-3.610797990113497">
        <ele>201.05000000000001</ele>
        <time>2023-08-19T12:58:56Z</time>
      </trkpt>
      <trkpt lat="58.141920017078519" lon="-3.610613001510501">
        <ele>200.56999999999999</ele>
        <time>2023-08-19T12:58:57Z</time>
      </trkpt>
      <trkpt lat="58.141877017915249" lon="-3.610430024564266">
        <ele>200.56999999999999</ele>
        <time>2023-08-19T12:58:58Z</time>
      </trkpt>
      <trkpt lat="58.141783978790045" lon="-3.610209999606013">
        <ele>200.09</ele>
        <time>2023-08-19T12:58:59Z</time>
      </trkpt>
      <trkpt lat="58.141679037362337" lon="-3.609962984919548">
        <ele>200.09</ele>
        <time>2023-08-19T12:59:00Z</time>
      </trkpt>
      <trkpt lat="58.141567977145314" lon="-3.609679006040096">
        <ele>200.09</ele>
        <time>2023-08-19T12:59:01Z</time>
      </trkpt>
      <trkpt lat="58.14095500856638" lon="-3.607516977936029">
        <ele>201.53</ele>
        <time>2023-08-19T12:59:08Z</time>
      </trkpt>
      <trkpt lat="58.140621995553374" lon="-3.60463896766305">
        <ele>204.90000000000001</ele>
        <time>2023-08-19T12:59:16Z</time>
      </trkpt>
      <trkpt lat="58.140860963612795" lon="-3.602005038410425">
        <ele>208.74000000000001</ele>
        <time>2023-08-19T12:59:24Z</time>
      </trkpt>
      <trkpt lat="58.141029020771384" lon="-3.601502040401101">
        <ele>209.69999999999999</ele>
        <time>2023-08-19T12:59:26Z</time>
      </trkpt>
      <trkpt lat="58.141131028532982" lon="-3.601282015442848">
        <ele>209.69999999999999</ele>
        <time>2023-08-19T12:59:27Z</time>
      </trkpt>
      <trkpt lat="58.141249967738986" lon="-3.601080011576414">
        <ele>210.19</ele>
        <time>2023-08-19T12:59:28Z</time>
      </trkpt>
      <trkpt lat="58.14138600602746" lon="-3.600896028801799">
        <ele>210.66999999999999</ele>
        <time>2023-08-19T12:59:29Z</time>
      </trkpt>
      <trkpt lat="58.141524977982044" lon="-3.600708022713661">
        <ele>211.15000000000001</ele>
        <time>2023-08-19T12:59:30Z</time>
      </trkpt>
      <trkpt lat="58.141697980463505" lon="-3.600611966103315">
        <ele>212.11000000000001</ele>
        <time>2023-08-19T12:59:31Z</time>
      </trkpt>
      <trkpt lat="58.14187902957201" lon="-3.600547006353736">
        <ele>213.06999999999999</ele>
        <time>2023-08-19T12:59:32Z</time>
      </trkpt>
      <trkpt lat="58.142095031216741" lon="-3.600468970835209">
        <ele>214.03</ele>
        <time>2023-08-19T12:59:33Z</time>
      </trkpt>
      <trkpt lat="58.14226602204144" lon="-3.600504007190466">
        <ele>214.50999999999999</ele>
        <time>2023-08-19T12:59:34Z</time>
      </trkpt>
      <trkpt lat="58.142462996765971" lon="-3.600543988868594">
        <ele>215.47</ele>
        <time>2023-08-19T12:59:35Z</time>
      </trkpt>
      <trkpt lat="58.144144993275404" lon="-3.600722020491958">
        <ele>223.16</ele>
        <time>2023-08-19T12:59:43Z</time>
      </trkpt>
      <trkpt lat="58.144354959949851" lon="-3.600669968873262">
        <ele>223.63999999999999</ele>
        <time>2023-08-19T12:59:44Z</time>
      </trkpt>
      <trkpt lat="58.14456501044333" lon="-3.600576007738709">
        <ele>224.12</ele>
        <time>2023-08-19T12:59:45Z</time>
      </trkpt>
      <trkpt lat="58.144753016531467" lon="-3.600395964458585">
        <ele>224.61000000000001</ele>
        <time>2023-08-19T12:59:46Z</time>
      </trkpt>
      <trkpt lat="58.144941022619605" lon="-3.600217010825872">
        <ele>225.09</ele>
        <time>2023-08-19T12:59:47Z</time>
      </trkpt>
      <trkpt lat="58.145119976252317" lon="-3.600010983645916">
        <ele>225.56999999999999</ele>
        <time>2023-08-19T12:59:48Z</time>
      </trkpt>
      <trkpt lat="58.145293984562159" lon="-3.599796993657947">
        <ele>225.56999999999999</ele>
        <time>2023-08-19T12:59:49Z</time>
      </trkpt>
      <trkpt lat="58.146710023283958" lon="-3.598373997956514">
        <ele>227.00999999999999</ele>
        <time>2023-08-19T12:59:57Z</time>
      </trkpt>
      <trkpt lat="58.148471983149648" lon="-3.596736006438732">
        <ele>228.93000000000001</ele>
        <time>2023-08-19T13:00:07Z</time>
      </trkpt>
      <trkpt lat="58.149400027468801" lon="-3.594703981652856">
        <ele>224.12</ele>
        <time>2023-08-19T13:00:14Z</time>
      </trkpt>
      <trkpt lat="58.150091031566262" lon="-3.591776015236974">
        <ele>216.43000000000001</ele>
        <time>2023-08-19T13:00:22Z</time>
      </trkpt>
      <trkpt lat="58.15040803514421" lon="-3.590788962319493">
        <ele>213.55000000000001</ele>
        <time>2023-08-19T13:00:25Z</time>
      </trkpt>
      <trkpt lat="58.151500029489398" lon="-3.588760038837791">
        <ele>206.34</ele>
        <time>2023-08-19T13:00:33Z</time>
      </trkpt>
      <trkpt lat="58.152809031307697" lon="-3.587743984535337">
        <ele>200.56999999999999</ele>
        <time>2023-08-19T13:00:40Z</time>
      </trkpt>
      <trkpt lat="58.15444802865386" lon="-3.587508033961058">
        <ele>194.31999999999999</ele>
        <time>2023-08-19T13:00:48Z</time>
      </trkpt>
      <trkpt lat="58.155816039070487" lon="-3.588053025305271">
        <ele>187.59</ele>
        <time>2023-08-19T13:00:55Z</time>
      </trkpt>
      <trkpt lat="58.156580971553922" lon="-3.588459966704249">
        <ele>184.22999999999999</ele>
        <time>2023-08-19T13:00:59Z</time>
      </trkpt>
      <trkpt lat="58.158219968900084" lon="-3.589114006608725">
        <ele>176.06</ele>
        <time>2023-08-19T13:01:07Z</time>
      </trkpt>
      <trkpt lat="58.159063020721078" lon="-3.588999006897211">
        <ele>172.69</ele>
        <time>2023-08-19T13:01:11Z</time>
      </trkpt>
      <trkpt lat="58.160447040572762" lon="-3.588252011686564">
        <ele>166.44999999999999</ele>
        <time>2023-08-19T13:01:18Z</time>
      </trkpt>
      <trkpt lat="58.16171002574265" lon="-3.587310975417495">
        <ele>159.24000000000001</ele>
        <time>2023-08-19T13:01:26Z</time>
      </trkpt>
      <trkpt lat="58.162300027906895" lon="-3.586701024323702">
        <ele>156.34999999999999</ele>
        <time>2023-08-19T13:01:30Z</time>
      </trkpt>
      <trkpt lat="58.162447968497872" lon="-3.586474964395165">
        <ele>155.38999999999999</ele>
        <time>2023-08-19T13:01:31Z</time>
      </trkpt>
      <trkpt lat="58.162581995129585" lon="-3.586208000779152">
        <ele>154.43000000000001</ele>
        <time>2023-08-19T13:01:32Z</time>
      </trkpt>
      <trkpt lat="58.162713004276156" lon="-3.585910024121404">
        <ele>153.47</ele>
        <time>2023-08-19T13:01:33Z</time>
      </trkpt>
      <trkpt lat="58.162836972624063" lon="-3.585596960037947">
        <ele>152.50999999999999</ele>
        <time>2023-08-19T13:01:34Z</time>
      </trkpt>
      <trkpt lat="58.162948032841086" lon="-3.585246009752154">
        <ele>151.53999999999999</ele>
        <time>2023-08-19T13:01:35Z</time>
      </trkpt>
      <trkpt lat="58.16302003338933" lon="-3.584858011454344">
        <ele>150.58000000000001</ele>
        <time>2023-08-19T13:01:36Z</time>
      </trkpt>
      <trkpt lat="58.163093039765954" lon="-3.584460038691759">
        <ele>150.09999999999999</ele>
        <time>2023-08-19T13:01:37Z</time>
      </trkpt>
      <trkpt lat="58.163137966766953" lon="-3.584043961018324">
        <ele>149.62</ele>
        <time>2023-08-19T13:01:38Z</time>
      </trkpt>
      <trkpt lat="58.163163028657436" lon="-3.583614975214005">
        <ele>148.66</ele>
        <time>2023-08-19T13:01:39Z</time>
      </trkpt>
      <trkpt lat="58.163188006728888" lon="-3.58319504186511">
        <ele>148.18000000000001</ele>
        <time>2023-08-19T13:01:40Z</time>
      </trkpt>
      <trkpt lat="58.163155987858772" lon="-3.582778964191675">
        <ele>147.69999999999999</ele>
        <time>2023-08-19T13:01:41Z</time>
      </trkpt>
      <trkpt lat="58.163123968988657" lon="-3.582358025014401">
        <ele>146.74000000000001</ele>
        <time>2023-08-19T13:01:42Z</time>
      </trkpt>
      <trkpt lat="58.162774024531245" lon="-3.578307973220944">
        <ele>139.05000000000001</ele>
        <time>2023-08-19T13:01:52Z</time>
      </trkpt>
      <trkpt lat="58.162921965122223" lon="-3.575622998178005">
        <ele>137.13</ele>
        <time>2023-08-19T13:01:59Z</time>
      </trkpt>
      <trkpt lat="58.163480032235384" lon="-3.571446966379881">
        <ele>135.19999999999999</ele>
        <time>2023-08-19T13:02:10Z</time>
      </trkpt>
      <trkpt lat="58.163508027791977" lon="-3.568257987499237">
        <ele>134.72</ele>
        <time>2023-08-19T13:02:18Z</time>
      </trkpt>
      <trkpt lat="58.163188006728888" lon="-3.564082039520145">
        <ele>143.84999999999999</ele>
        <time>2023-08-19T13:02:29Z</time>
      </trkpt>
      <trkpt lat="58.163282973691821" lon="-3.561405027285218">
        <ele>152.03</ele>
        <time>2023-08-19T13:02:36Z</time>
      </trkpt>
      <trkpt lat="58.163643982261419" lon="-3.55777901597321">
        <ele>158.75</ele>
        <time>2023-08-19T13:02:46Z</time>
      </trkpt>
      <trkpt lat="58.164172964170575" lon="-3.555738022550941">
        <ele>162.12</ele>
        <time>2023-08-19T13:02:52Z</time>
      </trkpt>
      <trkpt lat="58.165202010422945" lon="-3.55393398553133">
        <ele>167.88999999999999</ele>
        <time>2023-08-19T13:02:59Z</time>
      </trkpt>
      <trkpt lat="58.16628796979785" lon="-3.5517009627074">
        <ele>175.58000000000001</ele>
        <time>2023-08-19T13:03:07Z</time>
      </trkpt>
      <trkpt lat="58.16699598915875" lon="-3.549139034003019">
        <ele>175.58000000000001</ele>
        <time>2023-08-19T13:03:15Z</time>
      </trkpt>
      <trkpt lat="58.167881034314632" lon="-3.545545041561127">
        <ele>169.33000000000001</ele>
        <time>2023-08-19T13:03:24Z</time>
      </trkpt>
      <trkpt lat="58.168919971212745" lon="-3.541602026671171">
        <ele>164.03999999999999</ele>
        <time>2023-08-19T13:03:34Z</time>
      </trkpt>
      <trkpt lat="58.169554984197021" lon="-3.538326965644956">
        <ele>162.12</ele>
        <time>2023-08-19T13:03:43Z</time>
      </trkpt>
      <trkpt lat="58.169770985841751" lon="-3.535059029236436">
        <ele>161.16</ele>
        <time>2023-08-19T13:03:50Z</time>
      </trkpt>
      <trkpt lat="58.17009100690484" lon="-3.531225984916091">
        <ele>159.24000000000001</ele>
        <time>2023-08-19T13:03:59Z</time>
      </trkpt>
      <trkpt lat="58.170835990458727" lon="-3.527833996340632">
        <ele>158.27000000000001</ele>
        <time>2023-08-19T13:04:08Z</time>
      </trkpt>
      <trkpt lat="58.17189697176218" lon="-3.524721041321755">
        <ele>155.87</ele>
        <time>2023-08-19T13:04:17Z</time>
      </trkpt>
      <trkpt lat="58.173086028546095" lon="-3.522849027067423">
        <ele>152.99000000000001</ele>
        <time>2023-08-19T13:04:24Z</time>
      </trkpt>
      <trkpt lat="58.174822004511952" lon="-3.520517013967037">
        <ele>148.18000000000001</ele>
        <time>2023-08-19T13:04:34Z</time>
      </trkpt>
      <trkpt lat="58.176408028230071" lon="-3.518282985314727">
        <ele>146.74000000000001</ele>
        <time>2023-08-19T13:04:44Z</time>
      </trkpt>
      <trkpt lat="58.177453000098467" lon="-3.516597971320152">
        <ele>141.44999999999999</ele>
        <time>2023-08-19T13:04:51Z</time>
      </trkpt>
      <trkpt lat="58.177572023123503" lon="-3.516321033239365">
        <ele>140.00999999999999</ele>
        <time>2023-08-19T13:04:52Z</time>
      </trkpt>
      <trkpt lat="58.17767595872283" lon="-3.516028001904488">
        <ele>138.56999999999999</ele>
        <time>2023-08-19T13:04:53Z</time>
      </trkpt>
      <trkpt lat="58.177753994241357" lon="-3.515689037740231">
        <ele>137.13</ele>
        <time>2023-08-19T13:04:54Z</time>
      </trkpt>
      <trkpt lat="58.177833035588264" lon="-3.515344960615039">
        <ele>135.68000000000001</ele>
        <time>2023-08-19T13:04:55Z</time>
      </trkpt>
      <trkpt lat="58.177901012822986" lon="-3.514988981187344">
        <ele>133.75999999999999</ele>
        <time>2023-08-19T13:04:56Z</time>
      </trkpt>
      <trkpt lat="58.177945017814636" lon="-3.514606012031436">
        <ele>132.31999999999999</ele>
        <time>2023-08-19T13:04:57Z</time>
      </trkpt>
      <trkpt lat="58.178249029442668" lon="-3.51229403167963">
        <ele>119.34</ele>
        <time>2023-08-19T13:05:03Z</time>
      </trkpt>
      <trkpt lat="58.178432006388903" lon="-3.511553993448615">
        <ele>115.01000000000001</ele>
        <time>2023-08-19T13:05:05Z</time>
      </trkpt>
      <trkpt lat="58.179339012131095" lon="-3.5090939886868">
        <ele>97.230000000000004</ele>
        <time>2023-08-19T13:05:12Z</time>
      </trkpt>
      <trkpt lat="58.18048800341785" lon="-3.507204037159681">
        <ele>80.409999999999997</ele>
        <time>2023-08-19T13:05:19Z</time>
      </trkpt>
      <trkpt lat="58.181402971968055" lon="-3.505987990647554">
        <ele>66.469999999999999</ele>
        <time>2023-08-19T13:05:25Z</time>
      </trkpt>
      <trkpt lat="58.181511014699936" lon="-3.505743993446231">
        <ele>64.549999999999997</ele>
        <time>2023-08-19T13:05:26Z</time>
      </trkpt>
      <trkpt lat="58.181569017469883" lon="-3.505476024001837">
        <ele>62.619999999999997</ele>
        <time>2023-08-19T13:05:27Z</time>
      </trkpt>
      <trkpt lat="58.181616961956024" lon="-3.505179975181818">
        <ele>60.700000000000003</ele>
        <time>2023-08-19T13:05:28Z</time>
      </trkpt>
      <trkpt lat="58.181662978604436" lon="-3.504895996302366">
        <ele>58.780000000000001</ele>
        <time>2023-08-19T13:05:29Z</time>
      </trkpt>
      <trkpt lat="58.181676976382732" lon="-3.504602964967489">
        <ele>56.859999999999999</ele>
        <time>2023-08-19T13:05:30Z</time>
      </trkpt>
      <trkpt lat="58.181691979989409" lon="-3.504289984703064">
        <ele>54.93</ele>
        <time>2023-08-19T13:05:31Z</time>
      </trkpt>
      <trkpt lat="58.181706983596087" lon="-3.503968035802245">
        <ele>52.530000000000001</ele>
        <time>2023-08-19T13:05:32Z</time>
      </trkpt>
      <trkpt lat="58.181721987202764" lon="-3.503644997254014">
        <ele>50.609999999999999</ele>
        <time>2023-08-19T13:05:33Z</time>
      </trkpt>
      <trkpt lat="58.181774960830808" lon="-3.503312990069389">
        <ele>48.68</ele>
        <time>2023-08-19T13:05:34Z</time>
      </trkpt>
      <trkpt lat="58.18184201605618" lon="-3.503018030896783">
        <ele>46.280000000000001</ele>
        <time>2023-08-19T13:05:35Z</time>
      </trkpt>
      <trkpt lat="58.182650031521916" lon="-3.50032601505518">
        <ele>21.289999999999999</ele>
        <time>2023-08-19T13:05:45Z</time>
      </trkpt>
      <trkpt lat="58.182804007083178" lon="-3.500200035050511">
        <ele>18.879999999999999</ele>
        <time>2023-08-19T13:05:46Z</time>
      </trkpt>
      <trkpt lat="58.182906014844775" lon="-3.500140020623803">
        <ele>16.48</ele>
        <time>2023-08-19T13:05:47Z</time>
      </trkpt>
      <trkpt lat="58.183026965707541" lon="-3.500186959281564">
        <ele>14.08</ele>
        <time>2023-08-19T13:05:48Z</time>
      </trkpt>
      <trkpt lat="58.183167027309537" lon="-3.500242028385401">
        <ele>12.15</ele>
        <time>2023-08-19T13:05:49Z</time>
      </trkpt>
      <trkpt lat="58.183314967900515" lon="-3.50041201338172">
        <ele>9.75</ele>
        <time>2023-08-19T13:05:50Z</time>
      </trkpt>
      <trkpt lat="58.183431979268789" lon="-3.500571018084884">
        <ele>7.35</ele>
        <time>2023-08-19T13:05:51Z</time>
      </trkpt>
      <trkpt lat="58.183572040870786" lon="-3.500742008909583">
        <ele>4.94</ele>
        <time>2023-08-19T13:05:52Z</time>
      </trkpt>
      <trkpt lat="58.183720987290144" lon="-3.500861031934619">
        <ele>2.54</ele>
        <time>2023-08-19T13:05:53Z</time>
      </trkpt>
      <trkpt lat="58.183899018913507" lon="-3.500920962542296">
        <ele>0.14</ele>
        <time>2023-08-19T13:05:54Z</time>
      </trkpt>
      <trkpt lat="58.184083001688123" lon="-3.500959016382694">
        <ele>-1.79</ele>
        <time>2023-08-19T13:05:55Z</time>
      </trkpt>
      <trkpt lat="58.184280982241035" lon="-3.50090503692627">
        <ele>-3.71</ele>
        <time>2023-08-19T13:05:56Z</time>
      </trkpt>
      <trkpt lat="58.184731006622314" lon="-3.500770004466176">
        <ele>-7.07</ele>
        <time>2023-08-19T13:05:59Z</time>
      </trkpt>
      <trkpt lat="58.184824967756867" lon="-3.500706972554326">
        <ele>-7.55</ele>
        <time>2023-08-19T13:06:00Z</time>
      </trkpt>
      <trkpt lat="58.184946002438664" lon="-3.500626003369689">
        <ele>-7.55</ele>
        <time>2023-08-19T13:06:01Z</time>
      </trkpt>
      <trkpt lat="58.184976009652019" lon="-3.500489965081215">
        <ele>-7.55</ele>
        <time>2023-08-19T13:06:02Z</time>
      </trkpt>
      <trkpt lat="58.185014985501766" lon="-3.500315034762025">
        <ele>-7.55</ele>
        <time>2023-08-19T13:06:03Z</time>
      </trkpt>
      <trkpt lat="58.185008028522134" lon="-3.50011202506721">
        <ele>-7.07</ele>
        <time>2023-08-19T13:06:04Z</time>
      </trkpt>
      <trkpt lat="58.184976009652019" lon="-3.499941034242511">
        <ele>-6.59</ele>
        <time>2023-08-19T13:06:05Z</time>
      </trkpt>
      <trkpt lat="58.184912977740169" lon="-3.499786974862218">
        <ele>-6.11</ele>
        <time>2023-08-19T13:06:06Z</time>
      </trkpt>
      <trkpt lat="58.184832008555532" lon="-3.499624030664563">
        <ele>-5.63</ele>
        <time>2023-08-19T13:06:07Z</time>
      </trkpt>
      <trkpt lat="58.184739975258708" lon="-3.499441975727677">
        <ele>-5.15</ele>
        <time>2023-08-19T13:06:08Z</time>
      </trkpt>
      <trkpt lat="58.184208981692791" lon="-3.498426005244255">
        <ele>-1.3</ele>
        <time>2023-08-19T13:06:13Z</time>
      </trkpt>
      <trkpt lat="58.184123989194632" lon="-3.498187959194183">
        <ele>-0.34</ele>
        <time>2023-08-19T13:06:14Z</time>
      </trkpt>
      <trkpt lat="58.184073027223349" lon="-3.497973969206214">
        <ele>0.14</ele>
        <time>2023-08-19T13:06:15Z</time>
      </trkpt>
      <trkpt lat="58.184022987261415" lon="-3.497759979218245">
        <ele>0.62</ele>
        <time>2023-08-19T13:06:16Z</time>
      </trkpt>
      <trkpt lat="58.183985017240047" lon="-3.497471977025271">
        <ele>1.58</ele>
        <time>2023-08-19T13:06:17Z</time>
      </trkpt>
      <trkpt lat="58.183993985876441" lon="-3.497234014794231">
        <ele>2.54</ele>
        <time>2023-08-19T13:06:18Z</time>
      </trkpt>
      <trkpt lat="58.184023993089795" lon="-3.496948024258018">
        <ele>4.46</ele>
        <time>2023-08-19T13:06:19Z</time>
      </trkpt>
      <trkpt lat="58.184085013344884" lon="-3.496746020391583">
        <ele>5.91</ele>
        <time>2023-08-19T13:06:20Z</time>
      </trkpt>
      <trkpt lat="58.184204958379269" lon="-3.496518032625318">
        <ele>7.35</ele>
        <time>2023-08-19T13:06:21Z</time>
      </trkpt>
      <trkpt lat="58.184310989454389" lon="-3.496412001550198">
        <ele>8.789999999999999</ele>
        <time>2023-08-19T13:06:22Z</time>
      </trkpt>
      <trkpt lat="58.184453984722495" lon="-3.496356010437012">
        <ele>10.23</ele>
        <time>2023-08-19T13:06:23Z</time>
      </trkpt>
      <trkpt lat="58.184578958898783" lon="-3.496356010437012">
        <ele>11.67</ele>
        <time>2023-08-19T13:06:24Z</time>
      </trkpt>
      <trkpt lat="58.184732012450695" lon="-3.496432034298778">
        <ele>13.6</ele>
        <time>2023-08-19T13:06:25Z</time>
      </trkpt>
      <trkpt lat="58.184870984405279" lon="-3.496591039001942">
        <ele>15.039999999999999</ele>
        <time>2023-08-19T13:06:26Z</time>
      </trkpt>
      <trkpt lat="58.184971986338496" lon="-3.496837969869375">
        <ele>16.48</ele>
        <time>2023-08-19T13:06:27Z</time>
      </trkpt>
      <trkpt lat="58.185041975229979" lon="-3.497093031182885">
        <ele>17.920000000000002</ele>
        <time>2023-08-19T13:06:28Z</time>
      </trkpt>
      <trkpt lat="58.185113975778222" lon="-3.497355971485376">
        <ele>19.359999999999999</ele>
        <time>2023-08-19T13:06:29Z</time>
      </trkpt>
      <trkpt lat="58.18525898270309" lon="-3.497882019728422">
        <ele>22.25</ele>
        <time>2023-08-19T13:06:31Z</time>
      </trkpt>
      <trkpt lat="58.185320002958179" lon="-3.498088968917728">
        <ele>23.690000000000001</ele>
        <time>2023-08-19T13:06:32Z</time>
      </trkpt>
      <trkpt lat="58.18543097935617" lon="-3.498299019411206">
        <ele>24.649999999999999</ele>
        <time>2023-08-19T13:06:33Z</time>
      </trkpt>
      <trkpt lat="58.185532987117767" lon="-3.498462969437242">
        <ele>26.09</ele>
        <time>2023-08-19T13:06:34Z</time>
      </trkpt>
      <trkpt lat="58.185680005699396" lon="-3.498591966927052">
        <ele>27.530000000000001</ele>
        <time>2023-08-19T13:06:35Z</time>
      </trkpt>
      <trkpt lat="58.185846973210573" lon="-3.4987379796803">
        <ele>28.98</ele>
        <time>2023-08-19T13:06:36Z</time>
      </trkpt>
      <trkpt lat="58.18598804064095" lon="-3.498753989115357">
        <ele>30.899999999999999</ele>
        <time>2023-08-19T13:06:37Z</time>
      </trkpt>
      <trkpt lat="58.186212005093694" lon="-3.49878097884357">
        <ele>32.340000000000003</ele>
        <time>2023-08-19T13:06:38Z</time>
      </trkpt>
      <trkpt lat="58.186325998976827" lon="-3.498705038800836">
        <ele>34.259999999999998</ele>
        <time>2023-08-19T13:06:39Z</time>
      </trkpt>
      <trkpt lat="58.186492966488004" lon="-3.498594984412193">
        <ele>36.189999999999998</ele>
        <time>2023-08-19T13:06:40Z</time>
      </trkpt>
      <trkpt lat="58.186662029474974" lon="-3.498483002185822">
        <ele>38.109999999999999</ele>
        <time>2023-08-19T13:06:41Z</time>
      </trkpt>
      <trkpt lat="58.188329022377729" lon="-3.497272990643978">
        <ele>56.369999999999997</ele>
        <time>2023-08-19T13:06:51Z</time>
      </trkpt>
      <trkpt lat="58.188493978232145" lon="-3.497136030346155">
        <ele>58.299999999999997</ele>
        <time>2023-08-19T13:06:52Z</time>
      </trkpt>
      <trkpt lat="58.188637979328632" lon="-3.496924974024296">
        <ele>60.700000000000003</ele>
        <time>2023-08-19T13:06:53Z</time>
      </trkpt>
      <trkpt lat="58.188773011788726" lon="-3.496698997914791">
        <ele>62.619999999999997</ele>
        <time>2023-08-19T13:06:54Z</time>
      </trkpt>
      <trkpt lat="58.189156986773014" lon="-3.496056022122502">
        <ele>68.390000000000001</ele>
        <time>2023-08-19T13:06:57Z</time>
      </trkpt>
      <trkpt lat="58.189284978434443" lon="-3.495897017419338">
        <ele>70.310000000000002</ele>
        <time>2023-08-19T13:06:58Z</time>
      </trkpt>
      <trkpt lat="58.18942504003644" lon="-3.49575100466609">
        <ele>72.719999999999999</ele>
        <time>2023-08-19T13:06:59Z</time>
      </trkpt>
      <trkpt lat="58.189976988360286" lon="-3.495202995836735">
        <ele>81.849999999999994</ele>
        <time>2023-08-19T13:07:03Z</time>
      </trkpt>
      <trkpt lat="58.190115038305521" lon="-3.495058994740248">
        <ele>83.769999999999996</ele>
        <time>2023-08-19T13:07:04Z</time>
      </trkpt>
      <trkpt lat="58.190234983339906" lon="-3.494865037500858">
        <ele>86.180000000000007</ele>
        <time>2023-08-19T13:07:05Z</time>
      </trkpt>
      <trkpt lat="58.190343026071787" lon="-3.494622968137264">
        <ele>89.060000000000002</ele>
        <time>2023-08-19T13:07:06Z</time>
      </trkpt>
      <trkpt lat="58.190444028005004" lon="-3.494357010349631">
        <ele>90.980000000000004</ele>
        <time>2023-08-19T13:07:07Z</time>
      </trkpt>
      <trkpt lat="58.190504964441061" lon="-3.494055010378361">
        <ele>92.900000000000006</ele>
        <time>2023-08-19T13:07:08Z</time>
      </trkpt>
      <trkpt lat="58.190569002181292" lon="-3.493730966001749">
        <ele>94.349999999999994</ele>
        <time>2023-08-19T13:07:09Z</time>
      </trkpt>
      <trkpt lat="58.190623987466097" lon="-3.493397030979395">
        <ele>95.790000000000006</ele>
        <time>2023-08-19T13:07:10Z</time>
      </trkpt>
      <trkpt lat="58.190838983282447" lon="-3.492196993902326">
        <ele>101.08</ele>
        <time>2023-08-19T13:07:14Z</time>
      </trkpt>
      <trkpt lat="58.190925987437367" lon="-3.491951990872622">
        <ele>102.52</ele>
        <time>2023-08-19T13:07:15Z</time>
      </trkpt>
      <trkpt lat="58.19103897549212" lon="-3.491748981177807">
        <ele>103.95999999999999</ele>
        <time>2023-08-19T13:07:16Z</time>
      </trkpt>
      <trkpt lat="58.191159004345536" lon="-3.491560975089669">
        <ele>105.88</ele>
        <time>2023-08-19T13:07:17Z</time>
      </trkpt>
      <trkpt lat="58.191300993785262" lon="-3.491428038105369">
        <ele>106.84</ele>
        <time>2023-08-19T13:07:18Z</time>
      </trkpt>
      <trkpt lat="58.19144600071013" lon="-3.491289988160133">
        <ele>108.77</ele>
        <time>2023-08-19T13:07:19Z</time>
      </trkpt>
      <trkpt lat="58.191611962392926" lon="-3.491207007318735">
        <ele>110.20999999999999</ele>
        <time>2023-08-19T13:07:20Z</time>
      </trkpt>
      <trkpt lat="58.191780019551516" lon="-3.491172976791859">
        <ele>111.65000000000001</ele>
        <time>2023-08-19T13:07:21Z</time>
      </trkpt>
      <trkpt lat="58.191952016204596" lon="-3.491137018427253">
        <ele>113.56999999999999</ele>
        <time>2023-08-19T13:07:22Z</time>
      </trkpt>
      <trkpt lat="58.192853992804885" lon="-3.49089402705431">
        <ele>122.22</ele>
        <time>2023-08-19T13:07:27Z</time>
      </trkpt>
      <trkpt lat="58.193029006943107" lon="-3.490792019292712">
        <ele>124.15000000000001</ele>
        <time>2023-08-19T13:07:28Z</time>
      </trkpt>
      <trkpt lat="58.194401040673256" lon="-3.489428032189608">
        <ele>132.80000000000001</ele>
        <time>2023-08-19T13:07:37Z</time>
      </trkpt>
      <trkpt lat="58.195151975378394" lon="-3.487555012106895">
        <ele>128.47</ele>
        <time>2023-08-19T13:07:44Z</time>
      </trkpt>
      <trkpt lat="58.196494001895189" lon="-3.483217963948846">
        <ele>140.49000000000001</ele>
        <time>2023-08-19T13:07:58Z</time>
      </trkpt>
      <trkpt lat="58.197473008185625" lon="-3.481842996552587">
        <ele>141.93000000000001</ele>
        <time>2023-08-19T13:08:04Z</time>
      </trkpt>
      <trkpt lat="58.199258018285036" lon="-3.480246998369694">
        <ele>141.93000000000001</ele>
        <time>2023-08-19T13:08:15Z</time>
      </trkpt>
      <trkpt lat="58.200633991509676" lon="-3.479564962908626">
        <ele>139.05000000000001</ele>
        <time>2023-08-19T13:08:23Z</time>
      </trkpt>
      <trkpt lat="58.202494019642472" lon="-3.479022989049554">
        <ele>135.19999999999999</ele>
        <time>2023-08-19T13:08:33Z</time>
      </trkpt>
      <trkpt lat="58.203634964302182" lon="-3.47882098518312">
        <ele>135.19999999999999</ele>
        <time>2023-08-19T13:08:40Z</time>
      </trkpt>
      <trkpt lat="58.204785967245698" lon="-3.479087026789784">
        <ele>135.68000000000001</ele>
        <time>2023-08-19T13:08:48Z</time>
      </trkpt>
      <trkpt lat="58.204886969178915" lon="-3.479155004024506">
        <ele>135.68000000000001</ele>
        <time>2023-08-19T13:08:49Z</time>
      </trkpt>
      <trkpt lat="58.205719040706754" lon="-3.479938041418791">
        <ele>135.19999999999999</ele>
        <time>2023-08-19T13:08:57Z</time>
      </trkpt>
      <trkpt lat="58.20586103014648" lon="-3.48002303391695">
        <ele>135.19999999999999</ele>
        <time>2023-08-19T13:08:58Z</time>
      </trkpt>
      <trkpt lat="58.206020034849644" lon="-3.480034014210105">
        <ele>135.68000000000001</ele>
        <time>2023-08-19T13:08:59Z</time>
      </trkpt>
      <trkpt lat="58.206188008189201" lon="-3.480041977018118">
        <ele>136.16</ele>
        <time>2023-08-19T13:09:00Z</time>
      </trkpt>
      <trkpt lat="58.206363022327423" lon="-3.480035020038486">
        <ele>136.63999999999999</ele>
        <time>2023-08-19T13:09:01Z</time>
      </trkpt>
      <trkpt lat="58.207442024722695" lon="-3.479621037840843">
        <ele>138.09</ele>
        <time>2023-08-19T13:09:08Z</time>
      </trkpt>
      <trkpt lat="58.20796899497509" lon="-3.479433031752706">
        <ele>139.05000000000001</ele>
        <time>2023-08-19T13:09:12Z</time>
      </trkpt>
      <trkpt lat="58.208109978586435" lon="-3.479445017874241">
        <ele>139.05000000000001</ele>
        <time>2023-08-19T13:09:13Z</time>
      </trkpt>
      <trkpt lat="58.208242999389768" lon="-3.47950603812933">
        <ele>139.05000000000001</ele>
        <time>2023-08-19T13:09:14Z</time>
      </trkpt>
      <trkpt lat="58.208378031849861" lon="-3.479582984000444">
        <ele>139.05000000000001</ele>
        <time>2023-08-19T13:09:15Z</time>
      </trkpt>
      <trkpt lat="58.208513986319304" lon="-3.479661019518971">
        <ele>138.56999999999999</ele>
        <time>2023-08-19T13:09:16Z</time>
      </trkpt>
      <trkpt lat="58.20878597907722" lon="-3.479818012565374">
        <ele>138.09</ele>
        <time>2023-08-19T13:09:18Z</time>
      </trkpt>
      <trkpt lat="58.208921011537313" lon="-3.479857994243503">
        <ele>137.61000000000001</ele>
        <time>2023-08-19T13:09:19Z</time>
      </trkpt>
      <trkpt lat="58.209057971835136" lon="-3.479863023385406">
        <ele>137.13</ele>
        <time>2023-08-19T13:09:20Z</time>
      </trkpt>
      <trkpt lat="58.210303019732237" lon="-3.479665964841843">
        <ele>136.63999999999999</ele>
        <time>2023-08-19T13:09:28Z</time>
      </trkpt>
      <trkpt lat="58.211479000747204" lon="-3.479405036196113">
        <ele>136.63999999999999</ele>
        <time>2023-08-19T13:09:35Z</time>
      </trkpt>
      <trkpt lat="58.21278196759522" lon="-3.479451974853873">
        <ele>131.84</ele>
        <time>2023-08-19T13:09:44Z</time>
      </trkpt>
      <trkpt lat="58.212917000055313" lon="-3.479525987058878">
        <ele>131.36000000000001</ele>
        <time>2023-08-19T13:09:45Z</time>
      </trkpt>
      <trkpt lat="58.213048009201884" lon="-3.479596981778741">
        <ele>131.36000000000001</ele>
        <time>2023-08-19T13:09:46Z</time>
      </trkpt>
      <trkpt lat="58.213292006403208" lon="-3.479730002582073">
        <ele>130.88</ele>
        <time>2023-08-19T13:09:48Z</time>
      </trkpt>
      <trkpt lat="58.213415974751115" lon="-3.479797979816794">
        <ele>130.40000000000001</ele>
        <time>2023-08-19T13:09:49Z</time>
      </trkpt>
      <trkpt lat="58.21355695836246" lon="-3.479784987866879">
        <ele>129.91999999999999</ele>
        <time>2023-08-19T13:09:50Z</time>
      </trkpt>
      <trkpt lat="58.213696014136076" lon="-3.479751041159034">
        <ele>129.43000000000001</ele>
        <time>2023-08-19T13:09:51Z</time>
      </trkpt>
      <trkpt lat="58.213836997747421" lon="-3.479717010632157">
        <ele>129.43000000000001</ele>
        <time>2023-08-19T13:09:52Z</time>
      </trkpt>
      <trkpt lat="58.213979993015528" lon="-3.479682980105281">
        <ele>129.43000000000001</ele>
        <time>2023-08-19T13:09:53Z</time>
      </trkpt>
      <trkpt lat="58.214118964970112" lon="-3.479612991213799">
        <ele>129.43000000000001</ele>
        <time>2023-08-19T13:09:54Z</time>
      </trkpt>
      <trkpt lat="58.214251985773444" lon="-3.479492040351033">
        <ele>129.43000000000001</ele>
        <time>2023-08-19T13:09:55Z</time>
      </trkpt>
      <trkpt lat="58.215414974838495" lon="-3.478013975545764">
        <ele>127.98999999999999</ele>
        <time>2023-08-19T13:10:04Z</time>
      </trkpt>
      <trkpt lat="58.216238999739289" lon="-3.476311024278402">
        <ele>125.59</ele>
        <time>2023-08-19T13:10:10Z</time>
      </trkpt>
      <trkpt lat="58.21768001653254" lon="-3.472469011321664">
        <ele>121.73999999999999</ele>
        <time>2023-08-19T13:10:21Z</time>
      </trkpt>
      <trkpt lat="58.219413980841637" lon="-3.466666974127293">
        <ele>129.91999999999999</ele>
        <time>2023-08-19T13:10:37Z</time>
      </trkpt>
      <trkpt lat="58.220388041809201" lon="-3.463888959959149">
        <ele>126.55</ele>
        <time>2023-08-19T13:10:45Z</time>
      </trkpt>
      <trkpt lat="58.221443993970752" lon="-3.461130978539586">
        <ele>121.26000000000001</ele>
        <time>2023-08-19T13:10:53Z</time>
      </trkpt>
      <trkpt lat="58.222484020516276" lon="-3.458508029580116">
        <ele>119.81999999999999</ele>
        <time>2023-08-19T13:11:01Z</time>
      </trkpt>
      <trkpt lat="58.224072977900505" lon="-3.455150993540883">
        <ele>112.13</ele>
        <time>2023-08-19T13:11:12Z</time>
      </trkpt>
      <trkpt lat="58.224227959290147" lon="-3.454905990511179">
        <ele>111.65000000000001</ele>
        <time>2023-08-19T13:11:13Z</time>
      </trkpt>
      <trkpt lat="58.224400961771607" lon="-3.45469200052321">
        <ele>110.69</ele>
        <time>2023-08-19T13:11:14Z</time>
      </trkpt>
      <trkpt lat="58.225820017978549" lon="-3.452872037887573">
        <ele>104.92</ele>
        <time>2023-08-19T13:11:22Z</time>
      </trkpt>
      <trkpt lat="58.225966030731797" lon="-3.452591998502612">
        <ele>104.44</ele>
        <time>2023-08-19T13:11:23Z</time>
      </trkpt>
      <trkpt lat="58.226695004850626" lon="-3.450980996713042">
        <ele>104.44</ele>
        <time>2023-08-19T13:11:29Z</time>
      </trkpt>
      <trkpt lat="58.226761976256967" lon="-3.450691988691688">
        <ele>104.44</ele>
        <time>2023-08-19T13:11:30Z</time>
      </trkpt>
      <trkpt lat="58.226829031482339" lon="-3.450405998155475">
        <ele>104.92</ele>
        <time>2023-08-19T13:11:31Z</time>
      </trkpt>
      <trkpt lat="58.226955011487007" lon="-3.449864024296403">
        <ele>104.92</ele>
        <time>2023-08-19T13:11:33Z</time>
      </trkpt>
      <trkpt lat="58.227036986500025" lon="-3.449618015438318">
        <ele>104.92</ele>
        <time>2023-08-19T13:11:34Z</time>
      </trkpt>
      <trkpt lat="58.227135976776481" lon="-3.449381981045008">
        <ele>105.40000000000001</ele>
        <time>2023-08-19T13:11:35Z</time>
      </trkpt>
      <trkpt lat="58.227238990366459" lon="-3.449137983843684">
        <ele>105.40000000000001</ele>
        <time>2023-08-19T13:11:36Z</time>
      </trkpt>
      <trkpt lat="58.227368993684649" lon="-3.448928017169237">
        <ele>105.40000000000001</ele>
        <time>2023-08-19T13:11:37Z</time>
      </trkpt>
      <trkpt lat="58.227516012266278" lon="-3.448749985545874">
        <ele>105.40000000000001</ele>
        <time>2023-08-19T13:11:38Z</time>
      </trkpt>
      <trkpt lat="58.227677028626204" lon="-3.448606990277767">
        <ele>105.40000000000001</ele>
        <time>2023-08-19T13:11:39Z</time>
      </trkpt>
      <trkpt lat="58.227845001965761" lon="-3.448457038030028">
        <ele>104.92</ele>
        <time>2023-08-19T13:11:40Z</time>
      </trkpt>
      <trkpt lat="58.229795973747969" lon="-3.446783004328609">
        <ele>100.59999999999999</ele>
        <time>2023-08-19T13:11:51Z</time>
      </trkpt>
      <trkpt lat="58.229978028684855" lon="-3.446725001558662">
        <ele>100.11</ele>
        <time>2023-08-19T13:11:52Z</time>
      </trkpt>
      <trkpt lat="58.23016201145947" lon="-3.446668004617095">
        <ele>99.150000000000006</ele>
        <time>2023-08-19T13:11:53Z</time>
      </trkpt>
      <trkpt lat="58.230520002543926" lon="-3.446514029055834">
        <ele>97.709999999999994</ele>
        <time>2023-08-19T13:11:55Z</time>
      </trkpt>
      <trkpt lat="58.230681018903852" lon="-3.446357036009431">
        <ele>96.75</ele>
        <time>2023-08-19T13:11:56Z</time>
      </trkpt>
      <trkpt lat="58.230848992243409" lon="-3.446193002164364">
        <ele>95.790000000000006</ele>
        <time>2023-08-19T13:11:57Z</time>
      </trkpt>
      <trkpt lat="58.232262013480067" lon="-3.44526001252234">
        <ele>89.540000000000006</ele>
        <time>2023-08-19T13:12:05Z</time>
      </trkpt>
      <trkpt lat="58.23424500413239" lon="-3.444475969299674">
        <ele>81.370000000000005</ele>
        <time>2023-08-19T13:12:15Z</time>
      </trkpt>
      <trkpt lat="58.235884001478553" lon="-3.444140022620559">
        <ele>76.079999999999998</ele>
        <time>2023-08-19T13:12:23Z</time>
      </trkpt>
      <trkpt lat="58.23751101270318" lon="-3.444414027035236">
        <ele>74.159999999999997</ele>
        <time>2023-08-19T13:12:31Z</time>
      </trkpt>
      <trkpt lat="58.239764990285039" lon="-3.445119028910995">
        <ele>79.930000000000007</ele>
        <time>2023-08-19T13:12:42Z</time>
      </trkpt>
      <trkpt lat="58.242035983130336" lon="-3.445419017225504">
        <ele>84.25</ele>
        <time>2023-08-19T13:12:53Z</time>
      </trkpt>
      <trkpt lat="58.24352603405714" lon="-3.444663975387812">
        <ele>84.25</ele>
        <time>2023-08-19T13:13:00Z</time>
      </trkpt>
      <trkpt lat="58.244769992306828" lon="-3.443168979138136">
        <ele>82.329999999999998</ele>
        <time>2023-08-19T13:13:07Z</time>
      </trkpt>
      <trkpt lat="58.246693974360824" lon="-3.440613001585007">
        <ele>77.040000000000006</ele>
        <time>2023-08-19T13:13:19Z</time>
      </trkpt>
      <trkpt lat="58.247835002839565" lon="-3.438526997342706">
        <ele>64.069999999999993</ele>
        <time>2023-08-19T13:13:27Z</time>
      </trkpt>
      <trkpt lat="58.24849097058177" lon="-3.436174029484391">
        <ele>47.240000000000002</ele>
        <time>2023-08-19T13:13:34Z</time>
      </trkpt>
      <trkpt lat="58.248780984431505" lon="-3.433211026713252">
        <ele>30.420000000000002</ele>
        <time>2023-08-19T13:13:42Z</time>
      </trkpt>
      <trkpt lat="58.248675037175417" lon="-3.430034033954144">
        <ele>17.920000000000002</ele>
        <time>2023-08-19T13:13:50Z</time>
      </trkpt>
      <trkpt lat="58.248477978631854" lon="-3.425289960578084">
        <ele>24.170000000000002</ele>
        <time>2023-08-19T13:14:03Z</time>
      </trkpt>
      <trkpt lat="58.248474961146712" lon="-3.423616010695696">
        <ele>25.609999999999999</ele>
        <time>2023-08-19T13:14:08Z</time>
      </trkpt>
      <trkpt lat="58.248515026643872" lon="-3.423286015167832">
        <ele>26.57</ele>
        <time>2023-08-19T13:14:09Z</time>
      </trkpt>
      <trkpt lat="58.248568000271916" lon="-3.422991978004575">
        <ele>27.530000000000001</ele>
        <time>2023-08-19T13:14:10Z</time>
      </trkpt>
      <trkpt lat="58.248667996376753" lon="-3.422691989690065">
        <ele>28.5</ele>
        <time>2023-08-19T13:14:11Z</time>
      </trkpt>
      <trkpt lat="58.248792970553041" lon="-3.4224640019238">
        <ele>29.460000000000001</ele>
        <time>2023-08-19T13:14:12Z</time>
      </trkpt>
      <trkpt lat="58.24892196804285" lon="-3.422236014157534">
        <ele>30.420000000000002</ele>
        <time>2023-08-19T13:14:13Z</time>
      </trkpt>
      <trkpt lat="58.24905096553266" lon="-3.422012971714139">
        <ele>31.379999999999999</ele>
        <time>2023-08-19T13:14:14Z</time>
      </trkpt>
      <trkpt lat="58.250561971217394" lon="-3.420071974396706">
        <ele>41.950000000000003</ele>
        <time>2023-08-19T13:14:25Z</time>
      </trkpt>
      <trkpt lat="58.251668969169259" lon="-3.418646967038512">
        <ele>47.240000000000002</ele>
        <time>2023-08-19T13:14:32Z</time>
      </trkpt>
      <trkpt lat="58.252975037321448" lon="-3.416791968047619">
        <ele>55.409999999999997</ele>
        <time>2023-08-19T13:14:41Z</time>
      </trkpt>
      <trkpt lat="58.253694036975503" lon="-3.414935041218996">
        <ele>61.18</ele>
        <time>2023-08-19T13:14:48Z</time>
      </trkpt>
      <trkpt lat="58.254603976383805" lon="-3.412718027830124">
        <ele>61.18</ele>
        <time>2023-08-19T13:14:55Z</time>
      </trkpt>
      <trkpt lat="58.256112970411777" lon="-3.409558972343803">
        <ele>67.430000000000007</ele>
        <time>2023-08-19T13:15:07Z</time>
      </trkpt>
      <trkpt lat="58.256262000650167" lon="-3.409373983740807">
        <ele>68.390000000000001</ele>
        <time>2023-08-19T13:15:08Z</time>
      </trkpt>
      <trkpt lat="58.258034018799663" lon="-3.407566007226706">
        <ele>78</ele>
        <time>2023-08-19T13:15:19Z</time>
      </trkpt>
      <trkpt lat="58.259509988129139" lon="-3.405586034059525">
        <ele>86.180000000000007</ele>
        <time>2023-08-19T13:15:28Z</time>
      </trkpt>
      <trkpt lat="58.26101403683424" lon="-3.402685979381204">
        <ele>86.180000000000007</ele>
        <time>2023-08-19T13:15:37Z</time>
      </trkpt>
      <trkpt lat="58.262850008904934" lon="-3.399002971127629">
        <ele>88.099999999999994</ele>
        <time>2023-08-19T13:15:49Z</time>
      </trkpt>
      <trkpt lat="58.26449696905911" lon="-3.396207019686699">
        <ele>87.140000000000001</ele>
        <time>2023-08-19T13:15:59Z</time>
      </trkpt>
      <trkpt lat="58.266120040789247" lon="-3.394660977646709">
        <ele>80.890000000000001</ele>
        <time>2023-08-19T13:16:07Z</time>
      </trkpt>
      <trkpt lat="58.267860962077975" lon="-3.393592033535242">
        <ele>72.719999999999999</ele>
        <time>2023-08-19T13:16:16Z</time>
      </trkpt>
      <trkpt lat="58.270054003223777" lon="-3.393050981685519">
        <ele>65.989999999999995</ele>
        <time>2023-08-19T13:16:26Z</time>
      </trkpt>
      <trkpt lat="58.272418035194278" lon="-3.392292000353336">
        <ele>62.619999999999997</ele>
        <time>2023-08-19T13:16:37Z</time>
      </trkpt>
      <trkpt lat="58.274280996993184" lon="-3.391066985204816">
        <ele>59.259999999999998</ele>
        <time>2023-08-19T13:16:47Z</time>
      </trkpt>
      <trkpt lat="58.27573299407959" lon="-3.389524966478348">
        <ele>48.200000000000003</ele>
        <time>2023-08-19T13:16:56Z</time>
      </trkpt>
      <trkpt lat="58.275970034301281" lon="-3.38909899815917">
        <ele>46.280000000000001</ele>
        <time>2023-08-19T13:16:58Z</time>
      </trkpt>
      <trkpt lat="58.276074975728989" lon="-3.388843014836311">
        <ele>45.32</ele>
        <time>2023-08-19T13:16:59Z</time>
      </trkpt>
      <trkpt lat="58.276419974863529" lon="-3.387823021039367">
        <ele>43.399999999999999</ele>
        <time>2023-08-19T13:17:03Z</time>
      </trkpt>
      <trkpt lat="58.276461968198419" lon="-3.387516997754574">
        <ele>42.920000000000002</ele>
        <time>2023-08-19T13:17:04Z</time>
      </trkpt>
      <trkpt lat="58.276497004553676" lon="-3.387263026088476">
        <ele>42.439999999999998</ele>
        <time>2023-08-19T13:17:05Z</time>
      </trkpt>
      <trkpt lat="58.276646034792066" lon="-3.385236030444503">
        <ele>42.439999999999998</ele>
        <time>2023-08-19T13:17:13Z</time>
      </trkpt>
      <trkpt lat="58.276563975960016" lon="-3.382248971611261">
        <ele>48.68</ele>
        <time>2023-08-19T13:17:22Z</time>
      </trkpt>
      <trkpt lat="58.276860024780035" lon="-3.378525981679559">
        <ele>62.140000000000001</ele>
        <time>2023-08-19T13:17:33Z</time>
      </trkpt>
      <trkpt lat="58.27715003862977" lon="-3.37478999979794">
        <ele>73.200000000000003</ele>
        <time>2023-08-19T13:17:43Z</time>
      </trkpt>
      <trkpt lat="58.277775999158621" lon="-3.371368004009128">
        <ele>78</ele>
        <time>2023-08-19T13:17:52Z</time>
      </trkpt>
      <trkpt lat="58.277897033840418" lon="-3.371097017079592">
        <ele>78</ele>
        <time>2023-08-19T13:17:53Z</time>
      </trkpt>
      <trkpt lat="58.278008010238409" lon="-3.370850002393127">
        <ele>78</ele>
        <time>2023-08-19T13:17:54Z</time>
      </trkpt>
      <trkpt lat="58.27818101271987" lon="-3.370669959113002">
        <ele>78</ele>
        <time>2023-08-19T13:17:55Z</time>
      </trkpt>
      <trkpt lat="58.27835401520133" lon="-3.370488993823528">
        <ele>78</ele>
        <time>2023-08-19T13:17:56Z</time>
      </trkpt>
      <trkpt lat="58.279628986492753" lon="-3.369401022791863">
        <ele>77.040000000000006</ele>
        <time>2023-08-19T13:18:04Z</time>
      </trkpt>
      <trkpt lat="58.279782962054014" lon="-3.369346037507057">
        <ele>77.040000000000006</ele>
        <time>2023-08-19T13:18:05Z</time>
      </trkpt>
      <trkpt lat="58.279946995899081" lon="-3.369341008365154">
        <ele>77.519999999999996</ele>
        <time>2023-08-19T13:18:06Z</time>
      </trkpt>
      <trkpt lat="58.281269995495677" lon="-3.369131041690707">
        <ele>78.969999999999999</ele>
        <time>2023-08-19T13:18:15Z</time>
      </trkpt>
      <trkpt lat="58.282398032024503" lon="-3.368526035919786">
        <ele>76.560000000000002</ele>
        <time>2023-08-19T13:18:24Z</time>
      </trkpt>
      <trkpt lat="58.282515965402126" lon="-3.368416987359524">
        <ele>76.079999999999998</ele>
        <time>2023-08-19T13:18:25Z</time>
      </trkpt>
      <trkpt lat="58.282626019790769" lon="-3.368298970162869">
        <ele>76.079999999999998</ele>
        <time>2023-08-19T13:18:26Z</time>
      </trkpt>
      <trkpt lat="58.282725010067225" lon="-3.368143988773227">
        <ele>75.599999999999994</ele>
        <time>2023-08-19T13:18:27Z</time>
      </trkpt>
      <trkpt lat="58.28282400034368" lon="-3.367989007383585">
        <ele>75.120000000000005</ele>
        <time>2023-08-19T13:18:28Z</time>
      </trkpt>
      <trkpt lat="58.282921984791756" lon="-3.367836959660053">
        <ele>74.640000000000001</ele>
        <time>2023-08-19T13:18:29Z</time>
      </trkpt>
      <trkpt lat="58.282984010875225" lon="-3.367643002420664">
        <ele>74.159999999999997</ele>
        <time>2023-08-19T13:18:30Z</time>
      </trkpt>
      <trkpt lat="58.283040001988411" lon="-3.367417026311159">
        <ele>74.159999999999997</ele>
        <time>2023-08-19T13:18:31Z</time>
      </trkpt>
      <trkpt lat="58.283095993101597" lon="-3.367192978039384">
        <ele>74.159999999999997</ele>
        <time>2023-08-19T13:18:32Z</time>
      </trkpt>
      <trkpt lat="58.283136980608106" lon="-3.366960966959596">
        <ele>74.159999999999997</ele>
        <time>2023-08-19T13:18:33Z</time>
      </trkpt>
      <trkpt lat="58.283136980608106" lon="-3.366701966151595">
        <ele>74.159999999999997</ele>
        <time>2023-08-19T13:18:34Z</time>
      </trkpt>
      <trkpt lat="58.283136980608106" lon="-3.366429973393679">
        <ele>74.640000000000001</ele>
        <time>2023-08-19T13:18:35Z</time>
      </trkpt>
      <trkpt lat="58.283105967566371" lon="-3.366158986464143">
        <ele>75.120000000000005</ele>
        <time>2023-08-19T13:18:36Z</time>
      </trkpt>
      <trkpt lat="58.283066991716623" lon="-3.365881964564323">
        <ele>76.079999999999998</ele>
        <time>2023-08-19T13:18:37Z</time>
      </trkpt>
      <trkpt lat="58.28301896341145" lon="-3.365593040362001">
        <ele>76.560000000000002</ele>
        <time>2023-08-19T13:18:38Z</time>
      </trkpt>
      <trkpt lat="58.28260799869895" lon="-3.362386040389538">
        <ele>84.730000000000004</ele>
        <time>2023-08-19T13:18:48Z</time>
      </trkpt>
      <trkpt lat="58.282885020598769" lon="-3.359768958762288">
        <ele>87.620000000000005</ele>
        <time>2023-08-19T13:18:55Z</time>
      </trkpt>
      <trkpt lat="58.283622041344643" lon="-3.356720041483641">
        <ele>89.540000000000006</ele>
        <time>2023-08-19T13:19:03Z</time>
      </trkpt>
      <trkpt lat="58.284761980175972" lon="-3.352892026305199">
        <ele>86.659999999999997</ele>
        <time>2023-08-19T13:19:14Z</time>
      </trkpt>
      <trkpt lat="58.285991018638015" lon="-3.350121974945068">
        <ele>78.969999999999999</ele>
        <time>2023-08-19T13:19:23Z</time>
      </trkpt>
      <trkpt lat="58.287769993767142" lon="-3.346395967528224">
        <ele>69.829999999999998</ele>
        <time>2023-08-19T13:19:36Z</time>
      </trkpt>
      <trkpt lat="58.28976103104651" lon="-3.342336025089026">
        <ele>64.549999999999997</ele>
        <time>2023-08-19T13:19:50Z</time>
      </trkpt>
      <trkpt lat="58.290712963789701" lon="-3.340247003361583">
        <ele>62.619999999999997</ele>
        <time>2023-08-19T13:19:57Z</time>
      </trkpt>
      <trkpt lat="58.292284989729524" lon="-3.335200008004904">
        <ele>65.989999999999995</ele>
        <time>2023-08-19T13:20:12Z</time>
      </trkpt>
      <trkpt lat="58.2938870228827" lon="-3.330339007079601">
        <ele>73.680000000000007</ele>
        <time>2023-08-19T13:20:27Z</time>
      </trkpt>
      <trkpt lat="58.295525014400482" lon="-3.325488986447454">
        <ele>84.730000000000004</ele>
        <time>2023-08-19T13:20:42Z</time>
      </trkpt>
      <trkpt lat="58.296805014833808" lon="-3.321917960420251">
        <ele>78.969999999999999</ele>
        <time>2023-08-19T13:20:53Z</time>
      </trkpt>
      <trkpt lat="58.298018965870142" lon="-3.319587958976626">
        <ele>70.790000000000006</ele>
        <time>2023-08-19T13:21:01Z</time>
      </trkpt>
      <trkpt lat="58.298306968063116" lon="-3.319041039794684">
        <ele>68.390000000000001</ele>
        <time>2023-08-19T13:21:03Z</time>
      </trkpt>
      <trkpt lat="58.298430014401674" lon="-3.318733004853129">
        <ele>67.430000000000007</ele>
        <time>2023-08-19T13:21:04Z</time>
      </trkpt>
      <trkpt lat="58.298535039648414" lon="-3.318399991840124">
        <ele>66.469999999999999</ele>
        <time>2023-08-19T13:21:05Z</time>
      </trkpt>
      <trkpt lat="58.29975301399827" lon="-3.31400603055954">
        <ele>63.100000000000001</ele>
        <time>2023-08-19T13:21:18Z</time>
      </trkpt>
      <trkpt lat="58.300333963707089" lon="-3.310864996165037">
        <ele>66.950000000000003</ele>
        <time>2023-08-19T13:21:27Z</time>
      </trkpt>
      <trkpt lat="58.300914997234941" lon="-3.306159982457757">
        <ele>72.239999999999995</ele>
        <time>2023-08-19T13:21:40Z</time>
      </trkpt>
      <trkpt lat="58.301668027415872" lon="-3.302560038864613">
        <ele>70.790000000000006</ele>
        <time>2023-08-19T13:21:50Z</time>
      </trkpt>
      <trkpt lat="58.30286898650229" lon="-3.299320014193654">
        <ele>64.549999999999997</ele>
        <time>2023-08-19T13:21:59Z</time>
      </trkpt>
      <trkpt lat="58.304714011028409" lon="-3.295469032600522">
        <ele>53.969999999999999</ele>
        <time>2023-08-19T13:22:11Z</time>
      </trkpt>
      <trkpt lat="58.306225016713142" lon="-3.292766036465764">
        <ele>60.700000000000003</ele>
        <time>2023-08-19T13:22:21Z</time>
      </trkpt>
      <trkpt lat="58.307064967229962" lon="-3.291330970823765">
        <ele>64.069999999999993</ele>
        <time>2023-08-19T13:22:28Z</time>
      </trkpt>
      <trkpt lat="58.30761699937284" lon="-3.289482006803155">
        <ele>64.549999999999997</ele>
        <time>2023-08-19T13:22:36Z</time>
      </trkpt>
      <trkpt lat="58.307820009067655" lon="-3.288270989432931">
        <ele>64.549999999999997</ele>
        <time>2023-08-19T13:22:41Z</time>
      </trkpt>
      <trkpt lat="58.307858984917402" lon="-3.288039984181523">
        <ele>64.549999999999997</ele>
        <time>2023-08-19T13:22:42Z</time>
      </trkpt>
      <trkpt lat="58.308271961286664" lon="-3.285724986344576">
        <ele>66.469999999999999</ele>
        <time>2023-08-19T13:22:53Z</time>
      </trkpt>
      <trkpt lat="58.308740006759763" lon="-3.283372018486261">
        <ele>69.829999999999998</ele>
        <time>2023-08-19T13:23:02Z</time>
      </trkpt>
      <trkpt lat="58.309564031660557" lon="-3.280016994103789">
        <ele>73.200000000000003</ele>
        <time>2023-08-19T13:23:13Z</time>
      </trkpt>
      <trkpt lat="58.310093013569713" lon="-3.278624005615711">
        <ele>73.200000000000003</ele>
        <time>2023-08-19T13:23:18Z</time>
      </trkpt>
      <trkpt lat="58.310169037431479" lon="-3.27832099981606">
        <ele>73.200000000000003</ele>
        <time>2023-08-19T13:23:19Z</time>
      </trkpt>
      <trkpt lat="58.31023802049458" lon="-3.278024028986692">
        <ele>73.680000000000007</ele>
        <time>2023-08-19T13:23:20Z</time>
      </trkpt>
      <trkpt lat="58.310247994959354" lon="-3.277681963518262">
        <ele>73.680000000000007</ele>
        <time>2023-08-19T13:23:21Z</time>
      </trkpt>
      <trkpt lat="58.310256963595748" lon="-3.277347022667527">
        <ele>73.200000000000003</ele>
        <time>2023-08-19T13:23:22Z</time>
      </trkpt>
      <trkpt lat="58.310268027707934" lon="-3.277005963027477">
        <ele>73.200000000000003</ele>
        <time>2023-08-19T13:23:23Z</time>
      </trkpt>
      <trkpt lat="58.310278002172709" lon="-3.276650989428163">
        <ele>72.719999999999999</ele>
        <time>2023-08-19T13:23:24Z</time>
      </trkpt>
      <trkpt lat="58.310168031603098" lon="-3.273447006940842">
        <ele>73.680000000000007</ele>
        <time>2023-08-19T13:23:33Z</time>
      </trkpt>
      <trkpt lat="58.310123020783067" lon="-3.273087004199624">
        <ele>74.640000000000001</ele>
        <time>2023-08-19T13:23:34Z</time>
      </trkpt>
      <trkpt lat="58.310046996921301" lon="-3.272739993408322">
        <ele>75.120000000000005</ele>
        <time>2023-08-19T13:23:35Z</time>
      </trkpt>
      <trkpt lat="58.309962004423141" lon="-3.272398011758924">
        <ele>76.079999999999998</ele>
        <time>2023-08-19T13:23:36Z</time>
      </trkpt>
      <trkpt lat="58.309449031949043" lon="-3.270494984462857">
        <ele>81.849999999999994</ele>
        <time>2023-08-19T13:23:42Z</time>
      </trkpt>
      <trkpt lat="58.30940100364387" lon="-3.270185021683574">
        <ele>82.810000000000002</ele>
        <time>2023-08-19T13:23:43Z</time>
      </trkpt>
      <trkpt lat="58.30901401117444" lon="-3.266676021739841">
        <ele>86.180000000000007</ele>
        <time>2023-08-19T13:23:53Z</time>
      </trkpt>
      <trkpt lat="58.308717962354422" lon="-3.263030983507633">
        <ele>84.730000000000004</ele>
        <time>2023-08-19T13:24:02Z</time>
      </trkpt>
      <trkpt lat="58.308601034805179" lon="-3.262680033221841">
        <ele>84.25</ele>
        <time>2023-08-19T13:24:03Z</time>
      </trkpt>
      <trkpt lat="58.308481005951762" lon="-3.262333022430539">
        <ele>83.769999999999996</ele>
        <time>2023-08-19T13:24:04Z</time>
      </trkpt>
      <trkpt lat="58.308357037603855" lon="-3.261989029124379">
        <ele>82.810000000000002</ele>
        <time>2023-08-19T13:24:05Z</time>
      </trkpt>
      <trkpt lat="58.308199038729072" lon="-3.261678982526064">
        <ele>82.329999999999998</ele>
        <time>2023-08-19T13:24:06Z</time>
      </trkpt>
      <trkpt lat="58.307367973029613" lon="-3.25982297770679">
        <ele>77.040000000000006</ele>
        <time>2023-08-19T13:24:12Z</time>
      </trkpt>
      <trkpt lat="58.307281974703074" lon="-3.259468004107475">
        <ele>76.079999999999998</ele>
        <time>2023-08-19T13:24:13Z</time>
      </trkpt>
      <trkpt lat="58.307242998853326" lon="-3.259103978052735">
        <ele>75.120000000000005</ele>
        <time>2023-08-19T13:24:14Z</time>
      </trkpt>
      <trkpt lat="58.307225983589888" lon="-3.258735006675124">
        <ele>75.120000000000005</ele>
        <time>2023-08-19T13:24:15Z</time>
      </trkpt>
      <trkpt lat="58.307211985811591" lon="-3.258379027247429">
        <ele>75.120000000000005</ele>
        <time>2023-08-19T13:24:16Z</time>
      </trkpt>
      <trkpt lat="58.307211985811591" lon="-3.258027993142605">
        <ele>75.120000000000005</ele>
        <time>2023-08-19T13:24:17Z</time>
      </trkpt>
      <trkpt lat="58.307205028831959" lon="-3.256612960249186">
        <ele>77.040000000000006</ele>
        <time>2023-08-19T13:24:21Z</time>
      </trkpt>
      <trkpt lat="58.307165969163179" lon="-3.25625698082149">
        <ele>77.519999999999996</ele>
        <time>2023-08-19T13:24:22Z</time>
      </trkpt>
      <trkpt lat="58.307122969999909" lon="-3.255885997787118">
        <ele>77.519999999999996</ele>
        <time>2023-08-19T13:24:23Z</time>
      </trkpt>
      <trkpt lat="58.306436995044351" lon="-3.252234002575278">
        <ele>74.640000000000001</ele>
        <time>2023-08-19T13:24:33Z</time>
      </trkpt>
      <trkpt lat="58.306032987311482" lon="-3.24918701313436">
        <ele>72.719999999999999</ele>
        <time>2023-08-19T13:24:42Z</time>
      </trkpt>
      <trkpt lat="58.305988982319832" lon="-3.248141035437584">
        <ele>71.760000000000005</ele>
        <time>2023-08-19T13:24:45Z</time>
      </trkpt>
      <trkpt lat="58.306009015068412" lon="-3.247796958312392">
        <ele>70.790000000000006</ele>
        <time>2023-08-19T13:24:46Z</time>
      </trkpt>
      <trkpt lat="58.306044973433018" lon="-3.247461011633277">
        <ele>70.310000000000002</ele>
        <time>2023-08-19T13:24:47Z</time>
      </trkpt>
      <trkpt lat="58.306127032265067" lon="-3.247146019712091">
        <ele>69.829999999999998</ele>
        <time>2023-08-19T13:24:48Z</time>
      </trkpt>
      <trkpt lat="58.306226022541523" lon="-3.246847037225962">
        <ele>69.349999999999994</ele>
        <time>2023-08-19T13:24:49Z</time>
      </trkpt>
      <trkpt lat="58.306363988667727" lon="-3.246583007276058">
        <ele>69.349999999999994</ele>
        <time>2023-08-19T13:24:50Z</time>
      </trkpt>
      <trkpt lat="58.306502960622311" lon="-3.246315037831664">
        <ele>68.870000000000005</ele>
        <time>2023-08-19T13:24:51Z</time>
      </trkpt>
      <trkpt lat="58.307299995794892" lon="-3.244863040745258">
        <ele>68.390000000000001</ele>
        <time>2023-08-19T13:24:58Z</time>
      </trkpt>
      <trkpt lat="58.307388005778193" lon="-3.244638992473483">
        <ele>68.870000000000005</ele>
        <time>2023-08-19T13:24:59Z</time>
      </trkpt>
      <trkpt lat="58.307464029639959" lon="-3.244400024414063">
        <ele>68.870000000000005</ele>
        <time>2023-08-19T13:25:00Z</time>
      </trkpt>
      <trkpt lat="58.307518009096384" lon="-3.24411503970623">
        <ele>68.390000000000001</ele>
        <time>2023-08-19T13:25:01Z</time>
      </trkpt>
      <trkpt lat="58.307576011866331" lon="-3.243811028078198">
        <ele>68.390000000000001</ele>
        <time>2023-08-19T13:25:02Z</time>
      </trkpt>
      <trkpt lat="58.307626973837614" lon="-3.243485977873206">
        <ele>67.909999999999997</ele>
        <time>2023-08-19T13:25:03Z</time>
      </trkpt>
      <trkpt lat="58.307891003787518" lon="-3.240577038377523">
        <ele>65.030000000000001</ele>
        <time>2023-08-19T13:25:11Z</time>
      </trkpt>
      <trkpt lat="58.308329964056611" lon="-3.236244013532996">
        <ele>64.069999999999993</ele>
        <time>2023-08-19T13:25:23Z</time>
      </trkpt>
      <trkpt lat="58.309110989794135" lon="-3.231747960671783">
        <ele>66.469999999999999</ele>
        <time>2023-08-19T13:25:35Z</time>
      </trkpt>
      <trkpt lat="58.309703003615141" lon="-3.227973002940416">
        <ele>69.829999999999998</ele>
        <time>2023-08-19T13:25:45Z</time>
      </trkpt>
      <trkpt lat="58.310347991064191" lon="-3.223862014710903">
        <ele>73.200000000000003</ele>
        <time>2023-08-19T13:25:56Z</time>
      </trkpt>
      <trkpt lat="58.310923995450139" lon="-3.220291994512081">
        <ele>75.120000000000005</ele>
        <time>2023-08-19T13:26:06Z</time>
      </trkpt>
      <trkpt lat="58.311607958748937" lon="-3.217434016987681">
        <ele>74.159999999999997</ele>
        <time>2023-08-19T13:26:15Z</time>
      </trkpt>
      <trkpt lat="58.312928024679422" lon="-3.214930007234216">
        <ele>70.310000000000002</ele>
        <time>2023-08-19T13:26:24Z</time>
      </trkpt>
      <trkpt lat="58.313090968877077" lon="-3.214660026133061">
        <ele>70.310000000000002</ele>
        <time>2023-08-19T13:26:25Z</time>
      </trkpt>
      <trkpt lat="58.314829962328076" lon="-3.212678963318467">
        <ele>68.390000000000001</ele>
        <time>2023-08-19T13:26:35Z</time>
      </trkpt>
      <trkpt lat="58.316026981920004" lon="-3.2109210267663">
        <ele>67.909999999999997</ele>
        <time>2023-08-19T13:26:43Z</time>
      </trkpt>
      <trkpt lat="58.316830974072218" lon="-3.209017999470234">
        <ele>68.870000000000005</ele>
        <time>2023-08-19T13:26:50Z</time>
      </trkpt>
      <trkpt lat="58.318180041387677" lon="-3.206182988360524">
        <ele>69.829999999999998</ele>
        <time>2023-08-19T13:27:01Z</time>
      </trkpt>
      <trkpt lat="58.319494994357228" lon="-3.204650022089481">
        <ele>70.790000000000006</ele>
        <time>2023-08-19T13:27:09Z</time>
      </trkpt>
      <trkpt lat="58.320621019229293" lon="-3.203321993350983">
        <ele>70.790000000000006</ele>
        <time>2023-08-19T13:27:16Z</time>
      </trkpt>
      <trkpt lat="58.320762002840638" lon="-3.203070033341646">
        <ele>70.790000000000006</ele>
        <time>2023-08-19T13:27:17Z</time>
      </trkpt>
      <trkpt lat="58.32089401781559" lon="-3.202818995341659">
        <ele>70.790000000000006</ele>
        <time>2023-08-19T13:27:18Z</time>
      </trkpt>
      <trkpt lat="58.320998959243298" lon="-3.20252001285553">
        <ele>71.269999999999996</ele>
        <time>2023-08-19T13:27:19Z</time>
      </trkpt>
      <trkpt lat="58.321104990318418" lon="-3.202217007055879">
        <ele>71.269999999999996</ele>
        <time>2023-08-19T13:27:20Z</time>
      </trkpt>
      <trkpt lat="58.322131019085646" lon="-3.199246963486075">
        <ele>70.790000000000006</ele>
        <time>2023-08-19T13:27:30Z</time>
      </trkpt>
      <trkpt lat="58.322253981605172" lon="-3.199046971276403">
        <ele>70.790000000000006</ele>
        <time>2023-08-19T13:27:31Z</time>
      </trkpt>
      <trkpt lat="58.322409968823195" lon="-3.198924008756876">
        <ele>70.310000000000002</ele>
        <time>2023-08-19T13:27:32Z</time>
      </trkpt>
      <trkpt lat="58.322572996839881" lon="-3.198796017095447">
        <ele>70.310000000000002</ele>
        <time>2023-08-19T13:27:33Z</time>
      </trkpt>
      <trkpt lat="58.322747005149722" lon="-3.198694009333849">
        <ele>70.310000000000002</ele>
        <time>2023-08-19T13:27:34Z</time>
      </trkpt>
      <trkpt lat="58.322929982095957" lon="-3.198598958551884">
        <ele>70.310000000000002</ele>
        <time>2023-08-19T13:27:35Z</time>
      </trkpt>
      <trkpt lat="58.324540983885527" lon="-3.197657000273466">
        <ele>68.390000000000001</ele>
        <time>2023-08-19T13:27:44Z</time>
      </trkpt>
      <trkpt lat="58.324695965275168" lon="-3.197479974478483">
        <ele>67.909999999999997</ele>
        <time>2023-08-19T13:27:45Z</time>
      </trkpt>
      <trkpt lat="58.324833009392023" lon="-3.197271013632417">
        <ele>67.430000000000007</ele>
        <time>2023-08-19T13:27:46Z</time>
      </trkpt>
      <trkpt lat="58.324965024366975" lon="-3.197058029472828">
        <ele>67.430000000000007</ele>
        <time>2023-08-19T13:27:47Z</time>
      </trkpt>
      <trkpt lat="58.325072983279824" lon="-3.196804979816079">
        <ele>67.909999999999997</ele>
        <time>2023-08-19T13:27:48Z</time>
      </trkpt>
      <trkpt lat="58.325175996869802" lon="-3.196531981229782">
        <ele>67.909999999999997</ele>
        <time>2023-08-19T13:27:49Z</time>
      </trkpt>
      <trkpt lat="58.325648987665772" lon="-3.19551701657474">
        <ele>68.870000000000005</ele>
        <time>2023-08-19T13:27:53Z</time>
      </trkpt>
      <trkpt lat="58.32579399459064" lon="-3.195241000503302">
        <ele>69.349999999999994</ele>
        <time>2023-08-19T13:27:54Z</time>
      </trkpt>
      <trkpt lat="58.327164016664028" lon="-3.193114008754492">
        <ele>70.790000000000006</ele>
        <time>2023-08-19T13:28:04Z</time>
      </trkpt>
      <trkpt lat="58.327519996091723" lon="-3.192390985786915">
        <ele>71.269999999999996</ele>
        <time>2023-08-19T13:28:07Z</time>
      </trkpt>
      <trkpt lat="58.327657962217927" lon="-3.192217983305454">
        <ele>71.269999999999996</ele>
        <time>2023-08-19T13:28:08Z</time>
      </trkpt>
      <trkpt lat="58.327806992456317" lon="-3.192069036886096">
        <ele>70.790000000000006</ele>
        <time>2023-08-19T13:28:09Z</time>
      </trkpt>
      <trkpt lat="58.327960968017578" lon="-3.191940961405635">
        <ele>70.790000000000006</ele>
        <time>2023-08-19T13:28:10Z</time>
      </trkpt>
      <trkpt lat="58.328129025176167" lon="-3.191873989999294">
        <ele>70.790000000000006</ele>
        <time>2023-08-19T13:28:11Z</time>
      </trkpt>
      <trkpt lat="58.328303033486009" lon="-3.191824033856392">
        <ele>70.310000000000002</ele>
        <time>2023-08-19T13:28:12Z</time>
      </trkpt>
      <trkpt lat="58.328485004603863" lon="-3.191810036078095">
        <ele>70.310000000000002</ele>
        <time>2023-08-19T13:28:13Z</time>
      </trkpt>
      <trkpt lat="58.328663036227226" lon="-3.191796960309148">
        <ele>70.310000000000002</ele>
        <time>2023-08-19T13:28:14Z</time>
      </trkpt>
      <trkpt lat="58.331296965479851" lon="-3.191461013630033">
        <ele>68.390000000000001</ele>
        <time>2023-08-19T13:28:29Z</time>
      </trkpt>
      <trkpt lat="58.332637986168265" lon="-3.190718041732907">
        <ele>65.030000000000001</ele>
        <time>2023-08-19T13:28:36Z</time>
      </trkpt>
      <trkpt lat="58.334387959912419" lon="-3.189486991614103">
        <ele>63.100000000000001</ele>
        <time>2023-08-19T13:28:46Z</time>
      </trkpt>
      <trkpt lat="58.335497975349426" lon="-3.188608987256885">
        <ele>62.619999999999997</ele>
        <time>2023-08-19T13:28:53Z</time>
      </trkpt>
      <trkpt lat="58.335628984495997" lon="-3.188385022804141">
        <ele>63.100000000000001</ele>
        <time>2023-08-19T13:28:54Z</time>
      </trkpt>
      <trkpt lat="58.33576301112771" lon="-3.188156029209495">
        <ele>63.100000000000001</ele>
        <time>2023-08-19T13:28:55Z</time>
      </trkpt>
      <trkpt lat="58.33589100278914" lon="-3.187904991209507">
        <ele>63.100000000000001</ele>
        <time>2023-08-19T13:28:56Z</time>
      </trkpt>
      <trkpt lat="58.336012037470937" lon="-3.187626041471958">
        <ele>63.100000000000001</ele>
        <time>2023-08-19T13:28:57Z</time>
      </trkpt>
      <trkpt lat="58.337468979880214" lon="-3.184217037633061">
        <ele>64.069999999999993</ele>
        <time>2023-08-19T13:29:09Z</time>
      </trkpt>
      <trkpt lat="58.338069040328264" lon="-3.182875011116266">
        <ele>66.469999999999999</ele>
        <time>2023-08-19T13:29:14Z</time>
      </trkpt>
      <trkpt lat="58.3382329903543" lon="-3.182693962007761">
        <ele>67.430000000000007</ele>
        <time>2023-08-19T13:29:15Z</time>
      </trkpt>
      <trkpt lat="58.338406998664141" lon="-3.182501010596752">
        <ele>68.390000000000001</ele>
        <time>2023-08-19T13:29:16Z</time>
      </trkpt>
      <trkpt lat="58.338904967531562" lon="-3.181887958198786">
        <ele>70.310000000000002</ele>
        <time>2023-08-19T13:29:19Z</time>
      </trkpt>
      <trkpt lat="58.339032037183642" lon="-3.181656030938029">
        <ele>70.790000000000006</ele>
        <time>2023-08-19T13:29:20Z</time>
      </trkpt>
      <trkpt lat="58.339148964732885" lon="-3.181442962959409">
        <ele>71.269999999999996</ele>
        <time>2023-08-19T13:29:21Z</time>
      </trkpt>
      <trkpt lat="58.339207973331213" lon="-3.181195026263595">
        <ele>72.239999999999995</ele>
        <time>2023-08-19T13:29:22Z</time>
      </trkpt>
      <trkpt lat="58.339244015514851" lon="-3.180927978828549">
        <ele>72.719999999999999</ele>
        <time>2023-08-19T13:29:23Z</time>
      </trkpt>
      <trkpt lat="58.339264970272779" lon="-3.180659003555775">
        <ele>73.680000000000007</ele>
        <time>2023-08-19T13:29:24Z</time>
      </trkpt>
      <trkpt lat="58.339247032999992" lon="-3.180374018847942">
        <ele>74.159999999999997</ele>
        <time>2023-08-19T13:29:25Z</time>
      </trkpt>
      <trkpt lat="58.339227000251412" lon="-3.180070007219911">
        <ele>75.120000000000005</ele>
        <time>2023-08-19T13:29:26Z</time>
      </trkpt>
      <trkpt lat="58.339161034673452" lon="-3.17978703416884">
        <ele>76.079999999999998</ele>
        <time>2023-08-19T13:29:27Z</time>
      </trkpt>
      <trkpt lat="58.338372968137264" lon="-3.176295971497893">
        <ele>82.329999999999998</ele>
        <time>2023-08-19T13:29:39Z</time>
      </trkpt>
      <trkpt lat="58.338331980630755" lon="-3.175996989011765">
        <ele>82.810000000000002</ele>
        <time>2023-08-19T13:29:40Z</time>
      </trkpt>
      <trkpt lat="58.338311025872827" lon="-3.17568501457572">
        <ele>83.290000000000006</ele>
        <time>2023-08-19T13:29:41Z</time>
      </trkpt>
      <trkpt lat="58.338328963145614" lon="-3.175382008776069">
        <ele>83.769999999999996</ele>
        <time>2023-08-19T13:29:42Z</time>
      </trkpt>
      <trkpt lat="58.338345978409052" lon="-3.175085037946701">
        <ele>84.25</ele>
        <time>2023-08-19T13:29:43Z</time>
      </trkpt>
      <trkpt lat="58.338415967300534" lon="-3.174822013825178">
        <ele>84.730000000000004</ele>
        <time>2023-08-19T13:29:44Z</time>
      </trkpt>
      <trkpt lat="58.338487967848778" lon="-3.174557983875275">
        <ele>85.209999999999994</ele>
        <time>2023-08-19T13:29:45Z</time>
      </trkpt>
      <trkpt lat="58.338573966175318" lon="-3.174321027472615">
        <ele>85.689999999999998</ele>
        <time>2023-08-19T13:29:46Z</time>
      </trkpt>
      <trkpt lat="58.338674968108535" lon="-3.17409697920084">
        <ele>85.689999999999998</ele>
        <time>2023-08-19T13:29:47Z</time>
      </trkpt>
      <trkpt lat="58.338794996961951" lon="-3.173928000032902">
        <ele>85.689999999999998</ele>
        <time>2023-08-19T13:29:48Z</time>
      </trkpt>
      <trkpt lat="58.338920976966619" lon="-3.173761032521725">
        <ele>85.689999999999998</ele>
        <time>2023-08-19T13:29:49Z</time>
      </trkpt>
      <trkpt lat="58.339058021083474" lon="-3.173600016161799">
        <ele>85.689999999999998</ele>
        <time>2023-08-19T13:29:50Z</time>
      </trkpt>
      <trkpt lat="58.340217992663383" lon="-3.17214097827673">
        <ele>84.730000000000004</ele>
        <time>2023-08-19T13:29:57Z</time>
      </trkpt>
      <trkpt lat="58.341730004176497" lon="-3.170312969014049">
        <ele>80.890000000000001</ele>
        <time>2023-08-19T13:30:06Z</time>
      </trkpt>
      <trkpt lat="58.343672007322311" lon="-3.168120011687279">
        <ele>78.480000000000004</ele>
        <time>2023-08-19T13:30:17Z</time>
      </trkpt>
      <trkpt lat="58.345165997743607" lon="-3.166696010157466">
        <ele>76.079999999999998</ele>
        <time>2023-08-19T13:30:26Z</time>
      </trkpt>
      <trkpt lat="58.346592010930181" lon="-3.164871018379927">
        <ele>72.239999999999995</ele>
        <time>2023-08-19T13:30:35Z</time>
      </trkpt>
      <trkpt lat="58.347754999995232" lon="-3.162484019994736">
        <ele>68.390000000000001</ele>
        <time>2023-08-19T13:30:44Z</time>
      </trkpt>
      <trkpt lat="58.34828901104629" lon="-3.161417003720999">
        <ele>67.909999999999997</ele>
        <time>2023-08-19T13:30:48Z</time>
      </trkpt>
      <trkpt lat="58.348450027406216" lon="-3.161189015954733">
        <ele>67.909999999999997</ele>
        <time>2023-08-19T13:30:49Z</time>
      </trkpt>
      <trkpt lat="58.349800016731024" lon="-3.159761996939778">
        <ele>70.790000000000006</ele>
        <time>2023-08-19T13:30:57Z</time>
      </trkpt>
      <trkpt lat="58.351715030148625" lon="-3.157985033467412">
        <ele>74.640000000000001</ele>
        <time>2023-08-19T13:31:08Z</time>
      </trkpt>
      <trkpt lat="58.353211032226682" lon="-3.157275002449751">
        <ele>74.159999999999997</ele>
        <time>2023-08-19T13:31:15Z</time>
      </trkpt>
      <trkpt lat="58.355568023398519" lon="-3.156276969239116">
        <ele>75.599999999999994</ele>
        <time>2023-08-19T13:31:26Z</time>
      </trkpt>
      <trkpt lat="58.357810014858842" lon="-3.155358983203769">
        <ele>78.969999999999999</ele>
        <time>2023-08-19T13:31:37Z</time>
      </trkpt>
      <trkpt lat="58.357996009290218" lon="-3.155183969065547">
        <ele>79.450000000000003</ele>
        <time>2023-08-19T13:31:38Z</time>
      </trkpt>
      <trkpt lat="58.358165994286537" lon="-3.154981965199113">
        <ele>79.930000000000007</ele>
        <time>2023-08-19T13:31:39Z</time>
      </trkpt>
      <trkpt lat="58.358633033931255" lon="-3.154442002996802">
        <ele>81.370000000000005</ele>
        <time>2023-08-19T13:31:42Z</time>
      </trkpt>
      <trkpt lat="58.358804024755955" lon="-3.154333960264921">
        <ele>81.849999999999994</ele>
        <time>2023-08-19T13:31:43Z</time>
      </trkpt>
      <trkpt lat="58.358982978388667" lon="-3.154234969988465">
        <ele>81.849999999999994</ele>
        <time>2023-08-19T13:31:44Z</time>
      </trkpt>
      <trkpt lat="58.359175007790327" lon="-3.154231030493975">
        <ele>82.329999999999998</ele>
        <time>2023-08-19T13:31:45Z</time>
      </trkpt>
      <trkpt lat="58.359373994171619" lon="-3.154227007180452">
        <ele>82.810000000000002</ele>
        <time>2023-08-19T13:31:46Z</time>
      </trkpt>
      <trkpt lat="58.361167972907424" lon="-3.153892988339067">
        <ele>89.060000000000002</ele>
        <time>2023-08-19T13:31:55Z</time>
      </trkpt>
      <trkpt lat="58.361356984823942" lon="-3.153830962255597">
        <ele>89.540000000000006</ele>
        <time>2023-08-19T13:31:56Z</time>
      </trkpt>
      <trkpt lat="58.361553959548473" lon="-3.153811013326049">
        <ele>90.5</ele>
        <time>2023-08-19T13:31:57Z</time>
      </trkpt>
      <trkpt lat="58.363590007647872" lon="-3.154124999418855">
        <ele>94.349999999999994</ele>
        <time>2023-08-19T13:32:07Z</time>
      </trkpt>
      <trkpt lat="58.365543996915221" lon="-3.15409398637712">
        <ele>93.870000000000005</ele>
        <time>2023-08-19T13:32:16Z</time>
      </trkpt>
      <trkpt lat="58.367956979200244" lon="-3.153669023886323">
        <ele>90.980000000000004</ele>
        <time>2023-08-19T13:32:28Z</time>
      </trkpt>
      <trkpt lat="58.368129981681705" lon="-3.15347196534276">
        <ele>90.5</ele>
        <time>2023-08-19T13:32:29Z</time>
      </trkpt>
      <trkpt lat="58.368306001648307" lon="-3.153269039466977">
        <ele>89.540000000000006</ele>
        <time>2023-08-19T13:32:30Z</time>
      </trkpt>
      <trkpt lat="58.369147963821888" lon="-3.152508968487382">
        <ele>85.689999999999998</ele>
        <time>2023-08-19T13:32:35Z</time>
      </trkpt>
      <trkpt lat="58.369310991838574" lon="-3.152410984039307">
        <ele>85.209999999999994</ele>
        <time>2023-08-19T13:32:36Z</time>
      </trkpt>
      <trkpt lat="58.369498997926712" lon="-3.152418024837971">
        <ele>84.730000000000004</ele>
        <time>2023-08-19T13:32:37Z</time>
      </trkpt>
      <trkpt lat="58.371753981336951" lon="-3.152475021779537">
        <ele>78</ele>
        <time>2023-08-19T13:32:48Z</time>
      </trkpt>
      <trkpt lat="58.37353496812284" lon="-3.152769980952144">
        <ele>74.159999999999997</ele>
        <time>2023-08-19T13:32:57Z</time>
      </trkpt>
      <trkpt lat="58.37392196059227" lon="-3.152756989002228">
        <ele>73.680000000000007</ele>
        <time>2023-08-19T13:32:59Z</time>
      </trkpt>
      <trkpt lat="58.374116001650691" lon="-3.152666967362166">
        <ele>73.200000000000003</ele>
        <time>2023-08-19T13:33:00Z</time>
      </trkpt>
      <trkpt lat="58.374310964718461" lon="-3.152534030377865">
        <ele>73.200000000000003</ele>
        <time>2023-08-19T13:33:01Z</time>
      </trkpt>
      <trkpt lat="58.374510034918785" lon="-3.15239698626101">
        <ele>72.719999999999999</ele>
        <time>2023-08-19T13:33:02Z</time>
      </trkpt>
      <trkpt lat="58.374703992158175" lon="-3.152263965457678">
        <ele>72.719999999999999</ele>
        <time>2023-08-19T13:33:03Z</time>
      </trkpt>
      <trkpt lat="58.374881017953157" lon="-3.152093980461359">
        <ele>72.239999999999995</ele>
        <time>2023-08-19T13:33:04Z</time>
      </trkpt>
      <trkpt lat="58.376984037458897" lon="-3.14996799454093">
        <ele>72.239999999999995</ele>
        <time>2023-08-19T13:33:16Z</time>
      </trkpt>
      <trkpt lat="58.37926902808249" lon="-3.147674035280943">
        <ele>70.310000000000002</ele>
        <time>2023-08-19T13:33:28Z</time>
      </trkpt>
      <trkpt lat="58.382146032527089" lon="-3.144841035827994">
        <ele>68.870000000000005</ele>
        <time>2023-08-19T13:33:43Z</time>
      </trkpt>
      <trkpt lat="58.384744003415108" lon="-3.142137033864856">
        <ele>67.909999999999997</ele>
        <time>2023-08-19T13:33:56Z</time>
      </trkpt>
      <trkpt lat="58.386698998510838" lon="-3.139939969405532">
        <ele>67.430000000000007</ele>
        <time>2023-08-19T13:34:07Z</time>
      </trkpt>
      <trkpt lat="58.388092992827296" lon="-3.138356963172555">
        <ele>69.349999999999994</ele>
        <time>2023-08-19T13:34:15Z</time>
      </trkpt>
      <trkpt lat="58.389258999377489" lon="-3.137026000767946">
        <ele>70.310000000000002</ele>
        <time>2023-08-19T13:34:24Z</time>
      </trkpt>
      <trkpt lat="58.390860026702285" lon="-3.135212995111942">
        <ele>69.349999999999994</ele>
        <time>2023-08-19T13:34:35Z</time>
      </trkpt>
      <trkpt lat="58.392715025693178" lon="-3.133245008066297">
        <ele>67.430000000000007</ele>
        <time>2023-08-19T13:34:46Z</time>
      </trkpt>
      <trkpt lat="58.39478300884366" lon="-3.131214994937182">
        <ele>64.069999999999993</ele>
        <time>2023-08-19T13:34:57Z</time>
      </trkpt>
      <trkpt lat="58.394932961091399" lon="-3.130962029099464">
        <ele>63.579999999999998</ele>
        <time>2023-08-19T13:34:58Z</time>
      </trkpt>
      <trkpt lat="58.395085008814931" lon="-3.130705961957574">
        <ele>63.579999999999998</ele>
        <time>2023-08-19T13:34:59Z</time>
      </trkpt>
      <trkpt lat="58.396744038909674" lon="-3.127475995570421">
        <ele>57.340000000000003</ele>
        <time>2023-08-19T13:35:10Z</time>
      </trkpt>
      <trkpt lat="58.399224998429418" lon="-3.123034005984664">
        <ele>53.009999999999998</ele>
        <time>2023-08-19T13:35:25Z</time>
      </trkpt>
      <trkpt lat="58.401388032361865" lon="-3.119157962501049">
        <ele>49.649999999999999</ele>
        <time>2023-08-19T13:35:38Z</time>
      </trkpt>
      <trkpt lat="58.401773013174534" lon="-3.118683965876699">
        <ele>49.649999999999999</ele>
        <time>2023-08-19T13:35:40Z</time>
      </trkpt>
      <trkpt lat="58.401985997334123" lon="-3.11851398088038">
        <ele>49.159999999999997</ele>
        <time>2023-08-19T13:35:41Z</time>
      </trkpt>
      <trkpt lat="58.402200993150473" lon="-3.118350030854344">
        <ele>49.159999999999997</ele>
        <time>2023-08-19T13:35:42Z</time>
      </trkpt>
      <trkpt lat="58.402423029765487" lon="-3.118243999779224">
        <ele>49.159999999999997</ele>
        <time>2023-08-19T13:35:43Z</time>
      </trkpt>
      <trkpt lat="58.402643976733088" lon="-3.118137968704104">
        <ele>49.159999999999997</ele>
        <time>2023-08-19T13:35:44Z</time>
      </trkpt>
      <trkpt lat="58.403084026649594" lon="-3.117929007858038">
        <ele>49.159999999999997</ele>
        <time>2023-08-19T13:35:46Z</time>
      </trkpt>
      <trkpt lat="58.404444996267557" lon="-3.116568038240075">
        <ele>49.159999999999997</ele>
        <time>2023-08-19T13:35:53Z</time>
      </trkpt>
      <trkpt lat="58.406482972204685" lon="-3.114335015416145">
        <ele>49.649999999999999</ele>
        <time>2023-08-19T13:36:04Z</time>
      </trkpt>
      <trkpt lat="58.409009026363492" lon="-3.111995961517096">
        <ele>44.359999999999999</ele>
        <time>2023-08-19T13:36:16Z</time>
      </trkpt>
      <trkpt lat="58.41063997708261" lon="-3.110572965815663">
        <ele>40.990000000000002</ele>
        <time>2023-08-19T13:36:24Z</time>
      </trkpt>
      <trkpt lat="58.413401981815696" lon="-3.108154032379389">
        <ele>37.149999999999999</ele>
        <time>2023-08-19T13:36:38Z</time>
      </trkpt>
      <trkpt lat="58.416763041168451" lon="-3.105231011286378">
        <ele>32.340000000000003</ele>
        <time>2023-08-19T13:36:55Z</time>
      </trkpt>
      <trkpt lat="58.41987800784409" lon="-3.102616025134921">
        <ele>26.57</ele>
        <time>2023-08-19T13:37:10Z</time>
      </trkpt>
      <trkpt lat="58.422688040882349" lon="-3.100475035607815">
        <ele>25.129999999999999</ele>
        <time>2023-08-19T13:37:23Z</time>
      </trkpt>
      <trkpt lat="58.425305038690567" lon="-3.098831009119749">
        <ele>25.129999999999999</ele>
        <time>2023-08-19T13:37:35Z</time>
      </trkpt>
      <trkpt lat="58.427178980782628" lon="-3.097636001184583">
        <ele>27.530000000000001</ele>
        <time>2023-08-19T13:37:44Z</time>
      </trkpt>
      <trkpt lat="58.429098017513752" lon="-3.095926009118557">
        <ele>27.530000000000001</ele>
        <time>2023-08-19T13:37:54Z</time>
      </trkpt>
      <trkpt lat="58.42926699668169" lon="-3.095845961943269">
        <ele>27.530000000000001</ele>
        <time>2023-08-19T13:37:55Z</time>
      </trkpt>
      <trkpt lat="58.429441004991531" lon="-3.095826013013721">
        <ele>27.050000000000001</ele>
        <time>2023-08-19T13:37:56Z</time>
      </trkpt>
      <trkpt lat="58.430592007935047" lon="-3.095701960846782">
        <ele>23.690000000000001</ele>
        <time>2023-08-19T13:38:04Z</time>
      </trkpt>
      <trkpt lat="58.431817023083568" lon="-3.095221007242799">
        <ele>18.879999999999999</ele>
        <time>2023-08-19T13:38:14Z</time>
      </trkpt>
      <trkpt lat="58.431881982833147" lon="-3.095186976715922">
        <ele>18.879999999999999</ele>
        <time>2023-08-19T13:38:15Z</time>
      </trkpt>
      <trkpt lat="58.431921964511275" lon="-3.095166021957994">
        <ele>18.399999999999999</ele>
        <time>2023-08-19T13:38:16Z</time>
      </trkpt>
      <trkpt lat="58.432027995586395" lon="-3.095323015004396">
        <ele>18.399999999999999</ele>
        <time>2023-08-19T13:38:17Z</time>
      </trkpt>
      <trkpt lat="58.432034030556679" lon="-3.095391998067498">
        <ele>18.399999999999999</ele>
        <time>2023-08-19T13:38:18Z</time>
      </trkpt>
      <trkpt lat="58.432039981707931" lon="-3.095465004444122">
        <ele>18.399999999999999</ele>
        <time>2023-08-19T13:38:19Z</time>
      </trkpt>
      <trkpt lat="58.432048028334975" lon="-3.095553014427424">
        <ele>18.399999999999999</ele>
        <time>2023-08-19T13:38:20Z</time>
      </trkpt>
      <trkpt lat="58.432054985314608" lon="-3.095635995268822">
        <ele>17.920000000000002</ele>
        <time>2023-08-19T13:38:21Z</time>
      </trkpt>
      <trkpt lat="58.432061020284891" lon="-3.095699027180672">
        <ele>17.920000000000002</ele>
        <time>2023-08-19T13:38:22Z</time>
      </trkpt>
      <trkpt lat="58.432164033874869" lon="-3.095767004415393">
        <ele>17.440000000000001</ele>
        <time>2023-08-19T13:38:23Z</time>
      </trkpt>
      <trkpt lat="58.432200998067856" lon="-3.095732973888516">
        <ele>17.440000000000001</ele>
        <time>2023-08-19T13:38:24Z</time>
      </trkpt>
      <trkpt lat="58.432245003059506" lon="-3.095691986382008">
        <ele>16.960000000000001</ele>
        <time>2023-08-19T13:38:25Z</time>
      </trkpt>
      <trkpt lat="58.432292025536299" lon="-3.095649993047118">
        <ele>16.960000000000001</ele>
        <time>2023-08-19T13:38:26Z</time>
      </trkpt>
      <trkpt lat="58.432332007214427" lon="-3.095613028854132">
        <ele>16.48</ele>
        <time>2023-08-19T13:38:27Z</time>
      </trkpt>
      <trkpt lat="58.432332007214427" lon="-3.095613028854132">
        <ele>16</ele>
        <time>2023-08-19T13:38:28Z</time>
      </trkpt>
      <trkpt lat="58.432332007214427" lon="-3.095613028854132">
        <ele>15.52</ele>
        <time>2023-08-19T13:38:31Z</time>
      </trkpt>
      <trkpt lat="58.432542979717255" lon="-3.095425022765994">
        <ele>18.399999999999999</ele>
        <time>2023-08-19T13:38:41Z</time>
      </trkpt>
      <trkpt lat="58.432544991374016" lon="-3.095419993624091">
        <ele>18.399999999999999</ele>
        <time>2023-08-19T13:39:20Z</time>
      </trkpt>
      <trkpt lat="58.432543985545635" lon="-3.09541798196733">
        <ele>18.879999999999999</ele>
        <time>2023-08-19T13:40:04Z</time>
      </trkpt>
      <trkpt lat="58.432541973888874" lon="-3.095416976138949">
        <ele>19.84</ele>
        <time>2023-08-19T13:40:49Z</time>
      </trkpt>
      <trkpt lat="58.432529987767339" lon="-3.095423011109233">
        <ele>22.25</ele>
        <time>2023-08-19T13:53:44Z</time>
      </trkpt>
      <trkpt lat="58.432525964453816" lon="-3.09537498280406">
        <ele>25.609999999999999</ele>
        <time>2023-08-19T13:54:32Z</time>
      </trkpt>
      <trkpt lat="58.432497968897223" lon="-3.095356039702892">
        <ele>27.050000000000001</ele>
        <time>2023-08-19T13:55:06Z</time>
      </trkpt>
      <trkpt lat="58.432499980553985" lon="-3.095305999740958">
        <ele>26.57</ele>
        <time>2023-08-19T13:55:13Z</time>
      </trkpt>
      <trkpt lat="58.432432003319263" lon="-3.094912972301245">
        <ele>26.09</ele>
        <time>2023-08-19T13:55:16Z</time>
      </trkpt>
      <trkpt lat="58.432399984449148" lon="-3.094926970079541">
        <ele>26.09</ele>
        <time>2023-08-19T13:55:17Z</time>
      </trkpt>
      <trkpt lat="58.432358996942639" lon="-3.094945996999741">
        <ele>25.609999999999999</ele>
        <time>2023-08-19T13:55:18Z</time>
      </trkpt>
      <trkpt lat="58.432122962549329" lon="-3.095062002539635">
        <ele>25.129999999999999</ele>
        <time>2023-08-19T13:55:22Z</time>
      </trkpt>
      <trkpt lat="58.432048028334975" lon="-3.095099972561002">
        <ele>24.170000000000002</ele>
        <time>2023-08-19T13:55:26Z</time>
      </trkpt>
      <trkpt lat="58.432034030556679" lon="-3.095107013359666">
        <ele>24.170000000000002</ele>
        <time>2023-08-19T13:55:27Z</time>
      </trkpt>
      <trkpt lat="58.432030007243156" lon="-3.095348998904228">
        <ele>24.170000000000002</ele>
        <time>2023-08-19T13:55:28Z</time>
      </trkpt>
      <trkpt lat="58.432032018899918" lon="-3.095365008339286">
        <ele>24.170000000000002</ele>
        <time>2023-08-19T13:55:30Z</time>
      </trkpt>
      <trkpt lat="58.432026989758015" lon="-3.095315974205732">
        <ele>23.690000000000001</ele>
        <time>2023-08-19T13:55:31Z</time>
      </trkpt>
      <trkpt lat="58.432021038606763" lon="-3.095112964510918">
        <ele>23.690000000000001</ele>
        <time>2023-08-19T13:55:32Z</time>
      </trkpt>
      <trkpt lat="58.432032018899918" lon="-3.095108019188047">
        <ele>23.210000000000001</ele>
        <time>2023-08-19T13:55:33Z</time>
      </trkpt>
      <trkpt lat="58.432044005021453" lon="-3.095101984217763">
        <ele>23.210000000000001</ele>
        <time>2023-08-19T13:55:34Z</time>
      </trkpt>
      <trkpt lat="58.432055991142988" lon="-3.095096033066511">
        <ele>23.210000000000001</ele>
        <time>2023-08-19T13:55:35Z</time>
      </trkpt>
      <trkpt lat="58.432098990306258" lon="-3.095074994489551">
        <ele>22.73</ele>
        <time>2023-08-19T13:55:37Z</time>
      </trkpt>
      <trkpt lat="58.432147018611431" lon="-3.09505102224648">
        <ele>22.73</ele>
        <time>2023-08-19T13:55:38Z</time>
      </trkpt>
      <trkpt lat="58.432212984189391" lon="-3.095017997547984">
        <ele>22.73</ele>
        <time>2023-08-19T13:55:39Z</time>
      </trkpt>
      <trkpt lat="58.432295965030789" lon="-3.094976004213095">
        <ele>22.25</ele>
        <time>2023-08-19T13:55:40Z</time>
      </trkpt>
      <trkpt lat="58.432387998327613" lon="-3.094933005049825">
        <ele>22.25</ele>
        <time>2023-08-19T13:55:41Z</time>
      </trkpt>
      <trkpt lat="58.433430958539248" lon="-3.094404023140669">
        <ele>20.32</ele>
        <time>2023-08-19T13:55:53Z</time>
      </trkpt>
      <trkpt lat="58.433995982632041" lon="-3.094115015119314">
        <ele>17.920000000000002</ele>
        <time>2023-08-19T13:56:00Z</time>
      </trkpt>
      <trkpt lat="58.434075023978949" lon="-3.094076039269567">
        <ele>17.440000000000001</ele>
        <time>2023-08-19T13:56:01Z</time>
      </trkpt>
      <trkpt lat="58.434760998934507" lon="-3.09374000877142">
        <ele>12.630000000000001</ele>
        <time>2023-08-19T13:56:10Z</time>
      </trkpt>
      <trkpt lat="58.434978006407619" lon="-3.093693992123008">
        <ele>11.19</ele>
        <time>2023-08-19T13:56:13Z</time>
      </trkpt>
      <trkpt lat="58.43588400632143" lon="-3.093731040135026">
        <ele>9.27</ele>
        <time>2023-08-19T13:56:24Z</time>
      </trkpt>
      <trkpt lat="58.437080020084977" lon="-3.093833969905973">
        <ele>7.35</ele>
        <time>2023-08-19T13:56:36Z</time>
      </trkpt>
      <trkpt lat="58.437269032001495" lon="-3.093860037624836">
        <ele>7.35</ele>
        <time>2023-08-19T13:56:38Z</time>
      </trkpt>
      <trkpt lat="58.437359975650907" lon="-3.093873029574752">
        <ele>6.87</ele>
        <time>2023-08-19T13:56:39Z</time>
      </trkpt>
      <trkpt lat="58.438359014689922" lon="-3.093958022072911">
        <ele>5.42</ele>
        <time>2023-08-19T13:56:51Z</time>
      </trkpt>
      <trkpt lat="58.438686998561025" lon="-3.093995992094278">
        <ele>5.42</ele>
        <time>2023-08-19T13:56:55Z</time>
      </trkpt>
      <trkpt lat="58.439419995993376" lon="-3.094079978764057">
        <ele>5.42</ele>
        <time>2023-08-19T13:57:04Z</time>
      </trkpt>
      <trkpt lat="58.440667977556586" lon="-3.094291035085917">
        <ele>6.39</ele>
        <time>2023-08-19T13:57:16Z</time>
      </trkpt>
      <trkpt lat="58.441237024962902" lon="-3.094410980120301">
        <ele>4.94</ele>
        <time>2023-08-19T13:57:23Z</time>
      </trkpt>
      <trkpt lat="58.441329980269074" lon="-3.094273013994098">
        <ele>5.42</ele>
        <time>2023-08-19T13:57:24Z</time>
      </trkpt>
      <trkpt lat="58.441429976373911" lon="-3.094152985140681">
        <ele>4.94</ele>
        <time>2023-08-19T13:57:26Z</time>
      </trkpt>
      <trkpt lat="58.44168696552515" lon="-3.093681000173092">
        <ele>3.98</ele>
        <time>2023-08-19T13:57:30Z</time>
      </trkpt>
      <trkpt lat="58.441757960245013" lon="-3.09354898519814">
        <ele>3.98</ele>
        <time>2023-08-19T13:57:31Z</time>
      </trkpt>
      <trkpt lat="58.441820992156863" lon="-3.093430968001485">
        <ele>3.5</ele>
        <time>2023-08-19T13:57:33Z</time>
      </trkpt>
      <trkpt lat="58.442321978509426" lon="-3.092565033584833">
        <ele>4.94</ele>
        <time>2023-08-19T13:57:42Z</time>
      </trkpt>
      <trkpt lat="58.44239498488605" lon="-3.092436958104372">
        <ele>4.94</ele>
        <time>2023-08-19T13:57:44Z</time>
      </trkpt>
      <trkpt lat="58.442419962957501" lon="-3.092397982254624">
        <ele>4.94</ele>
        <time>2023-08-19T13:57:45Z</time>
      </trkpt>
      <trkpt lat="58.44256597571075" lon="-3.092166977003217">
        <ele>5.42</ele>
        <time>2023-08-19T13:57:49Z</time>
      </trkpt>
      <trkpt lat="58.442638982087374" lon="-3.092051977291703">
        <ele>5.91</ele>
        <time>2023-08-19T13:57:51Z</time>
      </trkpt>
      <trkpt lat="58.44267301261425" lon="-3.092062035575509">
        <ele>5.91</ele>
        <time>2023-08-19T13:57:52Z</time>
      </trkpt>
      <trkpt lat="58.442709976807237" lon="-3.092124983668327">
        <ele>5.91</ele>
        <time>2023-08-19T13:57:53Z</time>
      </trkpt>
      <trkpt lat="58.442747024819255" lon="-3.092187009751797">
        <ele>5.91</ele>
        <time>2023-08-19T13:57:54Z</time>
      </trkpt>
      <trkpt lat="58.442788012325764" lon="-3.092253981158137">
        <ele>5.91</ele>
        <time>2023-08-19T13:57:55Z</time>
      </trkpt>
      <trkpt lat="58.442898988723755" lon="-3.092461014166474">
        <ele>6.87</ele>
        <time>2023-08-19T13:57:58Z</time>
      </trkpt>
      <trkpt lat="58.442932013422251" lon="-3.092527985572815">
        <ele>6.87</ele>
        <time>2023-08-19T13:57:59Z</time>
      </trkpt>
      <trkpt lat="58.442965038120747" lon="-3.092597974464297">
        <ele>6.87</ele>
        <time>2023-08-19T13:58:00Z</time>
      </trkpt>
      <trkpt lat="58.443002002313733" lon="-3.092672992497683">
        <ele>6.39</ele>
        <time>2023-08-19T13:58:01Z</time>
      </trkpt>
      <trkpt lat="58.44303896650672" lon="-3.092750022187829">
        <ele>6.87</ele>
        <time>2023-08-19T13:58:02Z</time>
      </trkpt>
      <trkpt lat="58.443249017000198" lon="-3.093178002163768">
        <ele>8.310000000000001</ele>
        <time>2023-08-19T13:58:10Z</time>
      </trkpt>
      <trkpt lat="58.443374997004867" lon="-3.093429962173104">
        <ele>9.27</ele>
        <time>2023-08-19T13:58:13Z</time>
      </trkpt>
      <trkpt lat="58.443414978682995" lon="-3.093510009348393">
        <ele>9.75</ele>
        <time>2023-08-19T13:58:14Z</time>
      </trkpt>
      <trkpt lat="58.443458983674645" lon="-3.093598019331694">
        <ele>10.23</ele>
        <time>2023-08-19T13:58:15Z</time>
      </trkpt>
      <trkpt lat="58.443499971181154" lon="-3.093684017658234">
        <ele>10.23</ele>
        <time>2023-08-19T13:58:16Z</time>
      </trkpt>
      <trkpt lat="58.443536013364792" lon="-3.093766998499632">
        <ele>10.710000000000001</ele>
        <time>2023-08-19T13:58:17Z</time>
      </trkpt>
      <trkpt lat="58.443570965901017" lon="-3.093846961855888">
        <ele>11.19</ele>
        <time>2023-08-19T13:58:18Z</time>
      </trkpt>
      <trkpt lat="58.443604996427894" lon="-3.093926003202796">
        <ele>11.67</ele>
        <time>2023-08-19T13:58:19Z</time>
      </trkpt>
      <trkpt lat="58.443728964775801" lon="-3.094210987910628">
        <ele>12.630000000000001</ele>
        <time>2023-08-19T13:58:22Z</time>
      </trkpt>
      <trkpt lat="58.443769030272961" lon="-3.094304027035832">
        <ele>12.630000000000001</ele>
        <time>2023-08-19T13:58:23Z</time>
      </trkpt>
      <trkpt lat="58.443823009729385" lon="-3.094388013705611">
        <ele>13.119999999999999</ele>
        <time>2023-08-19T13:58:24Z</time>
      </trkpt>
      <trkpt lat="58.443880006670952" lon="-3.094477029517293">
        <ele>13.119999999999999</ele>
        <time>2023-08-19T13:58:25Z</time>
      </trkpt>
      <trkpt lat="58.443937003612518" lon="-3.094565961509943">
        <ele>12.630000000000001</ele>
        <time>2023-08-19T13:58:26Z</time>
      </trkpt>
      <trkpt lat="58.44441301189363" lon="-3.095501968637109">
        <ele>12.15</ele>
        <time>2023-08-19T13:58:34Z</time>
      </trkpt>
      <trkpt lat="58.444490041583776" lon="-3.095617974177003">
        <ele>12.15</ele>
        <time>2023-08-19T13:58:35Z</time>
      </trkpt>
      <trkpt lat="58.444565981626511" lon="-3.095714030787349">
        <ele>12.15</ele>
        <time>2023-08-19T13:58:36Z</time>
      </trkpt>
      <trkpt lat="58.444644017145038" lon="-3.095797011628747">
        <ele>12.15</ele>
        <time>2023-08-19T13:58:37Z</time>
      </trkpt>
      <trkpt lat="58.444721968844533" lon="-3.095867000520229">
        <ele>12.15</ele>
        <time>2023-08-19T13:58:38Z</time>
      </trkpt>
      <trkpt lat="58.44499203376472" lon="-3.096024999395013">
        <ele>12.15</ele>
        <time>2023-08-19T13:58:42Z</time>
      </trkpt>
      <trkpt lat="58.44505799934268" lon="-3.096050983294845">
        <ele>12.630000000000001</ele>
        <time>2023-08-19T13:58:43Z</time>
      </trkpt>
      <trkpt lat="58.445127988234162" lon="-3.096078978851438">
        <ele>12.630000000000001</ele>
        <time>2023-08-19T13:58:44Z</time>
      </trkpt>
      <trkpt lat="58.445424037054181" lon="-3.096117032691836">
        <ele>13.6</ele>
        <time>2023-08-19T13:58:48Z</time>
      </trkpt>
      <trkpt lat="58.445486985146999" lon="-3.09610303491354">
        <ele>13.119999999999999</ele>
        <time>2023-08-19T13:58:49Z</time>
      </trkpt>
      <trkpt lat="58.44555102288723" lon="-3.096088031306863">
        <ele>12.630000000000001</ele>
        <time>2023-08-19T13:58:50Z</time>
      </trkpt>
      <trkpt lat="58.445901973173022" lon="-3.095937995240092">
        <ele>12.15</ele>
        <time>2023-08-19T13:58:55Z</time>
      </trkpt>
      <trkpt lat="58.445974979549646" lon="-3.095901031047106">
        <ele>12.630000000000001</ele>
        <time>2023-08-19T13:58:56Z</time>
      </trkpt>
      <trkpt lat="58.446116968989372" lon="-3.095828024670482">
        <ele>13.6</ele>
        <time>2023-08-19T13:58:58Z</time>
      </trkpt>
      <trkpt lat="58.446897994726896" lon="-3.095416976138949">
        <ele>16.960000000000001</ele>
        <time>2023-08-19T13:59:09Z</time>
      </trkpt>
      <trkpt lat="58.44772101379931" lon="-3.094967035576701">
        <ele>20.32</ele>
        <time>2023-08-19T13:59:19Z</time>
      </trkpt>
      <trkpt lat="58.448225017637014" lon="-3.094710968434811">
        <ele>21.77</ele>
        <time>2023-08-19T13:59:26Z</time>
      </trkpt>
      <trkpt lat="58.448291989043355" lon="-3.094710968434811">
        <ele>22.25</ele>
        <time>2023-08-19T13:59:27Z</time>
      </trkpt>
      <trkpt lat="58.448360972106457" lon="-3.094710968434811">
        <ele>22.73</ele>
        <time>2023-08-19T13:59:28Z</time>
      </trkpt>
      <trkpt lat="58.448401959612966" lon="-3.094770982861519">
        <ele>22.73</ele>
        <time>2023-08-19T13:59:29Z</time>
      </trkpt>
      <trkpt lat="58.448450993746519" lon="-3.094843989238143">
        <ele>22.73</ele>
        <time>2023-08-19T13:59:30Z</time>
      </trkpt>
      <trkpt lat="58.448504973202944" lon="-3.094923030585051">
        <ele>22.73</ele>
        <time>2023-08-19T13:59:31Z</time>
      </trkpt>
      <trkpt lat="58.449318017810583" lon="-3.096164977177978">
        <ele>23.690000000000001</ele>
        <time>2023-08-19T13:59:43Z</time>
      </trkpt>
      <trkpt lat="58.45016903243959" lon="-3.097564000636339">
        <ele>22.73</ele>
        <time>2023-08-19T13:59:53Z</time>
      </trkpt>
      <trkpt lat="58.451751032844186" lon="-3.100162977352738">
        <ele>22.73</ele>
        <time>2023-08-19T14:00:08Z</time>
      </trkpt>
      <trkpt lat="58.452845038846135" lon="-3.101962991058826">
        <ele>23.210000000000001</ele>
        <time>2023-08-19T14:00:17Z</time>
      </trkpt>
      <trkpt lat="58.454601969569921" lon="-3.104838989675045">
        <ele>23.690000000000001</ele>
        <time>2023-08-19T14:00:30Z</time>
      </trkpt>
      <trkpt lat="58.456506002694368" lon="-3.107978012412787">
        <ele>27.050000000000001</ele>
        <time>2023-08-19T14:00:43Z</time>
      </trkpt>
      <trkpt lat="58.457861021161079" lon="-3.110090000554919">
        <ele>30.420000000000002</ele>
        <time>2023-08-19T14:00:53Z</time>
      </trkpt>
      <trkpt lat="58.459245041012764" lon="-3.112170975655317">
        <ele>33.780000000000001</ele>
        <time>2023-08-19T14:01:04Z</time>
      </trkpt>
      <trkpt lat="58.460837015882134" lon="-3.114557974040508">
        <ele>32.82</ele>
        <time>2023-08-19T14:01:17Z</time>
      </trkpt>
      <trkpt lat="58.462025988847017" lon="-3.116339966654778">
        <ele>30.420000000000002</ele>
        <time>2023-08-19T14:01:24Z</time>
      </trkpt>
      <trkpt lat="58.463677978143096" lon="-3.11883601360023">
        <ele>28.5</ele>
        <time>2023-08-19T14:01:34Z</time>
      </trkpt>
      <trkpt lat="58.466119961813092" lon="-3.122527990490198">
        <ele>28.5</ele>
        <time>2023-08-19T14:01:48Z</time>
      </trkpt>
      <trkpt lat="58.468516012653708" lon="-3.126152995973826">
        <ele>28.5</ele>
        <time>2023-08-19T14:02:02Z</time>
      </trkpt>
      <trkpt lat="58.469541035592556" lon="-3.127724016085267">
        <ele>28.5</ele>
        <time>2023-08-19T14:02:08Z</time>
      </trkpt>
      <trkpt lat="58.471101997420192" lon="-3.131668036803603">
        <ele>30.899999999999999</ele>
        <time>2023-08-19T14:02:20Z</time>
      </trkpt>
      <trkpt lat="58.472749041393399" lon="-3.135962001979351">
        <ele>34.740000000000002</ele>
        <time>2023-08-19T14:02:34Z</time>
      </trkpt>
      <trkpt lat="58.473999034613371" lon="-3.139250976964831">
        <ele>37.630000000000003</ele>
        <time>2023-08-19T14:02:47Z</time>
      </trkpt>
      <trkpt lat="58.475036965683103" lon="-3.141935029998422">
        <ele>41.950000000000003</ele>
        <time>2023-08-19T14:02:57Z</time>
      </trkpt>
      <trkpt lat="58.475844981148839" lon="-3.144061015918851">
        <ele>46.280000000000001</ele>
        <time>2023-08-19T14:03:07Z</time>
      </trkpt>
      <trkpt lat="58.475937014445662" lon="-3.144306018948555">
        <ele>46.759999999999998</ele>
        <time>2023-08-19T14:03:09Z</time>
      </trkpt>
      <trkpt lat="58.475973978638649" lon="-3.144400985911489">
        <ele>46.759999999999998</ele>
        <time>2023-08-19T14:03:10Z</time>
      </trkpt>
      <trkpt lat="58.476004991680384" lon="-3.144483966752887">
        <ele>46.759999999999998</ele>
        <time>2023-08-19T14:03:11Z</time>
      </trkpt>
      <trkpt lat="58.476113034412265" lon="-3.144507016986609">
        <ele>47.240000000000002</ele>
        <time>2023-08-19T14:03:12Z</time>
      </trkpt>
      <trkpt lat="58.476178999990225" lon="-3.144441973417997">
        <ele>47.240000000000002</ele>
        <time>2023-08-19T14:03:13Z</time>
      </trkpt>
      <trkpt lat="58.476258963346481" lon="-3.144355975091457">
        <ele>47.240000000000002</ele>
        <time>2023-08-19T14:03:14Z</time>
      </trkpt>
      <trkpt lat="58.476349990814924" lon="-3.144256984815002">
        <ele>47.240000000000002</ele>
        <time>2023-08-19T14:03:15Z</time>
      </trkpt>
      <trkpt lat="58.476819964125752" lon="-3.143814001232386">
        <ele>46.759999999999998</ele>
        <time>2023-08-19T14:03:19Z</time>
      </trkpt>
      <trkpt lat="58.476970000192523" lon="-3.143754992634058">
        <ele>46.759999999999998</ele>
        <time>2023-08-19T14:03:20Z</time>
      </trkpt>
      <trkpt lat="58.477450031787157" lon="-3.143568998202682">
        <ele>46.280000000000001</ele>
        <time>2023-08-19T14:03:23Z</time>
      </trkpt>
      <trkpt lat="58.477608030661941" lon="-3.143456010147929">
        <ele>46.280000000000001</ele>
        <time>2023-08-19T14:03:24Z</time>
      </trkpt>
      <trkpt lat="58.479097997769713" lon="-3.142177015542984">
        <ele>45.799999999999997</ele>
        <time>2023-08-19T14:03:33Z</time>
      </trkpt>
      <trkpt lat="58.481116024777293" lon="-3.140829959884286">
        <ele>40.509999999999998</ele>
        <time>2023-08-19T14:03:45Z</time>
      </trkpt>
      <trkpt lat="58.482494009658694" lon="-3.140926016494632">
        <ele>38.590000000000003</ele>
        <time>2023-08-19T14:03:52Z</time>
      </trkpt>
      <trkpt lat="58.485125005245209" lon="-3.142201993614435">
        <ele>36.189999999999998</ele>
        <time>2023-08-19T14:04:04Z</time>
      </trkpt>
      <trkpt lat="58.489031977951527" lon="-3.144122958183289">
        <ele>35.710000000000001</ele>
        <time>2023-08-19T14:04:21Z</time>
      </trkpt>
      <trkpt lat="58.492809031158686" lon="-3.145980974659324">
        <ele>36.670000000000002</ele>
        <time>2023-08-19T14:04:38Z</time>
      </trkpt>
      <trkpt lat="58.496207976713777" lon="-3.147651990875602">
        <ele>30.420000000000002</ele>
        <time>2023-08-19T14:04:53Z</time>
      </trkpt>
      <trkpt lat="58.499344987794757" lon="-3.14919501543045">
        <ele>25.609999999999999</ele>
        <time>2023-08-19T14:05:07Z</time>
      </trkpt>
      <trkpt lat="58.503320021554828" lon="-3.15115001052618">
        <ele>24.170000000000002</ele>
        <time>2023-08-19T14:05:25Z</time>
      </trkpt>
      <trkpt lat="58.506813012063503" lon="-3.15280401147902">
        <ele>20.32</ele>
        <time>2023-08-19T14:05:41Z</time>
      </trkpt>
      <trkpt lat="58.508414961397648" lon="-3.152665961533785">
        <ele>16.48</ele>
        <time>2023-08-19T14:05:48Z</time>
      </trkpt>
      <trkpt lat="58.509686999022961" lon="-3.151528034359217">
        <ele>10.710000000000001</ele>
        <time>2023-08-19T14:05:54Z</time>
      </trkpt>
      <trkpt lat="58.510606996715069" lon="-3.149934969842434">
        <ele>8.789999999999999</ele>
        <time>2023-08-19T14:06:00Z</time>
      </trkpt>
      <trkpt lat="58.511764034628868" lon="-3.147896993905306">
        <ele>7.35</ele>
        <time>2023-08-19T14:06:08Z</time>
      </trkpt>
      <trkpt lat="58.511950029060245" lon="-3.14768903888762">
        <ele>7.35</ele>
        <time>2023-08-19T14:06:09Z</time>
      </trkpt>
      <trkpt lat="58.514212975278497" lon="-3.145866980776191">
        <ele>8.310000000000001</ele>
        <time>2023-08-19T14:06:20Z</time>
      </trkpt>
      <trkpt lat="58.517475966364145" lon="-3.143503032624722">
        <ele>7.83</ele>
        <time>2023-08-19T14:06:35Z</time>
      </trkpt>
      <trkpt lat="58.521469021216035" lon="-3.141091978177428">
        <ele>11.67</ele>
        <time>2023-08-19T14:06:53Z</time>
      </trkpt>
      <trkpt lat="58.524784985929728" lon="-3.138934979215264">
        <ele>16.48</ele>
        <time>2023-08-19T14:07:08Z</time>
      </trkpt>
      <trkpt lat="58.527440037578344" lon="-3.136505987495184">
        <ele>17.440000000000001</ele>
        <time>2023-08-19T14:07:21Z</time>
      </trkpt>
      <trkpt lat="58.528649965301156" lon="-3.134328033775091">
        <ele>15.039999999999999</ele>
        <time>2023-08-19T14:07:28Z</time>
      </trkpt>
      <trkpt lat="58.530816016718745" lon="-3.130232971161604">
        <ele>15.039999999999999</ele>
        <time>2023-08-19T14:07:41Z</time>
      </trkpt>
      <trkpt lat="58.531974982470274" lon="-3.128034984692931">
        <ele>15.039999999999999</ele>
        <time>2023-08-19T14:07:49Z</time>
      </trkpt>
      <trkpt lat="58.533342992886901" lon="-3.12538999132812">
        <ele>15.52</ele>
        <time>2023-08-19T14:08:00Z</time>
      </trkpt>
      <trkpt lat="58.534016981720924" lon="-3.124114014208317">
        <ele>20.32</ele>
        <time>2023-08-19T14:08:09Z</time>
      </trkpt>
      <trkpt lat="58.534316970035434" lon="-3.123572040349245">
        <ele>22.25</ele>
        <time>2023-08-19T14:08:14Z</time>
      </trkpt>
      <trkpt lat="58.535219030454755" lon="-3.121878979727626">
        <ele>27.530000000000001</ele>
        <time>2023-08-19T14:08:28Z</time>
      </trkpt>
      <trkpt lat="58.536109020933509" lon="-3.120175022631884">
        <ele>27.530000000000001</ele>
        <time>2023-08-19T14:08:37Z</time>
      </trkpt>
      <trkpt lat="58.537420034408569" lon="-3.117665983736515">
        <ele>28.02</ele>
        <time>2023-08-19T14:08:48Z</time>
      </trkpt>
      <trkpt lat="58.539212001487613" lon="-3.114238036796451">
        <ele>29.940000000000001</ele>
        <time>2023-08-19T14:09:00Z</time>
      </trkpt>
      <trkpt lat="58.541594976559281" lon="-3.109710970893502">
        <ele>32.82</ele>
        <time>2023-08-19T14:09:15Z</time>
      </trkpt>
      <trkpt lat="58.542826026678085" lon="-3.107102019712329">
        <ele>36.189999999999998</ele>
        <time>2023-08-19T14:09:23Z</time>
      </trkpt>
      <trkpt lat="58.543178988620639" lon="-3.105489006265998">
        <ele>39.07</ele>
        <time>2023-08-19T14:09:27Z</time>
      </trkpt>
      <trkpt lat="58.544135028496385" lon="-3.099947981536388">
        <ele>39.07</ele>
        <time>2023-08-19T14:09:40Z</time>
      </trkpt>
      <trkpt lat="58.544918987900019" lon="-3.096979027613998">
        <ele>40.990000000000002</ele>
        <time>2023-08-19T14:09:48Z</time>
      </trkpt>
      <trkpt lat="58.546428987756371" lon="-3.093093009665608">
        <ele>42.920000000000002</ele>
        <time>2023-08-19T14:09:59Z</time>
      </trkpt>
      <trkpt lat="58.546723024919629" lon="-3.092480041086674">
        <ele>42.920000000000002</ele>
        <time>2023-08-19T14:10:01Z</time>
      </trkpt>
      <trkpt lat="58.546890998259187" lon="-3.092265967279673">
        <ele>43.399999999999999</ele>
        <time>2023-08-19T14:10:02Z</time>
      </trkpt>
      <trkpt lat="58.547079004347324" lon="-3.092048959806562">
        <ele>43.399999999999999</ele>
        <time>2023-08-19T14:10:03Z</time>
      </trkpt>
      <trkpt lat="58.5472840256989" lon="-3.091913005337119">
        <ele>43.880000000000003</ele>
        <time>2023-08-19T14:10:04Z</time>
      </trkpt>
      <trkpt lat="58.547493992373347" lon="-3.091796999797225">
        <ele>43.880000000000003</ele>
        <time>2023-08-19T14:10:05Z</time>
      </trkpt>
      <trkpt lat="58.547717034816742" lon="-3.091754000633955">
        <ele>43.880000000000003</ele>
        <time>2023-08-19T14:10:06Z</time>
      </trkpt>
      <trkpt lat="58.547945022583008" lon="-3.091772021725774">
        <ele>44.359999999999999</ele>
        <time>2023-08-19T14:10:07Z</time>
      </trkpt>
      <trkpt lat="58.548183990642428" lon="-3.091791970655322">
        <ele>43.880000000000003</ele>
        <time>2023-08-19T14:10:08Z</time>
      </trkpt>
      <trkpt lat="58.549735983833671" lon="-3.091548979282379">
        <ele>42.439999999999998</ele>
        <time>2023-08-19T14:10:14Z</time>
      </trkpt>
      <trkpt lat="58.551693996414542" lon="-3.090225979685783">
        <ele>40.509999999999998</ele>
        <time>2023-08-19T14:10:22Z</time>
      </trkpt>
      <trkpt lat="58.554227007552981" lon="-3.088602991774678">
        <ele>36.670000000000002</ele>
        <time>2023-08-19T14:10:34Z</time>
      </trkpt>
      <trkpt lat="58.556835036724806" lon="-3.086981009691954">
        <ele>32.82</ele>
        <time>2023-08-19T14:10:46Z</time>
      </trkpt>
      <trkpt lat="58.558424999937415" lon="-3.086343985050917">
        <ele>31.859999999999999</ele>
        <time>2023-08-19T14:10:54Z</time>
      </trkpt>
      <trkpt lat="58.56004698202014" lon="-3.085773009806871">
        <ele>26.09</ele>
        <time>2023-08-19T14:11:02Z</time>
      </trkpt>
      <trkpt lat="58.561174012720585" lon="-3.084823004901409">
        <ele>20.809999999999999</ele>
        <time>2023-08-19T14:11:09Z</time>
      </trkpt>
      <trkpt lat="58.562309006229043" lon="-3.083845004439354">
        <ele>17.920000000000002</ele>
        <time>2023-08-19T14:11:16Z</time>
      </trkpt>
      <trkpt lat="58.56384901329875" lon="-3.082517981529236">
        <ele>17.920000000000002</ele>
        <time>2023-08-19T14:11:23Z</time>
      </trkpt>
      <trkpt lat="58.565885983407497" lon="-3.080745041370392">
        <ele>23.210000000000001</ele>
        <time>2023-08-19T14:11:33Z</time>
      </trkpt>
      <trkpt lat="58.567895963788033" lon="-3.078973023220897">
        <ele>34.259999999999998</ele>
        <time>2023-08-19T14:11:43Z</time>
      </trkpt>
      <trkpt lat="58.570974972099066" lon="-3.076234990730882">
        <ele>52.049999999999997</ele>
        <time>2023-08-19T14:11:58Z</time>
      </trkpt>
      <trkpt lat="58.572065038606524" lon="-3.074655001983047">
        <ele>53.969999999999999</ele>
        <time>2023-08-19T14:12:04Z</time>
      </trkpt>
      <trkpt lat="58.57340999878943" lon="-3.072505965828896">
        <ele>56.859999999999999</ele>
        <time>2023-08-19T14:12:12Z</time>
      </trkpt>
      <trkpt lat="58.573601022362709" lon="-3.072350984439254">
        <ele>57.340000000000003</ele>
        <time>2023-08-19T14:12:13Z</time>
      </trkpt>
      <trkpt lat="58.573801014572382" lon="-3.072280995547772">
        <ele>57.340000000000003</ele>
        <time>2023-08-19T14:12:14Z</time>
      </trkpt>
      <trkpt lat="58.574006035923958" lon="-3.072241013869643">
        <ele>57.82</ele>
        <time>2023-08-19T14:12:15Z</time>
      </trkpt>
      <trkpt lat="58.574213990941644" lon="-3.072201032191515">
        <ele>57.82</ele>
        <time>2023-08-19T14:12:16Z</time>
      </trkpt>
      <trkpt lat="58.574424963444471" lon="-3.072203965857625">
        <ele>58.299999999999997</ele>
        <time>2023-08-19T14:12:17Z</time>
      </trkpt>
      <trkpt lat="58.574641970917583" lon="-3.072249982506037">
        <ele>58.299999999999997</ele>
        <time>2023-08-19T14:12:18Z</time>
      </trkpt>
      <trkpt lat="58.57682503759861" lon="-3.072878960520029">
        <ele>59.259999999999998</ele>
        <time>2023-08-19T14:12:28Z</time>
      </trkpt>
      <trkpt lat="58.578279968351126" lon="-3.074111016467214">
        <ele>56.859999999999999</ele>
        <time>2023-08-19T14:12:35Z</time>
      </trkpt>
      <trkpt lat="58.581202989444137" lon="-3.076927000656724">
        <ele>41.469999999999999</ele>
        <time>2023-08-19T14:12:49Z</time>
      </trkpt>
      <trkpt lat="58.582681976258755" lon="-3.079421035945416">
        <ele>30.899999999999999</ele>
        <time>2023-08-19T14:12:57Z</time>
      </trkpt>
      <trkpt lat="58.584031965583563" lon="-3.081679036840797">
        <ele>26.57</ele>
        <time>2023-08-19T14:13:05Z</time>
      </trkpt>
      <trkpt lat="58.584812991321087" lon="-3.082520999014378">
        <ele>25.609999999999999</ele>
        <time>2023-08-19T14:13:09Z</time>
      </trkpt>
      <trkpt lat="58.585017006844282" lon="-3.082668017596006">
        <ele>25.609999999999999</ele>
        <time>2023-08-19T14:13:10Z</time>
      </trkpt>
      <trkpt lat="58.58718297444284" lon="-3.083718018606305">
        <ele>26.57</ele>
        <time>2023-08-19T14:13:20Z</time>
      </trkpt>
      <trkpt lat="58.590120999142528" lon="-3.085590032860637">
        <ele>23.690000000000001</ele>
        <time>2023-08-19T14:13:33Z</time>
      </trkpt>
      <trkpt lat="58.591827973723412" lon="-3.086552023887634">
        <ele>21.289999999999999</ele>
        <time>2023-08-19T14:13:41Z</time>
      </trkpt>
      <trkpt lat="58.59203802421689" lon="-3.086580019444227">
        <ele>20.809999999999999</ele>
        <time>2023-08-19T14:13:42Z</time>
      </trkpt>
      <trkpt lat="58.594177002087235" lon="-3.08673600666225">
        <ele>18.879999999999999</ele>
        <time>2023-08-19T14:13:52Z</time>
      </trkpt>
      <trkpt lat="58.596354033797979" lon="-3.087436985224485">
        <ele>26.57</ele>
        <time>2023-08-19T14:14:02Z</time>
      </trkpt>
      <trkpt lat="58.59953798353672" lon="-3.087991029024124">
        <ele>40.990000000000002</ele>
        <time>2023-08-19T14:14:16Z</time>
      </trkpt>
      <trkpt lat="58.601887011900544" lon="-3.08811197988689">
        <ele>46.280000000000001</ele>
        <time>2023-08-19T14:14:27Z</time>
      </trkpt>
      <trkpt lat="58.603638997301459" lon="-3.088426971808076">
        <ele>48.68</ele>
        <time>2023-08-19T14:14:36Z</time>
      </trkpt>
      <trkpt lat="58.605075990781188" lon="-3.088430995121598">
        <ele>55.890000000000001</ele>
        <time>2023-08-19T14:14:44Z</time>
      </trkpt>
      <trkpt lat="58.605266008526087" lon="-3.088301997631788">
        <ele>57.340000000000003</ele>
        <time>2023-08-19T14:14:45Z</time>
      </trkpt>
      <trkpt lat="58.605461977422237" lon="-3.088167971000075">
        <ele>58.299999999999997</ele>
        <time>2023-08-19T14:14:46Z</time>
      </trkpt>
      <trkpt lat="58.605648977681994" lon="-3.087956998497248">
        <ele>59.740000000000002</ele>
        <time>2023-08-19T14:14:47Z</time>
      </trkpt>
      <trkpt lat="58.605834972113371" lon="-3.087730016559362">
        <ele>61.18</ele>
        <time>2023-08-19T14:14:48Z</time>
      </trkpt>
      <trkpt lat="58.60600202344358" lon="-3.087461963295937">
        <ele>62.619999999999997</ele>
        <time>2023-08-19T14:14:49Z</time>
      </trkpt>
      <trkpt lat="58.606143007054925" lon="-3.087163986638188">
        <ele>64.069999999999993</ele>
        <time>2023-08-19T14:14:50Z</time>
      </trkpt>
      <trkpt lat="58.606274016201496" lon="-3.086860980838537">
        <ele>65.510000000000005</ele>
        <time>2023-08-19T14:14:51Z</time>
      </trkpt>
      <trkpt lat="58.606402007862926" lon="-3.086560992524028">
        <ele>66.469999999999999</ele>
        <time>2023-08-19T14:14:52Z</time>
      </trkpt>
      <trkpt lat="58.606503009796143" lon="-3.086233008652926">
        <ele>67.909999999999997</ele>
        <time>2023-08-19T14:14:53Z</time>
      </trkpt>
      <trkpt lat="58.606602000072598" lon="-3.085908964276314">
        <ele>68.870000000000005</ele>
        <time>2023-08-19T14:14:54Z</time>
      </trkpt>
      <trkpt lat="58.608003035187721" lon="-3.081890009343624">
        <ele>84.25</ele>
        <time>2023-08-19T14:15:07Z</time>
      </trkpt>
      <trkpt lat="58.609587969258428" lon="-3.078867997974157">
        <ele>93.390000000000001</ele>
        <time>2023-08-19T14:15:18Z</time>
      </trkpt>
      <trkpt lat="58.610155005007982" lon="-3.078374974429607">
        <ele>94.829999999999998</ele>
        <time>2023-08-19T14:15:21Z</time>
      </trkpt>
      <trkpt lat="58.610362960025668" lon="-3.078308003023267">
        <ele>94.829999999999998</ele>
        <time>2023-08-19T14:15:22Z</time>
      </trkpt>
      <trkpt lat="58.610577033832669" lon="-3.078239019960165">
        <ele>95.310000000000002</ele>
        <time>2023-08-19T14:15:23Z</time>
      </trkpt>
      <trkpt lat="58.610797980800271" lon="-3.078196020796895">
        <ele>95.790000000000006</ele>
        <time>2023-08-19T14:15:24Z</time>
      </trkpt>
      <trkpt lat="58.611025968566537" lon="-3.078220998868346">
        <ele>95.790000000000006</ele>
        <time>2023-08-19T14:15:25Z</time>
      </trkpt>
      <trkpt lat="58.611257979646325" lon="-3.078244971111417">
        <ele>96.269999999999996</ele>
        <time>2023-08-19T14:15:26Z</time>
      </trkpt>
      <trkpt lat="58.612983981147408" lon="-3.0788329616189">
        <ele>99.629999999999995</ele>
        <time>2023-08-19T14:15:34Z</time>
      </trkpt>
      <trkpt lat="58.614539997652173" lon="-3.080145986750722">
        <ele>102.52</ele>
        <time>2023-08-19T14:15:42Z</time>
      </trkpt>
      <trkpt lat="58.617547005414963" lon="-3.083014022558928">
        <ele>98.670000000000002</ele>
        <time>2023-08-19T14:15:57Z</time>
      </trkpt>
      <trkpt lat="58.619038984179497" lon="-3.083864031359553">
        <ele>95.790000000000006</ele>
        <time>2023-08-19T14:16:04Z</time>
      </trkpt>
      <trkpt lat="58.621925041079521" lon="-3.085273029282689">
        <ele>86.659999999999997</ele>
        <time>2023-08-19T14:16:18Z</time>
      </trkpt>
      <trkpt lat="58.624411029741168" lon="-3.086192021146417">
        <ele>79.930000000000007</ele>
        <time>2023-08-19T14:16:30Z</time>
      </trkpt>
      <trkpt lat="58.62574802711606" lon="-3.085500011220574">
        <ele>74.640000000000001</ele>
        <time>2023-08-19T14:16:37Z</time>
      </trkpt>
      <trkpt lat="58.626804985105991" lon="-3.083863025531173">
        <ele>69.349999999999994</ele>
        <time>2023-08-19T14:16:44Z</time>
      </trkpt>
      <trkpt lat="58.627919023856521" lon="-3.0806980188936">
        <ele>59.740000000000002</ele>
        <time>2023-08-19T14:16:54Z</time>
      </trkpt>
      <trkpt lat="58.629267001524568" lon="-3.076632963493466">
        <ele>52.530000000000001</ele>
        <time>2023-08-19T14:17:07Z</time>
      </trkpt>
      <trkpt lat="58.630018020048738" lon="-3.073744978755713">
        <ele>48.68</ele>
        <time>2023-08-19T14:17:16Z</time>
      </trkpt>
      <trkpt lat="58.630263023078442" lon="-3.071586973965168">
        <ele>45.32</ele>
        <time>2023-08-19T14:17:23Z</time>
      </trkpt>
      <trkpt lat="58.630305016413331" lon="-3.071364015340805">
        <ele>45.32</ele>
        <time>2023-08-19T14:17:24Z</time>
      </trkpt>
      <trkpt lat="58.630348015576601" lon="-3.071138961240649">
        <ele>45.32</ele>
        <time>2023-08-19T14:17:25Z</time>
      </trkpt>
      <trkpt lat="58.630395960062742" lon="-3.070913990959525">
        <ele>45.32</ele>
        <time>2023-08-19T14:17:26Z</time>
      </trkpt>
      <trkpt lat="58.630481036379933" lon="-3.070721961557865">
        <ele>45.32</ele>
        <time>2023-08-19T14:17:27Z</time>
      </trkpt>
      <trkpt lat="58.630568962544203" lon="-3.070524986833334">
        <ele>45.32</ele>
        <time>2023-08-19T14:17:28Z</time>
      </trkpt>
      <trkpt lat="58.630659990012646" lon="-3.070338992401958">
        <ele>45.32</ele>
        <time>2023-08-19T14:17:29Z</time>
      </trkpt>
      <trkpt lat="58.63077700138092" lon="-3.070205971598625">
        <ele>45.32</ele>
        <time>2023-08-19T14:17:30Z</time>
      </trkpt>
      <trkpt lat="58.630897030234337" lon="-3.070072028785944">
        <ele>45.32</ele>
        <time>2023-08-19T14:17:31Z</time>
      </trkpt>
      <trkpt lat="58.631020998582244" lon="-3.069955017417669">
        <ele>45.32</ele>
        <time>2023-08-19T14:17:32Z</time>
      </trkpt>
      <trkpt lat="58.631157958880067" lon="-3.069888968020678">
        <ele>45.799999999999997</ele>
        <time>2023-08-19T14:17:33Z</time>
      </trkpt>
      <trkpt lat="58.631296008825302" lon="-3.069823002442718">
        <ele>45.799999999999997</ele>
        <time>2023-08-19T14:17:34Z</time>
      </trkpt>
      <trkpt lat="58.633099962025881" lon="-3.069126969203353">
        <ele>41.469999999999999</ele>
        <time>2023-08-19T14:17:46Z</time>
      </trkpt>
      <trkpt lat="58.635369027033448" lon="-3.0690330080688">
        <ele>31.859999999999999</ele>
        <time>2023-08-19T14:18:00Z</time>
      </trkpt>
      <trkpt lat="58.637148002162576" lon="-3.068943992257118">
        <ele>28.02</ele>
        <time>2023-08-19T14:18:12Z</time>
      </trkpt>
      <trkpt lat="58.637314969673753" lon="-3.068940974771977">
        <ele>27.530000000000001</ele>
        <time>2023-08-19T14:18:15Z</time>
      </trkpt>
      <trkpt lat="58.637343971058726" lon="-3.068940974771977">
        <ele>27.530000000000001</ele>
        <time>2023-08-19T14:18:16Z</time>
      </trkpt>
      <trkpt lat="58.63733097910881" lon="-3.068849025294185">
        <ele>27.050000000000001</ele>
        <time>2023-08-19T14:18:18Z</time>
      </trkpt>
      <trkpt lat="58.637325027957559" lon="-3.068765038624406">
        <ele>27.050000000000001</ele>
        <time>2023-08-19T14:18:19Z</time>
      </trkpt>
      <trkpt lat="58.637220002710819" lon="-3.067351011559367">
        <ele>27.050000000000001</ele>
        <time>2023-08-19T14:18:25Z</time>
      </trkpt>
      <trkpt lat="58.637025039643049" lon="-3.064422039315105">
        <ele>28.02</ele>
        <time>2023-08-19T14:18:37Z</time>
      </trkpt>
      <trkpt lat="58.636930994689465" lon="-3.061580993235111">
        <ele>29.940000000000001</ele>
        <time>2023-08-19T14:18:51Z</time>
      </trkpt>
      <trkpt lat="58.636930994689465" lon="-3.058674987405539">
        <ele>30.420000000000002</ele>
        <time>2023-08-19T14:19:03Z</time>
      </trkpt>
      <trkpt lat="58.636872991919518" lon="-3.056485969573259">
        <ele>32.340000000000003</ele>
        <time>2023-08-19T14:19:12Z</time>
      </trkpt>
      <trkpt lat="58.636866034939885" lon="-3.056430984288454">
        <ele>32.340000000000003</ele>
        <time>2023-08-19T14:19:17Z</time>
      </trkpt>
      <trkpt lat="58.636866034939885" lon="-3.056398965418339">
        <ele>32.340000000000003</ele>
        <time>2023-08-19T14:19:18Z</time>
      </trkpt>
      <trkpt lat="58.636865029111505" lon="-3.056308021768928">
        <ele>32.340000000000003</ele>
        <time>2023-08-19T14:19:19Z</time>
      </trkpt>
      <trkpt lat="58.63685698248446" lon="-3.055575024336577">
        <ele>32.340000000000003</ele>
        <time>2023-08-19T14:19:25Z</time>
      </trkpt>
      <trkpt lat="58.636853964999318" lon="-3.055226001888514">
        <ele>31.859999999999999</ele>
        <time>2023-08-19T14:19:29Z</time>
      </trkpt>
      <trkpt lat="58.636838039383292" lon="-3.053689012303948">
        <ele>33.299999999999997</ele>
        <time>2023-08-19T14:19:37Z</time>
      </trkpt>
      <trkpt lat="58.636824963614345" lon="-3.052428038790822">
        <ele>36.189999999999998</ele>
        <time>2023-08-19T14:19:44Z</time>
      </trkpt>
      <trkpt lat="58.636824041604996" lon="-3.052342962473631">
        <ele>36.670000000000002</ele>
        <time>2023-08-19T14:19:45Z</time>
      </trkpt>
      <trkpt lat="58.636803003028035" lon="-3.052242966368794">
        <ele>36.670000000000002</ele>
        <time>2023-08-19T14:19:46Z</time>
      </trkpt>
      <trkpt lat="58.636782970279455" lon="-3.052219999954104">
        <ele>36.670000000000002</ele>
        <time>2023-08-19T14:19:47Z</time>
      </trkpt>
      <trkpt lat="58.636782970279455" lon="-3.052219999954104">
        <ele>37.149999999999999</ele>
        <time>2023-08-19T14:20:01Z</time>
      </trkpt>
      <trkpt lat="58.636709041893482" lon="-3.052079016342759">
        <ele>37.630000000000003</ele>
        <time>2023-08-19T14:20:08Z</time>
      </trkpt>
      <trkpt lat="58.636695966124535" lon="-3.051981031894684">
        <ele>38.109999999999999</ele>
        <time>2023-08-19T14:20:09Z</time>
      </trkpt>
      <trkpt lat="58.636693032458425" lon="-3.051873994991183">
        <ele>38.109999999999999</ele>
        <time>2023-08-19T14:20:10Z</time>
      </trkpt>
      <trkpt lat="58.636691020801663" lon="-3.051762012764812">
        <ele>38.590000000000003</ele>
        <time>2023-08-19T14:20:11Z</time>
      </trkpt>
      <trkpt lat="58.636688003316522" lon="-3.051645001396537">
        <ele>38.590000000000003</ele>
        <time>2023-08-19T14:20:12Z</time>
      </trkpt>
      <trkpt lat="58.63668599165976" lon="-3.051522960886359">
        <ele>38.109999999999999</ele>
        <time>2023-08-19T14:20:13Z</time>
      </trkpt>
      <trkpt lat="58.636656990274787" lon="-3.049985971301794">
        <ele>40.509999999999998</ele>
        <time>2023-08-19T14:20:23Z</time>
      </trkpt>
      <trkpt lat="58.636652966961265" lon="-3.049827972427011">
        <ele>40.509999999999998</ele>
        <time>2023-08-19T14:20:24Z</time>
      </trkpt>
      <trkpt lat="58.63668599165976" lon="-3.04967500269413">
        <ele>40.990000000000002</ele>
        <time>2023-08-19T14:20:25Z</time>
      </trkpt>
      <trkpt lat="58.636751035228372" lon="-3.049562014639378">
        <ele>41.469999999999999</ele>
        <time>2023-08-19T14:20:26Z</time>
      </trkpt>
      <trkpt lat="58.636824041604996" lon="-3.049434022977948">
        <ele>41.469999999999999</ele>
        <time>2023-08-19T14:20:27Z</time>
      </trkpt>
      <trkpt lat="58.636902999132872" lon="-3.049295973032713">
        <ele>41.950000000000003</ele>
        <time>2023-08-19T14:20:28Z</time>
      </trkpt>
      <trkpt lat="58.637167029082775" lon="-3.048834968358278">
        <ele>42.439999999999998</ele>
        <time>2023-08-19T14:20:31Z</time>
      </trkpt>
      <trkpt lat="58.6372210085392" lon="-3.048649979755282">
        <ele>42.920000000000002</ele>
        <time>2023-08-19T14:20:32Z</time>
      </trkpt>
      <trkpt lat="58.637848980724812" lon="-3.046188969165087">
        <ele>47.240000000000002</ele>
        <time>2023-08-19T14:20:43Z</time>
      </trkpt>
      <trkpt lat="58.638466978445649" lon="-3.043429981917143">
        <ele>53.490000000000002</ele>
        <time>2023-08-19T14:20:55Z</time>
      </trkpt>
      <trkpt lat="58.638496985659003" lon="-3.043298972770572">
        <ele>53.969999999999999</ele>
        <time>2023-08-19T14:20:56Z</time>
      </trkpt>
      <trkpt lat="58.638564962893724" lon="-3.043282041326165">
        <ele>53.969999999999999</ele>
        <time>2023-08-19T14:20:57Z</time>
      </trkpt>
      <trkpt lat="58.638651967048645" lon="-3.043259996920824">
        <ele>53.969999999999999</ele>
        <time>2023-08-19T14:20:58Z</time>
      </trkpt>
      <trkpt lat="58.638753974810243" lon="-3.043234013020992">
        <ele>53.969999999999999</ele>
        <time>2023-08-19T14:20:59Z</time>
      </trkpt>
      <trkpt lat="58.639788972213864" lon="-3.042970988899469">
        <ele>48.200000000000003</ele>
        <time>2023-08-19T14:21:07Z</time>
      </trkpt>
      <trkpt lat="58.639911012724042" lon="-3.042939975857735">
        <ele>47.719999999999999</ele>
        <time>2023-08-19T14:21:08Z</time>
      </trkpt>
      <trkpt lat="58.640002962201834" lon="-3.042846014723182">
        <ele>46.759999999999998</ele>
        <time>2023-08-19T14:21:09Z</time>
      </trkpt>
      <trkpt lat="58.640075968578458" lon="-3.042752975597978">
        <ele>46.759999999999998</ele>
        <time>2023-08-19T14:21:10Z</time>
      </trkpt>
      <trkpt lat="58.640146963298321" lon="-3.042662031948566">
        <ele>46.280000000000001</ele>
        <time>2023-08-19T14:21:11Z</time>
      </trkpt>
      <trkpt lat="58.640218963846564" lon="-3.042569998651743">
        <ele>46.280000000000001</ele>
        <time>2023-08-19T14:21:12Z</time>
      </trkpt>
      <trkpt lat="58.640475030988455" lon="-3.042243020609021">
        <ele>45.799999999999997</ele>
        <time>2023-08-19T14:21:18Z</time>
      </trkpt>
      <trkpt lat="58.640482993796468" lon="-3.042232040315867">
        <ele>45.799999999999997</ele>
        <time>2023-08-19T14:21:24Z</time>
      </trkpt>
      <trkpt lat="58.640532027930021" lon="-3.042169008404017">
        <ele>45.799999999999997</ele>
        <time>2023-08-19T14:21:26Z</time>
      </trkpt>
      <trkpt lat="58.640578966587782" lon="-3.042109999805689">
        <ele>45.799999999999997</ele>
        <time>2023-08-19T14:21:27Z</time>
      </trkpt>
      <trkpt lat="58.640630012378097" lon="-3.042044034227729">
        <ele>45.799999999999997</ele>
        <time>2023-08-19T14:21:28Z</time>
      </trkpt>
      <trkpt lat="58.640854982659221" lon="-3.041756032034755">
        <ele>45.799999999999997</ele>
        <time>2023-08-19T14:21:32Z</time>
      </trkpt>
      <trkpt lat="58.640913991257548" lon="-3.04168101400137">
        <ele>45.799999999999997</ele>
        <time>2023-08-19T14:21:33Z</time>
      </trkpt>
      <trkpt lat="58.640974005684257" lon="-3.041604990139604">
        <ele>45.799999999999997</ele>
        <time>2023-08-19T14:21:34Z</time>
      </trkpt>
      <trkpt lat="58.641052963212132" lon="-3.041556039825082">
        <ele>45.32</ele>
        <time>2023-08-19T14:21:35Z</time>
      </trkpt>
      <trkpt lat="58.641130998730659" lon="-3.041546987369657">
        <ele>44.840000000000003</ele>
        <time>2023-08-19T14:21:36Z</time>
      </trkpt>
      <trkpt lat="58.641223032027483" lon="-3.041559979319572">
        <ele>44.840000000000003</ele>
        <time>2023-08-19T14:21:37Z</time>
      </trkpt>
      <trkpt lat="58.641301989555359" lon="-3.041631979867816">
        <ele>43.880000000000003</ele>
        <time>2023-08-19T14:21:38Z</time>
      </trkpt>
      <trkpt lat="58.641386982053518" lon="-3.041710015386343">
        <ele>43.399999999999999</ele>
        <time>2023-08-19T14:21:39Z</time>
      </trkpt>
      <trkpt lat="58.6414759978652" lon="-3.041780004277825">
        <ele>42.920000000000002</ele>
        <time>2023-08-19T14:21:40Z</time>
      </trkpt>
      <trkpt lat="58.641570964828134" lon="-3.041805988177657">
        <ele>42.439999999999998</ele>
        <time>2023-08-19T14:21:41Z</time>
      </trkpt>
      <trkpt lat="58.641661992296576" lon="-3.041830966249108">
        <ele>41.950000000000003</ele>
        <time>2023-08-19T14:21:42Z</time>
      </trkpt>
      <trkpt lat="58.641742039471865" lon="-3.041815962642431">
        <ele>41.469999999999999</ele>
        <time>2023-08-19T14:21:43Z</time>
      </trkpt>
      <trkpt lat="58.641818985342979" lon="-3.041776986792684">
        <ele>40.509999999999998</ele>
        <time>2023-08-19T14:21:44Z</time>
      </trkpt>
      <trkpt lat="58.641897020861506" lon="-3.041738010942936">
        <ele>39.549999999999997</ele>
        <time>2023-08-19T14:21:45Z</time>
      </trkpt>
      <trkpt lat="58.641983019188046" lon="-3.04166098125279">
        <ele>38.590000000000003</ele>
        <time>2023-08-19T14:21:46Z</time>
      </trkpt>
      <trkpt lat="58.642052002251148" lon="-3.041547993198037">
        <ele>37.630000000000003</ele>
        <time>2023-08-19T14:21:47Z</time>
      </trkpt>
      <trkpt lat="58.642128026112914" lon="-3.041418995708227">
        <ele>36.670000000000002</ele>
        <time>2023-08-19T14:21:48Z</time>
      </trkpt>
      <trkpt lat="58.642183011397719" lon="-3.041267031803727">
        <ele>35.229999999999997</ele>
        <time>2023-08-19T14:21:49Z</time>
      </trkpt>
      <trkpt lat="58.642221987247467" lon="-3.041100986301899">
        <ele>33.780000000000001</ele>
        <time>2023-08-19T14:21:50Z</time>
      </trkpt>
      <trkpt lat="58.642245037481189" lon="-3.040935024619103">
        <ele>32.82</ele>
        <time>2023-08-19T14:21:51Z</time>
      </trkpt>
      <trkpt lat="58.642274038866162" lon="-3.040723968297243">
        <ele>31.379999999999999</ele>
        <time>2023-08-19T14:21:52Z</time>
      </trkpt>
      <trkpt lat="58.642274038866162" lon="-3.04052003659308">
        <ele>29.940000000000001</ele>
        <time>2023-08-19T14:21:53Z</time>
      </trkpt>
      <trkpt lat="58.642340004444122" lon="-3.038335964083672">
        <ele>19.359999999999999</ele>
        <time>2023-08-19T14:22:01Z</time>
      </trkpt>
      <trkpt lat="58.642768990248442" lon="-3.036479037255049">
        <ele>15.52</ele>
        <time>2023-08-19T14:22:09Z</time>
      </trkpt>
      <trkpt lat="58.643033020198345" lon="-3.035994982346892">
        <ele>18.399999999999999</ele>
        <time>2023-08-19T14:22:13Z</time>
      </trkpt>
      <trkpt lat="58.643304007127881" lon="-3.035499025136232">
        <ele>21.77</ele>
        <time>2023-08-19T14:22:17Z</time>
      </trkpt>
      <trkpt lat="58.64334499463439" lon="-3.035424007102847">
        <ele>24.170000000000002</ele>
        <time>2023-08-19T14:22:22Z</time>
      </trkpt>
      <trkpt lat="58.64336896687746" lon="-3.035362986847758">
        <ele>24.649999999999999</ele>
        <time>2023-08-19T14:22:23Z</time>
      </trkpt>
      <trkpt lat="58.643379025161266" lon="-3.03521697409451">
        <ele>25.129999999999999</ele>
        <time>2023-08-19T14:22:24Z</time>
      </trkpt>
      <trkpt lat="58.64338899962604" lon="-3.035058975219727">
        <ele>25.609999999999999</ele>
        <time>2023-08-19T14:22:25Z</time>
      </trkpt>
      <trkpt lat="58.643373996019363" lon="-3.034883961081505">
        <ele>26.57</ele>
        <time>2023-08-19T14:22:26Z</time>
      </trkpt>
      <trkpt lat="58.643355974927545" lon="-3.034692015498877">
        <ele>27.050000000000001</ele>
        <time>2023-08-19T14:22:27Z</time>
      </trkpt>
      <trkpt lat="58.643316999077797" lon="-3.034501997753978">
        <ele>27.530000000000001</ele>
        <time>2023-08-19T14:22:28Z</time>
      </trkpt>
      <trkpt lat="58.643253967165947" lon="-3.034322038292885">
        <ele>28.02</ele>
        <time>2023-08-19T14:22:29Z</time>
      </trkpt>
      <trkpt lat="58.643189007416368" lon="-3.034135960042477">
        <ele>28.98</ele>
        <time>2023-08-19T14:22:30Z</time>
      </trkpt>
      <trkpt lat="58.643124969676137" lon="-3.033952983096242">
        <ele>29.940000000000001</ele>
        <time>2023-08-19T14:22:31Z</time>
      </trkpt>
      <trkpt lat="58.643046012148261" lon="-3.033729018643498">
        <ele>30.899999999999999</ele>
        <time>2023-08-19T14:22:32Z</time>
      </trkpt>
      <trkpt lat="58.643028996884823" lon="-3.033617036417127">
        <ele>31.379999999999999</ele>
        <time>2023-08-19T14:22:33Z</time>
      </trkpt>
      <trkpt lat="58.643011981621385" lon="-3.033502036705613">
        <ele>32.340000000000003</ele>
        <time>2023-08-19T14:22:34Z</time>
      </trkpt>
      <trkpt lat="58.642999995499849" lon="-3.033421989530325">
        <ele>32.82</ele>
        <time>2023-08-19T14:22:35Z</time>
      </trkpt>
      <trkpt lat="58.642992032691836" lon="-3.03336700424552">
        <ele>33.780000000000001</ele>
        <time>2023-08-19T14:22:36Z</time>
      </trkpt>
      <trkpt lat="58.642993038520217" lon="-3.033263990655541">
        <ele>34.740000000000002</ele>
        <time>2023-08-19T14:22:45Z</time>
      </trkpt>
      <trkpt lat="58.643069984391332" lon="-3.033022005110979">
        <ele>37.149999999999999</ele>
        <time>2023-08-19T14:22:48Z</time>
      </trkpt>
      <trkpt lat="58.64311097189784" lon="-3.032892001792789">
        <ele>37.630000000000003</ele>
        <time>2023-08-19T14:22:49Z</time>
      </trkpt>
      <trkpt lat="58.643166041001678" lon="-3.032785970717669">
        <ele>38.109999999999999</ele>
        <time>2023-08-19T14:22:50Z</time>
      </trkpt>
      <trkpt lat="58.643241981044412" lon="-3.032691003754735">
        <ele>39.07</ele>
        <time>2023-08-19T14:22:51Z</time>
      </trkpt>
      <trkpt lat="58.64332303404808" lon="-3.032591007649899">
        <ele>39.549999999999997</ele>
        <time>2023-08-19T14:22:52Z</time>
      </trkpt>
      <trkpt lat="58.643407020717859" lon="-3.03248698823154">
        <ele>40.030000000000001</ele>
        <time>2023-08-19T14:22:53Z</time>
      </trkpt>
      <trkpt lat="58.643492013216019" lon="-3.032382968813181">
        <ele>40.990000000000002</ele>
        <time>2023-08-19T14:22:54Z</time>
      </trkpt>
      <trkpt lat="58.643555967137218" lon="-3.032246008515358">
        <ele>41.950000000000003</ele>
        <time>2023-08-19T14:22:55Z</time>
      </trkpt>
      <trkpt lat="58.643621010705829" lon="-3.032103013247252">
        <ele>42.439999999999998</ele>
        <time>2023-08-19T14:22:56Z</time>
      </trkpt>
      <trkpt lat="58.643682030960917" lon="-3.031969992443919">
        <ele>43.399999999999999</ele>
        <time>2023-08-19T14:22:57Z</time>
      </trkpt>
      <trkpt lat="58.643716983497143" lon="-3.031809981912375">
        <ele>43.880000000000003</ele>
        <time>2023-08-19T14:22:58Z</time>
      </trkpt>
      <trkpt lat="58.643726035952568" lon="-3.031668998301029">
        <ele>44.359999999999999</ele>
        <time>2023-08-19T14:22:59Z</time>
      </trkpt>
      <trkpt lat="58.6437329929322" lon="-3.03156103938818">
        <ele>46.280000000000001</ele>
        <time>2023-08-19T14:23:05Z</time>
      </trkpt>
      <trkpt lat="58.643695022910833" lon="-3.031020993366838">
        <ele>48.68</ele>
        <time>2023-08-19T14:23:13Z</time>
      </trkpt>
      <trkpt lat="58.643583040684462" lon="-3.029025010764599">
        <ele>55.890000000000001</ele>
        <time>2023-08-19T14:23:23Z</time>
      </trkpt>
      <trkpt lat="58.643594020977616" lon="-3.028822001069784">
        <ele>56.859999999999999</ele>
        <time>2023-08-19T14:23:24Z</time>
      </trkpt>
      <trkpt lat="58.643612964078784" lon="-3.028622008860111">
        <ele>57.82</ele>
        <time>2023-08-19T14:23:25Z</time>
      </trkpt>
      <trkpt lat="58.643726035952568" lon="-3.0274379812181">
        <ele>63.100000000000001</ele>
        <time>2023-08-19T14:23:33Z</time>
      </trkpt>
      <trkpt lat="58.643803987652063" lon="-3.026623008772731">
        <ele>67.430000000000007</ele>
        <time>2023-08-19T14:23:44Z</time>
      </trkpt>
      <trkpt lat="58.643842041492462" lon="-3.02623400464654">
        <ele>67.430000000000007</ele>
        <time>2023-08-19T14:23:54Z</time>
      </trkpt>
      <trkpt lat="58.643842963501811" lon="-3.026219001039863">
        <ele>66.950000000000003</ele>
        <time>2023-08-19T14:23:55Z</time>
      </trkpt>
      <trkpt lat="58.643918987363577" lon="-3.026316985487938">
        <ele>66.469999999999999</ele>
        <time>2023-08-19T14:24:05Z</time>
      </trkpt>
      <trkpt lat="58.643928961828351" lon="-3.026304999366403">
        <ele>69.349999999999994</ele>
        <time>2023-08-19T14:34:26Z</time>
      </trkpt>
      <trkpt lat="58.643922004848719" lon="-3.026355961337686">
        <ele>65.030000000000001</ele>
        <time>2023-08-19T14:35:06Z</time>
      </trkpt>
      <trkpt lat="58.643867019563913" lon="-3.026393009349704">
        <ele>61.18</ele>
        <time>2023-08-19T14:35:38Z</time>
      </trkpt>
      <trkpt lat="58.64386098459363" lon="-3.026393009349704">
        <ele>61.18</ele>
        <time>2023-08-19T14:35:39Z</time>
      </trkpt>
      <trkpt lat="58.643822008743882" lon="-3.026435002684593">
        <ele>60.700000000000003</ele>
        <time>2023-08-19T14:35:41Z</time>
      </trkpt>
      <trkpt lat="58.643815973773599" lon="-3.026499962434173">
        <ele>60.700000000000003</ele>
        <time>2023-08-19T14:35:42Z</time>
      </trkpt>
      <trkpt lat="58.643808010965586" lon="-3.026583027094603">
        <ele>60.700000000000003</ele>
        <time>2023-08-19T14:35:43Z</time>
      </trkpt>
      <trkpt lat="58.64379895851016" lon="-3.026675982400775">
        <ele>60.219999999999999</ele>
        <time>2023-08-19T14:35:44Z</time>
      </trkpt>
      <trkpt lat="58.643771968781948" lon="-3.026959961280227">
        <ele>59.259999999999998</ele>
        <time>2023-08-19T14:35:47Z</time>
      </trkpt>
      <trkpt lat="58.643761994317174" lon="-3.027061969041824">
        <ele>59.259999999999998</ele>
        <time>2023-08-19T14:35:48Z</time>
      </trkpt>
      <trkpt lat="58.643611958250403" lon="-3.028630977496505">
        <ele>54.450000000000003</ele>
        <time>2023-08-19T14:36:00Z</time>
      </trkpt>
      <trkpt lat="58.643655963242054" lon="-3.03046602755785">
        <ele>49.649999999999999</ele>
        <time>2023-08-19T14:36:10Z</time>
      </trkpt>
      <trkpt lat="58.643726035952568" lon="-3.031470011919737">
        <ele>45.799999999999997</ele>
        <time>2023-08-19T14:36:15Z</time>
      </trkpt>
      <trkpt lat="58.643727041780949" lon="-3.03165097720921">
        <ele>45.32</ele>
        <time>2023-08-19T14:36:16Z</time>
      </trkpt>
      <trkpt lat="58.643715977668762" lon="-3.031832026317716">
        <ele>44.840000000000003</ele>
        <time>2023-08-19T14:36:17Z</time>
      </trkpt>
      <trkpt lat="58.643664009869099" lon="-3.032008968293667">
        <ele>44.359999999999999</ele>
        <time>2023-08-19T14:36:18Z</time>
      </trkpt>
      <trkpt lat="58.643600977957249" lon="-3.032148024067283">
        <ele>43.399999999999999</ele>
        <time>2023-08-19T14:36:19Z</time>
      </trkpt>
      <trkpt lat="58.643540041521192" lon="-3.032280961051583">
        <ele>42.920000000000002</ele>
        <time>2023-08-19T14:36:20Z</time>
      </trkpt>
      <trkpt lat="58.643470974639058" lon="-3.032409036532044">
        <ele>41.950000000000003</ele>
        <time>2023-08-19T14:36:21Z</time>
      </trkpt>
      <trkpt lat="58.643390005454421" lon="-3.0325080268085">
        <ele>40.990000000000002</ele>
        <time>2023-08-19T14:36:22Z</time>
      </trkpt>
      <trkpt lat="58.643141984939575" lon="-3.032814972102642">
        <ele>39.549999999999997</ele>
        <time>2023-08-19T14:36:25Z</time>
      </trkpt>
      <trkpt lat="58.643090017139912" lon="-3.032958973199129">
        <ele>38.590000000000003</ele>
        <time>2023-08-19T14:36:26Z</time>
      </trkpt>
      <trkpt lat="58.643041988834739" lon="-3.03311001509428">
        <ele>37.630000000000003</ele>
        <time>2023-08-19T14:36:27Z</time>
      </trkpt>
      <trkpt lat="58.642998989671469" lon="-3.033245969563723">
        <ele>37.149999999999999</ele>
        <time>2023-08-19T14:36:28Z</time>
      </trkpt>
      <trkpt lat="58.642997983843088" lon="-3.033406985923648">
        <ele>36.189999999999998</ele>
        <time>2023-08-19T14:36:29Z</time>
      </trkpt>
      <trkpt lat="58.64302203990519" lon="-3.033569008111954">
        <ele>35.710000000000001</ele>
        <time>2023-08-19T14:36:30Z</time>
      </trkpt>
      <trkpt lat="58.643046012148261" lon="-3.033729018643498">
        <ele>34.740000000000002</ele>
        <time>2023-08-19T14:36:31Z</time>
      </trkpt>
      <trkpt lat="58.643106026574969" lon="-3.033899003639817">
        <ele>34.259999999999998</ele>
        <time>2023-08-19T14:36:32Z</time>
      </trkpt>
      <trkpt lat="58.643166041001678" lon="-3.034071000292897">
        <ele>33.780000000000001</ele>
        <time>2023-08-19T14:36:33Z</time>
      </trkpt>
      <trkpt lat="58.643226977437735" lon="-3.034244002774358">
        <ele>32.82</ele>
        <time>2023-08-19T14:36:34Z</time>
      </trkpt>
      <trkpt lat="58.643340971320868" lon="-3.034569974988699">
        <ele>31.379999999999999</ele>
        <time>2023-08-19T14:36:36Z</time>
      </trkpt>
      <trkpt lat="58.643361004069448" lon="-3.03474398329854">
        <ele>30.420000000000002</ele>
        <time>2023-08-19T14:36:37Z</time>
      </trkpt>
      <trkpt lat="58.643377013504505" lon="-3.034921009093523">
        <ele>29.940000000000001</ele>
        <time>2023-08-19T14:36:38Z</time>
      </trkpt>
      <trkpt lat="58.643386987969279" lon="-3.035090994089842">
        <ele>28.98</ele>
        <time>2023-08-19T14:36:39Z</time>
      </trkpt>
      <trkpt lat="58.643376007676125" lon="-3.035267014056444">
        <ele>28.5</ele>
        <time>2023-08-19T14:36:40Z</time>
      </trkpt>
      <trkpt lat="58.64334499463439" lon="-3.035423001274467">
        <ele>27.530000000000001</ele>
        <time>2023-08-19T14:36:41Z</time>
      </trkpt>
      <trkpt lat="58.64328296855092" lon="-3.035535989329219">
        <ele>27.050000000000001</ele>
        <time>2023-08-19T14:36:42Z</time>
      </trkpt>
      <trkpt lat="58.643218008801341" lon="-3.035656018182635">
        <ele>26.09</ele>
        <time>2023-08-19T14:36:43Z</time>
      </trkpt>
      <trkpt lat="58.643151959404349" lon="-3.035777974873781">
        <ele>25.129999999999999</ele>
        <time>2023-08-19T14:36:44Z</time>
      </trkpt>
      <trkpt lat="58.6426140088588" lon="-3.036903999745846">
        <ele>17.920000000000002</ele>
        <time>2023-08-19T14:36:52Z</time>
      </trkpt>
      <trkpt lat="58.642558017745614" lon="-3.037074990570545">
        <ele>17.440000000000001</ele>
        <time>2023-08-19T14:36:53Z</time>
      </trkpt>
      <trkpt lat="58.642387026920915" lon="-3.037962969392538">
        <ele>16</ele>
        <time>2023-08-19T14:36:58Z</time>
      </trkpt>
      <trkpt lat="58.642359031364322" lon="-3.038127003237605">
        <ele>16</ele>
        <time>2023-08-19T14:36:59Z</time>
      </trkpt>
      <trkpt lat="58.642274038866162" lon="-3.040410988032818">
        <ele>25.129999999999999</ele>
        <time>2023-08-19T14:37:10Z</time>
      </trkpt>
      <trkpt lat="58.64222701638937" lon="-3.041064022108913">
        <ele>28.98</ele>
        <time>2023-08-19T14:37:13Z</time>
      </trkpt>
      <trkpt lat="58.642186028882861" lon="-3.041258985176683">
        <ele>29.940000000000001</ele>
        <time>2023-08-19T14:37:14Z</time>
      </trkpt>
      <trkpt lat="58.642130959779024" lon="-3.041411032900214">
        <ele>30.899999999999999</ele>
        <time>2023-08-19T14:37:15Z</time>
      </trkpt>
      <trkpt lat="58.642057031393051" lon="-3.041540030390024">
        <ele>31.859999999999999</ele>
        <time>2023-08-19T14:37:16Z</time>
      </trkpt>
      <trkpt lat="58.641986036673188" lon="-3.041655030101538">
        <ele>33.299999999999997</ele>
        <time>2023-08-19T14:37:17Z</time>
      </trkpt>
      <trkpt lat="58.641891991719604" lon="-3.041741028428078">
        <ele>34.259999999999998</ele>
        <time>2023-08-19T14:37:18Z</time>
      </trkpt>
      <trkpt lat="58.641801970079541" lon="-3.041786039248109">
        <ele>35.710000000000001</ele>
        <time>2023-08-19T14:37:19Z</time>
      </trkpt>
      <trkpt lat="58.641694011166692" lon="-3.041840018704534">
        <ele>36.670000000000002</ele>
        <time>2023-08-19T14:37:20Z</time>
      </trkpt>
      <trkpt lat="58.641612036153674" lon="-3.041816968470812">
        <ele>38.109999999999999</ele>
        <time>2023-08-19T14:37:21Z</time>
      </trkpt>
      <trkpt lat="58.641516985371709" lon="-3.041791990399361">
        <ele>39.07</ele>
        <time>2023-08-19T14:37:22Z</time>
      </trkpt>
      <trkpt lat="58.641415983438492" lon="-3.041737005114555">
        <ele>40.030000000000001</ele>
        <time>2023-08-19T14:37:23Z</time>
      </trkpt>
      <trkpt lat="58.641173997893929" lon="-3.041541958227754">
        <ele>43.399999999999999</ele>
        <time>2023-08-19T14:37:26Z</time>
      </trkpt>
      <trkpt lat="58.641099985688925" lon="-3.041550004854798">
        <ele>44.359999999999999</ele>
        <time>2023-08-19T14:37:27Z</time>
      </trkpt>
      <trkpt lat="58.641029996797442" lon="-3.041557967662811">
        <ele>45.32</ele>
        <time>2023-08-19T14:37:28Z</time>
      </trkpt>
      <trkpt lat="58.640956990420818" lon="-3.041626028716564">
        <ele>46.280000000000001</ele>
        <time>2023-08-19T14:37:29Z</time>
      </trkpt>
      <trkpt lat="58.640893036499619" lon="-3.041708003729582">
        <ele>46.759999999999998</ele>
        <time>2023-08-19T14:37:30Z</time>
      </trkpt>
      <trkpt lat="58.640828998759389" lon="-3.0417899787426">
        <ele>47.719999999999999</ele>
        <time>2023-08-19T14:37:31Z</time>
      </trkpt>
      <trkpt lat="58.640548959374428" lon="-3.042147969827056">
        <ele>49.159999999999997</ele>
        <time>2023-08-19T14:37:36Z</time>
      </trkpt>
      <trkpt lat="58.640516018494964" lon="-3.042189041152597">
        <ele>49.649999999999999</ele>
        <time>2023-08-19T14:37:37Z</time>
      </trkpt>
      <trkpt lat="58.640459021553397" lon="-3.04226296953857">
        <ele>50.609999999999999</ele>
        <time>2023-08-19T14:37:45Z</time>
      </trkpt>
      <trkpt lat="58.640459021553397" lon="-3.04226296953857">
        <ele>50.609999999999999</ele>
        <time>2023-08-19T14:38:20Z</time>
      </trkpt>
      <trkpt lat="58.640394983813167" lon="-3.042345028370619">
        <ele>56.369999999999997</ele>
        <time>2023-08-19T14:39:34Z</time>
      </trkpt>
      <trkpt lat="58.6403379868716" lon="-3.042418034747243">
        <ele>52.049999999999997</ele>
        <time>2023-08-19T14:39:36Z</time>
      </trkpt>
      <trkpt lat="58.639902966096997" lon="-3.042941987514496">
        <ele>49.159999999999997</ele>
        <time>2023-08-19T14:39:44Z</time>
      </trkpt>
      <trkpt lat="58.639837000519037" lon="-3.042959002777934">
        <ele>48.68</ele>
        <time>2023-08-19T14:39:45Z</time>
      </trkpt>
      <trkpt lat="58.639767011627555" lon="-3.042976018041372">
        <ele>49.159999999999997</ele>
        <time>2023-08-19T14:39:46Z</time>
      </trkpt>
      <trkpt lat="58.63969299942255" lon="-3.04299496114254">
        <ele>49.159999999999997</ele>
        <time>2023-08-19T14:39:47Z</time>
      </trkpt>
      <trkpt lat="58.639613036066294" lon="-3.04301499389112">
        <ele>49.649999999999999</ele>
        <time>2023-08-19T14:39:48Z</time>
      </trkpt>
      <trkpt lat="58.638637969270349" lon="-3.043263014405966">
        <ele>55.890000000000001</ele>
        <time>2023-08-19T14:39:58Z</time>
      </trkpt>
      <trkpt lat="58.638484999537468" lon="-3.043351024389267">
        <ele>58.299999999999997</ele>
        <time>2023-08-19T14:40:03Z</time>
      </trkpt>
      <trkpt lat="58.63836002536118" lon="-3.043900039047003">
        <ele>60.219999999999999</ele>
        <time>2023-08-19T14:40:11Z</time>
      </trkpt>
      <trkpt lat="58.638331023976207" lon="-3.044029958546162">
        <ele>60.219999999999999</ele>
        <time>2023-08-19T14:40:12Z</time>
      </trkpt>
      <trkpt lat="58.637988036498427" lon="-3.045538030564785">
        <ele>58.299999999999997</ele>
        <time>2023-08-19T14:40:20Z</time>
      </trkpt>
      <trkpt lat="58.637321004644036" lon="-3.048309003934264">
        <ele>52.049999999999997</ele>
        <time>2023-08-19T14:40:33Z</time>
      </trkpt>
      <trkpt lat="58.637152025476098" lon="-3.048860030248761">
        <ele>50.609999999999999</ele>
        <time>2023-08-19T14:40:36Z</time>
      </trkpt>
      <trkpt lat="58.637078013271093" lon="-3.048990033566952">
        <ele>50.130000000000003</ele>
        <time>2023-08-19T14:40:37Z</time>
      </trkpt>
      <trkpt lat="58.637005006894469" lon="-3.049119031056762">
        <ele>49.649999999999999</ele>
        <time>2023-08-19T14:40:38Z</time>
      </trkpt>
      <trkpt lat="58.636713987216353" lon="-3.049626974388957">
        <ele>49.159999999999997</ele>
        <time>2023-08-19T14:40:42Z</time>
      </trkpt>
      <trkpt lat="58.636651961132884" lon="-3.049754966050386">
        <ele>48.68</ele>
        <time>2023-08-19T14:40:43Z</time>
      </trkpt>
      <trkpt lat="58.636654978618026" lon="-3.049899972975254">
        <ele>48.200000000000003</ele>
        <time>2023-08-19T14:40:44Z</time>
      </trkpt>
      <trkpt lat="58.636657996103168" lon="-3.050067024305463">
        <ele>48.200000000000003</ele>
        <time>2023-08-19T14:40:45Z</time>
      </trkpt>
      <trkpt lat="58.63666201941669" lon="-3.050253018736839">
        <ele>47.719999999999999</ele>
        <time>2023-08-19T14:40:46Z</time>
      </trkpt>
      <trkpt lat="58.636710969731212" lon="-3.052095025777817">
        <ele>44.359999999999999</ele>
        <time>2023-08-19T14:40:55Z</time>
      </trkpt>
      <trkpt lat="58.636715998873115" lon="-3.052139030769467">
        <ele>43.880000000000003</ele>
        <time>2023-08-19T14:40:56Z</time>
      </trkpt>
      <trkpt lat="58.636715998873115" lon="-3.052139030769467">
        <ele>43.399999999999999</ele>
        <time>2023-08-19T14:40:57Z</time>
      </trkpt>
      <trkpt lat="58.636715998873115" lon="-3.052139030769467">
        <ele>42.920000000000002</ele>
        <time>2023-08-19T14:40:58Z</time>
      </trkpt>
      <trkpt lat="58.636715998873115" lon="-3.052139030769467">
        <ele>40.990000000000002</ele>
        <time>2023-08-19T14:41:10Z</time>
      </trkpt>
      <trkpt lat="58.636826975271106" lon="-3.052667006850243">
        <ele>40.509999999999998</ele>
        <time>2023-08-19T14:41:16Z</time>
      </trkpt>
      <trkpt lat="58.636828986927867" lon="-3.052786029875279">
        <ele>40.509999999999998</ele>
        <time>2023-08-19T14:41:17Z</time>
      </trkpt>
      <trkpt lat="58.636847008019686" lon="-3.054512031376362">
        <ele>39.07</ele>
        <time>2023-08-19T14:41:27Z</time>
      </trkpt>
      <trkpt lat="58.636930994689465" lon="-3.057348970323801">
        <ele>37.149999999999999</ele>
        <time>2023-08-19T14:41:39Z</time>
      </trkpt>
      <trkpt lat="58.636930994689465" lon="-3.059800006449223">
        <ele>34.740000000000002</ele>
        <time>2023-08-19T14:41:50Z</time>
      </trkpt>
      <trkpt lat="58.636930994689465" lon="-3.062840038910508">
        <ele>34.740000000000002</ele>
        <time>2023-08-19T14:42:05Z</time>
      </trkpt>
      <trkpt lat="58.637151019647717" lon="-3.066221969202161">
        <ele>34.259999999999998</ele>
        <time>2023-08-19T14:42:21Z</time>
      </trkpt>
      <trkpt lat="58.637318992987275" lon="-3.068693038076162">
        <ele>32.340000000000003</ele>
        <time>2023-08-19T14:42:34Z</time>
      </trkpt>
      <trkpt lat="58.637335002422333" lon="-3.068901998922229">
        <ele>30.899999999999999</ele>
        <time>2023-08-19T14:42:39Z</time>
      </trkpt>
      <trkpt lat="58.637376995757222" lon="-3.068939968943596">
        <ele>29.940000000000001</ele>
        <time>2023-08-19T14:42:41Z</time>
      </trkpt>
      <trkpt lat="58.637429969385266" lon="-3.068938963115215">
        <ele>29.460000000000001</ele>
        <time>2023-08-19T14:42:42Z</time>
      </trkpt>
      <trkpt lat="58.637497024610639" lon="-3.068937035277486">
        <ele>29.460000000000001</ele>
        <time>2023-08-19T14:42:43Z</time>
      </trkpt>
      <trkpt lat="58.638391960412264" lon="-3.068909039720893">
        <ele>28.5</ele>
        <time>2023-08-19T14:42:53Z</time>
      </trkpt>
      <trkpt lat="58.639677995815873" lon="-3.068822035565972">
        <ele>25.129999999999999</ele>
        <time>2023-08-19T14:43:04Z</time>
      </trkpt>
      <trkpt lat="58.641494018957019" lon="-3.068731008097529">
        <ele>20.809999999999999</ele>
        <time>2023-08-19T14:43:18Z</time>
      </trkpt>
      <trkpt lat="58.642542008310556" lon="-3.068707035854459">
        <ele>16.960000000000001</ele>
        <time>2023-08-19T14:43:29Z</time>
      </trkpt>
      <trkpt lat="58.642676034942269" lon="-3.068718016147614">
        <ele>15.52</ele>
        <time>2023-08-19T14:43:31Z</time>
      </trkpt>
      <trkpt lat="58.642734959721565" lon="-3.068722961470485">
        <ele>15.039999999999999</ele>
        <time>2023-08-19T14:43:32Z</time>
      </trkpt>
      <trkpt lat="58.642766978591681" lon="-3.068725978955627">
        <ele>14.56</ele>
        <time>2023-08-19T14:43:33Z</time>
      </trkpt>
      <trkpt lat="58.642816012725234" lon="-3.068765038624406">
        <ele>14.08</ele>
        <time>2023-08-19T14:43:34Z</time>
      </trkpt>
      <trkpt lat="58.642884995788336" lon="-3.068802002817392">
        <ele>14.08</ele>
        <time>2023-08-19T14:43:35Z</time>
      </trkpt>
      <trkpt lat="58.642917014658451" lon="-3.068768978118897">
        <ele>13.6</ele>
        <time>2023-08-19T14:43:36Z</time>
      </trkpt>
      <trkpt lat="58.642952973023057" lon="-3.068734025582671">
        <ele>13.119999999999999</ele>
        <time>2023-08-19T14:43:37Z</time>
      </trkpt>
      <trkpt lat="58.642984991893172" lon="-3.068704018369317">
        <ele>13.119999999999999</ele>
        <time>2023-08-19T14:43:38Z</time>
      </trkpt>
      <trkpt lat="58.643034026026726" lon="-3.068698989227414">
        <ele>12.630000000000001</ele>
        <time>2023-08-19T14:43:39Z</time>
      </trkpt>
      <trkpt lat="58.643091022968292" lon="-3.068692032247782">
        <ele>12.630000000000001</ele>
        <time>2023-08-19T14:43:40Z</time>
      </trkpt>
      <trkpt lat="58.643151037395" lon="-3.068684991449118">
        <ele>12.15</ele>
        <time>2023-08-19T14:43:41Z</time>
      </trkpt>
      <trkpt lat="58.64341096021235" lon="-3.068639980629087">
        <ele>10.23</ele>
        <time>2023-08-19T14:43:46Z</time>
      </trkpt>
      <trkpt lat="58.64345102570951" lon="-3.068685997277498">
        <ele>9.75</ele>
        <time>2023-08-19T14:43:47Z</time>
      </trkpt>
      <trkpt lat="58.643553033471107" lon="-3.068803008645773">
        <ele>9.27</ele>
        <time>2023-08-19T14:43:57Z</time>
      </trkpt>
      <trkpt lat="58.643571976572275" lon="-3.068846007809043">
        <ele>9.27</ele>
        <time>2023-08-19T14:44:11Z</time>
      </trkpt>
      <trkpt lat="58.643593015149236" lon="-3.068908033892512">
        <ele>9.27</ele>
        <time>2023-08-19T14:44:12Z</time>
      </trkpt>
      <trkpt lat="58.643617993220687" lon="-3.068982968106866">
        <ele>8.789999999999999</ele>
        <time>2023-08-19T14:44:13Z</time>
      </trkpt>
      <trkpt lat="58.643706003203988" lon="-3.069701967760921">
        <ele>0.62</ele>
        <time>2023-08-19T14:44:25Z</time>
      </trkpt>
      <trkpt lat="58.643698962405324" lon="-3.069749996066093">
        <ele>0.14</ele>
        <time>2023-08-19T14:44:26Z</time>
      </trkpt>
      <trkpt lat="58.643694017082453" lon="-3.06978402659297">
        <ele>-0.34</ele>
        <time>2023-08-19T14:44:27Z</time>
      </trkpt>
      <trkpt lat="58.64368999376893" lon="-3.069809004664421">
        <ele>-0.34</ele>
        <time>2023-08-19T14:44:28Z</time>
      </trkpt>
      <trkpt lat="58.64377599209547" lon="-3.069817973300815">
        <ele>-0.34</ele>
        <time>2023-08-19T14:44:29Z</time>
      </trkpt>
      <trkpt lat="58.64377599209547" lon="-3.069817973300815">
        <ele>-0.82</ele>
        <time>2023-08-19T14:44:44Z</time>
      </trkpt>
      <trkpt lat="58.643696028739214" lon="-3.069844041019678">
        <ele>13.119999999999999</ele>
        <time>2023-08-19T15:34:12Z</time>
      </trkpt>
      <trkpt lat="58.643703991547227" lon="-3.069805987179279">
        <ele>13.6</ele>
        <time>2023-08-19T15:34:49Z</time>
      </trkpt>
      <trkpt lat="58.643696028739214" lon="-3.069797018542886">
        <ele>10.23</ele>
        <time>2023-08-19T15:35:39Z</time>
      </trkpt>
      <trkpt lat="58.643683958798647" lon="-3.069798024371266">
        <ele>8.789999999999999</ele>
        <time>2023-08-19T15:36:20Z</time>
      </trkpt>
      <trkpt lat="58.643771968781948" lon="-3.069739015772939">
        <ele>8.789999999999999</ele>
        <time>2023-08-19T15:36:22Z</time>
      </trkpt>
      <trkpt lat="58.643769035115838" lon="-3.069676989689469">
        <ele>8.789999999999999</ele>
        <time>2023-08-19T15:36:23Z</time>
      </trkpt>
      <trkpt lat="58.643755037337542" lon="-3.069412959739566">
        <ele>8.310000000000001</ele>
        <time>2023-08-19T15:36:26Z</time>
      </trkpt>
      <trkpt lat="58.643754031509161" lon="-3.069390999153256">
        <ele>7.83</ele>
        <time>2023-08-19T15:36:27Z</time>
      </trkpt>
      <trkpt lat="58.643687982112169" lon="-3.069192012771964">
        <ele>7.83</ele>
        <time>2023-08-19T15:36:28Z</time>
      </trkpt>
      <trkpt lat="58.643657974898815" lon="-3.069100985303521">
        <ele>7.83</ele>
        <time>2023-08-19T15:36:29Z</time>
      </trkpt>
      <trkpt lat="58.64362402819097" lon="-3.068999983370304">
        <ele>7.35</ele>
        <time>2023-08-19T15:36:30Z</time>
      </trkpt>
      <trkpt lat="58.643586980178952" lon="-3.068888001143932">
        <ele>6.87</ele>
        <time>2023-08-19T15:36:31Z</time>
      </trkpt>
      <trkpt lat="58.64356099627912" lon="-3.068811977282167">
        <ele>6.39</ele>
        <time>2023-08-19T15:36:32Z</time>
      </trkpt>
      <trkpt lat="58.643499976024032" lon="-3.068741988390684">
        <ele>6.39</ele>
        <time>2023-08-19T15:36:33Z</time>
      </trkpt>
      <trkpt lat="58.643440967425704" lon="-3.068675016984344">
        <ele>6.39</ele>
        <time>2023-08-19T15:36:34Z</time>
      </trkpt>
      <trkpt lat="58.643393022939563" lon="-3.06864601559937">
        <ele>6.39</ele>
        <time>2023-08-19T15:36:35Z</time>
      </trkpt>
      <trkpt lat="58.643315993249416" lon="-3.068664958700538">
        <ele>6.87</ele>
        <time>2023-08-19T15:36:36Z</time>
      </trkpt>
      <trkpt lat="58.643248016014695" lon="-3.068673005327582">
        <ele>7.35</ele>
        <time>2023-08-19T15:36:37Z</time>
      </trkpt>
      <trkpt lat="58.643036037683487" lon="-3.068697983399034">
        <ele>8.789999999999999</ele>
        <time>2023-08-19T15:36:41Z</time>
      </trkpt>
      <trkpt lat="58.642981974408031" lon="-3.068705024197698">
        <ele>10.23</ele>
        <time>2023-08-19T15:36:44Z</time>
      </trkpt>
      <trkpt lat="58.642164990305901" lon="-3.06868901476264">
        <ele>14.08</ele>
        <time>2023-08-19T15:36:51Z</time>
      </trkpt>
      <trkpt lat="58.640345027670264" lon="-3.068788005039096">
        <ele>22.73</ele>
        <time>2023-08-19T15:37:05Z</time>
      </trkpt>
      <trkpt lat="58.638428002595901" lon="-3.068906022235751">
        <ele>29.940000000000001</ele>
        <time>2023-08-19T15:37:20Z</time>
      </trkpt>
      <trkpt lat="58.636740976944566" lon="-3.068970981985331">
        <ele>35.229999999999997</ele>
        <time>2023-08-19T15:37:32Z</time>
      </trkpt>
      <trkpt lat="58.634002022445202" lon="-3.069090005010366">
        <ele>42.439999999999998</ele>
        <time>2023-08-19T15:37:50Z</time>
      </trkpt>
      <trkpt lat="58.63210704177618" lon="-3.069436009973288">
        <ele>50.609999999999999</ele>
        <time>2023-08-19T15:38:02Z</time>
      </trkpt>
      <trkpt lat="58.630916979163885" lon="-3.070048978552222">
        <ele>54.93</ele>
        <time>2023-08-19T15:38:10Z</time>
      </trkpt>
      <trkpt lat="58.630788987502456" lon="-3.070192979648709">
        <ele>54.93</ele>
        <time>2023-08-19T15:38:11Z</time>
      </trkpt>
      <trkpt lat="58.630659990012646" lon="-3.070338992401958">
        <ele>55.409999999999997</ele>
        <time>2023-08-19T15:38:12Z</time>
      </trkpt>
      <trkpt lat="58.630554964765906" lon="-3.070557005703449">
        <ele>55.409999999999997</ele>
        <time>2023-08-19T15:38:13Z</time>
      </trkpt>
      <trkpt lat="58.63045304082334" lon="-3.070785999298096">
        <ele>55.409999999999997</ele>
        <time>2023-08-19T15:38:14Z</time>
      </trkpt>
      <trkpt lat="58.630367964506149" lon="-3.071033013984561">
        <ele>55.409999999999997</ele>
        <time>2023-08-19T15:38:15Z</time>
      </trkpt>
      <trkpt lat="58.630313985049725" lon="-3.071317998692393">
        <ele>55.409999999999997</ele>
        <time>2023-08-19T15:38:16Z</time>
      </trkpt>
      <trkpt lat="58.6302600055933" lon="-3.071602983400226">
        <ele>55.890000000000001</ele>
        <time>2023-08-19T15:38:17Z</time>
      </trkpt>
      <trkpt lat="58.630220023915172" lon="-3.071898026391864">
        <ele>55.890000000000001</ele>
        <time>2023-08-19T15:38:18Z</time>
      </trkpt>
      <trkpt lat="58.630191022530198" lon="-3.072205977514386">
        <ele>55.890000000000001</ele>
        <time>2023-08-19T15:38:19Z</time>
      </trkpt>
      <trkpt lat="58.629654999822378" lon="-3.075424963608384">
        <ele>59.740000000000002</ele>
        <time>2023-08-19T15:38:30Z</time>
      </trkpt>
      <trkpt lat="58.628526963293552" lon="-3.078874032944441">
        <ele>62.619999999999997</ele>
        <time>2023-08-19T15:38:43Z</time>
      </trkpt>
      <trkpt lat="58.627383001148701" lon="-3.082306003198028">
        <ele>67.909999999999997</ele>
        <time>2023-08-19T15:38:53Z</time>
      </trkpt>
      <trkpt lat="58.626129990443587" lon="-3.085072031244636">
        <ele>75.120000000000005</ele>
        <time>2023-08-19T15:39:02Z</time>
      </trkpt>
      <trkpt lat="58.624977981671691" lon="-3.08605195954442">
        <ele>78.969999999999999</ele>
        <time>2023-08-19T15:39:08Z</time>
      </trkpt>
      <trkpt lat="58.623677026480436" lon="-3.086080038920045">
        <ele>82.329999999999998</ele>
        <time>2023-08-19T15:39:14Z</time>
      </trkpt>
      <trkpt lat="58.621456995606422" lon="-3.085045041516423">
        <ele>86.659999999999997</ele>
        <time>2023-08-19T15:39:24Z</time>
      </trkpt>
      <trkpt lat="58.61790700815618" lon="-3.083295989781618">
        <ele>96.75</ele>
        <time>2023-08-19T15:39:41Z</time>
      </trkpt>
      <trkpt lat="58.616320984438062" lon="-3.081875005736947">
        <ele>100.59999999999999</ele>
        <time>2023-08-19T15:39:49Z</time>
      </trkpt>
      <trkpt lat="58.613683031871915" lon="-3.079313999041915">
        <ele>104.44</ele>
        <time>2023-08-19T15:40:02Z</time>
      </trkpt>
      <trkpt lat="58.612024001777172" lon="-3.078448986634612">
        <ele>103</ele>
        <time>2023-08-19T15:40:09Z</time>
      </trkpt>
      <trkpt lat="58.610333958640695" lon="-3.07831697165966">
        <ele>99.629999999999995</ele>
        <time>2023-08-19T15:40:16Z</time>
      </trkpt>
      <trkpt lat="58.610132038593292" lon="-3.078382015228272">
        <ele>99.150000000000006</ele>
        <time>2023-08-19T15:40:17Z</time>
      </trkpt>
      <trkpt lat="58.609948977828026" lon="-3.078506989404559">
        <ele>98.670000000000002</ele>
        <time>2023-08-19T15:40:18Z</time>
      </trkpt>
      <trkpt lat="58.609773963689804" lon="-3.07866096496582">
        <ele>98.189999999999998</ele>
        <time>2023-08-19T15:40:19Z</time>
      </trkpt>
      <trkpt lat="58.609606996178627" lon="-3.078845031559467">
        <ele>97.709999999999994</ele>
        <time>2023-08-19T15:40:20Z</time>
      </trkpt>
      <trkpt lat="58.609438017010689" lon="-3.079057009890676">
        <ele>97.230000000000004</ele>
        <time>2023-08-19T15:40:21Z</time>
      </trkpt>
      <trkpt lat="58.608456999063492" lon="-3.080822993069887">
        <ele>93.870000000000005</ele>
        <time>2023-08-19T15:40:27Z</time>
      </trkpt>
      <trkpt lat="58.607160989195108" lon="-3.084087995812297">
        <ele>86.659999999999997</ele>
        <time>2023-08-19T15:40:36Z</time>
      </trkpt>
      <trkpt lat="58.60611098818481" lon="-3.087240010499954">
        <ele>76.079999999999998</ele>
        <time>2023-08-19T15:40:44Z</time>
      </trkpt>
      <trkpt lat="58.605950977653265" lon="-3.087550979107618">
        <ele>74.640000000000001</ele>
        <time>2023-08-19T15:40:45Z</time>
      </trkpt>
      <trkpt lat="58.605775041505694" lon="-3.087803022935987">
        <ele>73.200000000000003</ele>
        <time>2023-08-19T15:40:46Z</time>
      </trkpt>
      <trkpt lat="58.605592986568809" lon="-3.088024975731969">
        <ele>71.760000000000005</ele>
        <time>2023-08-19T15:40:47Z</time>
      </trkpt>
      <trkpt lat="58.605404980480671" lon="-3.088207030668855">
        <ele>70.310000000000002</ele>
        <time>2023-08-19T15:40:48Z</time>
      </trkpt>
      <trkpt lat="58.605199037119746" lon="-3.088347008451819">
        <ele>68.870000000000005</ele>
        <time>2023-08-19T15:40:49Z</time>
      </trkpt>
      <trkpt lat="58.60499401576817" lon="-3.088472988456488">
        <ele>67.430000000000007</ele>
        <time>2023-08-19T15:40:50Z</time>
      </trkpt>
      <trkpt lat="58.60477801412344" lon="-3.088519005104899">
        <ele>65.989999999999995</ele>
        <time>2023-08-19T15:40:51Z</time>
      </trkpt>
      <trkpt lat="58.604560000821948" lon="-3.088547000661492">
        <ele>64.549999999999997</ele>
        <time>2023-08-19T15:40:52Z</time>
      </trkpt>
      <trkpt lat="58.604333018884063" lon="-3.088521016761661">
        <ele>63.100000000000001</ele>
        <time>2023-08-19T15:40:53Z</time>
      </trkpt>
      <trkpt lat="58.602031012997031" lon="-3.088137963786721">
        <ele>50.130000000000003</ele>
        <time>2023-08-19T15:41:03Z</time>
      </trkpt>
      <trkpt lat="58.599286023527384" lon="-3.087993040680885">
        <ele>46.280000000000001</ele>
        <time>2023-08-19T15:41:15Z</time>
      </trkpt>
      <trkpt lat="58.597204964607954" lon="-3.087642006576061">
        <ele>40.509999999999998</ele>
        <time>2023-08-19T15:41:24Z</time>
      </trkpt>
      <trkpt lat="58.5941650159657" lon="-3.086731983348727">
        <ele>27.530000000000001</ele>
        <time>2023-08-19T15:41:37Z</time>
      </trkpt>
      <trkpt lat="58.592612016946077" lon="-3.08658697642386">
        <ele>23.210000000000001</ele>
        <time>2023-08-19T15:41:44Z</time>
      </trkpt>
      <trkpt lat="58.59120100736618" lon="-3.086290005594492">
        <ele>24.649999999999999</ele>
        <time>2023-08-19T15:41:51Z</time>
      </trkpt>
      <trkpt lat="58.588373959064484" lon="-3.084422014653683">
        <ele>28.98</ele>
        <time>2023-08-19T15:42:04Z</time>
      </trkpt>
      <trkpt lat="58.585604997351766" lon="-3.0829550139606">
        <ele>29.460000000000001</ele>
        <time>2023-08-19T15:42:17Z</time>
      </trkpt>
      <trkpt lat="58.584209997206926" lon="-3.081928985193372">
        <ele>28.98</ele>
        <time>2023-08-19T15:42:24Z</time>
      </trkpt>
      <trkpt lat="58.582857996225357" lon="-3.079722030088306">
        <ele>30.420000000000002</ele>
        <time>2023-08-19T15:42:32Z</time>
      </trkpt>
      <trkpt lat="58.580713989213109" lon="-3.076377985998988">
        <ele>37.149999999999999</ele>
        <time>2023-08-19T15:42:44Z</time>
      </trkpt>
      <trkpt lat="58.577597010880709" lon="-3.073520008474588">
        <ele>55.890000000000001</ele>
        <time>2023-08-19T15:42:59Z</time>
      </trkpt>
      <trkpt lat="58.575944015756249" lon="-3.072547959163785">
        <ele>60.700000000000003</ele>
        <time>2023-08-19T15:43:07Z</time>
      </trkpt>
      <trkpt lat="58.574181972071528" lon="-3.072206983342767">
        <ele>63.100000000000001</ele>
        <time>2023-08-19T15:43:15Z</time>
      </trkpt>
      <trkpt lat="58.573967982083559" lon="-3.072247970849276">
        <ele>63.579999999999998</ele>
        <time>2023-08-19T15:43:16Z</time>
      </trkpt>
      <trkpt lat="58.57375399209559" lon="-3.072289964184165">
        <ele>63.579999999999998</ele>
        <time>2023-08-19T15:43:17Z</time>
      </trkpt>
      <trkpt lat="58.573547964915633" lon="-3.072393983602524">
        <ele>63.579999999999998</ele>
        <time>2023-08-19T15:43:18Z</time>
      </trkpt>
      <trkpt lat="58.57334797270596" lon="-3.07255600579083">
        <ele>63.100000000000001</ele>
        <time>2023-08-19T15:43:19Z</time>
      </trkpt>
      <trkpt lat="58.573160972446203" lon="-3.072762032970786">
        <ele>63.100000000000001</ele>
        <time>2023-08-19T15:43:20Z</time>
      </trkpt>
      <trkpt lat="58.572971960529685" lon="-3.072984991595149">
        <ele>62.619999999999997</ele>
        <time>2023-08-19T15:43:21Z</time>
      </trkpt>
      <trkpt lat="58.57280901633203" lon="-3.073269976302981">
        <ele>62.140000000000001</ele>
        <time>2023-08-19T15:43:22Z</time>
      </trkpt>
      <trkpt lat="58.572643976658583" lon="-3.073578011244535">
        <ele>61.659999999999997</ele>
        <time>2023-08-19T15:43:23Z</time>
      </trkpt>
      <trkpt lat="58.571060970425606" lon="-3.076157039031386">
        <ele>59.740000000000002</ele>
        <time>2023-08-19T15:43:32Z</time>
      </trkpt>
      <trkpt lat="58.568889973685145" lon="-3.078087978065014">
        <ele>55.409999999999997</ele>
        <time>2023-08-19T15:43:42Z</time>
      </trkpt>
      <trkpt lat="58.566202986985445" lon="-3.080471036955714">
        <ele>36.189999999999998</ele>
        <time>2023-08-19T15:43:55Z</time>
      </trkpt>
      <trkpt lat="58.563541984185576" lon="-3.082782011479139">
        <ele>27.050000000000001</ele>
        <time>2023-08-19T15:44:08Z</time>
      </trkpt>
      <trkpt lat="58.560416037216783" lon="-3.085476960986853">
        <ele>28.98</ele>
        <time>2023-08-19T15:44:23Z</time>
      </trkpt>
      <trkpt lat="58.558932021260262" lon="-3.086252035573125">
        <ele>34.259999999999998</ele>
        <time>2023-08-19T15:44:30Z</time>
      </trkpt>
      <trkpt lat="58.557411041110754" lon="-3.08663098141551">
        <ele>40.030000000000001</ele>
        <time>2023-08-19T15:44:38Z</time>
      </trkpt>
      <trkpt lat="58.555769026279449" lon="-3.087641000747681">
        <ele>40.990000000000002</ele>
        <time>2023-08-19T15:44:46Z</time>
      </trkpt>
      <trkpt lat="58.552400004118681" lon="-3.089746031910181">
        <ele>45.799999999999997</ele>
        <time>2023-08-19T15:45:01Z</time>
      </trkpt>
      <trkpt lat="58.549243966117501" lon="-3.091737991198897">
        <ele>49.159999999999997</ele>
        <time>2023-08-19T15:45:15Z</time>
      </trkpt>
      <trkpt lat="58.547715023159981" lon="-3.091754000633955">
        <ele>50.609999999999999</ele>
        <time>2023-08-19T15:45:22Z</time>
      </trkpt>
      <trkpt lat="58.547519976273179" lon="-3.091789958998561">
        <ele>50.609999999999999</ele>
        <time>2023-08-19T15:45:23Z</time>
      </trkpt>
      <trkpt lat="58.547331970185041" lon="-3.091880986467004">
        <ele>50.609999999999999</ele>
        <time>2023-08-19T15:45:24Z</time>
      </trkpt>
      <trkpt lat="58.547145975753665" lon="-3.092004032805562">
        <ele>50.609999999999999</ele>
        <time>2023-08-19T15:45:25Z</time>
      </trkpt>
      <trkpt lat="58.546970039606094" lon="-3.092165971174836">
        <ele>50.130000000000003</ele>
        <time>2023-08-19T15:45:26Z</time>
      </trkpt>
      <trkpt lat="58.546801982447505" lon="-3.092379039153457">
        <ele>50.130000000000003</ele>
        <time>2023-08-19T15:45:27Z</time>
      </trkpt>
      <trkpt lat="58.546655969694257" lon="-3.092619013041258">
        <ele>49.649999999999999</ele>
        <time>2023-08-19T15:45:28Z</time>
      </trkpt>
      <trkpt lat="58.546518003568053" lon="-3.092908021062613">
        <ele>49.159999999999997</ele>
        <time>2023-08-19T15:45:29Z</time>
      </trkpt>
      <trkpt lat="58.546379031613469" lon="-3.093198034912348">
        <ele>48.68</ele>
        <time>2023-08-19T15:45:30Z</time>
      </trkpt>
      <trkpt lat="58.546236958354712" lon="-3.093493999913335">
        <ele>49.159999999999997</ele>
        <time>2023-08-19T15:45:31Z</time>
      </trkpt>
      <trkpt lat="58.544939020648599" lon="-3.096918007358909">
        <ele>46.759999999999998</ele>
        <time>2023-08-19T15:45:41Z</time>
      </trkpt>
      <trkpt lat="58.544048024341464" lon="-3.100457014515996">
        <ele>46.280000000000001</ele>
        <time>2023-08-19T15:45:50Z</time>
      </trkpt>
      <trkpt lat="58.542992994189262" lon="-3.106449991464615">
        <ele>43.880000000000003</ele>
        <time>2023-08-19T15:46:04Z</time>
      </trkpt>
      <trkpt lat="58.542888974770904" lon="-3.106853999197483">
        <ele>43.399999999999999</ele>
        <time>2023-08-19T15:46:05Z</time>
      </trkpt>
      <trkpt lat="58.542774980887771" lon="-3.10725498944521">
        <ele>42.439999999999998</ele>
        <time>2023-08-19T15:46:06Z</time>
      </trkpt>
      <trkpt lat="58.542641038075089" lon="-3.107632007449865">
        <ele>41.950000000000003</ele>
        <time>2023-08-19T15:46:07Z</time>
      </trkpt>
      <trkpt lat="58.542488990351558" lon="-3.107985975220799">
        <ele>40.990000000000002</ele>
        <time>2023-08-19T15:46:08Z</time>
      </trkpt>
      <trkpt lat="58.542323028668761" lon="-3.108316976577044">
        <ele>40.030000000000001</ele>
        <time>2023-08-19T15:46:09Z</time>
      </trkpt>
      <trkpt lat="58.542155977338552" lon="-3.108647977933288">
        <ele>39.549999999999997</ele>
        <time>2023-08-19T15:46:10Z</time>
      </trkpt>
      <trkpt lat="58.54034598916769" lon="-3.112082965672016">
        <ele>35.229999999999997</ele>
        <time>2023-08-19T15:46:21Z</time>
      </trkpt>
      <trkpt lat="58.538356041535735" lon="-3.115876028314233">
        <ele>34.259999999999998</ele>
        <time>2023-08-19T15:46:33Z</time>
      </trkpt>
      <trkpt lat="58.53658402338624" lon="-3.11926499940455">
        <ele>30.420000000000002</ele>
        <time>2023-08-19T15:46:45Z</time>
      </trkpt>
      <trkpt lat="58.535858988761902" lon="-3.120655976235867">
        <ele>27.530000000000001</ele>
        <time>2023-08-19T15:46:53Z</time>
      </trkpt>
      <trkpt lat="58.535211989656091" lon="-3.121890965849161">
        <ele>30.899999999999999</ele>
        <time>2023-08-19T15:47:04Z</time>
      </trkpt>
      <trkpt lat="58.534675966948271" lon="-3.122909031808376">
        <ele>33.299999999999997</ele>
        <time>2023-08-19T15:47:14Z</time>
      </trkpt>
      <trkpt lat="58.534555016085505" lon="-3.123140037059784">
        <ele>33.299999999999997</ele>
        <time>2023-08-19T15:47:16Z</time>
      </trkpt>
      <trkpt lat="58.533853031694889" lon="-3.124440992251039">
        <ele>27.530000000000001</ele>
        <time>2023-08-19T15:47:24Z</time>
      </trkpt>
      <trkpt lat="58.532980978488922" lon="-3.126090969890356">
        <ele>21.77</ele>
        <time>2023-08-19T15:47:33Z</time>
      </trkpt>
      <trkpt lat="58.531769039109349" lon="-3.128427006304264">
        <ele>19.359999999999999</ele>
        <time>2023-08-19T15:47:42Z</time>
      </trkpt>
      <trkpt lat="58.529786970466375" lon="-3.132182015106082">
        <ele>20.809999999999999</ele>
        <time>2023-08-19T15:47:55Z</time>
      </trkpt>
      <trkpt lat="58.527529975399375" lon="-3.136394005268812">
        <ele>21.77</ele>
        <time>2023-08-19T15:48:10Z</time>
      </trkpt>
      <trkpt lat="58.52642398327589" lon="-3.137470996007323">
        <ele>22.25</ele>
        <time>2023-08-19T15:48:16Z</time>
      </trkpt>
      <trkpt lat="58.523725010454655" lon="-3.139727991074324">
        <ele>20.809999999999999</ele>
        <time>2023-08-19T15:48:29Z</time>
      </trkpt>
      <trkpt lat="58.521241033449769" lon="-3.141229022294283">
        <ele>16.48</ele>
        <time>2023-08-19T15:48:40Z</time>
      </trkpt>
      <trkpt lat="58.517511002719402" lon="-3.143481994047761">
        <ele>11.19</ele>
        <time>2023-08-19T15:48:57Z</time>
      </trkpt>
      <trkpt lat="58.514000996947289" lon="-3.146040989086032">
        <ele>9.27</ele>
        <time>2023-08-19T15:49:13Z</time>
      </trkpt>
      <trkpt lat="58.511732015758753" lon="-3.147932030260563">
        <ele>7.83</ele>
        <time>2023-08-19T15:49:24Z</time>
      </trkpt>
      <trkpt lat="58.511570999398828" lon="-3.148177033290267">
        <ele>7.83</ele>
        <time>2023-08-19T15:49:25Z</time>
      </trkpt>
      <trkpt lat="58.511420041322708" lon="-3.148451037704945">
        <ele>8.310000000000001</ele>
        <time>2023-08-19T15:49:26Z</time>
      </trkpt>
      <trkpt lat="58.511268999427557" lon="-3.148726969957352">
        <ele>8.789999999999999</ele>
        <time>2023-08-19T15:49:27Z</time>
      </trkpt>
      <trkpt lat="58.511119969189167" lon="-3.148998040705919">
        <ele>8.789999999999999</ele>
        <time>2023-08-19T15:49:28Z</time>
      </trkpt>
      <trkpt lat="58.509666966274381" lon="-3.151549994945526">
        <ele>11.19</ele>
        <time>2023-08-19T15:49:37Z</time>
      </trkpt>
      <trkpt lat="58.508369028568268" lon="-3.152695968747139">
        <ele>13.119999999999999</ele>
        <time>2023-08-19T15:49:43Z</time>
      </trkpt>
      <trkpt lat="58.506880989298224" lon="-3.152819015085697">
        <ele>17.920000000000002</ele>
        <time>2023-08-19T15:49:49Z</time>
      </trkpt>
      <trkpt lat="58.504953989759088" lon="-3.151954002678394">
        <ele>19.84</ele>
        <time>2023-08-19T15:49:57Z</time>
      </trkpt>
      <trkpt lat="58.502403041347861" lon="-3.15069898031652">
        <ele>21.77</ele>
        <time>2023-08-19T15:50:09Z</time>
      </trkpt>
      <trkpt lat="58.498692037537694" lon="-3.148873988538981">
        <ele>22.73</ele>
        <time>2023-08-19T15:50:27Z</time>
      </trkpt>
      <trkpt lat="58.49571998231113" lon="-3.147412016987801">
        <ele>28.02</ele>
        <time>2023-08-19T15:50:42Z</time>
      </trkpt>
      <trkpt lat="58.49273300729692" lon="-3.145943004637957">
        <ele>37.149999999999999</ele>
        <time>2023-08-19T15:50:56Z</time>
      </trkpt>
      <trkpt lat="58.488734001293778" lon="-3.143977029249072">
        <ele>40.509999999999998</ele>
        <time>2023-08-19T15:51:13Z</time>
      </trkpt>
      <trkpt lat="58.485399009659886" lon="-3.142337026074529">
        <ele>41.469999999999999</ele>
        <time>2023-08-19T15:51:27Z</time>
      </trkpt>
      <trkpt lat="58.48227197304368" lon="-3.140845969319344">
        <ele>44.840000000000003</ele>
        <time>2023-08-19T15:51:41Z</time>
      </trkpt>
      <trkpt lat="58.48091796040535" lon="-3.140874970704317">
        <ele>47.240000000000002</ele>
        <time>2023-08-19T15:51:47Z</time>
      </trkpt>
      <trkpt lat="58.479622034355998" lon="-3.141730008646846">
        <ele>49.159999999999997</ele>
        <time>2023-08-19T15:51:53Z</time>
      </trkpt>
      <trkpt lat="58.477429999038577" lon="-3.143576039001346">
        <ele>51.57</ele>
        <time>2023-08-19T15:52:04Z</time>
      </trkpt>
      <trkpt lat="58.477293038740754" lon="-3.14362901262939">
        <ele>51.57</ele>
        <time>2023-08-19T15:52:05Z</time>
      </trkpt>
      <trkpt lat="58.477167980745435" lon="-3.143677962943912">
        <ele>51.57</ele>
        <time>2023-08-19T15:52:06Z</time>
      </trkpt>
      <trkpt lat="58.477049041539431" lon="-3.143723979592323">
        <ele>51.090000000000003</ele>
        <time>2023-08-19T15:52:07Z</time>
      </trkpt>
      <trkpt lat="58.476934041827917" lon="-3.143768990412355">
        <ele>51.090000000000003</ele>
        <time>2023-08-19T15:52:08Z</time>
      </trkpt>
      <trkpt lat="58.476818958297372" lon="-3.143814001232386">
        <ele>51.090000000000003</ele>
        <time>2023-08-19T15:52:09Z</time>
      </trkpt>
      <trkpt lat="58.476706976071" lon="-3.143870998173952">
        <ele>51.090000000000003</ele>
        <time>2023-08-19T15:52:10Z</time>
      </trkpt>
      <trkpt lat="58.476609997451305" lon="-3.143976023420692">
        <ele>51.090000000000003</ele>
        <time>2023-08-19T15:52:11Z</time>
      </trkpt>
      <trkpt lat="58.476516958326101" lon="-3.144077025353909">
        <ele>51.090000000000003</ele>
        <time>2023-08-19T15:52:12Z</time>
      </trkpt>
      <trkpt lat="58.476430959999561" lon="-3.144169980660081">
        <ele>51.090000000000003</ele>
        <time>2023-08-19T15:52:13Z</time>
      </trkpt>
      <trkpt lat="58.476166008040309" lon="-3.144453959539533">
        <ele>52.049999999999997</ele>
        <time>2023-08-19T15:52:17Z</time>
      </trkpt>
      <trkpt lat="58.476131977513433" lon="-3.144487990066409">
        <ele>52.049999999999997</ele>
        <time>2023-08-19T15:52:18Z</time>
      </trkpt>
      <trkpt lat="58.476106999441981" lon="-3.14451296813786">
        <ele>52.049999999999997</ele>
        <time>2023-08-19T15:52:19Z</time>
      </trkpt>
      <trkpt lat="58.476085038855672" lon="-3.144535012543201">
        <ele>52.049999999999997</ele>
        <time>2023-08-19T15:52:20Z</time>
      </trkpt>
      <trkpt lat="58.476012032479048" lon="-3.144502993673086">
        <ele>52.049999999999997</ele>
        <time>2023-08-19T15:52:21Z</time>
      </trkpt>
      <trkpt lat="58.475984036922455" lon="-3.144429987296462">
        <ele>52.049999999999997</ele>
        <time>2023-08-19T15:52:22Z</time>
      </trkpt>
      <trkpt lat="58.475939026102424" lon="-3.144309036433697">
        <ele>52.049999999999997</ele>
        <time>2023-08-19T15:52:23Z</time>
      </trkpt>
      <trkpt lat="58.475878005847335" lon="-3.144148020073772">
        <ele>52.049999999999997</ele>
        <time>2023-08-19T15:52:24Z</time>
      </trkpt>
      <trkpt lat="58.475218014791608" lon="-3.142409026622772">
        <ele>48.68</ele>
        <time>2023-08-19T15:52:32Z</time>
      </trkpt>
      <trkpt lat="58.474197015166283" lon="-3.13976101577282">
        <ele>41.469999999999999</ele>
        <time>2023-08-19T15:52:42Z</time>
      </trkpt>
      <trkpt lat="58.473050035536289" lon="-3.136779991909862">
        <ele>37.149999999999999</ele>
        <time>2023-08-19T15:52:54Z</time>
      </trkpt>
      <trkpt lat="58.471619999036193" lon="-3.133019031956792">
        <ele>34.740000000000002</ele>
        <time>2023-08-19T15:53:07Z</time>
      </trkpt>
      <trkpt lat="58.470053002238274" lon="-3.128934027627111">
        <ele>33.780000000000001</ele>
        <time>2023-08-19T15:53:19Z</time>
      </trkpt>
      <trkpt lat="58.468825975432992" lon="-3.126622969284654">
        <ele>31.859999999999999</ele>
        <time>2023-08-19T15:53:26Z</time>
      </trkpt>
      <trkpt lat="58.466765033081174" lon="-3.123503979295492">
        <ele>31.379999999999999</ele>
        <time>2023-08-19T15:53:37Z</time>
      </trkpt>
      <trkpt lat="58.464126996695995" lon="-3.119514025747776">
        <ele>29.460000000000001</ele>
        <time>2023-08-19T15:53:52Z</time>
      </trkpt>
      <trkpt lat="58.461353005841374" lon="-3.115328019484878">
        <ele>30.420000000000002</ele>
        <time>2023-08-19T15:54:07Z</time>
      </trkpt>
      <trkpt lat="58.458912027999759" lon="-3.111670995131135">
        <ele>31.859999999999999</ele>
        <time>2023-08-19T15:54:21Z</time>
      </trkpt>
      <trkpt lat="58.45715400762856" lon="-3.109035976231098">
        <ele>31.379999999999999</ele>
        <time>2023-08-19T15:54:31Z</time>
      </trkpt>
      <trkpt lat="58.455365980044007" lon="-3.106090994551778">
        <ele>27.530000000000001</ele>
        <time>2023-08-19T15:54:42Z</time>
      </trkpt>
      <trkpt lat="58.453335966914892" lon="-3.102767989039421">
        <ele>24.649999999999999</ele>
        <time>2023-08-19T15:54:55Z</time>
      </trkpt>
      <trkpt lat="58.452588971704245" lon="-3.101544985547662">
        <ele>24.649999999999999</ele>
        <time>2023-08-19T15:55:02Z</time>
      </trkpt>
      <trkpt lat="58.45212796702981" lon="-3.100781980901957">
        <ele>24.170000000000002</ele>
        <time>2023-08-19T15:55:08Z</time>
      </trkpt>
      <trkpt lat="58.452083962038159" lon="-3.100708974525333">
        <ele>24.170000000000002</ele>
        <time>2023-08-19T15:55:09Z</time>
      </trkpt>
      <trkpt lat="58.452107012271881" lon="-3.100475035607815">
        <ele>24.170000000000002</ele>
        <time>2023-08-19T15:55:10Z</time>
      </trkpt>
      <trkpt lat="58.452142970636487" lon="-3.100356012582779">
        <ele>24.649999999999999</ele>
        <time>2023-08-19T15:55:11Z</time>
      </trkpt>
      <trkpt lat="58.452182030305266" lon="-3.100231038406491">
        <ele>24.649999999999999</ele>
        <time>2023-08-19T15:55:12Z</time>
      </trkpt>
      <trkpt lat="58.452218994498253" lon="-3.100110003724694">
        <ele>25.129999999999999</ele>
        <time>2023-08-19T15:55:13Z</time>
      </trkpt>
      <trkpt lat="58.45225503668189" lon="-3.099995004013181">
        <ele>25.129999999999999</ele>
        <time>2023-08-19T15:55:14Z</time>
      </trkpt>
      <trkpt lat="58.452286971732974" lon="-3.099888972938061">
        <ele>25.609999999999999</ele>
        <time>2023-08-19T15:55:15Z</time>
      </trkpt>
      <trkpt lat="58.452395014464855" lon="-3.099860977381468">
        <ele>26.09</ele>
        <time>2023-08-19T15:55:16Z</time>
      </trkpt>
      <trkpt lat="58.452440025284886" lon="-3.099815966561437">
        <ele>26.57</ele>
        <time>2023-08-19T15:55:17Z</time>
      </trkpt>
      <trkpt lat="58.452481012791395" lon="-3.099656961858273">
        <ele>27.050000000000001</ele>
        <time>2023-08-19T15:55:18Z</time>
      </trkpt>
      <trkpt lat="58.452481012791395" lon="-3.099560989066958">
        <ele>27.050000000000001</ele>
        <time>2023-08-19T15:55:19Z</time>
      </trkpt>
      <trkpt lat="58.452417980879545" lon="-3.099529976025224">
        <ele>27.530000000000001</ele>
        <time>2023-08-19T15:55:20Z</time>
      </trkpt>
      <trkpt lat="58.452347991988063" lon="-3.099493011832237">
        <ele>27.530000000000001</ele>
        <time>2023-08-19T15:55:21Z</time>
      </trkpt>
      <trkpt lat="58.452280014753342" lon="-3.099425034597516">
        <ele>28.02</ele>
        <time>2023-08-19T15:55:22Z</time>
      </trkpt>
      <trkpt lat="58.452223017811775" lon="-3.09936803765595">
        <ele>28.02</ele>
        <time>2023-08-19T15:55:23Z</time>
      </trkpt>
      <trkpt lat="58.452096031978726" lon="-3.09932503849268">
        <ele>28.5</ele>
        <time>2023-08-19T15:55:25Z</time>
      </trkpt>
      <trkpt lat="58.452029982581735" lon="-3.099302994087338">
        <ele>28.98</ele>
        <time>2023-08-19T15:55:26Z</time>
      </trkpt>
      <trkpt lat="58.452029982581735" lon="-3.099302994087338">
        <ele>28.98</ele>
        <time>2023-08-19T15:55:27Z</time>
      </trkpt>
      <trkpt lat="58.452001987025142" lon="-3.099317997694016">
        <ele>29.460000000000001</ele>
        <time>2023-08-19T15:55:28Z</time>
      </trkpt>
      <trkpt lat="58.451962005347013" lon="-3.099339036270976">
        <ele>29.940000000000001</ele>
        <time>2023-08-19T15:55:29Z</time>
      </trkpt>
      <trkpt lat="58.451918000355363" lon="-3.099362002685666">
        <ele>30.420000000000002</ele>
        <time>2023-08-19T15:55:30Z</time>
      </trkpt>
      <trkpt lat="58.45186703838408" lon="-3.099388992413878">
        <ele>30.899999999999999</ele>
        <time>2023-08-19T15:55:31Z</time>
      </trkpt>
      <trkpt lat="58.451811969280243" lon="-3.099417993798852">
        <ele>30.899999999999999</ele>
        <time>2023-08-19T15:55:32Z</time>
      </trkpt>
      <trkpt lat="58.451760001480579" lon="-3.099444983527064">
        <ele>31.379999999999999</ele>
        <time>2023-08-19T15:55:33Z</time>
      </trkpt>
      <trkpt lat="58.451722031459212" lon="-3.099465016275644">
        <ele>31.379999999999999</ele>
        <time>2023-08-19T15:55:34Z</time>
      </trkpt>
      <trkpt lat="58.451768970116973" lon="-3.099440960213542">
        <ele>31.379999999999999</ele>
        <time>2023-08-19T15:55:37Z</time>
      </trkpt>
      <trkpt lat="58.451799983158708" lon="-3.099425034597516">
        <ele>31.379999999999999</ele>
        <time>2023-08-19T15:55:38Z</time>
      </trkpt>
      <trkpt lat="58.451830996200442" lon="-3.099408019334078">
        <ele>30.899999999999999</ele>
        <time>2023-08-19T15:55:39Z</time>
      </trkpt>
      <trkpt lat="58.451858991757035" lon="-3.099393015727401">
        <ele>30.899999999999999</ele>
        <time>2023-08-19T15:55:40Z</time>
      </trkpt>
      <trkpt lat="58.451883969828486" lon="-3.099380023777485">
        <ele>30.420000000000002</ele>
        <time>2023-08-19T15:55:41Z</time>
      </trkpt>
      <trkpt lat="58.451908025890589" lon="-3.09936803765595">
        <ele>30.420000000000002</ele>
        <time>2023-08-19T15:55:42Z</time>
      </trkpt>
      <trkpt lat="58.451926968991756" lon="-3.099357979372144">
        <ele>29.940000000000001</ele>
        <time>2023-08-19T15:55:43Z</time>
      </trkpt>
      <trkpt lat="58.451926968991756" lon="-3.099357979372144">
        <ele>29.460000000000001</ele>
        <time>2023-08-19T15:55:44Z</time>
      </trkpt>
      <trkpt lat="58.451926968991756" lon="-3.099357979372144">
        <ele>29.460000000000001</ele>
        <time>2023-08-19T15:56:00Z</time>
      </trkpt>
      <trkpt lat="58.451953958719969" lon="-3.099342975765467">
        <ele>29.460000000000001</ele>
        <time>2023-08-19T15:56:12Z</time>
      </trkpt>
      <trkpt lat="58.45197600312531" lon="-3.099331995472312">
        <ele>28.5</ele>
        <time>2023-08-19T15:56:13Z</time>
      </trkpt>
      <trkpt lat="58.452011039480567" lon="-3.099313974380493">
        <ele>28.5</ele>
        <time>2023-08-19T15:56:14Z</time>
      </trkpt>
      <trkpt lat="58.452029982581735" lon="-3.099302994087338">
        <ele>27.530000000000001</ele>
        <time>2023-08-19T15:56:15Z</time>
      </trkpt>
      <trkpt lat="58.452100977301598" lon="-3.099326966330409">
        <ele>27.050000000000001</ele>
        <time>2023-08-19T15:56:16Z</time>
      </trkpt>
      <trkpt lat="58.452223017811775" lon="-3.09936803765595">
        <ele>26.09</ele>
        <time>2023-08-19T15:56:17Z</time>
      </trkpt>
      <trkpt lat="58.452286971732974" lon="-3.099668025970459">
        <ele>25.609999999999999</ele>
        <time>2023-08-19T15:56:18Z</time>
      </trkpt>
      <trkpt lat="58.452286971732974" lon="-3.099668025970459">
        <ele>25.129999999999999</ele>
        <time>2023-08-19T15:56:19Z</time>
      </trkpt>
      <trkpt lat="58.452286971732974" lon="-3.099668025970459">
        <ele>25.129999999999999</ele>
        <time>2023-08-19T15:56:20Z</time>
      </trkpt>
      <trkpt lat="58.4522769972682" lon="-3.099919985979796">
        <ele>24.649999999999999</ele>
        <time>2023-08-19T15:56:21Z</time>
      </trkpt>
      <trkpt lat="58.452239027246833" lon="-3.100044960156083">
        <ele>24.649999999999999</ele>
        <time>2023-08-19T15:56:22Z</time>
      </trkpt>
      <trkpt lat="58.452153028920293" lon="-3.100326005369425">
        <ele>24.649999999999999</ele>
        <time>2023-08-19T15:56:25Z</time>
      </trkpt>
      <trkpt lat="58.452137019485235" lon="-3.100376967340708">
        <ele>24.649999999999999</ele>
        <time>2023-08-19T15:56:26Z</time>
      </trkpt>
      <trkpt lat="58.451935015618801" lon="-3.100463971495628">
        <ele>24.170000000000002</ele>
        <time>2023-08-19T15:56:27Z</time>
      </trkpt>
      <trkpt lat="58.451895033940673" lon="-3.100399011746049">
        <ele>24.170000000000002</ele>
        <time>2023-08-19T15:56:28Z</time>
      </trkpt>
      <trkpt lat="58.451833007857203" lon="-3.100297003984451">
        <ele>24.170000000000002</ele>
        <time>2023-08-19T15:56:29Z</time>
      </trkpt>
      <trkpt lat="58.451754972338676" lon="-3.100170018151403">
        <ele>24.170000000000002</ele>
        <time>2023-08-19T15:56:30Z</time>
      </trkpt>
      <trkpt lat="58.450909992679954" lon="-3.098787004128099">
        <ele>23.690000000000001</ele>
        <time>2023-08-19T15:56:38Z</time>
      </trkpt>
      <trkpt lat="58.449654970318079" lon="-3.096716003492475">
        <ele>22.25</ele>
        <time>2023-08-19T15:56:49Z</time>
      </trkpt>
      <trkpt lat="58.448646040633321" lon="-3.095128973945975">
        <ele>22.25</ele>
        <time>2023-08-19T15:57:00Z</time>
      </trkpt>
      <trkpt lat="58.448395002633333" lon="-3.094762014225125">
        <ele>21.77</ele>
        <time>2023-08-19T15:57:03Z</time>
      </trkpt>
      <trkpt lat="58.448329037055373" lon="-3.094710968434811">
        <ele>21.289999999999999</ele>
        <time>2023-08-19T15:57:04Z</time>
      </trkpt>
      <trkpt lat="58.448235997930169" lon="-3.094710968434811">
        <ele>21.289999999999999</ele>
        <time>2023-08-19T15:57:05Z</time>
      </trkpt>
      <trkpt lat="58.448147987946868" lon="-3.094734018668532">
        <ele>20.809999999999999</ele>
        <time>2023-08-19T15:57:06Z</time>
      </trkpt>
      <trkpt lat="58.448042962700129" lon="-3.094791015610099">
        <ele>20.809999999999999</ele>
        <time>2023-08-19T15:57:07Z</time>
      </trkpt>
      <trkpt lat="58.44793701544404" lon="-3.094849018380046">
        <ele>20.32</ele>
        <time>2023-08-19T15:57:08Z</time>
      </trkpt>
      <trkpt lat="58.447107961401343" lon="-3.095301976427436">
        <ele>17.920000000000002</ele>
        <time>2023-08-19T15:57:17Z</time>
      </trkpt>
      <trkpt lat="58.446789029985666" lon="-3.095476990565658">
        <ele>17.440000000000001</ele>
        <time>2023-08-19T15:57:21Z</time>
      </trkpt>
      <trkpt lat="58.446720968931913" lon="-3.095514038577676">
        <ele>16.960000000000001</ele>
        <time>2023-08-19T15:57:22Z</time>
      </trkpt>
      <trkpt lat="58.446663971990347" lon="-3.095544967800379">
        <ele>16.960000000000001</ele>
        <time>2023-08-19T15:57:23Z</time>
      </trkpt>
      <trkpt lat="58.446616027504206" lon="-3.095571035519242">
        <ele>16.960000000000001</ele>
        <time>2023-08-19T15:57:24Z</time>
      </trkpt>
      <trkpt lat="58.446549978107214" lon="-3.095397027209401">
        <ele>16.960000000000001</ele>
        <time>2023-08-19T15:57:25Z</time>
      </trkpt>
      <trkpt lat="58.446534974500537" lon="-3.095297031104565">
        <ele>16.960000000000001</ele>
        <time>2023-08-19T15:57:26Z</time>
      </trkpt>
      <trkpt lat="58.44651703722775" lon="-3.095183037221432">
        <ele>16.48</ele>
        <time>2023-08-19T15:57:27Z</time>
      </trkpt>
      <trkpt lat="58.446499016135931" lon="-3.095064014196396">
        <ele>16.48</ele>
        <time>2023-08-19T15:57:28Z</time>
      </trkpt>
      <trkpt lat="58.44647797755897" lon="-3.094929987564683">
        <ele>16.960000000000001</ele>
        <time>2023-08-19T15:57:29Z</time>
      </trkpt>
      <trkpt lat="58.446226017549634" lon="-3.093285039067268">
        <ele>18.879999999999999</ele>
        <time>2023-08-19T15:57:40Z</time>
      </trkpt>
      <trkpt lat="58.445902979001403" lon="-3.091154024004936">
        <ele>25.129999999999999</ele>
        <time>2023-08-19T15:57:55Z</time>
      </trkpt>
      <trkpt lat="58.445804994553328" lon="-3.090474000200629">
        <ele>26.57</ele>
        <time>2023-08-19T15:58:00Z</time>
      </trkpt>
      <trkpt lat="58.445557979866862" lon="-3.088806001469493">
        <ele>28.98</ele>
        <time>2023-08-19T15:58:12Z</time>
      </trkpt>
      <trkpt lat="58.445525960996747" lon="-3.088553035631776">
        <ele>28.98</ele>
        <time>2023-08-19T15:58:14Z</time>
      </trkpt>
      <trkpt lat="58.445507017895579" lon="-3.088402999565005">
        <ele>29.460000000000001</ele>
        <time>2023-08-19T15:58:15Z</time>
      </trkpt>
      <trkpt lat="58.445433005690575" lon="-3.088444992899895">
        <ele>29.460000000000001</ele>
        <time>2023-08-19T15:58:16Z</time>
      </trkpt>
      <trkpt lat="58.445382965728641" lon="-3.088472988456488">
        <ele>29.460000000000001</ele>
        <time>2023-08-19T15:58:17Z</time>
      </trkpt>
      <trkpt lat="58.445322029292583" lon="-3.088507018983364">
        <ele>29.940000000000001</ele>
        <time>2023-08-19T15:58:18Z</time>
      </trkpt>
      <trkpt lat="58.44525002874434" lon="-3.088548006489873">
        <ele>29.940000000000001</ele>
        <time>2023-08-19T15:58:19Z</time>
      </trkpt>
      <trkpt lat="58.444416029378772" lon="-3.089018985629082">
        <ele>28.98</ele>
        <time>2023-08-19T15:58:29Z</time>
      </trkpt>
      <trkpt lat="58.444163985550404" lon="-3.089161980897188">
        <ele>27.050000000000001</ele>
        <time>2023-08-19T15:58:33Z</time>
      </trkpt>
      <trkpt lat="58.444128027185798" lon="-3.089182013645768">
        <ele>26.57</ele>
        <time>2023-08-19T15:58:34Z</time>
      </trkpt>
      <trkpt lat="58.444099025800824" lon="-3.089198023080826">
        <ele>26.09</ele>
        <time>2023-08-19T15:58:35Z</time>
      </trkpt>
      <trkpt lat="58.444031970575452" lon="-3.089096015319228">
        <ele>25.609999999999999</ele>
        <time>2023-08-19T15:58:36Z</time>
      </trkpt>
      <trkpt lat="58.444032976403832" lon="-3.089053016155958">
        <ele>25.129999999999999</ele>
        <time>2023-08-19T15:58:37Z</time>
      </trkpt>
      <trkpt lat="58.444034988060594" lon="-3.088995013386011">
        <ele>24.649999999999999</ele>
        <time>2023-08-19T15:58:38Z</time>
      </trkpt>
      <trkpt lat="58.444039011374116" lon="-3.088903985917568">
        <ele>24.170000000000002</ele>
        <time>2023-08-19T15:58:39Z</time>
      </trkpt>
      <trkpt lat="58.444043034687638" lon="-3.088786974549294">
        <ele>24.170000000000002</ele>
        <time>2023-08-19T15:58:40Z</time>
      </trkpt>
      <trkpt lat="58.44404898583889" lon="-3.088643979281187">
        <ele>23.690000000000001</ele>
        <time>2023-08-19T15:58:41Z</time>
      </trkpt>
      <trkpt lat="58.444104976952076" lon="-3.087152000516653">
        <ele>23.690000000000001</ele>
        <time>2023-08-19T15:58:50Z</time>
      </trkpt>
      <trkpt lat="58.444197010248899" lon="-3.084701970219612">
        <ele>26.09</ele>
        <time>2023-08-19T15:59:05Z</time>
      </trkpt>
      <trkpt lat="58.444207990542054" lon="-3.084400976076722">
        <ele>26.09</ele>
        <time>2023-08-19T15:59:07Z</time>
      </trkpt>
      <trkpt lat="58.444214025512338" lon="-3.084243983030319">
        <ele>26.57</ele>
        <time>2023-08-19T15:59:08Z</time>
      </trkpt>
      <trkpt lat="58.444261969998479" lon="-3.082973035052419">
        <ele>27.050000000000001</ele>
        <time>2023-08-19T15:59:16Z</time>
      </trkpt>
      <trkpt lat="58.444360960274935" lon="-3.080710005015135">
        <ele>27.050000000000001</ele>
        <time>2023-08-19T15:59:30Z</time>
      </trkpt>
      <trkpt lat="58.444432960823178" lon="-3.078276989981532">
        <ele>28.5</ele>
        <time>2023-08-19T15:59:46Z</time>
      </trkpt>
      <trkpt lat="58.444496998563409" lon="-3.076628018170595">
        <ele>30.420000000000002</ele>
        <time>2023-08-19T15:59:58Z</time>
      </trkpt>
      <trkpt lat="58.444502027705312" lon="-3.076502960175276">
        <ele>30.420000000000002</ele>
        <time>2023-08-19T15:59:59Z</time>
      </trkpt>
      <trkpt lat="58.444567993283272" lon="-3.074818029999733">
        <ele>30.899999999999999</ele>
        <time>2023-08-19T16:00:10Z</time>
      </trkpt>
      <trkpt lat="58.444614009931684" lon="-3.073580022901297">
        <ele>29.940000000000001</ele>
        <time>2023-08-19T16:00:20Z</time>
      </trkpt>
      <trkpt lat="58.444708976894617" lon="-3.07148102670908">
        <ele>29.940000000000001</ele>
        <time>2023-08-19T16:00:34Z</time>
      </trkpt>
      <trkpt lat="58.444872004911304" lon="-3.069306006655097">
        <ele>28.5</ele>
        <time>2023-08-19T16:00:47Z</time>
      </trkpt>
      <trkpt lat="58.445071997120976" lon="-3.067346988245845">
        <ele>26.09</ele>
        <time>2023-08-19T16:00:59Z</time>
      </trkpt>
      <trkpt lat="58.445249022915959" lon="-3.065936984494329">
        <ele>25.129999999999999</ele>
        <time>2023-08-19T16:01:08Z</time>
      </trkpt>
      <trkpt lat="58.445333009585738" lon="-3.065791977569461">
        <ele>25.129999999999999</ele>
        <time>2023-08-19T16:01:09Z</time>
      </trkpt>
      <trkpt lat="58.446043040603399" lon="-3.064576014876366">
        <ele>21.77</ele>
        <time>2023-08-19T16:01:20Z</time>
      </trkpt>
      <trkpt lat="58.446780983358622" lon="-3.063320992514491">
        <ele>18.879999999999999</ele>
        <time>2023-08-19T16:01:31Z</time>
      </trkpt>
      <trkpt lat="58.447126988321543" lon="-3.06273995898664">
        <ele>17.440000000000001</ele>
        <time>2023-08-19T16:01:36Z</time>
      </trkpt>
      <trkpt lat="58.447193037718534" lon="-3.062627976760268">
        <ele>17.440000000000001</ele>
        <time>2023-08-19T16:01:37Z</time>
      </trkpt>
      <trkpt lat="58.447656976059079" lon="-3.061847034841776">
        <ele>15.52</ele>
        <time>2023-08-19T16:01:46Z</time>
      </trkpt>
      <trkpt lat="58.448379999026656" lon="-3.060649009421468">
        <ele>16.960000000000001</ele>
        <time>2023-08-19T16:01:58Z</time>
      </trkpt>
      <trkpt lat="58.44856096431613" lon="-3.060340974479914">
        <ele>17.920000000000002</ele>
        <time>2023-08-19T16:02:01Z</time>
      </trkpt>
      <trkpt lat="58.449328998103738" lon="-3.059026021510363">
        <ele>19.84</ele>
        <time>2023-08-19T16:02:14Z</time>
      </trkpt>
      <trkpt lat="58.450159979984164" lon="-3.057604031637311">
        <ele>21.289999999999999</ele>
        <time>2023-08-19T16:02:28Z</time>
      </trkpt>
      <trkpt lat="58.450919967144728" lon="-3.05631497874856">
        <ele>22.73</ele>
        <time>2023-08-19T16:02:40Z</time>
      </trkpt>
      <trkpt lat="58.450993979349732" lon="-3.056247001513839">
        <ele>23.210000000000001</ele>
        <time>2023-08-19T16:02:41Z</time>
      </trkpt>
      <trkpt lat="58.451076960191131" lon="-3.056221017614007">
        <ele>23.210000000000001</ele>
        <time>2023-08-19T16:02:42Z</time>
      </trkpt>
      <trkpt lat="58.451161030679941" lon="-3.056194027885795">
        <ele>23.210000000000001</ele>
        <time>2023-08-19T16:02:43Z</time>
      </trkpt>
      <trkpt lat="58.451246023178101" lon="-3.056167960166931">
        <ele>23.690000000000001</ele>
        <time>2023-08-19T16:02:44Z</time>
      </trkpt>
      <trkpt lat="58.451329004019499" lon="-3.056140970438719">
        <ele>23.690000000000001</ele>
        <time>2023-08-19T16:02:45Z</time>
      </trkpt>
      <trkpt lat="58.452240033075213" lon="-3.056554030627012">
        <ele>24.649999999999999</ele>
        <time>2023-08-19T16:02:56Z</time>
      </trkpt>
      <trkpt lat="58.453291039913893" lon="-3.05749699473381">
        <ele>25.609999999999999</ele>
        <time>2023-08-19T16:03:11Z</time>
      </trkpt>
      <trkpt lat="58.453582981601357" lon="-3.057802012190223">
        <ele>26.09</ele>
        <time>2023-08-19T16:03:15Z</time>
      </trkpt>
      <trkpt lat="58.453638972714543" lon="-3.057919023558497">
        <ele>26.57</ele>
        <time>2023-08-19T16:03:16Z</time>
      </trkpt>
      <trkpt lat="58.454223023727536" lon="-3.059140015393496">
        <ele>28.02</ele>
        <time>2023-08-19T16:03:27Z</time>
      </trkpt>
      <trkpt lat="58.454251019284129" lon="-3.059198018163443">
        <ele>27.530000000000001</ele>
        <time>2023-08-19T16:03:28Z</time>
      </trkpt>
      <trkpt lat="58.454225035384297" lon="-3.059290973469615">
        <ele>27.530000000000001</ele>
        <time>2023-08-19T16:03:29Z</time>
      </trkpt>
      <trkpt lat="58.454186981543899" lon="-3.059363979846239">
        <ele>27.530000000000001</ele>
        <time>2023-08-19T16:03:30Z</time>
      </trkpt>
      <trkpt lat="58.454143982380629" lon="-3.059446038678289">
        <ele>27.530000000000001</ele>
        <time>2023-08-19T16:03:31Z</time>
      </trkpt>
      <trkpt lat="58.453654982149601" lon="-3.06039503775537">
        <ele>26.57</ele>
        <time>2023-08-19T16:03:40Z</time>
      </trkpt>
      <trkpt lat="58.453622041270137" lon="-3.060496039688587">
        <ele>26.57</ele>
        <time>2023-08-19T16:03:41Z</time>
      </trkpt>
      <trkpt lat="58.453638972714543" lon="-3.060634005814791">
        <ele>26.09</ele>
        <time>2023-08-19T16:03:42Z</time>
      </trkpt>
      <trkpt lat="58.453671997413039" lon="-3.060772977769375">
        <ele>26.09</ele>
        <time>2023-08-19T16:03:43Z</time>
      </trkpt>
      <trkpt lat="58.453710973262787" lon="-3.060938017442823">
        <ele>26.09</ele>
        <time>2023-08-19T16:03:44Z</time>
      </trkpt>
      <trkpt lat="58.453754978254437" lon="-3.061123006045818">
        <ele>26.09</ele>
        <time>2023-08-19T16:03:45Z</time>
      </trkpt>
      <trkpt lat="58.454238027334213" lon="-3.063144972547889">
        <ele>23.690000000000001</ele>
        <time>2023-08-19T16:03:53Z</time>
      </trkpt>
      <trkpt lat="58.455444015562534" lon="-3.068200014531612">
        <ele>21.289999999999999</ele>
        <time>2023-08-19T16:04:09Z</time>
      </trkpt>
      <trkpt lat="58.456829041242599" lon="-3.074000962078571">
        <ele>26.57</ele>
        <time>2023-08-19T16:04:27Z</time>
      </trkpt>
      <trkpt lat="58.458075011149049" lon="-3.079223977401853">
        <ele>35.229999999999997</ele>
        <time>2023-08-19T16:04:44Z</time>
      </trkpt>
      <trkpt lat="58.458319008350372" lon="-3.080242965370417">
        <ele>38.109999999999999</ele>
        <time>2023-08-19T16:04:50Z</time>
      </trkpt>
      <trkpt lat="58.458339963108301" lon="-3.080331981182098">
        <ele>38.109999999999999</ele>
        <time>2023-08-19T16:04:51Z</time>
      </trkpt>
      <trkpt lat="58.458437025547028" lon="-3.080457039177418">
        <ele>38.590000000000003</ele>
        <time>2023-08-19T16:04:52Z</time>
      </trkpt>
      <trkpt lat="58.458480024710298" lon="-3.080418985337019">
        <ele>39.07</ele>
        <time>2023-08-19T16:04:53Z</time>
      </trkpt>
      <trkpt lat="58.458537021651864" lon="-3.080369029194117">
        <ele>39.07</ele>
        <time>2023-08-19T16:04:54Z</time>
      </trkpt>
      <trkpt lat="58.458609022200108" lon="-3.080304991453886">
        <ele>39.549999999999997</ele>
        <time>2023-08-19T16:04:55Z</time>
      </trkpt>
      <trkpt lat="58.458694014698267" lon="-3.080229973420501">
        <ele>39.549999999999997</ele>
        <time>2023-08-19T16:04:56Z</time>
      </trkpt>
      <trkpt lat="58.459676038473845" lon="-3.079362027347088">
        <ele>38.590000000000003</ele>
        <time>2023-08-19T16:05:04Z</time>
      </trkpt>
      <trkpt lat="58.460595030337572" lon="-3.078548982739449">
        <ele>36.670000000000002</ele>
        <time>2023-08-19T16:05:12Z</time>
      </trkpt>
      <trkpt lat="58.461798001080751" lon="-3.077484983950853">
        <ele>35.710000000000001</ele>
        <time>2023-08-19T16:05:24Z</time>
      </trkpt>
      <trkpt lat="58.462651027366519" lon="-3.076730025932193">
        <ele>34.740000000000002</ele>
        <time>2023-08-19T16:05:36Z</time>
      </trkpt>
      <trkpt lat="58.463921975344419" lon="-3.075606012716889">
        <ele>32.82</ele>
        <time>2023-08-19T16:05:48Z</time>
      </trkpt>
      <trkpt lat="58.464730996638536" lon="-3.074890030547977">
        <ele>33.780000000000001</ele>
        <time>2023-08-19T16:05:58Z</time>
      </trkpt>
      <trkpt lat="58.465314963832498" lon="-3.074373034760356">
        <ele>36.189999999999998</ele>
        <time>2023-08-19T16:06:08Z</time>
      </trkpt>
      <trkpt lat="58.466443000361323" lon="-3.073376007378101">
        <ele>39.549999999999997</ele>
        <time>2023-08-19T16:06:17Z</time>
      </trkpt>
      <trkpt lat="58.467413038015366" lon="-3.072518035769463">
        <ele>42.439999999999998</ele>
        <time>2023-08-19T16:06:25Z</time>
      </trkpt>
      <trkpt lat="58.469036025926471" lon="-3.071082970127463">
        <ele>46.759999999999998</ele>
        <time>2023-08-19T16:06:39Z</time>
      </trkpt>
      <trkpt lat="58.470422979444265" lon="-3.069855021312833">
        <ele>50.130000000000003</ele>
        <time>2023-08-19T16:06:51Z</time>
      </trkpt>
      <trkpt lat="58.47096998244524" lon="-3.069371972233057">
        <ele>51.090000000000003</ele>
        <time>2023-08-19T16:06:58Z</time>
      </trkpt>
      <trkpt lat="58.471917975693941" lon="-3.068533027544618">
        <ele>51.090000000000003</ele>
        <time>2023-08-19T16:07:09Z</time>
      </trkpt>
      <trkpt lat="58.47251895815134" lon="-3.067960040643811">
        <ele>49.649999999999999</ele>
        <time>2023-08-19T16:07:18Z</time>
      </trkpt>
      <trkpt lat="58.472553994506598" lon="-3.067855015397072">
        <ele>49.159999999999997</ele>
        <time>2023-08-19T16:07:19Z</time>
      </trkpt>
      <trkpt lat="58.472590958699584" lon="-3.067741021513939">
        <ele>49.159999999999997</ele>
        <time>2023-08-19T16:07:20Z</time>
      </trkpt>
      <trkpt lat="58.473061015829444" lon="-3.066297993063927">
        <ele>47.240000000000002</ele>
        <time>2023-08-19T16:07:29Z</time>
      </trkpt>
      <trkpt lat="58.473640037700534" lon="-3.06452102959156">
        <ele>44.359999999999999</ele>
        <time>2023-08-19T16:07:39Z</time>
      </trkpt>
      <trkpt lat="58.47395502962172" lon="-3.06355400942266">
        <ele>42.920000000000002</ele>
        <time>2023-08-19T16:07:49Z</time>
      </trkpt>
      <trkpt lat="58.474101964384317" lon="-3.063102979212999">
        <ele>41.950000000000003</ele>
        <time>2023-08-19T16:07:54Z</time>
      </trkpt>
      <trkpt lat="58.474107999354601" lon="-3.063083030283451">
        <ele>41.950000000000003</ele>
        <time>2023-08-19T16:08:08Z</time>
      </trkpt>
      <trkpt lat="58.474119985476136" lon="-3.063047993928194">
        <ele>41.469999999999999</ele>
        <time>2023-08-19T16:08:21Z</time>
      </trkpt>
      <trkpt lat="58.474134989082813" lon="-3.063001977279782">
        <ele>41.950000000000003</ele>
        <time>2023-08-19T16:08:22Z</time>
      </trkpt>
      <trkpt lat="58.474156027659774" lon="-3.062936011701822">
        <ele>42.439999999999998</ele>
        <time>2023-08-19T16:08:23Z</time>
      </trkpt>
      <trkpt lat="58.474183017387986" lon="-3.062854958698154">
        <ele>42.439999999999998</ele>
        <time>2023-08-19T16:08:24Z</time>
      </trkpt>
      <trkpt lat="58.474209001287818" lon="-3.062772983685136">
        <ele>42.439999999999998</ele>
        <time>2023-08-19T16:08:25Z</time>
      </trkpt>
      <trkpt lat="58.474552994593978" lon="-3.061718037351966">
        <ele>41.950000000000003</ele>
        <time>2023-08-19T16:08:33Z</time>
      </trkpt>
      <trkpt lat="58.475169986486435" lon="-3.059822972863913">
        <ele>40.030000000000001</ele>
        <time>2023-08-19T16:08:45Z</time>
      </trkpt>
      <trkpt lat="58.475698968395591" lon="-3.058200990781188">
        <ele>39.07</ele>
        <time>2023-08-19T16:08:57Z</time>
      </trkpt>
      <trkpt lat="58.475914970040321" lon="-3.057536976411939">
        <ele>37.149999999999999</ele>
        <time>2023-08-19T16:09:07Z</time>
      </trkpt>
      <trkpt lat="58.475935002788901" lon="-3.05747696198523">
        <ele>36.189999999999998</ele>
        <time>2023-08-19T16:09:17Z</time>
      </trkpt>
      <trkpt lat="58.47595302388072" lon="-3.057421976700425">
        <ele>35.710000000000001</ele>
        <time>2023-08-19T16:10:01Z</time>
      </trkpt>
      <trkpt lat="58.475984958931804" lon="-3.057321980595589">
        <ele>34.740000000000002</ele>
        <time>2023-08-19T16:10:05Z</time>
      </trkpt>
      <trkpt lat="58.475988982245326" lon="-3.057308988645673">
        <ele>34.740000000000002</ele>
        <time>2023-08-19T16:10:06Z</time>
      </trkpt>
      <trkpt lat="58.475911030545831" lon="-3.057356011122465">
        <ele>32.82</ele>
        <time>2023-08-19T16:10:15Z</time>
      </trkpt>
      <trkpt lat="58.475894015282393" lon="-3.057392975315452">
        <ele>32.82</ele>
        <time>2023-08-19T16:10:29Z</time>
      </trkpt>
      <trkpt lat="58.475935002788901" lon="-3.057475034147501">
        <ele>32.82</ele>
        <time>2023-08-19T16:10:40Z</time>
      </trkpt>
      <trkpt lat="58.475921005010605" lon="-3.0575199611485">
        <ele>32.340000000000003</ele>
        <time>2023-08-19T16:10:41Z</time>
      </trkpt>
      <trkpt lat="58.475899966433644" lon="-3.05758299306035">
        <ele>32.340000000000003</ele>
        <time>2023-08-19T16:10:42Z</time>
      </trkpt>
      <trkpt lat="58.475873982533813" lon="-3.057663040235639">
        <ele>32.340000000000003</ele>
        <time>2023-08-19T16:10:43Z</time>
      </trkpt>
      <trkpt lat="58.475838024169207" lon="-3.057773010805249">
        <ele>32.340000000000003</ele>
        <time>2023-08-19T16:10:44Z</time>
      </trkpt>
      <trkpt lat="58.475423958152533" lon="-3.05904395878315">
        <ele>32.340000000000003</ele>
        <time>2023-08-19T16:10:51Z</time>
      </trkpt>
      <trkpt lat="58.474318971857429" lon="-3.062435025349259">
        <ele>35.710000000000001</ele>
        <time>2023-08-19T16:11:07Z</time>
      </trkpt>
      <trkpt lat="58.473044000566006" lon="-3.066349038854241">
        <ele>40.030000000000001</ele>
        <time>2023-08-19T16:11:23Z</time>
      </trkpt>
      <trkpt lat="58.47290301695466" lon="-3.066781964153051">
        <ele>41.469999999999999</ele>
        <time>2023-08-19T16:11:27Z</time>
      </trkpt>
      <trkpt lat="58.472849959507585" lon="-3.066944992169738">
        <ele>42.439999999999998</ele>
        <time>2023-08-19T16:11:30Z</time>
      </trkpt>
      <trkpt lat="58.472820958122611" lon="-3.0670350138098">
        <ele>42.439999999999998</ele>
        <time>2023-08-19T16:11:31Z</time>
      </trkpt>
      <trkpt lat="58.472529016435146" lon="-3.067930033430457">
        <ele>44.359999999999999</ele>
        <time>2023-08-19T16:11:39Z</time>
      </trkpt>
      <trkpt lat="58.47247201949358" lon="-3.06804302148521">
        <ele>44.840000000000003</ele>
        <time>2023-08-19T16:11:40Z</time>
      </trkpt>
      <trkpt lat="58.472393983975053" lon="-3.068112004548311">
        <ele>44.840000000000003</ele>
        <time>2023-08-19T16:11:41Z</time>
      </trkpt>
      <trkpt lat="58.472303040325642" lon="-3.068192973732948">
        <ele>44.840000000000003</ele>
        <time>2023-08-19T16:11:42Z</time>
      </trkpt>
      <trkpt lat="58.472200026735663" lon="-3.068284001201391">
        <ele>45.32</ele>
        <time>2023-08-19T16:11:43Z</time>
      </trkpt>
      <trkpt lat="58.471041982993484" lon="-3.069308018311858">
        <ele>46.280000000000001</ele>
        <time>2023-08-19T16:11:52Z</time>
      </trkpt>
      <trkpt lat="58.469221014529467" lon="-3.070919020101428">
        <ele>42.920000000000002</ele>
        <time>2023-08-19T16:12:06Z</time>
      </trkpt>
      <trkpt lat="58.466990003362298" lon="-3.072892036288977">
        <ele>37.149999999999999</ele>
        <time>2023-08-19T16:12:22Z</time>
      </trkpt>
      <trkpt lat="58.464350961148739" lon="-3.075225977227092">
        <ele>29.460000000000001</ele>
        <time>2023-08-19T16:12:39Z</time>
      </trkpt>
      <trkpt lat="58.461652994155884" lon="-3.077612975612283">
        <ele>29.460000000000001</ele>
        <time>2023-08-19T16:12:57Z</time>
      </trkpt>
      <trkpt lat="58.459189971908927" lon="-3.079792018979788">
        <ele>33.780000000000001</ele>
        <time>2023-08-19T16:13:13Z</time>
      </trkpt>
      <trkpt lat="58.458537021651864" lon="-3.080369029194117">
        <ele>36.189999999999998</ele>
        <time>2023-08-19T16:13:19Z</time>
      </trkpt>
      <trkpt lat="58.458477007225156" lon="-3.080422002822161">
        <ele>36.189999999999998</ele>
        <time>2023-08-19T16:13:20Z</time>
      </trkpt>
      <trkpt lat="58.458425039425492" lon="-3.080468019470573">
        <ele>36.670000000000002</ele>
        <time>2023-08-19T16:13:21Z</time>
      </trkpt>
      <trkpt lat="58.458349015563726" lon="-3.080371962860227">
        <ele>36.670000000000002</ele>
        <time>2023-08-19T16:13:22Z</time>
      </trkpt>
      <trkpt lat="58.458321020007133" lon="-3.080254029482603">
        <ele>37.149999999999999</ele>
        <time>2023-08-19T16:13:23Z</time>
      </trkpt>
      <trkpt lat="58.458286989480257" lon="-3.080109022557735">
        <ele>37.630000000000003</ele>
        <time>2023-08-19T16:13:24Z</time>
      </trkpt>
      <trkpt lat="58.458246001973748" lon="-3.079939037561417">
        <ele>37.630000000000003</ele>
        <time>2023-08-19T16:13:25Z</time>
      </trkpt>
      <trkpt lat="58.457847023382783" lon="-3.078268021345139">
        <ele>34.740000000000002</ele>
        <time>2023-08-19T16:13:32Z</time>
      </trkpt>
      <trkpt lat="58.457007994875312" lon="-3.07474996894598">
        <ele>28.02</ele>
        <time>2023-08-19T16:13:43Z</time>
      </trkpt>
      <trkpt lat="58.456066958606243" lon="-3.070808965712786">
        <ele>23.210000000000001</ele>
        <time>2023-08-19T16:13:56Z</time>
      </trkpt>
      <trkpt lat="58.455104967579246" lon="-3.06677701883018">
        <ele>18.879999999999999</ele>
        <time>2023-08-19T16:14:09Z</time>
      </trkpt>
      <trkpt lat="58.454148005694151" lon="-3.062768960371614">
        <ele>20.32</ele>
        <time>2023-08-19T16:14:23Z</time>
      </trkpt>
      <trkpt lat="58.453694963827729" lon="-3.060870040208101">
        <ele>23.210000000000001</ele>
        <time>2023-08-19T16:14:32Z</time>
      </trkpt>
      <trkpt lat="58.453659005463123" lon="-3.060721009969711">
        <ele>23.690000000000001</ele>
        <time>2023-08-19T16:14:33Z</time>
      </trkpt>
      <trkpt lat="58.45363100990653" lon="-3.060585977509618">
        <ele>23.690000000000001</ele>
        <time>2023-08-19T16:14:34Z</time>
      </trkpt>
      <trkpt lat="58.453637966886163" lon="-3.060448011383414">
        <ele>24.170000000000002</ele>
        <time>2023-08-19T16:14:35Z</time>
      </trkpt>
      <trkpt lat="58.453661017119884" lon="-3.060379028320313">
        <ele>24.170000000000002</ele>
        <time>2023-08-19T16:14:36Z</time>
      </trkpt>
      <trkpt lat="58.453735029324889" lon="-3.060237038880587">
        <ele>24.649999999999999</ele>
        <time>2023-08-19T16:14:37Z</time>
      </trkpt>
      <trkpt lat="58.45380200073123" lon="-3.060106029734016">
        <ele>24.649999999999999</ele>
        <time>2023-08-19T16:14:38Z</time>
      </trkpt>
      <trkpt lat="58.453871989622712" lon="-3.059972003102303">
        <ele>24.649999999999999</ele>
        <time>2023-08-19T16:14:39Z</time>
      </trkpt>
      <trkpt lat="58.454243978485465" lon="-3.059253003448248">
        <ele>25.129999999999999</ele>
        <time>2023-08-19T16:14:47Z</time>
      </trkpt>
      <trkpt lat="58.454261999577284" lon="-3.059219978749752">
        <ele>25.129999999999999</ele>
        <time>2023-08-19T16:14:48Z</time>
      </trkpt>
      <trkpt lat="58.454240961000323" lon="-3.059177985414863">
        <ele>25.609999999999999</ele>
        <time>2023-08-19T16:14:49Z</time>
      </trkpt>
      <trkpt lat="58.454207014292479" lon="-3.059105984866619">
        <ele>25.609999999999999</ele>
        <time>2023-08-19T16:14:50Z</time>
      </trkpt>
      <trkpt lat="58.454160997644067" lon="-3.059010012075305">
        <ele>25.609999999999999</ele>
        <time>2023-08-19T16:14:51Z</time>
      </trkpt>
      <trkpt lat="58.454107018187642" lon="-3.058896018192172">
        <ele>25.609999999999999</ele>
        <time>2023-08-19T16:14:52Z</time>
      </trkpt>
      <trkpt lat="58.453483991324902" lon="-3.057675026357174">
        <ele>25.129999999999999</ele>
        <time>2023-08-19T16:15:01Z</time>
      </trkpt>
      <trkpt lat="58.453387012705207" lon="-3.057586010545492">
        <ele>24.649999999999999</ele>
        <time>2023-08-19T16:15:02Z</time>
      </trkpt>
      <trkpt lat="58.453295985236764" lon="-3.057502023875713">
        <ele>24.649999999999999</ele>
        <time>2023-08-19T16:15:03Z</time>
      </trkpt>
      <trkpt lat="58.452537003904581" lon="-3.056810013949871">
        <ele>25.129999999999999</ele>
        <time>2023-08-19T16:15:13Z</time>
      </trkpt>
      <trkpt lat="58.451531007885933" lon="-3.056144993752241">
        <ele>23.210000000000001</ele>
        <time>2023-08-19T16:15:26Z</time>
      </trkpt>
      <trkpt lat="58.451062962412834" lon="-3.056225040927529">
        <ele>22.73</ele>
        <time>2023-08-19T16:15:32Z</time>
      </trkpt>
      <trkpt lat="58.450985010713339" lon="-3.056250018998981">
        <ele>22.73</ele>
        <time>2023-08-19T16:15:33Z</time>
      </trkpt>
      <trkpt lat="58.45092399045825" lon="-3.056309027597308">
        <ele>22.73</ele>
        <time>2023-08-19T16:15:34Z</time>
      </trkpt>
      <trkpt lat="58.450860036537051" lon="-3.056405000388622">
        <ele>22.73</ele>
        <time>2023-08-19T16:15:35Z</time>
      </trkpt>
      <trkpt lat="58.45079499296844" lon="-3.056501979008317">
        <ele>22.73</ele>
        <time>2023-08-19T16:15:36Z</time>
      </trkpt>
      <trkpt lat="58.450731039047241" lon="-3.056599041447043">
        <ele>22.73</ele>
        <time>2023-08-19T16:15:37Z</time>
      </trkpt>
      <trkpt lat="58.450657026842237" lon="-3.056710017845035">
        <ele>22.73</ele>
        <time>2023-08-19T16:15:38Z</time>
      </trkpt>
      <trkpt lat="58.449874995276332" lon="-3.058091020211577">
        <ele>21.289999999999999</ele>
        <time>2023-08-19T16:15:51Z</time>
      </trkpt>
      <trkpt lat="58.448957009240985" lon="-3.059662040323019">
        <ele>19.84</ele>
        <time>2023-08-19T16:16:05Z</time>
      </trkpt>
      <trkpt lat="58.44810901209712" lon="-3.061100961640477">
        <ele>18.399999999999999</ele>
        <time>2023-08-19T16:16:19Z</time>
      </trkpt>
      <trkpt lat="58.447304014116526" lon="-3.062441982328892">
        <ele>16.960000000000001</ele>
        <time>2023-08-19T16:16:32Z</time>
      </trkpt>
      <trkpt lat="58.446610998362303" lon="-3.063607988879085">
        <ele>19.359999999999999</ele>
        <time>2023-08-19T16:16:44Z</time>
      </trkpt>
      <trkpt lat="58.445760989561677" lon="-3.06505998596549">
        <ele>21.77</ele>
        <time>2023-08-19T16:16:57Z</time>
      </trkpt>
      <trkpt lat="58.445228990167379" lon="-3.066031029447913">
        <ele>25.609999999999999</ele>
        <time>2023-08-19T16:17:06Z</time>
      </trkpt>
      <trkpt lat="58.445195965468884" lon="-3.066182993352413">
        <ele>26.09</ele>
        <time>2023-08-19T16:17:07Z</time>
      </trkpt>
      <trkpt lat="58.445175010710955" lon="-3.066336968913674">
        <ele>26.09</ele>
        <time>2023-08-19T16:17:08Z</time>
      </trkpt>
      <trkpt lat="58.445157995447516" lon="-3.066503014415503">
        <ele>26.09</ele>
        <time>2023-08-19T16:17:09Z</time>
      </trkpt>
      <trkpt lat="58.445139974355698" lon="-3.066672999411821">
        <ele>26.57</ele>
        <time>2023-08-19T16:17:10Z</time>
      </trkpt>
      <trkpt lat="58.444976024329662" lon="-3.068282995373011">
        <ele>28.02</ele>
        <time>2023-08-19T16:17:20Z</time>
      </trkpt>
      <trkpt lat="58.444961020722985" lon="-3.068434037268162">
        <ele>28.02</ele>
        <time>2023-08-19T16:17:21Z</time>
      </trkpt>
      <trkpt lat="58.444764968007803" lon="-3.070313008502126">
        <ele>29.460000000000001</ele>
        <time>2023-08-19T16:17:33Z</time>
      </trkpt>
      <trkpt lat="58.444656003266573" lon="-3.072577966377139">
        <ele>31.379999999999999</ele>
        <time>2023-08-19T16:17:47Z</time>
      </trkpt>
      <trkpt lat="58.444549972191453" lon="-3.075271993875504">
        <ele>28.02</ele>
        <time>2023-08-19T16:18:04Z</time>
      </trkpt>
      <trkpt lat="58.444472020491958" lon="-3.077292032539845">
        <ele>27.530000000000001</ele>
        <time>2023-08-19T16:18:17Z</time>
      </trkpt>
      <trkpt lat="58.444406976923347" lon="-3.07906799018383">
        <ele>25.609999999999999</ele>
        <time>2023-08-19T16:18:28Z</time>
      </trkpt>
      <trkpt lat="58.444380993023515" lon="-3.080102987587452">
        <ele>24.649999999999999</ele>
        <time>2023-08-19T16:18:35Z</time>
      </trkpt>
      <trkpt lat="58.444322990253568" lon="-3.081646012142301">
        <ele>26.09</ele>
        <time>2023-08-19T16:18:46Z</time>
      </trkpt>
      <trkpt lat="58.444218970835209" lon="-3.084114985540509">
        <ele>25.609999999999999</ele>
        <time>2023-08-19T16:19:02Z</time>
      </trkpt>
      <trkpt lat="58.444194998592138" lon="-3.084749998524785">
        <ele>25.609999999999999</ele>
        <time>2023-08-19T16:19:06Z</time>
      </trkpt>
      <trkpt lat="58.444188963621855" lon="-3.084907997399569">
        <ele>25.129999999999999</ele>
        <time>2023-08-19T16:19:07Z</time>
      </trkpt>
      <trkpt lat="58.444085028022528" lon="-3.087688023224473">
        <ele>24.170000000000002</ele>
        <time>2023-08-19T16:19:24Z</time>
      </trkpt>
      <trkpt lat="58.444032976403832" lon="-3.0890560336411">
        <ele>23.210000000000001</ele>
        <time>2023-08-19T16:19:35Z</time>
      </trkpt>
      <trkpt lat="58.443972039967775" lon="-3.089268011972308">
        <ele>23.210000000000001</ele>
        <time>2023-08-19T16:19:42Z</time>
      </trkpt>
      <trkpt lat="58.443923005834222" lon="-3.089292990043759">
        <ele>22.73</ele>
        <time>2023-08-19T16:19:43Z</time>
      </trkpt>
      <trkpt lat="58.443561997264624" lon="-3.089482001960278">
        <ele>20.809999999999999</ele>
        <time>2023-08-19T16:19:49Z</time>
      </trkpt>
      <trkpt lat="58.44353299587965" lon="-3.089497005566955">
        <ele>20.32</ele>
        <time>2023-08-19T16:19:50Z</time>
      </trkpt>
      <trkpt lat="58.443483961746097" lon="-3.089616028591991">
        <ele>19.84</ele>
        <time>2023-08-19T16:19:51Z</time>
      </trkpt>
      <trkpt lat="58.443497037515044" lon="-3.089696997776628">
        <ele>19.359999999999999</ele>
        <time>2023-08-19T16:19:52Z</time>
      </trkpt>
      <trkpt lat="58.443512041121721" lon="-3.089791964739561">
        <ele>18.879999999999999</ele>
        <time>2023-08-19T16:19:53Z</time>
      </trkpt>
      <trkpt lat="58.443528972566128" lon="-3.089900007471442">
        <ele>18.399999999999999</ele>
        <time>2023-08-19T16:19:54Z</time>
      </trkpt>
      <trkpt lat="58.443765006959438" lon="-3.091545039787889">
        <ele>15.039999999999999</ele>
        <time>2023-08-19T16:20:06Z</time>
      </trkpt>
      <trkpt lat="58.444014033302665" lon="-3.093179007992148">
        <ele>13.6</ele>
        <time>2023-08-19T16:20:18Z</time>
      </trkpt>
      <trkpt lat="58.444046974182129" lon="-3.093312028795481">
        <ele>13.119999999999999</ele>
        <time>2023-08-19T16:20:19Z</time>
      </trkpt>
      <trkpt lat="58.44409198500216" lon="-3.093437002971768">
        <ele>13.119999999999999</ele>
        <time>2023-08-19T16:20:20Z</time>
      </trkpt>
      <trkpt lat="58.444135989993811" lon="-3.093562982976437">
        <ele>12.630000000000001</ele>
        <time>2023-08-19T16:20:21Z</time>
      </trkpt>
      <trkpt lat="58.444181000813842" lon="-3.093688040971756">
        <ele>12.15</ele>
        <time>2023-08-19T16:20:22Z</time>
      </trkpt>
      <trkpt lat="58.444222994148731" lon="-3.09380698017776">
        <ele>12.15</ele>
        <time>2023-08-19T16:20:23Z</time>
      </trkpt>
      <trkpt lat="58.444325001910329" lon="-3.094094982370734">
        <ele>11.19</ele>
        <time>2023-08-19T16:20:26Z</time>
      </trkpt>
      <trkpt lat="58.444346962496638" lon="-3.094159020110965">
        <ele>11.19</ele>
        <time>2023-08-19T16:20:27Z</time>
      </trkpt>
      <trkpt lat="58.444365989416838" lon="-3.094209982082248">
        <ele>10.710000000000001</ele>
        <time>2023-08-19T16:20:28Z</time>
      </trkpt>
      <trkpt lat="58.444366995245218" lon="-3.094329005107284">
        <ele>10.23</ele>
        <time>2023-08-19T16:20:29Z</time>
      </trkpt>
      <trkpt lat="58.444333970546722" lon="-3.094395976513624">
        <ele>9.75</ele>
        <time>2023-08-19T16:20:30Z</time>
      </trkpt>
      <trkpt lat="58.444296000525355" lon="-3.094473006203771">
        <ele>9.27</ele>
        <time>2023-08-19T16:20:31Z</time>
      </trkpt>
      <trkpt lat="58.444254007190466" lon="-3.09455699287355">
        <ele>9.27</ele>
        <time>2023-08-19T16:20:32Z</time>
      </trkpt>
      <trkpt lat="58.444216959178448" lon="-3.094631005078554">
        <ele>8.789999999999999</ele>
        <time>2023-08-19T16:20:33Z</time>
      </trkpt>
      <trkpt lat="58.444190975278616" lon="-3.094681967049837">
        <ele>8.310000000000001</ele>
        <time>2023-08-19T16:20:34Z</time>
      </trkpt>
      <trkpt lat="58.4441779833287" lon="-3.094708034768701">
        <ele>7.83</ele>
        <time>2023-08-19T16:20:35Z</time>
      </trkpt>
      <trkpt lat="58.444061977788806" lon="-3.094763020053506">
        <ele>6.39</ele>
        <time>2023-08-19T16:20:43Z</time>
      </trkpt>
      <trkpt lat="58.444038005545735" lon="-3.094723960384727">
        <ele>5.91</ele>
        <time>2023-08-19T16:20:44Z</time>
      </trkpt>
      <trkpt lat="58.443997018039227" lon="-3.094661012291908">
        <ele>4.94</ele>
        <time>2023-08-19T16:20:45Z</time>
      </trkpt>
      <trkpt lat="58.443944966420531" lon="-3.09457995928824">
        <ele>4.46</ele>
        <time>2023-08-19T16:20:46Z</time>
      </trkpt>
      <trkpt lat="58.443885035812855" lon="-3.094484992325306">
        <ele>3.98</ele>
        <time>2023-08-19T16:20:47Z</time>
      </trkpt>
      <trkpt lat="58.443747991696" lon="-3.09425599873066">
        <ele>3.02</ele>
        <time>2023-08-19T16:20:49Z</time>
      </trkpt>
      <trkpt lat="58.443696023896337" lon="-3.094135969877243">
        <ele>2.54</ele>
        <time>2023-08-19T16:20:50Z</time>
      </trkpt>
      <trkpt lat="58.44329402782023" lon="-3.093269029632211">
        <ele>1.1</ele>
        <time>2023-08-19T16:21:00Z</time>
      </trkpt>
      <trkpt lat="58.443151032552123" lon="-3.092980021610856">
        <ele>0.62</ele>
        <time>2023-08-19T16:21:10Z</time>
      </trkpt>
      <trkpt lat="58.442985992878675" lon="-3.092639967799187">
        <ele>0.62</ele>
        <time>2023-08-19T16:21:14Z</time>
      </trkpt>
      <trkpt lat="58.44286403618753" lon="-3.092389013618231">
        <ele>0.14</ele>
        <time>2023-08-19T16:21:17Z</time>
      </trkpt>
      <trkpt lat="58.442782983183861" lon="-3.092245012521744">
        <ele>0.14</ele>
        <time>2023-08-19T16:21:19Z</time>
      </trkpt>
      <trkpt lat="58.442660020664334" lon="-3.092040996998549">
        <ele>-0.34</ele>
        <time>2023-08-19T16:21:22Z</time>
      </trkpt>
      <trkpt lat="58.44265297986567" lon="-3.092029010877013">
        <ele>0.14</ele>
        <time>2023-08-19T16:21:23Z</time>
      </trkpt>
      <trkpt lat="58.44264904037118" lon="-3.092035967856646">
        <ele>0.62</ele>
        <time>2023-08-19T16:21:24Z</time>
      </trkpt>
      <trkpt lat="58.442628001794219" lon="-3.092068992555141">
        <ele>0.62</ele>
        <time>2023-08-19T16:21:25Z</time>
      </trkpt>
      <trkpt lat="58.442607969045639" lon="-3.092100005596876">
        <ele>0.62</ele>
        <time>2023-08-19T16:21:26Z</time>
      </trkpt>
      <trkpt lat="58.44258701428771" lon="-3.092133030295372">
        <ele>0.62</ele>
        <time>2023-08-19T16:21:27Z</time>
      </trkpt>
      <trkpt lat="58.442569999024272" lon="-3.092160020023584">
        <ele>0.62</ele>
        <time>2023-08-19T16:21:28Z</time>
      </trkpt>
      <trkpt lat="58.442553989589214" lon="-3.092186003923416">
        <ele>0.14</ele>
        <time>2023-08-19T16:21:29Z</time>
      </trkpt>
      <trkpt lat="58.442538985982537" lon="-3.092208970338106">
        <ele>0.14</ele>
        <time>2023-08-19T16:21:30Z</time>
      </trkpt>
      <trkpt lat="58.442525994032621" lon="-3.092229003086686">
        <ele>0.14</ele>
        <time>2023-08-19T16:21:31Z</time>
      </trkpt>
      <trkpt lat="58.442508978769183" lon="-3.092256998643279">
        <ele>0.14</ele>
        <time>2023-08-19T16:21:32Z</time>
      </trkpt>
      <trkpt lat="58.442487018182874" lon="-3.092292034998536">
        <ele>0.14</ele>
        <time>2023-08-19T16:21:33Z</time>
      </trkpt>
      <trkpt lat="58.442461034283042" lon="-3.092333022505045">
        <ele>-0.34</ele>
        <time>2023-08-19T16:21:34Z</time>
      </trkpt>
      <trkpt lat="58.442432032898068" lon="-3.092379039153457">
        <ele>-0.82</ele>
        <time>2023-08-19T16:21:35Z</time>
      </trkpt>
      <trkpt lat="58.442303035408258" lon="-3.092597974464297">
        <ele>-1.3</ele>
        <time>2023-08-19T16:21:39Z</time>
      </trkpt>
      <trkpt lat="58.442270010709763" lon="-3.092656983062625">
        <ele>-1.3</ele>
        <time>2023-08-19T16:21:40Z</time>
      </trkpt>
      <trkpt lat="58.442237991839647" lon="-3.09271196834743">
        <ele>-1.3</ele>
        <time>2023-08-19T16:21:41Z</time>
      </trkpt>
      <trkpt lat="58.442207984626293" lon="-3.092765025794506">
        <ele>-1.3</ele>
        <time>2023-08-19T16:21:42Z</time>
      </trkpt>
      <trkpt lat="58.442180994898081" lon="-3.092811964452267">
        <ele>-1.79</ele>
        <time>2023-08-19T16:21:43Z</time>
      </trkpt>
      <trkpt lat="58.442159034311771" lon="-3.092850018292666">
        <ele>-1.79</ele>
        <time>2023-08-19T16:21:44Z</time>
      </trkpt>
      <trkpt lat="58.442139001563191" lon="-3.092885976657271">
        <ele>-1.79</ele>
        <time>2023-08-19T16:21:45Z</time>
      </trkpt>
      <trkpt lat="58.442121986299753" lon="-3.092913972213864">
        <ele>-2.27</ele>
        <time>2023-08-19T16:21:46Z</time>
      </trkpt>
      <trkpt lat="58.442121986299753" lon="-3.092913972213864">
        <ele>-2.27</ele>
        <time>2023-08-19T16:21:59Z</time>
      </trkpt>
      <trkpt lat="58.442080998793244" lon="-3.092983961105347">
        <ele>-1.79</ele>
        <time>2023-08-19T16:22:13Z</time>
      </trkpt>
      <trkpt lat="58.44204998575151" lon="-3.093037018552423">
        <ele>-1.79</ele>
        <time>2023-08-19T16:22:14Z</time>
      </trkpt>
      <trkpt lat="58.442012015730143" lon="-3.093099966645241">
        <ele>-1.3</ele>
        <time>2023-08-19T16:22:15Z</time>
      </trkpt>
      <trkpt lat="58.441972034052014" lon="-3.093168027698994">
        <ele>-1.3</ele>
        <time>2023-08-19T16:22:16Z</time>
      </trkpt>
      <trkpt lat="58.441939009353518" lon="-3.09322401881218">
        <ele>-1.79</ele>
        <time>2023-08-19T16:22:17Z</time>
      </trkpt>
      <trkpt lat="58.441861979663372" lon="-3.093355027958751">
        <ele>-3.23</ele>
        <time>2023-08-19T16:22:25Z</time>
      </trkpt>
      <trkpt lat="58.441852005198598" lon="-3.093371959403157">
        <ele>-4.19</ele>
        <time>2023-08-19T16:22:35Z</time>
      </trkpt>
      <trkpt lat="58.44185896217823" lon="-3.093359973281622">
        <ele>-5.15</ele>
        <time>2023-08-19T16:22:36Z</time>
      </trkpt>
      <trkpt lat="58.44198795966804" lon="-3.093141037970781">
        <ele>-7.07</ele>
        <time>2023-08-19T16:22:39Z</time>
      </trkpt>
      <trkpt lat="58.442033976316452" lon="-3.093063002452254">
        <ele>-8.029999999999999</ele>
        <time>2023-08-19T16:22:40Z</time>
      </trkpt>
      <trkpt lat="58.442080998793244" lon="-3.092983039095998">
        <ele>-9</ele>
        <time>2023-08-19T16:22:41Z</time>
      </trkpt>
      <trkpt lat="58.442121986299753" lon="-3.092913972213864">
        <ele>-9.960000000000001</ele>
        <time>2023-08-19T16:22:42Z</time>
      </trkpt>
      <trkpt lat="58.44215702265501" lon="-3.092854041606188">
        <ele>-10.44</ele>
        <time>2023-08-19T16:22:43Z</time>
      </trkpt>
      <trkpt lat="58.442192981019616" lon="-3.092792015522718">
        <ele>-11.4</ele>
        <time>2023-08-19T16:22:44Z</time>
      </trkpt>
      <trkpt lat="58.442223994061351" lon="-3.092737030237913">
        <ele>-11.880000000000001</ele>
        <time>2023-08-19T16:22:45Z</time>
      </trkpt>
      <trkpt lat="58.442289959639311" lon="-3.0926220305264">
        <ele>-15.24</ele>
        <time>2023-08-19T16:22:53Z</time>
      </trkpt>
      <trkpt lat="58.442289959639311" lon="-3.0926220305264">
        <ele>-16.690000000000001</ele>
        <time>2023-08-19T16:23:30Z</time>
      </trkpt>
      <trkpt lat="58.442289959639311" lon="-3.0926220305264">
        <ele>-16.690000000000001</ele>
        <time>2023-08-19T16:24:09Z</time>
      </trkpt>
      <trkpt lat="58.442289959639311" lon="-3.0926220305264">
        <ele>-17.170000000000002</ele>
        <time>2023-08-19T16:24:49Z</time>
      </trkpt>
      <trkpt lat="58.442289959639311" lon="-3.0926220305264">
        <ele>-16.690000000000001</ele>
        <time>2023-08-19T16:25:35Z</time>
      </trkpt>
      <trkpt lat="58.442289959639311" lon="-3.0926220305264">
        <ele>-16.210000000000001</ele>
        <time>2023-08-19T16:26:23Z</time>
      </trkpt>
      <trkpt lat="58.442309992387891" lon="-3.092585988342762">
        <ele>-15.720000000000001</ele>
        <time>2023-08-19T16:27:01Z</time>
      </trkpt>
      <trkpt lat="58.442595982924104" lon="-3.092119032517076">
        <ele>-5.63</ele>
        <time>2023-08-19T16:27:11Z</time>
      </trkpt>
      <trkpt lat="58.442628001794219" lon="-3.092067986726761">
        <ele>-5.63</ele>
        <time>2023-08-19T16:27:12Z</time>
      </trkpt>
      <trkpt lat="58.44264904037118" lon="-3.092035967856646">
        <ele>-5.63</ele>
        <time>2023-08-19T16:27:13Z</time>
      </trkpt>
      <trkpt lat="58.442678963765502" lon="-3.092073015868664">
        <ele>-6.11</ele>
        <time>2023-08-19T16:27:14Z</time>
      </trkpt>
      <trkpt lat="58.442697990685701" lon="-3.092104028910399">
        <ele>-6.11</ele>
        <time>2023-08-19T16:27:15Z</time>
      </trkpt>
      <trkpt lat="58.442717017605901" lon="-3.092134958133102">
        <ele>-6.11</ele>
        <time>2023-08-19T16:27:16Z</time>
      </trkpt>
      <trkpt lat="58.44303896650672" lon="-3.092750022187829">
        <ele>-7.07</ele>
        <time>2023-08-19T16:27:26Z</time>
      </trkpt>
      <trkpt lat="58.443069979548454" lon="-3.092812970280647">
        <ele>-7.07</ele>
        <time>2023-08-19T16:27:27Z</time>
      </trkpt>
      <trkpt lat="58.443095963448286" lon="-3.092867033556104">
        <ele>-7.07</ele>
        <time>2023-08-19T16:27:28Z</time>
      </trkpt>
      <trkpt lat="58.443143991753459" lon="-3.0930520221591">
        <ele>-7.07</ele>
        <time>2023-08-19T16:27:29Z</time>
      </trkpt>
      <trkpt lat="58.443120019510388" lon="-3.093086974695325">
        <ele>-6.59</ele>
        <time>2023-08-19T16:27:30Z</time>
      </trkpt>
      <trkpt lat="58.443090012297034" lon="-3.093130979686976">
        <ele>-6.59</ele>
        <time>2023-08-19T16:27:31Z</time>
      </trkpt>
      <trkpt lat="58.443053970113397" lon="-3.093184037134051">
        <ele>-7.07</ele>
        <time>2023-08-19T16:27:32Z</time>
      </trkpt>
      <trkpt lat="58.443012982606888" lon="-3.093243967741728">
        <ele>-7.07</ele>
        <time>2023-08-19T16:27:33Z</time>
      </trkpt>
      <trkpt lat="58.442669995129108" lon="-3.093684017658234">
        <ele>-8.029999999999999</ele>
        <time>2023-08-19T16:27:41Z</time>
      </trkpt>
      <trkpt lat="58.442646022886038" lon="-3.093646969646215">
        <ele>-8.51</ele>
        <time>2023-08-19T16:27:42Z</time>
      </trkpt>
      <trkpt lat="58.442620038986206" lon="-3.093606987968087">
        <ele>-8.51</ele>
        <time>2023-08-19T16:27:43Z</time>
      </trkpt>
      <trkpt lat="58.442591959610581" lon="-3.093563988804817">
        <ele>-8.51</ele>
        <time>2023-08-19T16:27:44Z</time>
      </trkpt>
      <trkpt lat="58.442563964053988" lon="-3.093519983813167">
        <ele>-8.51</ele>
        <time>2023-08-19T16:27:45Z</time>
      </trkpt>
      <trkpt lat="58.442493975162506" lon="-3.093413030728698">
        <ele>-8.029999999999999</ele>
        <time>2023-08-19T16:27:48Z</time>
      </trkpt>
      <trkpt lat="58.442477965727448" lon="-3.093388974666596">
        <ele>-8.029999999999999</ele>
        <time>2023-08-19T16:27:54Z</time>
      </trkpt>
      <trkpt lat="58.442460028454661" lon="-3.093361984938383">
        <ele>-8.029999999999999</ele>
        <time>2023-08-19T16:27:55Z</time>
      </trkpt>
      <trkpt lat="58.442449970170856" lon="-3.093216978013516">
        <ele>-8.029999999999999</ele>
        <time>2023-08-19T16:27:56Z</time>
      </trkpt>
      <trkpt lat="58.442465979605913" lon="-3.093179007992148">
        <ele>-8.029999999999999</ele>
        <time>2023-08-19T16:27:57Z</time>
      </trkpt>
      <trkpt lat="58.442478971555829" lon="-3.093147994950414">
        <ele>-8.029999999999999</ele>
        <time>2023-08-19T16:27:58Z</time>
      </trkpt>
      <trkpt lat="58.442488024011254" lon="-3.093127040192485">
        <ele>-7.55</ele>
        <time>2023-08-19T16:27:59Z</time>
      </trkpt>
      <trkpt lat="58.442495986819267" lon="-3.093108013272286">
        <ele>-7.55</ele>
        <time>2023-08-19T16:28:00Z</time>
      </trkpt>
      <trkpt lat="58.44250101596117" lon="-3.09309602715075">
        <ele>-7.55</ele>
        <time>2023-08-19T16:28:01Z</time>
      </trkpt>
      <trkpt lat="58.442575028166175" lon="-3.093152018263936">
        <ele>-7.07</ele>
        <time>2023-08-19T16:28:15Z</time>
      </trkpt>
      <trkpt lat="58.442532029002905" lon="-3.093080017715693">
        <ele>13.119999999999999</ele>
        <time>2023-08-19T16:29:00Z</time>
      </trkpt>
      <trkpt lat="58.442532029002905" lon="-3.093077000230551">
        <ele>14.08</ele>
        <time>2023-08-19T16:29:04Z</time>
      </trkpt>
      <trkpt lat="58.442637976258993" lon="-3.092772988602519">
        <ele>13.119999999999999</ele>
        <time>2023-08-19T16:29:12Z</time>
      </trkpt>
      <trkpt lat="58.442646022886038" lon="-3.0927549675107">
        <ele>12.630000000000001</ele>
        <time>2023-08-19T16:29:13Z</time>
      </trkpt>
      <trkpt lat="58.442648034542799" lon="-3.092750022187829">
        <ele>11.67</ele>
        <time>2023-08-19T16:29:14Z</time>
      </trkpt>
      <trkpt lat="58.442710982635617" lon="-3.092857981100678">
        <ele>10.23</ele>
        <time>2023-08-19T16:29:16Z</time>
      </trkpt>
      <trkpt lat="58.442667983472347" lon="-3.092704005539417">
        <ele>9.75</ele>
        <time>2023-08-19T16:29:27Z</time>
      </trkpt>
    </trkseg>
  </trk>

</gpx>